<?xml version="1.0" encoding="UTF-8" standalone="no" ?>
<gpx xmlns="http://www.topografix.com/GPX/1/1" xmlns:xsi="http://www.w3.org/2001/XMLSchema-instance" xsi:schemaLocation="http://www.topografix.com/GPX/1/1 http://www.topografix.com/GPX/1/1/gpx.xsd" version="1.1" creator="VisuGPX - https://www.visugpx.com">
  <metadata>
    <name>Cadaques J2</name>
    <desc><![CDATA[File with points/tracks from Locus Map/4.25.1]]></desc>
  </metadata>
  <trk>
    <name><![CDATA[2024-09-17 Valentine J2]]></name>
    <extensions>
      <line xmlns="http://www.topografix.com/GPX/gpx_style/0/2">
        <color>0000FF</color>
        <opacity>0.70</opacity>
        <width>6.0</width>
      </line>
    </extensions>
    <trkseg>
      <trkpt lat="43.07092" lon="0.15739">
        <ele>555.43</ele>
        <time>2024-09-17T07:23:35.000Z</time>
      </trkpt>
      <trkpt lat="43.07102" lon="0.15747">
        <ele>555.48</ele>
        <time>2024-09-17T07:23:49.000Z</time>
      </trkpt>
      <trkpt lat="43.07118" lon="0.1576">
        <ele>555.97</ele>
        <time>2024-09-17T07:23:54.000Z</time>
      </trkpt>
      <trkpt lat="43.07135" lon="0.15779">
        <ele>556.33</ele>
        <time>2024-09-17T07:23:59.000Z</time>
      </trkpt>
      <trkpt lat="43.07151" lon="0.15799">
        <ele>556.48</ele>
        <time>2024-09-17T07:24:04.000Z</time>
      </trkpt>
      <trkpt lat="43.07164" lon="0.15818">
        <ele>556.5</ele>
        <time>2024-09-17T07:24:09.000Z</time>
      </trkpt>
      <trkpt lat="43.07176" lon="0.15833">
        <ele>556.53</ele>
        <time>2024-09-17T07:24:14.000Z</time>
      </trkpt>
      <trkpt lat="43.07185" lon="0.15845">
        <ele>556.63</ele>
        <time>2024-09-17T07:24:19.000Z</time>
      </trkpt>
      <trkpt lat="43.07194" lon="0.15856">
        <ele>556.81</ele>
        <time>2024-09-17T07:24:24.000Z</time>
      </trkpt>
      <trkpt lat="43.07203" lon="0.15862">
        <ele>557.17</ele>
        <time>2024-09-17T07:24:31.000Z</time>
      </trkpt>
      <trkpt lat="43.07204" lon="0.15876">
        <ele>557.28</ele>
        <time>2024-09-17T07:24:40.000Z</time>
      </trkpt>
      <trkpt lat="43.07208" lon="0.15887">
        <ele>556.89</ele>
        <time>2024-09-17T07:24:47.000Z</time>
      </trkpt>
      <trkpt lat="43.07213" lon="0.15898">
        <ele>555.96</ele>
        <time>2024-09-17T07:24:56.000Z</time>
      </trkpt>
      <trkpt lat="43.0723" lon="0.15912">
        <ele>553.92</ele>
        <time>2024-09-17T07:25:09.000Z</time>
      </trkpt>
      <trkpt lat="43.07261" lon="0.15924">
        <ele>552.93</ele>
        <time>2024-09-17T07:25:14.000Z</time>
      </trkpt>
      <trkpt lat="43.07275" lon="0.15928">
        <ele>552.13</ele>
        <time>2024-09-17T07:25:19.000Z</time>
      </trkpt>
      <trkpt lat="43.07285" lon="0.15924">
        <ele>551.52</ele>
        <time>2024-09-17T07:25:24.000Z</time>
      </trkpt>
      <trkpt lat="43.07295" lon="0.1592">
        <ele>551.18</ele>
        <time>2024-09-17T07:25:29.000Z</time>
      </trkpt>
      <trkpt lat="43.07307" lon="0.15916">
        <ele>551.12</ele>
        <time>2024-09-17T07:25:34.000Z</time>
      </trkpt>
      <trkpt lat="43.07315" lon="0.1591">
        <ele>551.33</ele>
        <time>2024-09-17T07:25:39.000Z</time>
      </trkpt>
      <trkpt lat="43.07324" lon="0.15905">
        <ele>551.78</ele>
        <time>2024-09-17T07:25:44.000Z</time>
      </trkpt>
      <trkpt lat="43.07333" lon="0.15902">
        <ele>552.41</ele>
        <time>2024-09-17T07:25:49.000Z</time>
      </trkpt>
      <trkpt lat="43.07345" lon="0.159">
        <ele>553.2</ele>
        <time>2024-09-17T07:25:54.000Z</time>
      </trkpt>
      <trkpt lat="43.07359" lon="0.15898">
        <ele>554.1</ele>
        <time>2024-09-17T07:25:59.000Z</time>
      </trkpt>
      <trkpt lat="43.07368" lon="0.15899">
        <ele>555.04</ele>
        <time>2024-09-17T07:26:04.000Z</time>
      </trkpt>
      <trkpt lat="43.07378" lon="0.15901">
        <ele>556.4</ele>
        <time>2024-09-17T07:26:11.000Z</time>
      </trkpt>
      <trkpt lat="43.07388" lon="0.15903">
        <ele>557.79</ele>
        <time>2024-09-17T07:26:18.000Z</time>
      </trkpt>
      <trkpt lat="43.07397" lon="0.15908">
        <ele>559.01</ele>
        <time>2024-09-17T07:26:24.000Z</time>
      </trkpt>
      <trkpt lat="43.07405" lon="0.15913">
        <ele>560.28</ele>
        <time>2024-09-17T07:26:30.000Z</time>
      </trkpt>
      <trkpt lat="43.07414" lon="0.15917">
        <ele>561.56</ele>
        <time>2024-09-17T07:26:36.000Z</time>
      </trkpt>
      <trkpt lat="43.07424" lon="0.15921">
        <ele>562.85</ele>
        <time>2024-09-17T07:26:42.000Z</time>
      </trkpt>
      <trkpt lat="43.07434" lon="0.15924">
        <ele>564.55</ele>
        <time>2024-09-17T07:26:50.000Z</time>
      </trkpt>
      <trkpt lat="43.07444" lon="0.15925">
        <ele>565.99</ele>
        <time>2024-09-17T07:26:57.000Z</time>
      </trkpt>
      <trkpt lat="43.07453" lon="0.15926">
        <ele>567.18</ele>
        <time>2024-09-17T07:27:03.000Z</time>
      </trkpt>
      <trkpt lat="43.07464" lon="0.15927">
        <ele>568.54</ele>
        <time>2024-09-17T07:27:10.000Z</time>
      </trkpt>
      <trkpt lat="43.07474" lon="0.15928">
        <ele>569.48</ele>
        <time>2024-09-17T07:27:15.000Z</time>
      </trkpt>
      <trkpt lat="43.07485" lon="0.15927">
        <ele>570.84</ele>
        <time>2024-09-17T07:27:22.000Z</time>
      </trkpt>
      <trkpt lat="43.07494" lon="0.15923">
        <ele>572.23</ele>
        <time>2024-09-17T07:27:29.000Z</time>
      </trkpt>
      <trkpt lat="43.07502" lon="0.15916">
        <ele>573.26</ele>
        <time>2024-09-17T07:27:34.000Z</time>
      </trkpt>
      <trkpt lat="43.07511" lon="0.1591">
        <ele>574.46</ele>
        <time>2024-09-17T07:27:40.000Z</time>
      </trkpt>
      <trkpt lat="43.0752" lon="0.15901">
        <ele>575.6</ele>
        <time>2024-09-17T07:27:46.000Z</time>
      </trkpt>
      <trkpt lat="43.07528" lon="0.15893">
        <ele>576.74</ele>
        <time>2024-09-17T07:27:52.000Z</time>
      </trkpt>
      <trkpt lat="43.07535" lon="0.15883">
        <ele>577.86</ele>
        <time>2024-09-17T07:27:58.000Z</time>
      </trkpt>
      <trkpt lat="43.07543" lon="0.15876">
        <ele>578.74</ele>
        <time>2024-09-17T07:28:03.000Z</time>
      </trkpt>
      <trkpt lat="43.07553" lon="0.15871">
        <ele>579.72</ele>
        <time>2024-09-17T07:28:09.000Z</time>
      </trkpt>
      <trkpt lat="43.07562" lon="0.15871">
        <ele>580.6</ele>
        <time>2024-09-17T07:28:15.000Z</time>
      </trkpt>
      <trkpt lat="43.07572" lon="0.15871">
        <ele>581.52</ele>
        <time>2024-09-17T07:28:22.000Z</time>
      </trkpt>
      <trkpt lat="43.07581" lon="0.15876">
        <ele>582.23</ele>
        <time>2024-09-17T07:28:28.000Z</time>
      </trkpt>
      <trkpt lat="43.0759" lon="0.15885">
        <ele>582.99</ele>
        <time>2024-09-17T07:28:35.000Z</time>
      </trkpt>
      <trkpt lat="43.07596" lon="0.15895">
        <ele>583.59</ele>
        <time>2024-09-17T07:28:41.000Z</time>
      </trkpt>
      <trkpt lat="43.07598" lon="0.15907">
        <ele>584.06</ele>
        <time>2024-09-17T07:28:46.000Z</time>
      </trkpt>
      <trkpt lat="43.07598" lon="0.15921">
        <ele>584.6</ele>
        <time>2024-09-17T07:28:52.000Z</time>
      </trkpt>
      <trkpt lat="43.07597" lon="0.15933">
        <ele>585.09</ele>
        <time>2024-09-17T07:28:58.000Z</time>
      </trkpt>
      <trkpt lat="43.07596" lon="0.15946">
        <ele>585.56</ele>
        <time>2024-09-17T07:29:04.000Z</time>
      </trkpt>
      <trkpt lat="43.07597" lon="0.15959">
        <ele>585.99</ele>
        <time>2024-09-17T07:29:10.000Z</time>
      </trkpt>
      <trkpt lat="43.076" lon="0.15972">
        <ele>586.4</ele>
        <time>2024-09-17T07:29:16.000Z</time>
      </trkpt>
      <trkpt lat="43.07605" lon="0.15983">
        <ele>586.79</ele>
        <time>2024-09-17T07:29:22.000Z</time>
      </trkpt>
      <trkpt lat="43.07611" lon="0.15995">
        <ele>587.19</ele>
        <time>2024-09-17T07:29:28.000Z</time>
      </trkpt>
      <trkpt lat="43.07618" lon="0.16003">
        <ele>587.56</ele>
        <time>2024-09-17T07:29:34.000Z</time>
      </trkpt>
      <trkpt lat="43.07625" lon="0.16012">
        <ele>587.91</ele>
        <time>2024-09-17T07:29:40.000Z</time>
      </trkpt>
      <trkpt lat="43.07634" lon="0.16018">
        <ele>588.24</ele>
        <time>2024-09-17T07:29:46.000Z</time>
      </trkpt>
      <trkpt lat="43.07642" lon="0.16022">
        <ele>588.51</ele>
        <time>2024-09-17T07:29:51.000Z</time>
      </trkpt>
      <trkpt lat="43.07651" lon="0.16026">
        <ele>588.79</ele>
        <time>2024-09-17T07:29:56.000Z</time>
      </trkpt>
      <trkpt lat="43.0766" lon="0.16029">
        <ele>589.08</ele>
        <time>2024-09-17T07:30:01.000Z</time>
      </trkpt>
      <trkpt lat="43.0767" lon="0.16032">
        <ele>589.44</ele>
        <time>2024-09-17T07:30:07.000Z</time>
      </trkpt>
      <trkpt lat="43.07679" lon="0.16034">
        <ele>589.75</ele>
        <time>2024-09-17T07:30:12.000Z</time>
      </trkpt>
      <trkpt lat="43.07689" lon="0.16037">
        <ele>590.12</ele>
        <time>2024-09-17T07:30:18.000Z</time>
      </trkpt>
      <trkpt lat="43.07699" lon="0.1604">
        <ele>590.44</ele>
        <time>2024-09-17T07:30:23.000Z</time>
      </trkpt>
      <trkpt lat="43.07708" lon="0.16045">
        <ele>590.81</ele>
        <time>2024-09-17T07:30:29.000Z</time>
      </trkpt>
      <trkpt lat="43.07716" lon="0.16052">
        <ele>591.19</ele>
        <time>2024-09-17T07:30:35.000Z</time>
      </trkpt>
      <trkpt lat="43.07721" lon="0.16064">
        <ele>591.64</ele>
        <time>2024-09-17T07:30:42.000Z</time>
      </trkpt>
      <trkpt lat="43.07725" lon="0.16076">
        <ele>592.02</ele>
        <time>2024-09-17T07:30:48.000Z</time>
      </trkpt>
      <trkpt lat="43.0773" lon="0.16086">
        <ele>592.37</ele>
        <time>2024-09-17T07:30:54.000Z</time>
      </trkpt>
      <trkpt lat="43.07736" lon="0.16098">
        <ele>592.77</ele>
        <time>2024-09-17T07:31:01.000Z</time>
      </trkpt>
      <trkpt lat="43.07743" lon="0.16107">
        <ele>593.09</ele>
        <time>2024-09-17T07:31:07.000Z</time>
      </trkpt>
      <trkpt lat="43.07751" lon="0.16114">
        <ele>593.4</ele>
        <time>2024-09-17T07:31:13.000Z</time>
      </trkpt>
      <trkpt lat="43.07759" lon="0.1612">
        <ele>593.7</ele>
        <time>2024-09-17T07:31:19.000Z</time>
      </trkpt>
      <trkpt lat="43.07769" lon="0.16127">
        <ele>594.03</ele>
        <time>2024-09-17T07:31:26.000Z</time>
      </trkpt>
      <trkpt lat="43.07778" lon="0.16133">
        <ele>594.26</ele>
        <time>2024-09-17T07:31:31.000Z</time>
      </trkpt>
      <trkpt lat="43.07788" lon="0.16138">
        <ele>594.5</ele>
        <time>2024-09-17T07:31:36.000Z</time>
      </trkpt>
      <trkpt lat="43.07798" lon="0.16144">
        <ele>594.81</ele>
        <time>2024-09-17T07:31:42.000Z</time>
      </trkpt>
      <trkpt lat="43.07807" lon="0.16149">
        <ele>595.14</ele>
        <time>2024-09-17T07:31:48.000Z</time>
      </trkpt>
      <trkpt lat="43.07816" lon="0.16155">
        <ele>595.48</ele>
        <time>2024-09-17T07:31:54.000Z</time>
      </trkpt>
      <trkpt lat="43.07826" lon="0.16162">
        <ele>595.83</ele>
        <time>2024-09-17T07:32:00.000Z</time>
      </trkpt>
      <trkpt lat="43.07834" lon="0.1617">
        <ele>596.17</ele>
        <time>2024-09-17T07:32:06.000Z</time>
      </trkpt>
      <trkpt lat="43.07842" lon="0.16177">
        <ele>596.5</ele>
        <time>2024-09-17T07:32:12.000Z</time>
      </trkpt>
      <trkpt lat="43.07851" lon="0.16187">
        <ele>596.82</ele>
        <time>2024-09-17T07:32:17.999Z</time>
      </trkpt>
      <trkpt lat="43.07858" lon="0.16196">
        <ele>597.13</ele>
        <time>2024-09-17T07:32:23.999Z</time>
      </trkpt>
      <trkpt lat="43.07866" lon="0.16205">
        <ele>597.42</ele>
        <time>2024-09-17T07:32:29.999Z</time>
      </trkpt>
      <trkpt lat="43.07872" lon="0.16214">
        <ele>597.71</ele>
        <time>2024-09-17T07:32:35.999Z</time>
      </trkpt>
      <trkpt lat="43.07879" lon="0.16222">
        <ele>597.95</ele>
        <time>2024-09-17T07:32:40.999Z</time>
      </trkpt>
      <trkpt lat="43.07887" lon="0.16231">
        <ele>598.23</ele>
        <time>2024-09-17T07:32:46.999Z</time>
      </trkpt>
      <trkpt lat="43.07894" lon="0.16239">
        <ele>598.47</ele>
        <time>2024-09-17T07:32:51.999Z</time>
      </trkpt>
      <trkpt lat="43.079" lon="0.16249">
        <ele>598.84</ele>
        <time>2024-09-17T07:32:58.999Z</time>
      </trkpt>
      <trkpt lat="43.07908" lon="0.16258">
        <ele>599.18</ele>
        <time>2024-09-17T07:33:04.999Z</time>
      </trkpt>
      <trkpt lat="43.07916" lon="0.16266">
        <ele>599.51</ele>
        <time>2024-09-17T07:33:10.999Z</time>
      </trkpt>
      <trkpt lat="43.07925" lon="0.16273">
        <ele>599.82</ele>
        <time>2024-09-17T07:33:16.999Z</time>
      </trkpt>
      <trkpt lat="43.07935" lon="0.16279">
        <ele>600.13</ele>
        <time>2024-09-17T07:33:22.999Z</time>
      </trkpt>
      <trkpt lat="43.07944" lon="0.16286">
        <ele>600.42</ele>
        <time>2024-09-17T07:33:28.999Z</time>
      </trkpt>
      <trkpt lat="43.07952" lon="0.16293">
        <ele>600.71</ele>
        <time>2024-09-17T07:33:34.999Z</time>
      </trkpt>
      <trkpt lat="43.07961" lon="0.163">
        <ele>600.99</ele>
        <time>2024-09-17T07:33:40.999Z</time>
      </trkpt>
      <trkpt lat="43.07969" lon="0.16307">
        <ele>601.26</ele>
        <time>2024-09-17T07:33:46.999Z</time>
      </trkpt>
      <trkpt lat="43.07977" lon="0.16314">
        <ele>601.52</ele>
        <time>2024-09-17T07:33:52.999Z</time>
      </trkpt>
      <trkpt lat="43.07986" lon="0.1632">
        <ele>601.78</ele>
        <time>2024-09-17T07:33:58.999Z</time>
      </trkpt>
      <trkpt lat="43.07993" lon="0.16329">
        <ele>602.09</ele>
        <time>2024-09-17T07:34:05.999Z</time>
      </trkpt>
      <trkpt lat="43.08002" lon="0.16338">
        <ele>602.3</ele>
        <time>2024-09-17T07:34:10.999Z</time>
      </trkpt>
      <trkpt lat="43.08011" lon="0.16348">
        <ele>602.52</ele>
        <time>2024-09-17T07:34:15.999Z</time>
      </trkpt>
      <trkpt lat="43.08018" lon="0.16358">
        <ele>602.8</ele>
        <time>2024-09-17T07:34:21.999Z</time>
      </trkpt>
      <trkpt lat="43.08024" lon="0.16368">
        <ele>603.18</ele>
        <time>2024-09-17T07:34:29.999Z</time>
      </trkpt>
      <trkpt lat="43.0803" lon="0.16379">
        <ele>603.5</ele>
        <time>2024-09-17T07:34:35.999Z</time>
      </trkpt>
      <trkpt lat="43.08036" lon="0.1639">
        <ele>603.9</ele>
        <time>2024-09-17T07:34:42.999Z</time>
      </trkpt>
      <trkpt lat="43.08044" lon="0.16398">
        <ele>604.24</ele>
        <time>2024-09-17T07:34:47.999Z</time>
      </trkpt>
      <trkpt lat="43.08051" lon="0.16408">
        <ele>604.72</ele>
        <time>2024-09-17T07:34:53.999Z</time>
      </trkpt>
      <trkpt lat="43.08059" lon="0.16416">
        <ele>605.28</ele>
        <time>2024-09-17T07:34:59.999Z</time>
      </trkpt>
      <trkpt lat="43.08066" lon="0.16425">
        <ele>605.89</ele>
        <time>2024-09-17T07:35:05.999Z</time>
      </trkpt>
      <trkpt lat="43.08075" lon="0.16433">
        <ele>606.65</ele>
        <time>2024-09-17T07:35:12.999Z</time>
      </trkpt>
      <trkpt lat="43.08083" lon="0.16439">
        <ele>607.32</ele>
        <time>2024-09-17T07:35:18.999Z</time>
      </trkpt>
      <trkpt lat="43.08092" lon="0.16441">
        <ele>608.29</ele>
        <time>2024-09-17T07:35:26.999Z</time>
      </trkpt>
      <trkpt lat="43.08102" lon="0.16441">
        <ele>608.95</ele>
        <time>2024-09-17T07:35:31.999Z</time>
      </trkpt>
      <trkpt lat="43.08113" lon="0.16439">
        <ele>609.64</ele>
        <time>2024-09-17T07:35:36.999Z</time>
      </trkpt>
      <trkpt lat="43.08124" lon="0.16435">
        <ele>610.35</ele>
        <time>2024-09-17T07:35:41.999Z</time>
      </trkpt>
      <trkpt lat="43.08133" lon="0.16432">
        <ele>611.04</ele>
        <time>2024-09-17T07:35:46.999Z</time>
      </trkpt>
      <trkpt lat="43.08143" lon="0.1643">
        <ele>611.73</ele>
        <time>2024-09-17T07:35:51.999Z</time>
      </trkpt>
      <trkpt lat="43.08151" lon="0.16427">
        <ele>612.57</ele>
        <time>2024-09-17T07:35:57.999Z</time>
      </trkpt>
      <trkpt lat="43.08161" lon="0.16423">
        <ele>613.63</ele>
        <time>2024-09-17T07:36:04.999Z</time>
      </trkpt>
      <trkpt lat="43.08171" lon="0.16422">
        <ele>614.41</ele>
        <time>2024-09-17T07:36:09.999Z</time>
      </trkpt>
      <trkpt lat="43.0818" lon="0.16425">
        <ele>615.71</ele>
        <time>2024-09-17T07:36:16.999Z</time>
      </trkpt>
      <trkpt lat="43.08188" lon="0.16434">
        <ele>617.35</ele>
        <time>2024-09-17T07:36:24.999Z</time>
      </trkpt>
      <trkpt lat="43.08194" lon="0.16445">
        <ele>618.87</ele>
        <time>2024-09-17T07:36:31.999Z</time>
      </trkpt>
      <trkpt lat="43.082" lon="0.16456">
        <ele>619.99</ele>
        <time>2024-09-17T07:36:36.999Z</time>
      </trkpt>
      <trkpt lat="43.08208" lon="0.16466">
        <ele>621.1</ele>
        <time>2024-09-17T07:36:41.999Z</time>
      </trkpt>
      <trkpt lat="43.08217" lon="0.16481">
        <ele>622.19</ele>
        <time>2024-09-17T07:36:46.999Z</time>
      </trkpt>
      <trkpt lat="43.08227" lon="0.16497">
        <ele>623.25</ele>
        <time>2024-09-17T07:36:51.999Z</time>
      </trkpt>
      <trkpt lat="43.08234" lon="0.16509">
        <ele>624.27</ele>
        <time>2024-09-17T07:36:56.999Z</time>
      </trkpt>
      <trkpt lat="43.08242" lon="0.16522">
        <ele>642.03</ele>
        <time>2024-09-17T07:42:15.999Z</time>
      </trkpt>
      <trkpt lat="43.0825" lon="0.16551">
        <ele>648.13</ele>
        <time>2024-09-17T07:42:20.999Z</time>
      </trkpt>
      <trkpt lat="43.08258" lon="0.16589">
        <ele>650.35</ele>
        <time>2024-09-17T07:42:25.999Z</time>
      </trkpt>
      <trkpt lat="43.08268" lon="0.16629">
        <ele>650.99</ele>
        <time>2024-09-17T07:42:30.999Z</time>
      </trkpt>
      <trkpt lat="43.08277" lon="0.1667">
        <ele>651.08</ele>
        <time>2024-09-17T07:42:35.999Z</time>
      </trkpt>
      <trkpt lat="43.08287" lon="0.1671">
        <ele>651.11</ele>
        <time>2024-09-17T07:42:40.999Z</time>
      </trkpt>
      <trkpt lat="43.08295" lon="0.16751">
        <ele>651.07</ele>
        <time>2024-09-17T07:42:45.999Z</time>
      </trkpt>
      <trkpt lat="43.08304" lon="0.16792">
        <ele>651.06</ele>
        <time>2024-09-17T07:42:50.999Z</time>
      </trkpt>
      <trkpt lat="43.08313" lon="0.16834">
        <ele>651.14</ele>
        <time>2024-09-17T07:42:55.999Z</time>
      </trkpt>
      <trkpt lat="43.08325" lon="0.16878">
        <ele>650.81</ele>
        <time>2024-09-17T07:43:00.999Z</time>
      </trkpt>
      <trkpt lat="43.08336" lon="0.16922">
        <ele>650.37</ele>
        <time>2024-09-17T07:43:05.999Z</time>
      </trkpt>
      <trkpt lat="43.08347" lon="0.16966">
        <ele>650.46</ele>
        <time>2024-09-17T07:43:10.999Z</time>
      </trkpt>
      <trkpt lat="43.08352" lon="0.1701">
        <ele>650.38</ele>
        <time>2024-09-17T07:43:15.999Z</time>
      </trkpt>
      <trkpt lat="43.08345" lon="0.17055">
        <ele>649.87</ele>
        <time>2024-09-17T07:43:20.999Z</time>
      </trkpt>
      <trkpt lat="43.08324" lon="0.17092">
        <ele>649.13</ele>
        <time>2024-09-17T07:43:25.999Z</time>
      </trkpt>
      <trkpt lat="43.083" lon="0.17133">
        <ele>648.32</ele>
        <time>2024-09-17T07:43:30.999Z</time>
      </trkpt>
      <trkpt lat="43.08277" lon="0.17181">
        <ele>647.53</ele>
        <time>2024-09-17T07:43:35.999Z</time>
      </trkpt>
      <trkpt lat="43.08264" lon="0.17242">
        <ele>646.13</ele>
        <time>2024-09-17T07:43:40.999Z</time>
      </trkpt>
      <trkpt lat="43.0826" lon="0.17307">
        <ele>644.87</ele>
        <time>2024-09-17T07:43:45.999Z</time>
      </trkpt>
      <trkpt lat="43.08266" lon="0.17376">
        <ele>643.19</ele>
        <time>2024-09-17T07:43:50.999Z</time>
      </trkpt>
      <trkpt lat="43.08279" lon="0.17447">
        <ele>641.7</ele>
        <time>2024-09-17T07:43:55.999Z</time>
      </trkpt>
      <trkpt lat="43.0829" lon="0.17521">
        <ele>641.09</ele>
        <time>2024-09-17T07:44:00.999Z</time>
      </trkpt>
      <trkpt lat="43.08303" lon="0.17597">
        <ele>640.81</ele>
        <time>2024-09-17T07:44:05.999Z</time>
      </trkpt>
      <trkpt lat="43.08316" lon="0.17675">
        <ele>640.17</ele>
        <time>2024-09-17T07:44:10.999Z</time>
      </trkpt>
      <trkpt lat="43.08305" lon="0.17749">
        <ele>638.05</ele>
        <time>2024-09-17T07:44:15.999Z</time>
      </trkpt>
      <trkpt lat="43.0826" lon="0.17785">
        <ele>634.1</ele>
        <time>2024-09-17T07:44:20.999Z</time>
      </trkpt>
      <trkpt lat="43.0821" lon="0.17812">
        <ele>630.46</ele>
        <time>2024-09-17T07:44:25.999Z</time>
      </trkpt>
      <trkpt lat="43.08162" lon="0.17825">
        <ele>627.31</ele>
        <time>2024-09-17T07:44:30.999Z</time>
      </trkpt>
      <trkpt lat="43.08119" lon="0.1779">
        <ele>624.4</ele>
        <time>2024-09-17T07:44:35.999Z</time>
      </trkpt>
      <trkpt lat="43.08075" lon="0.1782">
        <ele>621.51</ele>
        <time>2024-09-17T07:44:41.000Z</time>
      </trkpt>
      <trkpt lat="43.08032" lon="0.17805">
        <ele>618.96</ele>
        <time>2024-09-17T07:44:46.000Z</time>
      </trkpt>
      <trkpt lat="43.08" lon="0.1776">
        <ele>616.45</ele>
        <time>2024-09-17T07:44:51.000Z</time>
      </trkpt>
      <trkpt lat="43.0796" lon="0.17774">
        <ele>614.77</ele>
        <time>2024-09-17T07:44:56.000Z</time>
      </trkpt>
      <trkpt lat="43.07934" lon="0.1782">
        <ele>610.69</ele>
        <time>2024-09-17T07:45:01.000Z</time>
      </trkpt>
      <trkpt lat="43.07884" lon="0.1781">
        <ele>606.01</ele>
        <time>2024-09-17T07:45:06.000Z</time>
      </trkpt>
      <trkpt lat="43.07835" lon="0.1782">
        <ele>601.6</ele>
        <time>2024-09-17T07:45:11.000Z</time>
      </trkpt>
      <trkpt lat="43.07784" lon="0.17829">
        <ele>594.94</ele>
        <time>2024-09-17T07:45:16.000Z</time>
      </trkpt>
      <trkpt lat="43.07739" lon="0.17795">
        <ele>587.66</ele>
        <time>2024-09-17T07:45:21.000Z</time>
      </trkpt>
      <trkpt lat="43.0772" lon="0.17734">
        <ele>581.53</ele>
        <time>2024-09-17T07:45:26.000Z</time>
      </trkpt>
      <trkpt lat="43.07677" lon="0.17683">
        <ele>578.14</ele>
        <time>2024-09-17T07:45:31.000Z</time>
      </trkpt>
      <trkpt lat="43.0764" lon="0.17681">
        <ele>576.19</ele>
        <time>2024-09-17T07:45:36.000Z</time>
      </trkpt>
      <trkpt lat="43.07644" lon="0.17726">
        <ele>574.67</ele>
        <time>2024-09-17T07:45:41.000Z</time>
      </trkpt>
      <trkpt lat="43.07648" lon="0.17754">
        <ele>574.31</ele>
        <time>2024-09-17T07:45:46.000Z</time>
      </trkpt>
      <trkpt lat="43.07654" lon="0.17772">
        <ele>574.93</ele>
        <time>2024-09-17T07:45:51.000Z</time>
      </trkpt>
      <trkpt lat="43.07654" lon="0.17799">
        <ele>576.09</ele>
        <time>2024-09-17T07:45:56.000Z</time>
      </trkpt>
      <trkpt lat="43.07654" lon="0.17829">
        <ele>575.6</ele>
        <time>2024-09-17T07:46:01.000Z</time>
      </trkpt>
      <trkpt lat="43.0766" lon="0.17862">
        <ele>574.26</ele>
        <time>2024-09-17T07:46:06.000Z</time>
      </trkpt>
      <trkpt lat="43.07676" lon="0.17887">
        <ele>572.07</ele>
        <time>2024-09-17T07:46:11.000Z</time>
      </trkpt>
      <trkpt lat="43.07684" lon="0.17904">
        <ele>571.72</ele>
        <time>2024-09-17T07:46:16.000Z</time>
      </trkpt>
      <trkpt lat="43.07688" lon="0.17926">
        <ele>571.44</ele>
        <time>2024-09-17T07:46:21.000Z</time>
      </trkpt>
      <trkpt lat="43.0769" lon="0.17946">
        <ele>571.19</ele>
        <time>2024-09-17T07:46:26.000Z</time>
      </trkpt>
      <trkpt lat="43.07701" lon="0.17962">
        <ele>570.58</ele>
        <time>2024-09-17T07:46:31.000Z</time>
      </trkpt>
      <trkpt lat="43.07725" lon="0.17974">
        <ele>570.38</ele>
        <time>2024-09-17T07:46:36.000Z</time>
      </trkpt>
      <trkpt lat="43.0775" lon="0.17981">
        <ele>570.27</ele>
        <time>2024-09-17T07:46:41.000Z</time>
      </trkpt>
      <trkpt lat="43.07773" lon="0.17987">
        <ele>570.19</ele>
        <time>2024-09-17T07:46:46.000Z</time>
      </trkpt>
      <trkpt lat="43.0779" lon="0.17992">
        <ele>570.14</ele>
        <time>2024-09-17T07:46:51.000Z</time>
      </trkpt>
      <trkpt lat="43.07807" lon="0.17994">
        <ele>570.1</ele>
        <time>2024-09-17T07:46:56.000Z</time>
      </trkpt>
      <trkpt lat="43.0782" lon="0.17994">
        <ele>570.08</ele>
        <time>2024-09-17T07:47:01.000Z</time>
      </trkpt>
      <trkpt lat="43.07837" lon="0.17995">
        <ele>570.06</ele>
        <time>2024-09-17T07:47:06.000Z</time>
      </trkpt>
      <trkpt lat="43.07854" lon="0.18002">
        <ele>570.06</ele>
        <time>2024-09-17T07:47:11.000Z</time>
      </trkpt>
      <trkpt lat="43.07871" lon="0.18013">
        <ele>570.08</ele>
        <time>2024-09-17T07:47:16.000Z</time>
      </trkpt>
      <trkpt lat="43.07882" lon="0.18025">
        <ele>570.1</ele>
        <time>2024-09-17T07:47:21.000Z</time>
      </trkpt>
      <trkpt lat="43.07895" lon="0.18036">
        <ele>570.11</ele>
        <time>2024-09-17T07:47:26.000Z</time>
      </trkpt>
      <trkpt lat="43.07914" lon="0.18044">
        <ele>570.11</ele>
        <time>2024-09-17T07:47:31.000Z</time>
      </trkpt>
      <trkpt lat="43.07931" lon="0.18052">
        <ele>570.13</ele>
        <time>2024-09-17T07:47:36.000Z</time>
      </trkpt>
      <trkpt lat="43.07947" lon="0.18064">
        <ele>570.17</ele>
        <time>2024-09-17T07:47:41.000Z</time>
      </trkpt>
      <trkpt lat="43.07961" lon="0.18073">
        <ele>570.21</ele>
        <time>2024-09-17T07:47:46.000Z</time>
      </trkpt>
      <trkpt lat="43.07978" lon="0.18087">
        <ele>570.26</ele>
        <time>2024-09-17T07:47:51.000Z</time>
      </trkpt>
      <trkpt lat="43.07988" lon="0.181">
        <ele>570.31</ele>
        <time>2024-09-17T07:47:56.000Z</time>
      </trkpt>
      <trkpt lat="43.07993" lon="0.18117">
        <ele>570.35</ele>
        <time>2024-09-17T07:48:01.000Z</time>
      </trkpt>
      <trkpt lat="43.07996" lon="0.1814">
        <ele>570.39</ele>
        <time>2024-09-17T07:48:06.000Z</time>
      </trkpt>
      <trkpt lat="43.08004" lon="0.18162">
        <ele>570.44</ele>
        <time>2024-09-17T07:48:11.000Z</time>
      </trkpt>
      <trkpt lat="43.08012" lon="0.18181">
        <ele>570.47</ele>
        <time>2024-09-17T07:48:16.000Z</time>
      </trkpt>
      <trkpt lat="43.08032" lon="0.18193">
        <ele>570.52</ele>
        <time>2024-09-17T07:48:21.000Z</time>
      </trkpt>
      <trkpt lat="43.08058" lon="0.18205">
        <ele>570.53</ele>
        <time>2024-09-17T07:48:26.000Z</time>
      </trkpt>
      <trkpt lat="43.08072" lon="0.1822">
        <ele>570.54</ele>
        <time>2024-09-17T07:48:31.000Z</time>
      </trkpt>
      <trkpt lat="43.08078" lon="0.18242">
        <ele>570.56</ele>
        <time>2024-09-17T07:48:36.000Z</time>
      </trkpt>
      <trkpt lat="43.08077" lon="0.18267">
        <ele>570.59</ele>
        <time>2024-09-17T07:48:41.000Z</time>
      </trkpt>
      <trkpt lat="43.08075" lon="0.1829">
        <ele>570.62</ele>
        <time>2024-09-17T07:48:46.000Z</time>
      </trkpt>
      <trkpt lat="43.08076" lon="0.18311">
        <ele>570.66</ele>
        <time>2024-09-17T07:48:51.000Z</time>
      </trkpt>
      <trkpt lat="43.0808" lon="0.18325">
        <ele>570.7</ele>
        <time>2024-09-17T07:48:56.000Z</time>
      </trkpt>
      <trkpt lat="43.08087" lon="0.18344">
        <ele>570.75</ele>
        <time>2024-09-17T07:49:01.000Z</time>
      </trkpt>
      <trkpt lat="43.08098" lon="0.18363">
        <ele>570.81</ele>
        <time>2024-09-17T07:49:06.000Z</time>
      </trkpt>
      <trkpt lat="43.08105" lon="0.18379">
        <ele>570.89</ele>
        <time>2024-09-17T07:49:11.000Z</time>
      </trkpt>
      <trkpt lat="43.08113" lon="0.18398">
        <ele>570.97</ele>
        <time>2024-09-17T07:49:16.000Z</time>
      </trkpt>
      <trkpt lat="43.08127" lon="0.18419">
        <ele>571.05</ele>
        <time>2024-09-17T07:49:21.000Z</time>
      </trkpt>
      <trkpt lat="43.08139" lon="0.18441">
        <ele>571.12</ele>
        <time>2024-09-17T07:49:26.000Z</time>
      </trkpt>
      <trkpt lat="43.08147" lon="0.18464">
        <ele>571.18</ele>
        <time>2024-09-17T07:49:31.000Z</time>
      </trkpt>
      <trkpt lat="43.08151" lon="0.18488">
        <ele>571.26</ele>
        <time>2024-09-17T07:49:36.000Z</time>
      </trkpt>
      <trkpt lat="43.08151" lon="0.18511">
        <ele>571.37</ele>
        <time>2024-09-17T07:49:41.000Z</time>
      </trkpt>
      <trkpt lat="43.08152" lon="0.18532">
        <ele>571.5</ele>
        <time>2024-09-17T07:49:46.000Z</time>
      </trkpt>
      <trkpt lat="43.08155" lon="0.18544">
        <ele>572.92</ele>
        <time>2024-09-17T07:50:45.000Z</time>
      </trkpt>
      <trkpt lat="43.08154" lon="0.18558">
        <ele>575.28</ele>
        <time>2024-09-17T07:51:46.000Z</time>
      </trkpt>
      <trkpt lat="43.08159" lon="0.18581">
        <ele>575.59</ele>
        <time>2024-09-17T07:51:51.000Z</time>
      </trkpt>
      <trkpt lat="43.08162" lon="0.18607">
        <ele>577.24</ele>
        <time>2024-09-17T07:51:56.000Z</time>
      </trkpt>
      <trkpt lat="43.08165" lon="0.18634">
        <ele>578.17</ele>
        <time>2024-09-17T07:52:01.000Z</time>
      </trkpt>
      <trkpt lat="43.08164" lon="0.18661">
        <ele>578.53</ele>
        <time>2024-09-17T07:52:06.000Z</time>
      </trkpt>
      <trkpt lat="43.08157" lon="0.18688">
        <ele>578.7</ele>
        <time>2024-09-17T07:52:11.000Z</time>
      </trkpt>
      <trkpt lat="43.08137" lon="0.18705">
        <ele>578.78</ele>
        <time>2024-09-17T07:52:16.000Z</time>
      </trkpt>
      <trkpt lat="43.08107" lon="0.18723">
        <ele>578.81</ele>
        <time>2024-09-17T07:52:21.000Z</time>
      </trkpt>
      <trkpt lat="43.08089" lon="0.18766">
        <ele>578.83</ele>
        <time>2024-09-17T07:52:26.000Z</time>
      </trkpt>
      <trkpt lat="43.08092" lon="0.18824">
        <ele>578.6</ele>
        <time>2024-09-17T07:52:31.000Z</time>
      </trkpt>
      <trkpt lat="43.08083" lon="0.18887">
        <ele>578.2</ele>
        <time>2024-09-17T07:52:36.000Z</time>
      </trkpt>
      <trkpt lat="43.08076" lon="0.18953">
        <ele>577.79</ele>
        <time>2024-09-17T07:52:41.000Z</time>
      </trkpt>
      <trkpt lat="43.08052" lon="0.19013">
        <ele>576.97</ele>
        <time>2024-09-17T07:52:46.000Z</time>
      </trkpt>
      <trkpt lat="43.08028" lon="0.19042">
        <ele>576.36</ele>
        <time>2024-09-17T07:52:51.000Z</time>
      </trkpt>
      <trkpt lat="43.08014" lon="0.19049">
        <ele>576.34</ele>
        <time>2024-09-17T07:52:56.000Z</time>
      </trkpt>
      <trkpt lat="43.08011" lon="0.1906">
        <ele>572.67</ele>
        <time>2024-09-17T07:58:10.999Z</time>
      </trkpt>
      <trkpt lat="43.08001" lon="0.19059">
        <ele>571.15</ele>
        <time>2024-09-17T07:59:49.999Z</time>
      </trkpt>
      <trkpt lat="43.07988" lon="0.19065">
        <ele>570.93</ele>
        <time>2024-09-17T07:59:54.999Z</time>
      </trkpt>
      <trkpt lat="43.07968" lon="0.19074">
        <ele>569.54</ele>
        <time>2024-09-17T07:59:59.999Z</time>
      </trkpt>
      <trkpt lat="43.07942" lon="0.19088">
        <ele>568.91</ele>
        <time>2024-09-17T08:00:04.999Z</time>
      </trkpt>
      <trkpt lat="43.07912" lon="0.1911">
        <ele>568.57</ele>
        <time>2024-09-17T08:00:09.999Z</time>
      </trkpt>
      <trkpt lat="43.07879" lon="0.19144">
        <ele>567.89</ele>
        <time>2024-09-17T08:00:14.999Z</time>
      </trkpt>
      <trkpt lat="43.07846" lon="0.19192">
        <ele>567.11</ele>
        <time>2024-09-17T08:00:19.999Z</time>
      </trkpt>
      <trkpt lat="43.07827" lon="0.1925">
        <ele>565.99</ele>
        <time>2024-09-17T08:00:24.999Z</time>
      </trkpt>
      <trkpt lat="43.07778" lon="0.19255">
        <ele>564.87</ele>
        <time>2024-09-17T08:00:29.999Z</time>
      </trkpt>
      <trkpt lat="43.07742" lon="0.19296">
        <ele>562.93</ele>
        <time>2024-09-17T08:00:34.999Z</time>
      </trkpt>
      <trkpt lat="43.07707" lon="0.19314">
        <ele>560.13</ele>
        <time>2024-09-17T08:00:39.999Z</time>
      </trkpt>
      <trkpt lat="43.07688" lon="0.19335">
        <ele>557.21</ele>
        <time>2024-09-17T08:00:44.999Z</time>
      </trkpt>
      <trkpt lat="43.0768" lon="0.19385">
        <ele>553.83</ele>
        <time>2024-09-17T08:00:49.999Z</time>
      </trkpt>
      <trkpt lat="43.07632" lon="0.19416">
        <ele>550.64</ele>
        <time>2024-09-17T08:00:54.999Z</time>
      </trkpt>
      <trkpt lat="43.07582" lon="0.19458">
        <ele>549.03</ele>
        <time>2024-09-17T08:00:59.999Z</time>
      </trkpt>
      <trkpt lat="43.07547" lon="0.19517">
        <ele>546.36</ele>
        <time>2024-09-17T08:01:04.999Z</time>
      </trkpt>
      <trkpt lat="43.07538" lon="0.19595">
        <ele>543.72</ele>
        <time>2024-09-17T08:01:09.999Z</time>
      </trkpt>
      <trkpt lat="43.07541" lon="0.19673">
        <ele>541.62</ele>
        <time>2024-09-17T08:01:14.999Z</time>
      </trkpt>
      <trkpt lat="43.07523" lon="0.19745">
        <ele>541.58</ele>
        <time>2024-09-17T08:01:19.999Z</time>
      </trkpt>
      <trkpt lat="43.07509" lon="0.19787">
        <ele>540.5</ele>
        <time>2024-09-17T08:01:24.999Z</time>
      </trkpt>
      <trkpt lat="43.07503" lon="0.19809">
        <ele>538.95</ele>
        <time>2024-09-17T08:01:29.999Z</time>
      </trkpt>
      <trkpt lat="43.07499" lon="0.19822">
        <ele>538.19</ele>
        <time>2024-09-17T08:01:42.999Z</time>
      </trkpt>
      <trkpt lat="43.07496" lon="0.19836">
        <ele>537.79</ele>
        <time>2024-09-17T08:01:47.999Z</time>
      </trkpt>
      <trkpt lat="43.07491" lon="0.19848">
        <ele>537.17</ele>
        <time>2024-09-17T08:01:52.999Z</time>
      </trkpt>
      <trkpt lat="43.07485" lon="0.19857">
        <ele>536.34</ele>
        <time>2024-09-17T08:01:57.999Z</time>
      </trkpt>
      <trkpt lat="43.07479" lon="0.19868">
        <ele>535.16</ele>
        <time>2024-09-17T08:02:03.999Z</time>
      </trkpt>
      <trkpt lat="43.07475" lon="0.19879">
        <ele>533.86</ele>
        <time>2024-09-17T08:02:09.999Z</time>
      </trkpt>
      <trkpt lat="43.0747" lon="0.19892">
        <ele>532.52</ele>
        <time>2024-09-17T08:02:15.999Z</time>
      </trkpt>
      <trkpt lat="43.07462" lon="0.19899">
        <ele>531.39</ele>
        <time>2024-09-17T08:02:20.999Z</time>
      </trkpt>
      <trkpt lat="43.07454" lon="0.19906">
        <ele>530.27</ele>
        <time>2024-09-17T08:02:25.999Z</time>
      </trkpt>
      <trkpt lat="43.07447" lon="0.19916">
        <ele>528.96</ele>
        <time>2024-09-17T08:02:32.999Z</time>
      </trkpt>
      <trkpt lat="43.07441" lon="0.19925">
        <ele>528.14</ele>
        <time>2024-09-17T08:02:38.999Z</time>
      </trkpt>
      <trkpt lat="43.07434" lon="0.19935">
        <ele>527.73</ele>
        <time>2024-09-17T08:02:43.999Z</time>
      </trkpt>
      <trkpt lat="43.07425" lon="0.19943">
        <ele>527.73</ele>
        <time>2024-09-17T08:02:48.999Z</time>
      </trkpt>
      <trkpt lat="43.07418" lon="0.19951">
        <ele>528.21</ele>
        <time>2024-09-17T08:02:53.999Z</time>
      </trkpt>
      <trkpt lat="43.0741" lon="0.19959">
        <ele>528.75</ele>
        <time>2024-09-17T08:02:58.999Z</time>
      </trkpt>
      <trkpt lat="43.07402" lon="0.19969">
        <ele>529.79</ele>
        <time>2024-09-17T08:03:04.999Z</time>
      </trkpt>
      <trkpt lat="43.074" lon="0.1998">
        <ele>531.32</ele>
        <time>2024-09-17T08:03:11.999Z</time>
      </trkpt>
      <trkpt lat="43.07409" lon="0.1998">
        <ele>532.99</ele>
        <time>2024-09-17T08:03:20.999Z</time>
      </trkpt>
      <trkpt lat="43.07417" lon="0.19974">
        <ele>535.12</ele>
        <time>2024-09-17T08:03:33.999Z</time>
      </trkpt>
      <trkpt lat="43.07426" lon="0.1997">
        <ele>536.71</ele>
        <time>2024-09-17T08:03:41.999Z</time>
      </trkpt>
      <trkpt lat="43.07436" lon="0.19968">
        <ele>538.77</ele>
        <time>2024-09-17T08:03:49.999Z</time>
      </trkpt>
      <trkpt lat="43.07447" lon="0.1997">
        <ele>540.9</ele>
        <time>2024-09-17T08:03:56.999Z</time>
      </trkpt>
      <trkpt lat="43.07458" lon="0.19972">
        <ele>542.88</ele>
        <time>2024-09-17T08:04:02.999Z</time>
      </trkpt>
      <trkpt lat="43.07467" lon="0.19972">
        <ele>544.9</ele>
        <time>2024-09-17T08:04:08.999Z</time>
      </trkpt>
      <trkpt lat="43.07479" lon="0.19971">
        <ele>546.46</ele>
        <time>2024-09-17T08:04:13.999Z</time>
      </trkpt>
      <trkpt lat="43.07491" lon="0.19968">
        <ele>547.87</ele>
        <time>2024-09-17T08:04:18.999Z</time>
      </trkpt>
      <trkpt lat="43.07501" lon="0.19968">
        <ele>549.13</ele>
        <time>2024-09-17T08:04:23.999Z</time>
      </trkpt>
      <trkpt lat="43.07511" lon="0.19963">
        <ele>550.26</ele>
        <time>2024-09-17T08:04:28.999Z</time>
      </trkpt>
      <trkpt lat="43.07521" lon="0.19962">
        <ele>551.26</ele>
        <time>2024-09-17T08:04:33.999Z</time>
      </trkpt>
      <trkpt lat="43.07531" lon="0.19963">
        <ele>552.33</ele>
        <time>2024-09-17T08:04:39.999Z</time>
      </trkpt>
      <trkpt lat="43.07543" lon="0.19965">
        <ele>553.11</ele>
        <time>2024-09-17T08:04:44.999Z</time>
      </trkpt>
      <trkpt lat="43.07555" lon="0.19967">
        <ele>553.79</ele>
        <time>2024-09-17T08:04:49.999Z</time>
      </trkpt>
      <trkpt lat="43.07564" lon="0.19972">
        <ele>554.38</ele>
        <time>2024-09-17T08:04:54.999Z</time>
      </trkpt>
      <trkpt lat="43.07573" lon="0.19976">
        <ele>555.01</ele>
        <time>2024-09-17T08:05:00.999Z</time>
      </trkpt>
      <trkpt lat="43.07581" lon="0.19985">
        <ele>555.58</ele>
        <time>2024-09-17T08:05:06.999Z</time>
      </trkpt>
      <trkpt lat="43.07584" lon="0.19997">
        <ele>556.01</ele>
        <time>2024-09-17T08:05:11.999Z</time>
      </trkpt>
      <trkpt lat="43.07585" lon="0.20013">
        <ele>556.37</ele>
        <time>2024-09-17T08:05:16.999Z</time>
      </trkpt>
      <trkpt lat="43.07581" lon="0.20027">
        <ele>556.67</ele>
        <time>2024-09-17T08:05:21.999Z</time>
      </trkpt>
      <trkpt lat="43.07577" lon="0.20038">
        <ele>556.97</ele>
        <time>2024-09-17T08:05:27.999Z</time>
      </trkpt>
      <trkpt lat="43.07571" lon="0.20049">
        <ele>557.16</ele>
        <time>2024-09-17T08:05:32.999Z</time>
      </trkpt>
      <trkpt lat="43.07567" lon="0.20061">
        <ele>557.35</ele>
        <time>2024-09-17T08:05:38.999Z</time>
      </trkpt>
      <trkpt lat="43.07566" lon="0.20074">
        <ele>557.51</ele>
        <time>2024-09-17T08:05:45.999Z</time>
      </trkpt>
      <trkpt lat="43.07566" lon="0.20087">
        <ele>557.63</ele>
        <time>2024-09-17T08:05:52.999Z</time>
      </trkpt>
      <trkpt lat="43.07567" lon="0.201">
        <ele>557.73</ele>
        <time>2024-09-17T08:05:58.999Z</time>
      </trkpt>
      <trkpt lat="43.07569" lon="0.20113">
        <ele>557.83</ele>
        <time>2024-09-17T08:06:04.999Z</time>
      </trkpt>
      <trkpt lat="43.07568" lon="0.20133">
        <ele>557.92</ele>
        <time>2024-09-17T08:06:09.999Z</time>
      </trkpt>
      <trkpt lat="43.07566" lon="0.20145">
        <ele>558.01</ele>
        <time>2024-09-17T08:06:14.999Z</time>
      </trkpt>
      <trkpt lat="43.07564" lon="0.20159">
        <ele>558.11</ele>
        <time>2024-09-17T08:06:21.999Z</time>
      </trkpt>
      <trkpt lat="43.07564" lon="0.20173">
        <ele>558.19</ele>
        <time>2024-09-17T08:06:27.999Z</time>
      </trkpt>
      <trkpt lat="43.07564" lon="0.20186">
        <ele>558.27</ele>
        <time>2024-09-17T08:06:32.999Z</time>
      </trkpt>
      <trkpt lat="43.07562" lon="0.20199">
        <ele>558.34</ele>
        <time>2024-09-17T08:06:37.999Z</time>
      </trkpt>
      <trkpt lat="43.07564" lon="0.20211">
        <ele>558.43</ele>
        <time>2024-09-17T08:06:43.999Z</time>
      </trkpt>
      <trkpt lat="43.07563" lon="0.20225">
        <ele>558.5</ele>
        <time>2024-09-17T08:06:48.999Z</time>
      </trkpt>
      <trkpt lat="43.07562" lon="0.20239">
        <ele>558.57</ele>
        <time>2024-09-17T08:06:53.999Z</time>
      </trkpt>
      <trkpt lat="43.0756" lon="0.20253">
        <ele>558.66</ele>
        <time>2024-09-17T08:06:59.999Z</time>
      </trkpt>
      <trkpt lat="43.07559" lon="0.20266">
        <ele>558.74</ele>
        <time>2024-09-17T08:07:04.999Z</time>
      </trkpt>
      <trkpt lat="43.07555" lon="0.20283">
        <ele>558.82</ele>
        <time>2024-09-17T08:07:09.999Z</time>
      </trkpt>
      <trkpt lat="43.0755" lon="0.20297">
        <ele>558.9</ele>
        <time>2024-09-17T08:07:14.999Z</time>
      </trkpt>
      <trkpt lat="43.07543" lon="0.20308">
        <ele>558.99</ele>
        <time>2024-09-17T08:07:21.999Z</time>
      </trkpt>
      <trkpt lat="43.07538" lon="0.2032">
        <ele>559.06</ele>
        <time>2024-09-17T08:07:28.999Z</time>
      </trkpt>
      <trkpt lat="43.07532" lon="0.20329">
        <ele>559.11</ele>
        <time>2024-09-17T08:07:33.999Z</time>
      </trkpt>
      <trkpt lat="43.07525" lon="0.20339">
        <ele>559.17</ele>
        <time>2024-09-17T08:07:38.999Z</time>
      </trkpt>
      <trkpt lat="43.07516" lon="0.20346">
        <ele>559.24</ele>
        <time>2024-09-17T08:07:44.999Z</time>
      </trkpt>
      <trkpt lat="43.07506" lon="0.20349">
        <ele>559.3</ele>
        <time>2024-09-17T08:07:50.999Z</time>
      </trkpt>
      <trkpt lat="43.07497" lon="0.2035">
        <ele>559.37</ele>
        <time>2024-09-17T08:07:57.999Z</time>
      </trkpt>
      <trkpt lat="43.07488" lon="0.20355">
        <ele>559.43</ele>
        <time>2024-09-17T08:08:03.999Z</time>
      </trkpt>
      <trkpt lat="43.07478" lon="0.20359">
        <ele>559.51</ele>
        <time>2024-09-17T08:08:09.999Z</time>
      </trkpt>
      <trkpt lat="43.0747" lon="0.20365">
        <ele>559.58</ele>
        <time>2024-09-17T08:08:14.999Z</time>
      </trkpt>
      <trkpt lat="43.0746" lon="0.20372">
        <ele>559.68</ele>
        <time>2024-09-17T08:08:20.999Z</time>
      </trkpt>
      <trkpt lat="43.07452" lon="0.20378">
        <ele>559.75</ele>
        <time>2024-09-17T08:08:25.999Z</time>
      </trkpt>
      <trkpt lat="43.07445" lon="0.20386">
        <ele>559.84</ele>
        <time>2024-09-17T08:08:30.999Z</time>
      </trkpt>
      <trkpt lat="43.07438" lon="0.20395">
        <ele>559.97</ele>
        <time>2024-09-17T08:08:36.999Z</time>
      </trkpt>
      <trkpt lat="43.0743" lon="0.20405">
        <ele>560.12</ele>
        <time>2024-09-17T08:08:42.999Z</time>
      </trkpt>
      <trkpt lat="43.07421" lon="0.20412">
        <ele>560.3</ele>
        <time>2024-09-17T08:08:48.999Z</time>
      </trkpt>
      <trkpt lat="43.07413" lon="0.20419">
        <ele>560.47</ele>
        <time>2024-09-17T08:08:53.999Z</time>
      </trkpt>
      <trkpt lat="43.07405" lon="0.20426">
        <ele>560.69</ele>
        <time>2024-09-17T08:08:58.999Z</time>
      </trkpt>
      <trkpt lat="43.07396" lon="0.20433">
        <ele>560.99</ele>
        <time>2024-09-17T08:09:04.999Z</time>
      </trkpt>
      <trkpt lat="43.07388" lon="0.20441">
        <ele>561.36</ele>
        <time>2024-09-17T08:09:10.999Z</time>
      </trkpt>
      <trkpt lat="43.07381" lon="0.20451">
        <ele>561.79</ele>
        <time>2024-09-17T08:09:17.000Z</time>
      </trkpt>
      <trkpt lat="43.07374" lon="0.20461">
        <ele>562.3</ele>
        <time>2024-09-17T08:09:23.000Z</time>
      </trkpt>
      <trkpt lat="43.07366" lon="0.20471">
        <ele>562.85</ele>
        <time>2024-09-17T08:09:29.000Z</time>
      </trkpt>
      <trkpt lat="43.07359" lon="0.2048">
        <ele>563.34</ele>
        <time>2024-09-17T08:09:34.000Z</time>
      </trkpt>
      <trkpt lat="43.07354" lon="0.2049">
        <ele>563.77</ele>
        <time>2024-09-17T08:09:39.000Z</time>
      </trkpt>
      <trkpt lat="43.07348" lon="0.20501">
        <ele>564.41</ele>
        <time>2024-09-17T08:09:45.000Z</time>
      </trkpt>
      <trkpt lat="43.07346" lon="0.20513">
        <ele>565.33</ele>
        <time>2024-09-17T08:09:52.000Z</time>
      </trkpt>
      <trkpt lat="43.07351" lon="0.20524">
        <ele>566.63</ele>
        <time>2024-09-17T08:10:01.000Z</time>
      </trkpt>
      <trkpt lat="43.07361" lon="0.20529">
        <ele>567.85</ele>
        <time>2024-09-17T08:10:09.000Z</time>
      </trkpt>
      <trkpt lat="43.07369" lon="0.20538">
        <ele>568.99</ele>
        <time>2024-09-17T08:10:16.000Z</time>
      </trkpt>
      <trkpt lat="43.07375" lon="0.20549">
        <ele>570.07</ele>
        <time>2024-09-17T08:10:22.000Z</time>
      </trkpt>
      <trkpt lat="43.07377" lon="0.20563">
        <ele>571.69</ele>
        <time>2024-09-17T08:10:30.000Z</time>
      </trkpt>
      <trkpt lat="43.07379" lon="0.20577">
        <ele>573.01</ele>
        <time>2024-09-17T08:10:36.000Z</time>
      </trkpt>
      <trkpt lat="43.0738" lon="0.20592">
        <ele>574.37</ele>
        <time>2024-09-17T08:10:42.000Z</time>
      </trkpt>
      <trkpt lat="43.07381" lon="0.20604">
        <ele>575.48</ele>
        <time>2024-09-17T08:10:47.000Z</time>
      </trkpt>
      <trkpt lat="43.07384" lon="0.20618">
        <ele>577.05</ele>
        <time>2024-09-17T08:10:54.000Z</time>
      </trkpt>
      <trkpt lat="43.0739" lon="0.20628">
        <ele>578.31</ele>
        <time>2024-09-17T08:11:00.000Z</time>
      </trkpt>
      <trkpt lat="43.07399" lon="0.20634">
        <ele>579.6</ele>
        <time>2024-09-17T08:11:06.000Z</time>
      </trkpt>
      <trkpt lat="43.07408" lon="0.20633">
        <ele>581.53</ele>
        <time>2024-09-17T08:11:15.000Z</time>
      </trkpt>
      <trkpt lat="43.07417" lon="0.20628">
        <ele>583.06</ele>
        <time>2024-09-17T08:11:23.000Z</time>
      </trkpt>
      <trkpt lat="43.07426" lon="0.20625">
        <ele>584.2</ele>
        <time>2024-09-17T08:11:29.000Z</time>
      </trkpt>
      <trkpt lat="43.07436" lon="0.20627">
        <ele>585.57</ele>
        <time>2024-09-17T08:11:36.000Z</time>
      </trkpt>
      <trkpt lat="43.07438" lon="0.20641">
        <ele>587.26</ele>
        <time>2024-09-17T08:11:45.000Z</time>
      </trkpt>
      <trkpt lat="43.07436" lon="0.20653">
        <ele>588.23</ele>
        <time>2024-09-17T08:11:51.000Z</time>
      </trkpt>
      <trkpt lat="43.07436" lon="0.20665">
        <ele>589.28</ele>
        <time>2024-09-17T08:11:58.000Z</time>
      </trkpt>
      <trkpt lat="43.07434" lon="0.20678">
        <ele>590.4</ele>
        <time>2024-09-17T08:12:06.000Z</time>
      </trkpt>
      <trkpt lat="43.07433" lon="0.20692">
        <ele>591.51</ele>
        <time>2024-09-17T08:12:14.000Z</time>
      </trkpt>
      <trkpt lat="43.07431" lon="0.20705">
        <ele>592.38</ele>
        <time>2024-09-17T08:12:20.000Z</time>
      </trkpt>
      <trkpt lat="43.07435" lon="0.20718">
        <ele>593.52</ele>
        <time>2024-09-17T08:12:28.000Z</time>
      </trkpt>
      <trkpt lat="43.07438" lon="0.2073">
        <ele>594.38</ele>
        <time>2024-09-17T08:12:34.000Z</time>
      </trkpt>
      <trkpt lat="43.07442" lon="0.20741">
        <ele>595.13</ele>
        <time>2024-09-17T08:12:39.000Z</time>
      </trkpt>
      <trkpt lat="43.07448" lon="0.20751">
        <ele>596.09</ele>
        <time>2024-09-17T08:12:46.000Z</time>
      </trkpt>
      <trkpt lat="43.07454" lon="0.20761">
        <ele>596.75</ele>
        <time>2024-09-17T08:12:51.000Z</time>
      </trkpt>
      <trkpt lat="43.07461" lon="0.20771">
        <ele>597.51</ele>
        <time>2024-09-17T08:12:57.000Z</time>
      </trkpt>
      <trkpt lat="43.0747" lon="0.20779">
        <ele>598.36</ele>
        <time>2024-09-17T08:13:04.000Z</time>
      </trkpt>
      <trkpt lat="43.07478" lon="0.20787">
        <ele>599.13</ele>
        <time>2024-09-17T08:13:11.000Z</time>
      </trkpt>
      <trkpt lat="43.07487" lon="0.20794">
        <ele>599.88</ele>
        <time>2024-09-17T08:13:18.000Z</time>
      </trkpt>
      <trkpt lat="43.07495" lon="0.20797">
        <ele>600.5</ele>
        <time>2024-09-17T08:13:24.000Z</time>
      </trkpt>
      <trkpt lat="43.07506" lon="0.20798">
        <ele>601.08</ele>
        <time>2024-09-17T08:13:30.000Z</time>
      </trkpt>
      <trkpt lat="43.07515" lon="0.20802">
        <ele>601.56</ele>
        <time>2024-09-17T08:13:35.000Z</time>
      </trkpt>
      <trkpt lat="43.07523" lon="0.2081">
        <ele>602.59</ele>
        <time>2024-09-17T08:13:47.000Z</time>
      </trkpt>
      <trkpt lat="43.07517" lon="0.20823">
        <ele>606.79</ele>
        <time>2024-09-17T08:16:36.000Z</time>
      </trkpt>
      <trkpt lat="43.07514" lon="0.2084">
        <ele>607.31</ele>
        <time>2024-09-17T08:16:41.000Z</time>
      </trkpt>
      <trkpt lat="43.07511" lon="0.20852">
        <ele>607.8</ele>
        <time>2024-09-17T08:16:46.000Z</time>
      </trkpt>
      <trkpt lat="43.07505" lon="0.20865">
        <ele>608.25</ele>
        <time>2024-09-17T08:16:51.000Z</time>
      </trkpt>
      <trkpt lat="43.07498" lon="0.20877">
        <ele>608.65</ele>
        <time>2024-09-17T08:16:56.000Z</time>
      </trkpt>
      <trkpt lat="43.07492" lon="0.20888">
        <ele>609.09</ele>
        <time>2024-09-17T08:17:02.000Z</time>
      </trkpt>
      <trkpt lat="43.07483" lon="0.20896">
        <ele>609.49</ele>
        <time>2024-09-17T08:17:08.000Z</time>
      </trkpt>
      <trkpt lat="43.07475" lon="0.20903">
        <ele>609.86</ele>
        <time>2024-09-17T08:17:14.000Z</time>
      </trkpt>
      <trkpt lat="43.07466" lon="0.20912">
        <ele>610.2</ele>
        <time>2024-09-17T08:17:20.000Z</time>
      </trkpt>
      <trkpt lat="43.07457" lon="0.20919">
        <ele>610.56</ele>
        <time>2024-09-17T08:17:27.000Z</time>
      </trkpt>
      <trkpt lat="43.07449" lon="0.20926">
        <ele>610.81</ele>
        <time>2024-09-17T08:17:32.000Z</time>
      </trkpt>
      <trkpt lat="43.07442" lon="0.20935">
        <ele>611.09</ele>
        <time>2024-09-17T08:17:38.000Z</time>
      </trkpt>
      <trkpt lat="43.07437" lon="0.20946">
        <ele>611.3</ele>
        <time>2024-09-17T08:17:43.000Z</time>
      </trkpt>
      <trkpt lat="43.07431" lon="0.20963">
        <ele>611.55</ele>
        <time>2024-09-17T08:17:48.000Z</time>
      </trkpt>
      <trkpt lat="43.07429" lon="0.20976">
        <ele>611.83</ele>
        <time>2024-09-17T08:17:53.000Z</time>
      </trkpt>
      <trkpt lat="43.07426" lon="0.20989">
        <ele>612.17</ele>
        <time>2024-09-17T08:17:59.000Z</time>
      </trkpt>
      <trkpt lat="43.07424" lon="0.21002">
        <ele>612.5</ele>
        <time>2024-09-17T08:18:05.000Z</time>
      </trkpt>
      <trkpt lat="43.07422" lon="0.21014">
        <ele>612.75</ele>
        <time>2024-09-17T08:18:10.000Z</time>
      </trkpt>
      <trkpt lat="43.07418" lon="0.21026">
        <ele>612.98</ele>
        <time>2024-09-17T08:18:15.000Z</time>
      </trkpt>
      <trkpt lat="43.07412" lon="0.21037">
        <ele>613.3</ele>
        <time>2024-09-17T08:18:22.000Z</time>
      </trkpt>
      <trkpt lat="43.07407" lon="0.2105">
        <ele>613.62</ele>
        <time>2024-09-17T08:18:29.000Z</time>
      </trkpt>
      <trkpt lat="43.07404" lon="0.21063">
        <ele>613.85</ele>
        <time>2024-09-17T08:18:34.000Z</time>
      </trkpt>
      <trkpt lat="43.074" lon="0.21077">
        <ele>614.06</ele>
        <time>2024-09-17T08:18:39.000Z</time>
      </trkpt>
      <trkpt lat="43.07396" lon="0.21091">
        <ele>614.27</ele>
        <time>2024-09-17T08:18:44.000Z</time>
      </trkpt>
      <trkpt lat="43.07391" lon="0.21105">
        <ele>614.48</ele>
        <time>2024-09-17T08:18:49.000Z</time>
      </trkpt>
      <trkpt lat="43.07386" lon="0.21117">
        <ele>614.68</ele>
        <time>2024-09-17T08:18:54.000Z</time>
      </trkpt>
      <trkpt lat="43.07385" lon="0.2113">
        <ele>614.88</ele>
        <time>2024-09-17T08:18:59.000Z</time>
      </trkpt>
      <trkpt lat="43.07382" lon="0.21144">
        <ele>615.11</ele>
        <time>2024-09-17T08:19:05.000Z</time>
      </trkpt>
      <trkpt lat="43.0738" lon="0.21157">
        <ele>615.31</ele>
        <time>2024-09-17T08:19:10.000Z</time>
      </trkpt>
      <trkpt lat="43.07377" lon="0.2117">
        <ele>615.51</ele>
        <time>2024-09-17T08:19:15.000Z</time>
      </trkpt>
      <trkpt lat="43.07372" lon="0.21182">
        <ele>615.72</ele>
        <time>2024-09-17T08:19:20.000Z</time>
      </trkpt>
      <trkpt lat="43.0737" lon="0.21195">
        <ele>615.92</ele>
        <time>2024-09-17T08:19:25.000Z</time>
      </trkpt>
      <trkpt lat="43.07367" lon="0.21208">
        <ele>616.13</ele>
        <time>2024-09-17T08:19:30.000Z</time>
      </trkpt>
      <trkpt lat="43.07365" lon="0.21222">
        <ele>616.33</ele>
        <time>2024-09-17T08:19:35.000Z</time>
      </trkpt>
      <trkpt lat="43.07361" lon="0.21236">
        <ele>616.57</ele>
        <time>2024-09-17T08:19:41.000Z</time>
      </trkpt>
      <trkpt lat="43.07356" lon="0.21248">
        <ele>616.78</ele>
        <time>2024-09-17T08:19:46.000Z</time>
      </trkpt>
      <trkpt lat="43.07353" lon="0.21261">
        <ele>617.01</ele>
        <time>2024-09-17T08:19:51.000Z</time>
      </trkpt>
      <trkpt lat="43.0735" lon="0.21274">
        <ele>617.28</ele>
        <time>2024-09-17T08:19:57.000Z</time>
      </trkpt>
      <trkpt lat="43.07347" lon="0.21287">
        <ele>617.51</ele>
        <time>2024-09-17T08:20:02.000Z</time>
      </trkpt>
      <trkpt lat="43.07343" lon="0.21301">
        <ele>617.73</ele>
        <time>2024-09-17T08:20:07.000Z</time>
      </trkpt>
      <trkpt lat="43.07339" lon="0.21315">
        <ele>617.95</ele>
        <time>2024-09-17T08:20:12.000Z</time>
      </trkpt>
      <trkpt lat="43.07336" lon="0.21327">
        <ele>618.18</ele>
        <time>2024-09-17T08:20:17.000Z</time>
      </trkpt>
      <trkpt lat="43.07332" lon="0.21339">
        <ele>618.43</ele>
        <time>2024-09-17T08:20:22.000Z</time>
      </trkpt>
      <trkpt lat="43.07328" lon="0.21351">
        <ele>618.69</ele>
        <time>2024-09-17T08:20:27.000Z</time>
      </trkpt>
      <trkpt lat="43.07324" lon="0.21363">
        <ele>618.96</ele>
        <time>2024-09-17T08:20:32.000Z</time>
      </trkpt>
      <trkpt lat="43.07319" lon="0.21375">
        <ele>619.29</ele>
        <time>2024-09-17T08:20:38.000Z</time>
      </trkpt>
      <trkpt lat="43.07312" lon="0.21386">
        <ele>619.61</ele>
        <time>2024-09-17T08:20:44.000Z</time>
      </trkpt>
      <trkpt lat="43.07321" lon="0.21389">
        <ele>624.52</ele>
        <time>2024-09-17T08:24:11.999Z</time>
      </trkpt>
      <trkpt lat="43.07332" lon="0.21382">
        <ele>631.28</ele>
        <time>2024-09-17T08:25:56.999Z</time>
      </trkpt>
      <trkpt lat="43.07365" lon="0.21382">
        <ele>635.72</ele>
        <time>2024-09-17T08:26:01.999Z</time>
      </trkpt>
      <trkpt lat="43.07395" lon="0.21381">
        <ele>637.29</ele>
        <time>2024-09-17T08:26:06.999Z</time>
      </trkpt>
      <trkpt lat="43.07422" lon="0.21375">
        <ele>637.84</ele>
        <time>2024-09-17T08:26:11.999Z</time>
      </trkpt>
      <trkpt lat="43.07438" lon="0.2137">
        <ele>637.95</ele>
        <time>2024-09-17T08:26:16.999Z</time>
      </trkpt>
      <trkpt lat="43.07449" lon="0.21366">
        <ele>637.99</ele>
        <time>2024-09-17T08:26:21.999Z</time>
      </trkpt>
      <trkpt lat="43.07461" lon="0.21362">
        <ele>638.05</ele>
        <time>2024-09-17T08:26:26.999Z</time>
      </trkpt>
      <trkpt lat="43.07473" lon="0.21359">
        <ele>638.12</ele>
        <time>2024-09-17T08:26:31.999Z</time>
      </trkpt>
      <trkpt lat="43.07488" lon="0.21356">
        <ele>638.2</ele>
        <time>2024-09-17T08:26:36.999Z</time>
      </trkpt>
      <trkpt lat="43.07499" lon="0.21354">
        <ele>638.28</ele>
        <time>2024-09-17T08:26:41.999Z</time>
      </trkpt>
      <trkpt lat="43.07512" lon="0.21352">
        <ele>638.38</ele>
        <time>2024-09-17T08:26:46.999Z</time>
      </trkpt>
      <trkpt lat="43.07525" lon="0.21352">
        <ele>638.49</ele>
        <time>2024-09-17T08:26:51.999Z</time>
      </trkpt>
      <trkpt lat="43.07535" lon="0.21353">
        <ele>638.6</ele>
        <time>2024-09-17T08:26:56.999Z</time>
      </trkpt>
      <trkpt lat="43.0755" lon="0.21354">
        <ele>638.72</ele>
        <time>2024-09-17T08:27:01.999Z</time>
      </trkpt>
      <trkpt lat="43.07566" lon="0.21355">
        <ele>638.84</ele>
        <time>2024-09-17T08:27:06.999Z</time>
      </trkpt>
      <trkpt lat="43.07587" lon="0.21357">
        <ele>639.56</ele>
        <time>2024-09-17T08:27:11.999Z</time>
      </trkpt>
      <trkpt lat="43.0762" lon="0.21367">
        <ele>639.93</ele>
        <time>2024-09-17T08:27:16.999Z</time>
      </trkpt>
      <trkpt lat="43.07663" lon="0.21366">
        <ele>639.88</ele>
        <time>2024-09-17T08:27:21.999Z</time>
      </trkpt>
      <trkpt lat="43.07708" lon="0.21344">
        <ele>639.71</ele>
        <time>2024-09-17T08:27:26.999Z</time>
      </trkpt>
      <trkpt lat="43.07741" lon="0.21348">
        <ele>639.69</ele>
        <time>2024-09-17T08:27:31.999Z</time>
      </trkpt>
      <trkpt lat="43.07765" lon="0.21372">
        <ele>639.59</ele>
        <time>2024-09-17T08:27:36.999Z</time>
      </trkpt>
      <trkpt lat="43.07787" lon="0.21377">
        <ele>639.53</ele>
        <time>2024-09-17T08:27:41.999Z</time>
      </trkpt>
      <trkpt lat="43.07801" lon="0.21375">
        <ele>639.49</ele>
        <time>2024-09-17T08:27:46.999Z</time>
      </trkpt>
      <trkpt lat="43.07819" lon="0.21356">
        <ele>639.52</ele>
        <time>2024-09-17T08:27:51.999Z</time>
      </trkpt>
      <trkpt lat="43.07838" lon="0.21342">
        <ele>639.59</ele>
        <time>2024-09-17T08:27:56.999Z</time>
      </trkpt>
      <trkpt lat="43.07858" lon="0.21333">
        <ele>640.55</ele>
        <time>2024-09-17T08:28:01.999Z</time>
      </trkpt>
      <trkpt lat="43.07878" lon="0.21324">
        <ele>640.92</ele>
        <time>2024-09-17T08:28:06.999Z</time>
      </trkpt>
      <trkpt lat="43.07897" lon="0.21315">
        <ele>640.97</ele>
        <time>2024-09-17T08:28:11.999Z</time>
      </trkpt>
      <trkpt lat="43.07918" lon="0.21302">
        <ele>640.38</ele>
        <time>2024-09-17T08:28:16.999Z</time>
      </trkpt>
      <trkpt lat="43.07941" lon="0.21288">
        <ele>639.81</ele>
        <time>2024-09-17T08:28:21.999Z</time>
      </trkpt>
      <trkpt lat="43.07961" lon="0.21279">
        <ele>639.15</ele>
        <time>2024-09-17T08:28:26.999Z</time>
      </trkpt>
      <trkpt lat="43.07984" lon="0.2127">
        <ele>638.35</ele>
        <time>2024-09-17T08:28:31.999Z</time>
      </trkpt>
      <trkpt lat="43.08005" lon="0.21291">
        <ele>637.52</ele>
        <time>2024-09-17T08:28:36.999Z</time>
      </trkpt>
      <trkpt lat="43.08023" lon="0.21332">
        <ele>636.49</ele>
        <time>2024-09-17T08:28:41.999Z</time>
      </trkpt>
      <trkpt lat="43.08065" lon="0.2135">
        <ele>635.2</ele>
        <time>2024-09-17T08:28:46.999Z</time>
      </trkpt>
      <trkpt lat="43.08104" lon="0.21371">
        <ele>633.57</ele>
        <time>2024-09-17T08:28:51.999Z</time>
      </trkpt>
      <trkpt lat="43.08136" lon="0.21397">
        <ele>632.37</ele>
        <time>2024-09-17T08:28:56.999Z</time>
      </trkpt>
      <trkpt lat="43.08168" lon="0.21411">
        <ele>630.67</ele>
        <time>2024-09-17T08:29:01.999Z</time>
      </trkpt>
      <trkpt lat="43.08204" lon="0.21423">
        <ele>627.73</ele>
        <time>2024-09-17T08:29:06.999Z</time>
      </trkpt>
      <trkpt lat="43.08249" lon="0.21445">
        <ele>624.29</ele>
        <time>2024-09-17T08:29:11.999Z</time>
      </trkpt>
      <trkpt lat="43.08302" lon="0.21468">
        <ele>622.09</ele>
        <time>2024-09-17T08:29:16.999Z</time>
      </trkpt>
      <trkpt lat="43.08339" lon="0.21506">
        <ele>619.46</ele>
        <time>2024-09-17T08:29:21.999Z</time>
      </trkpt>
      <trkpt lat="43.08378" lon="0.2155">
        <ele>616.27</ele>
        <time>2024-09-17T08:29:26.999Z</time>
      </trkpt>
      <trkpt lat="43.08437" lon="0.21572">
        <ele>605.87</ele>
        <time>2024-09-17T08:29:31.999Z</time>
      </trkpt>
      <trkpt lat="43.085" lon="0.21605">
        <ele>599.39</ele>
        <time>2024-09-17T08:29:36.999Z</time>
      </trkpt>
      <trkpt lat="43.0855" lon="0.2164">
        <ele>596.4</ele>
        <time>2024-09-17T08:29:41.999Z</time>
      </trkpt>
      <trkpt lat="43.08579" lon="0.21672">
        <ele>593.97</ele>
        <time>2024-09-17T08:29:46.999Z</time>
      </trkpt>
      <trkpt lat="43.08597" lon="0.21686">
        <ele>592.24</ele>
        <time>2024-09-17T08:29:51.999Z</time>
      </trkpt>
      <trkpt lat="43.08607" lon="0.2169">
        <ele>591.41</ele>
        <time>2024-09-17T08:29:58.999Z</time>
      </trkpt>
      <trkpt lat="43.08618" lon="0.2169">
        <ele>590.29</ele>
        <time>2024-09-17T08:30:05.999Z</time>
      </trkpt>
      <trkpt lat="43.08627" lon="0.21688">
        <ele>589.03</ele>
        <time>2024-09-17T08:30:12.999Z</time>
      </trkpt>
      <trkpt lat="43.08634" lon="0.2168">
        <ele>581</ele>
        <time>2024-09-17T08:33:13.999Z</time>
      </trkpt>
      <trkpt lat="43.08641" lon="0.21672">
        <ele>575.31</ele>
        <time>2024-09-17T08:36:41.000Z</time>
      </trkpt>
      <trkpt lat="43.08642" lon="0.2166">
        <ele>574.89</ele>
        <time>2024-09-17T08:36:46.000Z</time>
      </trkpt>
      <trkpt lat="43.08647" lon="0.21646">
        <ele>574.43</ele>
        <time>2024-09-17T08:36:52.000Z</time>
      </trkpt>
      <trkpt lat="43.08652" lon="0.21633">
        <ele>574.03</ele>
        <time>2024-09-17T08:36:58.000Z</time>
      </trkpt>
      <trkpt lat="43.08656" lon="0.21621">
        <ele>573.69</ele>
        <time>2024-09-17T08:37:04.000Z</time>
      </trkpt>
      <trkpt lat="43.08664" lon="0.21612">
        <ele>573.3</ele>
        <time>2024-09-17T08:37:12.000Z</time>
      </trkpt>
      <trkpt lat="43.08669" lon="0.21601">
        <ele>573.02</ele>
        <time>2024-09-17T08:37:19.000Z</time>
      </trkpt>
      <trkpt lat="43.08675" lon="0.21591">
        <ele>572.85</ele>
        <time>2024-09-17T08:37:24.000Z</time>
      </trkpt>
      <trkpt lat="43.08681" lon="0.21581">
        <ele>572.7</ele>
        <time>2024-09-17T08:37:29.000Z</time>
      </trkpt>
      <trkpt lat="43.08687" lon="0.21569">
        <ele>572.58</ele>
        <time>2024-09-17T08:37:34.000Z</time>
      </trkpt>
      <trkpt lat="43.08694" lon="0.21557">
        <ele>572.47</ele>
        <time>2024-09-17T08:37:39.000Z</time>
      </trkpt>
      <trkpt lat="43.08701" lon="0.21545">
        <ele>572.37</ele>
        <time>2024-09-17T08:37:44.000Z</time>
      </trkpt>
      <trkpt lat="43.08711" lon="0.21533">
        <ele>572.3</ele>
        <time>2024-09-17T08:37:49.000Z</time>
      </trkpt>
      <trkpt lat="43.08719" lon="0.21524">
        <ele>572.24</ele>
        <time>2024-09-17T08:37:54.000Z</time>
      </trkpt>
      <trkpt lat="43.08732" lon="0.21514">
        <ele>572.19</ele>
        <time>2024-09-17T08:37:59.000Z</time>
      </trkpt>
      <trkpt lat="43.08749" lon="0.21505">
        <ele>572.1</ele>
        <time>2024-09-17T08:38:04.000Z</time>
      </trkpt>
      <trkpt lat="43.08766" lon="0.215">
        <ele>572.06</ele>
        <time>2024-09-17T08:38:09.000Z</time>
      </trkpt>
      <trkpt lat="43.08784" lon="0.21496">
        <ele>572.01</ele>
        <time>2024-09-17T08:38:14.000Z</time>
      </trkpt>
      <trkpt lat="43.08804" lon="0.2149">
        <ele>571.94</ele>
        <time>2024-09-17T08:38:19.000Z</time>
      </trkpt>
      <trkpt lat="43.08824" lon="0.21479">
        <ele>571.91</ele>
        <time>2024-09-17T08:38:24.000Z</time>
      </trkpt>
      <trkpt lat="43.08842" lon="0.21473">
        <ele>571.9</ele>
        <time>2024-09-17T08:38:29.000Z</time>
      </trkpt>
      <trkpt lat="43.0886" lon="0.21471">
        <ele>571.89</ele>
        <time>2024-09-17T08:38:34.000Z</time>
      </trkpt>
      <trkpt lat="43.08878" lon="0.21466">
        <ele>571.89</ele>
        <time>2024-09-17T08:38:39.000Z</time>
      </trkpt>
      <trkpt lat="43.08893" lon="0.21462">
        <ele>571.89</ele>
        <time>2024-09-17T08:38:44.000Z</time>
      </trkpt>
      <trkpt lat="43.08907" lon="0.21459">
        <ele>571.89</ele>
        <time>2024-09-17T08:38:49.000Z</time>
      </trkpt>
      <trkpt lat="43.08921" lon="0.21459">
        <ele>571.91</ele>
        <time>2024-09-17T08:38:54.000Z</time>
      </trkpt>
      <trkpt lat="43.08934" lon="0.21458">
        <ele>571.93</ele>
        <time>2024-09-17T08:38:59.000Z</time>
      </trkpt>
      <trkpt lat="43.08948" lon="0.21457">
        <ele>571.96</ele>
        <time>2024-09-17T08:39:04.000Z</time>
      </trkpt>
      <trkpt lat="43.08964" lon="0.21455">
        <ele>571.99</ele>
        <time>2024-09-17T08:39:09.000Z</time>
      </trkpt>
      <trkpt lat="43.08979" lon="0.21454">
        <ele>572.03</ele>
        <time>2024-09-17T08:39:14.000Z</time>
      </trkpt>
      <trkpt lat="43.08994" lon="0.21452">
        <ele>572.08</ele>
        <time>2024-09-17T08:39:19.000Z</time>
      </trkpt>
      <trkpt lat="43.09008" lon="0.2145">
        <ele>572.13</ele>
        <time>2024-09-17T08:39:24.000Z</time>
      </trkpt>
      <trkpt lat="43.09025" lon="0.21448">
        <ele>572.27</ele>
        <time>2024-09-17T08:39:29.000Z</time>
      </trkpt>
      <trkpt lat="43.09041" lon="0.21451">
        <ele>572.43</ele>
        <time>2024-09-17T08:39:34.000Z</time>
      </trkpt>
      <trkpt lat="43.0906" lon="0.21463">
        <ele>572.66</ele>
        <time>2024-09-17T08:39:39.000Z</time>
      </trkpt>
      <trkpt lat="43.09075" lon="0.2148">
        <ele>572.76</ele>
        <time>2024-09-17T08:39:44.000Z</time>
      </trkpt>
      <trkpt lat="43.09085" lon="0.21503">
        <ele>572.87</ele>
        <time>2024-09-17T08:39:49.000Z</time>
      </trkpt>
      <trkpt lat="43.09091" lon="0.21525">
        <ele>572.89</ele>
        <time>2024-09-17T08:39:54.000Z</time>
      </trkpt>
      <trkpt lat="43.09099" lon="0.21548">
        <ele>573.01</ele>
        <time>2024-09-17T08:39:59.000Z</time>
      </trkpt>
      <trkpt lat="43.09118" lon="0.21567">
        <ele>573.15</ele>
        <time>2024-09-17T08:40:04.000Z</time>
      </trkpt>
      <trkpt lat="43.09149" lon="0.2155">
        <ele>573.22</ele>
        <time>2024-09-17T08:40:09.000Z</time>
      </trkpt>
      <trkpt lat="43.09183" lon="0.21532">
        <ele>573.36</ele>
        <time>2024-09-17T08:40:14.000Z</time>
      </trkpt>
      <trkpt lat="43.092" lon="0.21502">
        <ele>573.63</ele>
        <time>2024-09-17T08:40:19.000Z</time>
      </trkpt>
      <trkpt lat="43.09204" lon="0.21475">
        <ele>573.9</ele>
        <time>2024-09-17T08:40:24.000Z</time>
      </trkpt>
      <trkpt lat="43.09206" lon="0.21452">
        <ele>573.95</ele>
        <time>2024-09-17T08:40:29.000Z</time>
      </trkpt>
      <trkpt lat="43.09211" lon="0.21427">
        <ele>573.81</ele>
        <time>2024-09-17T08:40:34.000Z</time>
      </trkpt>
      <trkpt lat="43.09232" lon="0.21406">
        <ele>573.28</ele>
        <time>2024-09-17T08:40:39.000Z</time>
      </trkpt>
      <trkpt lat="43.09261" lon="0.21414">
        <ele>573.45</ele>
        <time>2024-09-17T08:40:44.000Z</time>
      </trkpt>
      <trkpt lat="43.09284" lon="0.21408">
        <ele>573.39</ele>
        <time>2024-09-17T08:40:49.000Z</time>
      </trkpt>
      <trkpt lat="43.09311" lon="0.21404">
        <ele>572.75</ele>
        <time>2024-09-17T08:40:54.000Z</time>
      </trkpt>
      <trkpt lat="43.0934" lon="0.21406">
        <ele>572.01</ele>
        <time>2024-09-17T08:40:59.000Z</time>
      </trkpt>
      <trkpt lat="43.09371" lon="0.21414">
        <ele>571.09</ele>
        <time>2024-09-17T08:41:04.000Z</time>
      </trkpt>
      <trkpt lat="43.09398" lon="0.2144">
        <ele>569.79</ele>
        <time>2024-09-17T08:41:09.000Z</time>
      </trkpt>
      <trkpt lat="43.09416" lon="0.2148">
        <ele>568.77</ele>
        <time>2024-09-17T08:41:14.000Z</time>
      </trkpt>
      <trkpt lat="43.09433" lon="0.21527">
        <ele>567.77</ele>
        <time>2024-09-17T08:41:19.000Z</time>
      </trkpt>
      <trkpt lat="43.09456" lon="0.21578">
        <ele>566.34</ele>
        <time>2024-09-17T08:41:24.000Z</time>
      </trkpt>
      <trkpt lat="43.0946" lon="0.21651">
        <ele>564.19</ele>
        <time>2024-09-17T08:41:29.000Z</time>
      </trkpt>
      <trkpt lat="43.09448" lon="0.21725">
        <ele>561.17</ele>
        <time>2024-09-17T08:41:34.000Z</time>
      </trkpt>
      <trkpt lat="43.09431" lon="0.21801">
        <ele>558.15</ele>
        <time>2024-09-17T08:41:39.000Z</time>
      </trkpt>
      <trkpt lat="43.09415" lon="0.2187">
        <ele>554.68</ele>
        <time>2024-09-17T08:41:44.000Z</time>
      </trkpt>
      <trkpt lat="43.09392" lon="0.21907">
        <ele>550.91</ele>
        <time>2024-09-17T08:41:49.000Z</time>
      </trkpt>
      <trkpt lat="43.09392" lon="0.21931">
        <ele>547.47</ele>
        <time>2024-09-17T08:41:54.000Z</time>
      </trkpt>
      <trkpt lat="43.09433" lon="0.21945">
        <ele>544.25</ele>
        <time>2024-09-17T08:41:59.000Z</time>
      </trkpt>
      <trkpt lat="43.09478" lon="0.21986">
        <ele>540.49</ele>
        <time>2024-09-17T08:42:04.000Z</time>
      </trkpt>
      <trkpt lat="43.09526" lon="0.22033">
        <ele>537.57</ele>
        <time>2024-09-17T08:42:09.000Z</time>
      </trkpt>
      <trkpt lat="43.09568" lon="0.22079">
        <ele>534.11</ele>
        <time>2024-09-17T08:42:14.000Z</time>
      </trkpt>
      <trkpt lat="43.09596" lon="0.22122">
        <ele>529.55</ele>
        <time>2024-09-17T08:42:19.000Z</time>
      </trkpt>
      <trkpt lat="43.09616" lon="0.22144">
        <ele>526.03</ele>
        <time>2024-09-17T08:42:24.000Z</time>
      </trkpt>
      <trkpt lat="43.09625" lon="0.22161">
        <ele>525.51</ele>
        <time>2024-09-17T08:42:29.000Z</time>
      </trkpt>
      <trkpt lat="43.09633" lon="0.22179">
        <ele>525</ele>
        <time>2024-09-17T08:42:34.000Z</time>
      </trkpt>
      <trkpt lat="43.09639" lon="0.22196">
        <ele>524.37</ele>
        <time>2024-09-17T08:42:39.000Z</time>
      </trkpt>
      <trkpt lat="43.09642" lon="0.22209">
        <ele>522.66</ele>
        <time>2024-09-17T08:43:18.000Z</time>
      </trkpt>
      <trkpt lat="43.0965" lon="0.22223">
        <ele>521.97</ele>
        <time>2024-09-17T08:43:23.000Z</time>
      </trkpt>
      <trkpt lat="43.09658" lon="0.22234">
        <ele>521.33</ele>
        <time>2024-09-17T08:43:28.000Z</time>
      </trkpt>
      <trkpt lat="43.09664" lon="0.22243">
        <ele>520.71</ele>
        <time>2024-09-17T08:43:33.000Z</time>
      </trkpt>
      <trkpt lat="43.0967" lon="0.22255">
        <ele>520.02</ele>
        <time>2024-09-17T08:43:39.000Z</time>
      </trkpt>
      <trkpt lat="43.09676" lon="0.22265">
        <ele>519.49</ele>
        <time>2024-09-17T08:43:44.000Z</time>
      </trkpt>
      <trkpt lat="43.09683" lon="0.22277">
        <ele>519.01</ele>
        <time>2024-09-17T08:43:49.000Z</time>
      </trkpt>
      <trkpt lat="43.09693" lon="0.22293">
        <ele>518.58</ele>
        <time>2024-09-17T08:43:54.000Z</time>
      </trkpt>
      <trkpt lat="43.09704" lon="0.22316">
        <ele>516.71</ele>
        <time>2024-09-17T08:43:59.000Z</time>
      </trkpt>
      <trkpt lat="43.09718" lon="0.22342">
        <ele>515.38</ele>
        <time>2024-09-17T08:44:04.000Z</time>
      </trkpt>
      <trkpt lat="43.09733" lon="0.22371">
        <ele>515.06</ele>
        <time>2024-09-17T08:44:09.000Z</time>
      </trkpt>
      <trkpt lat="43.09748" lon="0.22406">
        <ele>514.98</ele>
        <time>2024-09-17T08:44:14.000Z</time>
      </trkpt>
      <trkpt lat="43.09761" lon="0.22458">
        <ele>514.8</ele>
        <time>2024-09-17T08:44:19.000Z</time>
      </trkpt>
      <trkpt lat="43.09777" lon="0.22522">
        <ele>514.31</ele>
        <time>2024-09-17T08:44:24.000Z</time>
      </trkpt>
      <trkpt lat="43.09788" lon="0.22587">
        <ele>513.52</ele>
        <time>2024-09-17T08:44:29.000Z</time>
      </trkpt>
      <trkpt lat="43.09789" lon="0.22675">
        <ele>509.17</ele>
        <time>2024-09-17T08:44:34.000Z</time>
      </trkpt>
      <trkpt lat="43.09787" lon="0.22755">
        <ele>503.73</ele>
        <time>2024-09-17T08:44:39.000Z</time>
      </trkpt>
      <trkpt lat="43.09811" lon="0.22815">
        <ele>499.92</ele>
        <time>2024-09-17T08:44:44.000Z</time>
      </trkpt>
      <trkpt lat="43.09819" lon="0.22872">
        <ele>495.63</ele>
        <time>2024-09-17T08:44:49.000Z</time>
      </trkpt>
      <trkpt lat="43.09822" lon="0.22918">
        <ele>492.55</ele>
        <time>2024-09-17T08:44:54.000Z</time>
      </trkpt>
      <trkpt lat="43.09821" lon="0.22952">
        <ele>490.41</ele>
        <time>2024-09-17T08:44:59.000Z</time>
      </trkpt>
      <trkpt lat="43.09818" lon="0.22975">
        <ele>489.78</ele>
        <time>2024-09-17T08:45:04.000Z</time>
      </trkpt>
      <trkpt lat="43.09817" lon="0.22999">
        <ele>489.49</ele>
        <time>2024-09-17T08:45:09.000Z</time>
      </trkpt>
      <trkpt lat="43.09818" lon="0.2302">
        <ele>489.14</ele>
        <time>2024-09-17T08:45:14.000Z</time>
      </trkpt>
      <trkpt lat="43.09816" lon="0.23042">
        <ele>488.87</ele>
        <time>2024-09-17T08:45:19.000Z</time>
      </trkpt>
      <trkpt lat="43.09812" lon="0.23062">
        <ele>488.62</ele>
        <time>2024-09-17T08:45:24.000Z</time>
      </trkpt>
      <trkpt lat="43.0981" lon="0.23083">
        <ele>488.31</ele>
        <time>2024-09-17T08:45:29.000Z</time>
      </trkpt>
      <trkpt lat="43.09809" lon="0.23104">
        <ele>488.02</ele>
        <time>2024-09-17T08:45:34.000Z</time>
      </trkpt>
      <trkpt lat="43.0981" lon="0.23126">
        <ele>487.77</ele>
        <time>2024-09-17T08:45:39.000Z</time>
      </trkpt>
      <trkpt lat="43.09809" lon="0.23154">
        <ele>487.18</ele>
        <time>2024-09-17T08:45:44.999Z</time>
      </trkpt>
      <trkpt lat="43.0981" lon="0.23181">
        <ele>486.89</ele>
        <time>2024-09-17T08:45:49.999Z</time>
      </trkpt>
      <trkpt lat="43.09815" lon="0.23214">
        <ele>485.59</ele>
        <time>2024-09-17T08:45:54.999Z</time>
      </trkpt>
      <trkpt lat="43.09823" lon="0.23265">
        <ele>484.6</ele>
        <time>2024-09-17T08:45:59.999Z</time>
      </trkpt>
      <trkpt lat="43.09827" lon="0.23318">
        <ele>483.23</ele>
        <time>2024-09-17T08:46:04.999Z</time>
      </trkpt>
      <trkpt lat="43.09827" lon="0.23369">
        <ele>480.66</ele>
        <time>2024-09-17T08:46:09.999Z</time>
      </trkpt>
      <trkpt lat="43.09824" lon="0.23418">
        <ele>478.28</ele>
        <time>2024-09-17T08:46:14.999Z</time>
      </trkpt>
      <trkpt lat="43.09839" lon="0.23473">
        <ele>476.02</ele>
        <time>2024-09-17T08:46:19.999Z</time>
      </trkpt>
      <trkpt lat="43.09864" lon="0.23513">
        <ele>473.79</ele>
        <time>2024-09-17T08:46:24.999Z</time>
      </trkpt>
      <trkpt lat="43.09903" lon="0.23519">
        <ele>471.03</ele>
        <time>2024-09-17T08:46:29.999Z</time>
      </trkpt>
      <trkpt lat="43.09944" lon="0.23555">
        <ele>467.73</ele>
        <time>2024-09-17T08:46:34.999Z</time>
      </trkpt>
      <trkpt lat="43.09979" lon="0.23611">
        <ele>465.56</ele>
        <time>2024-09-17T08:46:39.999Z</time>
      </trkpt>
      <trkpt lat="43.10012" lon="0.23661">
        <ele>463.13</ele>
        <time>2024-09-17T08:46:44.999Z</time>
      </trkpt>
      <trkpt lat="43.10049" lon="0.23704">
        <ele>459.72</ele>
        <time>2024-09-17T08:46:49.999Z</time>
      </trkpt>
      <trkpt lat="43.10079" lon="0.23757">
        <ele>455.11</ele>
        <time>2024-09-17T08:46:54.999Z</time>
      </trkpt>
      <trkpt lat="43.10103" lon="0.2382">
        <ele>446.48</ele>
        <time>2024-09-17T08:46:59.999Z</time>
      </trkpt>
      <trkpt lat="43.10117" lon="0.23896">
        <ele>438.47</ele>
        <time>2024-09-17T08:47:04.999Z</time>
      </trkpt>
      <trkpt lat="43.10133" lon="0.23969">
        <ele>432.31</ele>
        <time>2024-09-17T08:47:09.999Z</time>
      </trkpt>
      <trkpt lat="43.10159" lon="0.2402">
        <ele>428.86</ele>
        <time>2024-09-17T08:47:14.999Z</time>
      </trkpt>
      <trkpt lat="43.10185" lon="0.24055">
        <ele>426.31</ele>
        <time>2024-09-17T08:47:19.999Z</time>
      </trkpt>
      <trkpt lat="43.10201" lon="0.24103">
        <ele>423.04</ele>
        <time>2024-09-17T08:47:24.999Z</time>
      </trkpt>
      <trkpt lat="43.10213" lon="0.24157">
        <ele>420.72</ele>
        <time>2024-09-17T08:47:29.999Z</time>
      </trkpt>
      <trkpt lat="43.10228" lon="0.24209">
        <ele>418.58</ele>
        <time>2024-09-17T08:47:34.999Z</time>
      </trkpt>
      <trkpt lat="43.10242" lon="0.24257">
        <ele>416.23</ele>
        <time>2024-09-17T08:47:39.999Z</time>
      </trkpt>
      <trkpt lat="43.10257" lon="0.24303">
        <ele>413.78</ele>
        <time>2024-09-17T08:47:44.999Z</time>
      </trkpt>
      <trkpt lat="43.10268" lon="0.24345">
        <ele>412.72</ele>
        <time>2024-09-17T08:47:49.999Z</time>
      </trkpt>
      <trkpt lat="43.10282" lon="0.24381">
        <ele>411.05</ele>
        <time>2024-09-17T08:47:54.999Z</time>
      </trkpt>
      <trkpt lat="43.10292" lon="0.24416">
        <ele>410.18</ele>
        <time>2024-09-17T08:47:59.999Z</time>
      </trkpt>
      <trkpt lat="43.10298" lon="0.24449">
        <ele>409.16</ele>
        <time>2024-09-17T08:48:04.999Z</time>
      </trkpt>
      <trkpt lat="43.103" lon="0.24478">
        <ele>408.66</ele>
        <time>2024-09-17T08:48:09.999Z</time>
      </trkpt>
      <trkpt lat="43.10302" lon="0.24505">
        <ele>408.04</ele>
        <time>2024-09-17T08:48:14.999Z</time>
      </trkpt>
      <trkpt lat="43.10301" lon="0.24532">
        <ele>407.94</ele>
        <time>2024-09-17T08:48:19.999Z</time>
      </trkpt>
      <trkpt lat="43.103" lon="0.24565">
        <ele>407.92</ele>
        <time>2024-09-17T08:48:24.999Z</time>
      </trkpt>
      <trkpt lat="43.10299" lon="0.2459">
        <ele>407.93</ele>
        <time>2024-09-17T08:48:29.999Z</time>
      </trkpt>
      <trkpt lat="43.103" lon="0.24609">
        <ele>407.96</ele>
        <time>2024-09-17T08:48:34.999Z</time>
      </trkpt>
      <trkpt lat="43.103" lon="0.24628">
        <ele>408.02</ele>
        <time>2024-09-17T08:48:39.999Z</time>
      </trkpt>
      <trkpt lat="43.10302" lon="0.24645">
        <ele>408.09</ele>
        <time>2024-09-17T08:48:44.999Z</time>
      </trkpt>
      <trkpt lat="43.10304" lon="0.24663">
        <ele>408.19</ele>
        <time>2024-09-17T08:48:49.999Z</time>
      </trkpt>
      <trkpt lat="43.10306" lon="0.24681">
        <ele>408.32</ele>
        <time>2024-09-17T08:48:54.999Z</time>
      </trkpt>
      <trkpt lat="43.1031" lon="0.247">
        <ele>408.48</ele>
        <time>2024-09-17T08:48:59.999Z</time>
      </trkpt>
      <trkpt lat="43.10318" lon="0.24723">
        <ele>409.19</ele>
        <time>2024-09-17T08:49:04.999Z</time>
      </trkpt>
      <trkpt lat="43.10329" lon="0.24747">
        <ele>409.64</ele>
        <time>2024-09-17T08:49:09.999Z</time>
      </trkpt>
      <trkpt lat="43.10341" lon="0.24772">
        <ele>409.87</ele>
        <time>2024-09-17T08:49:14.999Z</time>
      </trkpt>
      <trkpt lat="43.10347" lon="0.24794">
        <ele>409.91</ele>
        <time>2024-09-17T08:49:19.999Z</time>
      </trkpt>
      <trkpt lat="43.10351" lon="0.24813">
        <ele>409.97</ele>
        <time>2024-09-17T08:49:24.999Z</time>
      </trkpt>
      <trkpt lat="43.10356" lon="0.24829">
        <ele>410.06</ele>
        <time>2024-09-17T08:49:29.999Z</time>
      </trkpt>
      <trkpt lat="43.10363" lon="0.24847">
        <ele>410.16</ele>
        <time>2024-09-17T08:49:34.999Z</time>
      </trkpt>
      <trkpt lat="43.10373" lon="0.24866">
        <ele>410.26</ele>
        <time>2024-09-17T08:49:39.999Z</time>
      </trkpt>
      <trkpt lat="43.10384" lon="0.24885">
        <ele>410.36</ele>
        <time>2024-09-17T08:49:44.999Z</time>
      </trkpt>
      <trkpt lat="43.10396" lon="0.24903">
        <ele>410.47</ele>
        <time>2024-09-17T08:49:49.999Z</time>
      </trkpt>
      <trkpt lat="43.1041" lon="0.24924">
        <ele>411.09</ele>
        <time>2024-09-17T08:49:54.999Z</time>
      </trkpt>
      <trkpt lat="43.10423" lon="0.24954">
        <ele>411.43</ele>
        <time>2024-09-17T08:49:59.999Z</time>
      </trkpt>
      <trkpt lat="43.10434" lon="0.24984">
        <ele>411.59</ele>
        <time>2024-09-17T08:50:04.999Z</time>
      </trkpt>
      <trkpt lat="43.10441" lon="0.25022">
        <ele>411.72</ele>
        <time>2024-09-17T08:50:09.999Z</time>
      </trkpt>
      <trkpt lat="43.10448" lon="0.25062">
        <ele>411.78</ele>
        <time>2024-09-17T08:50:14.999Z</time>
      </trkpt>
      <trkpt lat="43.10461" lon="0.25096">
        <ele>411.79</ele>
        <time>2024-09-17T08:50:19.999Z</time>
      </trkpt>
      <trkpt lat="43.10479" lon="0.25129">
        <ele>411.67</ele>
        <time>2024-09-17T08:50:24.999Z</time>
      </trkpt>
      <trkpt lat="43.10494" lon="0.25152">
        <ele>411.6</ele>
        <time>2024-09-17T08:50:29.999Z</time>
      </trkpt>
      <trkpt lat="43.10503" lon="0.25164">
        <ele>411.6</ele>
        <time>2024-09-17T08:50:34.999Z</time>
      </trkpt>
      <trkpt lat="43.10511" lon="0.25174">
        <ele>411.59</ele>
        <time>2024-09-17T08:50:39.999Z</time>
      </trkpt>
      <trkpt lat="43.10517" lon="0.25183">
        <ele>411.6</ele>
        <time>2024-09-17T08:50:44.999Z</time>
      </trkpt>
      <trkpt lat="43.10524" lon="0.25193">
        <ele>411.61</ele>
        <time>2024-09-17T08:50:50.999Z</time>
      </trkpt>
      <trkpt lat="43.1053" lon="0.25203">
        <ele>411.64</ele>
        <time>2024-09-17T08:50:56.999Z</time>
      </trkpt>
      <trkpt lat="43.10537" lon="0.25214">
        <ele>411.69</ele>
        <time>2024-09-17T08:51:02.999Z</time>
      </trkpt>
      <trkpt lat="43.10543" lon="0.25223">
        <ele>411.76</ele>
        <time>2024-09-17T08:51:08.999Z</time>
      </trkpt>
      <trkpt lat="43.10549" lon="0.25234">
        <ele>411.83</ele>
        <time>2024-09-17T08:51:14.999Z</time>
      </trkpt>
      <trkpt lat="43.10556" lon="0.25244">
        <ele>411.92</ele>
        <time>2024-09-17T08:51:20.999Z</time>
      </trkpt>
      <trkpt lat="43.10561" lon="0.25255">
        <ele>412.03</ele>
        <time>2024-09-17T08:51:26.999Z</time>
      </trkpt>
      <trkpt lat="43.10565" lon="0.25267">
        <ele>412.15</ele>
        <time>2024-09-17T08:51:32.999Z</time>
      </trkpt>
      <trkpt lat="43.10569" lon="0.2528">
        <ele>412.27</ele>
        <time>2024-09-17T08:51:38.999Z</time>
      </trkpt>
      <trkpt lat="43.10573" lon="0.25294">
        <ele>412.41</ele>
        <time>2024-09-17T08:51:44.999Z</time>
      </trkpt>
      <trkpt lat="43.10572" lon="0.2531">
        <ele>412.52</ele>
        <time>2024-09-17T08:51:49.999Z</time>
      </trkpt>
      <trkpt lat="43.10562" lon="0.25325">
        <ele>412.63</ele>
        <time>2024-09-17T08:51:54.999Z</time>
      </trkpt>
      <trkpt lat="43.10553" lon="0.25335">
        <ele>412.73</ele>
        <time>2024-09-17T08:51:59.999Z</time>
      </trkpt>
      <trkpt lat="43.10547" lon="0.25345">
        <ele>412.83</ele>
        <time>2024-09-17T08:52:04.999Z</time>
      </trkpt>
      <trkpt lat="43.10543" lon="0.25356">
        <ele>412.95</ele>
        <time>2024-09-17T08:52:11.999Z</time>
      </trkpt>
      <trkpt lat="43.10541" lon="0.2537">
        <ele>416.4</ele>
        <time>2024-09-17T08:55:28.999Z</time>
      </trkpt>
      <trkpt lat="43.10537" lon="0.25398">
        <ele>418.56</ele>
        <time>2024-09-17T08:55:33.999Z</time>
      </trkpt>
      <trkpt lat="43.10533" lon="0.25428">
        <ele>419.74</ele>
        <time>2024-09-17T08:55:38.999Z</time>
      </trkpt>
      <trkpt lat="43.10533" lon="0.25461">
        <ele>420.17</ele>
        <time>2024-09-17T08:55:43.999Z</time>
      </trkpt>
      <trkpt lat="43.10539" lon="0.25503">
        <ele>420.3</ele>
        <time>2024-09-17T08:55:48.999Z</time>
      </trkpt>
      <trkpt lat="43.10534" lon="0.25542">
        <ele>420.34</ele>
        <time>2024-09-17T08:55:53.999Z</time>
      </trkpt>
      <trkpt lat="43.10526" lon="0.25575">
        <ele>420.38</ele>
        <time>2024-09-17T08:55:58.999Z</time>
      </trkpt>
      <trkpt lat="43.10517" lon="0.25613">
        <ele>420.36</ele>
        <time>2024-09-17T08:56:03.999Z</time>
      </trkpt>
      <trkpt lat="43.1051" lon="0.25654">
        <ele>420.29</ele>
        <time>2024-09-17T08:56:08.999Z</time>
      </trkpt>
      <trkpt lat="43.10504" lon="0.25697">
        <ele>420.13</ele>
        <time>2024-09-17T08:56:13.999Z</time>
      </trkpt>
      <trkpt lat="43.10518" lon="0.25736">
        <ele>419.7</ele>
        <time>2024-09-17T08:56:18.999Z</time>
      </trkpt>
      <trkpt lat="43.10536" lon="0.25775">
        <ele>419.1</ele>
        <time>2024-09-17T08:56:23.999Z</time>
      </trkpt>
      <trkpt lat="43.1051" lon="0.25816">
        <ele>417.3</ele>
        <time>2024-09-17T08:56:28.999Z</time>
      </trkpt>
      <trkpt lat="43.10457" lon="0.25863">
        <ele>414.32</ele>
        <time>2024-09-17T08:56:33.999Z</time>
      </trkpt>
      <trkpt lat="43.10409" lon="0.25917">
        <ele>412.35</ele>
        <time>2024-09-17T08:56:38.999Z</time>
      </trkpt>
      <trkpt lat="43.10362" lon="0.25969">
        <ele>411.94</ele>
        <time>2024-09-17T08:56:43.999Z</time>
      </trkpt>
      <trkpt lat="43.10325" lon="0.26028">
        <ele>408.66</ele>
        <time>2024-09-17T08:56:48.999Z</time>
      </trkpt>
      <trkpt lat="43.10305" lon="0.26098">
        <ele>405.86</ele>
        <time>2024-09-17T08:56:53.999Z</time>
      </trkpt>
      <trkpt lat="43.10309" lon="0.26156">
        <ele>403.12</ele>
        <time>2024-09-17T08:56:58.999Z</time>
      </trkpt>
      <trkpt lat="43.1031" lon="0.26217">
        <ele>400.15</ele>
        <time>2024-09-17T08:57:03.999Z</time>
      </trkpt>
      <trkpt lat="43.10296" lon="0.26265">
        <ele>397.92</ele>
        <time>2024-09-17T08:57:08.999Z</time>
      </trkpt>
      <trkpt lat="43.10281" lon="0.26303">
        <ele>394.91</ele>
        <time>2024-09-17T08:57:13.999Z</time>
      </trkpt>
      <trkpt lat="43.10268" lon="0.26344">
        <ele>392.47</ele>
        <time>2024-09-17T08:57:18.999Z</time>
      </trkpt>
      <trkpt lat="43.10259" lon="0.26387">
        <ele>390.48</ele>
        <time>2024-09-17T08:57:23.999Z</time>
      </trkpt>
      <trkpt lat="43.10258" lon="0.26427">
        <ele>388.79</ele>
        <time>2024-09-17T08:57:28.999Z</time>
      </trkpt>
      <trkpt lat="43.10259" lon="0.26454">
        <ele>388.17</ele>
        <time>2024-09-17T08:57:33.999Z</time>
      </trkpt>
      <trkpt lat="43.1026" lon="0.26474">
        <ele>388.04</ele>
        <time>2024-09-17T08:57:38.999Z</time>
      </trkpt>
      <trkpt lat="43.1026" lon="0.2649">
        <ele>387.85</ele>
        <time>2024-09-17T08:57:43.999Z</time>
      </trkpt>
      <trkpt lat="43.1026" lon="0.26511">
        <ele>387.59</ele>
        <time>2024-09-17T08:57:49.000Z</time>
      </trkpt>
      <trkpt lat="43.1026" lon="0.26539">
        <ele>386.02</ele>
        <time>2024-09-17T08:57:54.000Z</time>
      </trkpt>
      <trkpt lat="43.10259" lon="0.2657">
        <ele>384.72</ele>
        <time>2024-09-17T08:57:59.000Z</time>
      </trkpt>
      <trkpt lat="43.10261" lon="0.26599">
        <ele>383.8</ele>
        <time>2024-09-17T08:58:04.000Z</time>
      </trkpt>
      <trkpt lat="43.10267" lon="0.26638">
        <ele>382.9</ele>
        <time>2024-09-17T08:58:09.000Z</time>
      </trkpt>
      <trkpt lat="43.10278" lon="0.26689">
        <ele>381.68</ele>
        <time>2024-09-17T08:58:14.000Z</time>
      </trkpt>
      <trkpt lat="43.10295" lon="0.2675">
        <ele>379.82</ele>
        <time>2024-09-17T08:58:19.000Z</time>
      </trkpt>
      <trkpt lat="43.10313" lon="0.26814">
        <ele>377.65</ele>
        <time>2024-09-17T08:58:24.000Z</time>
      </trkpt>
      <trkpt lat="43.10328" lon="0.26872">
        <ele>376.11</ele>
        <time>2024-09-17T08:58:29.000Z</time>
      </trkpt>
      <trkpt lat="43.10343" lon="0.26914">
        <ele>373.68</ele>
        <time>2024-09-17T08:58:34.000Z</time>
      </trkpt>
      <trkpt lat="43.10353" lon="0.26935">
        <ele>372.24</ele>
        <time>2024-09-17T08:58:39.000Z</time>
      </trkpt>
      <trkpt lat="43.10349" lon="0.2695">
        <ele>371.84</ele>
        <time>2024-09-17T08:58:48.000Z</time>
      </trkpt>
      <trkpt lat="43.10332" lon="0.26965">
        <ele>368.49</ele>
        <time>2024-09-17T08:58:53.000Z</time>
      </trkpt>
      <trkpt lat="43.10326" lon="0.26975">
        <ele>367.86</ele>
        <time>2024-09-17T08:59:11.000Z</time>
      </trkpt>
      <trkpt lat="43.10328" lon="0.26987">
        <ele>367.36</ele>
        <time>2024-09-17T08:59:18.000Z</time>
      </trkpt>
      <trkpt lat="43.10334" lon="0.27003">
        <ele>359.68</ele>
        <time>2024-09-17T09:00:59.000Z</time>
      </trkpt>
      <trkpt lat="43.10339" lon="0.27048">
        <ele>356</ele>
        <time>2024-09-17T09:01:04.000Z</time>
      </trkpt>
      <trkpt lat="43.10349" lon="0.27091">
        <ele>354.04</ele>
        <time>2024-09-17T09:01:09.000Z</time>
      </trkpt>
      <trkpt lat="43.10347" lon="0.27134">
        <ele>352.59</ele>
        <time>2024-09-17T09:01:14.000Z</time>
      </trkpt>
      <trkpt lat="43.10315" lon="0.2716">
        <ele>351.2</ele>
        <time>2024-09-17T09:01:19.000Z</time>
      </trkpt>
      <trkpt lat="43.10284" lon="0.27192">
        <ele>350.17</ele>
        <time>2024-09-17T09:01:24.000Z</time>
      </trkpt>
      <trkpt lat="43.10263" lon="0.27233">
        <ele>348.95</ele>
        <time>2024-09-17T09:01:29.000Z</time>
      </trkpt>
      <trkpt lat="43.10246" lon="0.27268">
        <ele>348.48</ele>
        <time>2024-09-17T09:01:34.000Z</time>
      </trkpt>
      <trkpt lat="43.10235" lon="0.27297">
        <ele>347.62</ele>
        <time>2024-09-17T09:01:39.000Z</time>
      </trkpt>
      <trkpt lat="43.10239" lon="0.27328">
        <ele>345.3</ele>
        <time>2024-09-17T09:01:44.000Z</time>
      </trkpt>
      <trkpt lat="43.10251" lon="0.27366">
        <ele>342.9</ele>
        <time>2024-09-17T09:01:49.000Z</time>
      </trkpt>
      <trkpt lat="43.10237" lon="0.2739">
        <ele>342.08</ele>
        <time>2024-09-17T09:01:54.000Z</time>
      </trkpt>
      <trkpt lat="43.10228" lon="0.274">
        <ele>342.01</ele>
        <time>2024-09-17T09:01:59.000Z</time>
      </trkpt>
      <trkpt lat="43.1022" lon="0.27407">
        <ele>341.98</ele>
        <time>2024-09-17T09:02:04.000Z</time>
      </trkpt>
      <trkpt lat="43.10213" lon="0.27414">
        <ele>342.01</ele>
        <time>2024-09-17T09:02:09.000Z</time>
      </trkpt>
      <trkpt lat="43.10205" lon="0.27421">
        <ele>342.12</ele>
        <time>2024-09-17T09:02:15.000Z</time>
      </trkpt>
      <trkpt lat="43.10197" lon="0.2743">
        <ele>342.3</ele>
        <time>2024-09-17T09:02:22.000Z</time>
      </trkpt>
      <trkpt lat="43.1019" lon="0.27438">
        <ele>342.53</ele>
        <time>2024-09-17T09:02:28.000Z</time>
      </trkpt>
      <trkpt lat="43.10182" lon="0.27445">
        <ele>342.75</ele>
        <time>2024-09-17T09:02:34.000Z</time>
      </trkpt>
      <trkpt lat="43.10174" lon="0.27453">
        <ele>343.03</ele>
        <time>2024-09-17T09:02:40.000Z</time>
      </trkpt>
      <trkpt lat="43.10166" lon="0.27459">
        <ele>343.38</ele>
        <time>2024-09-17T09:02:46.000Z</time>
      </trkpt>
      <trkpt lat="43.10158" lon="0.27467">
        <ele>343.85</ele>
        <time>2024-09-17T09:02:53.000Z</time>
      </trkpt>
      <trkpt lat="43.10149" lon="0.27474">
        <ele>344.37</ele>
        <time>2024-09-17T09:03:01.000Z</time>
      </trkpt>
      <trkpt lat="43.1014" lon="0.2748">
        <ele>344.87</ele>
        <time>2024-09-17T09:03:09.000Z</time>
      </trkpt>
      <trkpt lat="43.10131" lon="0.27485">
        <ele>345.42</ele>
        <time>2024-09-17T09:03:17.000Z</time>
      </trkpt>
      <trkpt lat="43.10122" lon="0.27489">
        <ele>346.47</ele>
        <time>2024-09-17T09:03:29.000Z</time>
      </trkpt>
      <trkpt lat="43.10113" lon="0.27495">
        <ele>347.42</ele>
        <time>2024-09-17T09:03:37.000Z</time>
      </trkpt>
      <trkpt lat="43.10103" lon="0.27501">
        <ele>348.82</ele>
        <time>2024-09-17T09:03:47.000Z</time>
      </trkpt>
      <trkpt lat="43.10093" lon="0.27506">
        <ele>350.5</ele>
        <time>2024-09-17T09:03:57.000Z</time>
      </trkpt>
      <trkpt lat="43.10085" lon="0.27512">
        <ele>351.7</ele>
        <time>2024-09-17T09:04:03.000Z</time>
      </trkpt>
      <trkpt lat="43.10074" lon="0.2752">
        <ele>354.07</ele>
        <time>2024-09-17T09:04:14.000Z</time>
      </trkpt>
      <trkpt lat="43.10064" lon="0.27526">
        <ele>356.13</ele>
        <time>2024-09-17T09:04:23.000Z</time>
      </trkpt>
      <trkpt lat="43.10055" lon="0.27535">
        <ele>357.83</ele>
        <time>2024-09-17T09:04:30.000Z</time>
      </trkpt>
      <trkpt lat="43.10046" lon="0.27543">
        <ele>359.87</ele>
        <time>2024-09-17T09:04:38.000Z</time>
      </trkpt>
      <trkpt lat="43.10036" lon="0.2755">
        <ele>361.94</ele>
        <time>2024-09-17T09:04:46.000Z</time>
      </trkpt>
      <trkpt lat="43.10026" lon="0.27557">
        <ele>363.45</ele>
        <time>2024-09-17T09:04:52.000Z</time>
      </trkpt>
      <trkpt lat="43.10019" lon="0.27565">
        <ele>364.7</ele>
        <time>2024-09-17T09:04:57.000Z</time>
      </trkpt>
      <trkpt lat="43.10008" lon="0.27572">
        <ele>365.88</ele>
        <time>2024-09-17T09:05:02.000Z</time>
      </trkpt>
      <trkpt lat="43.09999" lon="0.27578">
        <ele>366.97</ele>
        <time>2024-09-17T09:05:07.000Z</time>
      </trkpt>
      <trkpt lat="43.09991" lon="0.27584">
        <ele>367.96</ele>
        <time>2024-09-17T09:05:12.000Z</time>
      </trkpt>
      <trkpt lat="43.09983" lon="0.27591">
        <ele>368.85</ele>
        <time>2024-09-17T09:05:17.000Z</time>
      </trkpt>
      <trkpt lat="43.09974" lon="0.27597">
        <ele>369.94</ele>
        <time>2024-09-17T09:05:24.000Z</time>
      </trkpt>
      <trkpt lat="43.09965" lon="0.27606">
        <ele>371.02</ele>
        <time>2024-09-17T09:05:32.000Z</time>
      </trkpt>
      <trkpt lat="43.09958" lon="0.27613">
        <ele>371.7</ele>
        <time>2024-09-17T09:05:38.000Z</time>
      </trkpt>
      <trkpt lat="43.0995" lon="0.27621">
        <ele>372.28</ele>
        <time>2024-09-17T09:05:44.000Z</time>
      </trkpt>
      <trkpt lat="43.09942" lon="0.2763">
        <ele>372.87</ele>
        <time>2024-09-17T09:05:51.000Z</time>
      </trkpt>
      <trkpt lat="43.09935" lon="0.2764">
        <ele>373.33</ele>
        <time>2024-09-17T09:05:57.000Z</time>
      </trkpt>
      <trkpt lat="43.09926" lon="0.27649">
        <ele>373.86</ele>
        <time>2024-09-17T09:06:05.000Z</time>
      </trkpt>
      <trkpt lat="43.09919" lon="0.27657">
        <ele>374.28</ele>
        <time>2024-09-17T09:06:12.000Z</time>
      </trkpt>
      <trkpt lat="43.09913" lon="0.2767">
        <ele>374.87</ele>
        <time>2024-09-17T09:06:23.000Z</time>
      </trkpt>
      <trkpt lat="43.0992" lon="0.27679">
        <ele>375.77</ele>
        <time>2024-09-17T09:06:41.000Z</time>
      </trkpt>
      <trkpt lat="43.09929" lon="0.27675">
        <ele>376.18</ele>
        <time>2024-09-17T09:06:50.000Z</time>
      </trkpt>
      <trkpt lat="43.09938" lon="0.27671">
        <ele>376.44</ele>
        <time>2024-09-17T09:06:56.000Z</time>
      </trkpt>
      <trkpt lat="43.09947" lon="0.27664">
        <ele>376.73</ele>
        <time>2024-09-17T09:07:02.000Z</time>
      </trkpt>
      <trkpt lat="43.09955" lon="0.27658">
        <ele>376.97</ele>
        <time>2024-09-17T09:07:07.000Z</time>
      </trkpt>
      <trkpt lat="43.09963" lon="0.27655">
        <ele>377.29</ele>
        <time>2024-09-17T09:07:13.000Z</time>
      </trkpt>
      <trkpt lat="43.09972" lon="0.2765">
        <ele>377.71</ele>
        <time>2024-09-17T09:07:21.000Z</time>
      </trkpt>
      <trkpt lat="43.0998" lon="0.27656">
        <ele>378.19</ele>
        <time>2024-09-17T09:07:30.000Z</time>
      </trkpt>
      <trkpt lat="43.09974" lon="0.27667">
        <ele>378.95</ele>
        <time>2024-09-17T09:07:42.000Z</time>
      </trkpt>
      <trkpt lat="43.09968" lon="0.27679">
        <ele>379.53</ele>
        <time>2024-09-17T09:07:50.000Z</time>
      </trkpt>
      <trkpt lat="43.09963" lon="0.27691">
        <ele>380.16</ele>
        <time>2024-09-17T09:07:58.000Z</time>
      </trkpt>
      <trkpt lat="43.09957" lon="0.27701">
        <ele>380.74</ele>
        <time>2024-09-17T09:08:05.000Z</time>
      </trkpt>
      <trkpt lat="43.0995" lon="0.27711">
        <ele>381.34</ele>
        <time>2024-09-17T09:08:12.000Z</time>
      </trkpt>
      <trkpt lat="43.09945" lon="0.27722">
        <ele>381.93</ele>
        <time>2024-09-17T09:08:19.000Z</time>
      </trkpt>
      <trkpt lat="43.0994" lon="0.27732">
        <ele>382.46</ele>
        <time>2024-09-17T09:08:26.000Z</time>
      </trkpt>
      <trkpt lat="43.09935" lon="0.27743">
        <ele>382.82</ele>
        <time>2024-09-17T09:08:31.000Z</time>
      </trkpt>
      <trkpt lat="43.09929" lon="0.27753">
        <ele>383.33</ele>
        <time>2024-09-17T09:08:38.000Z</time>
      </trkpt>
      <trkpt lat="43.09923" lon="0.27764">
        <ele>383.97</ele>
        <time>2024-09-17T09:08:46.000Z</time>
      </trkpt>
      <trkpt lat="43.09918" lon="0.27774">
        <ele>384.53</ele>
        <time>2024-09-17T09:08:53.000Z</time>
      </trkpt>
      <trkpt lat="43.09912" lon="0.27785">
        <ele>385.14</ele>
        <time>2024-09-17T09:09:01.000Z</time>
      </trkpt>
      <trkpt lat="43.09909" lon="0.27797">
        <ele>385.68</ele>
        <time>2024-09-17T09:09:08.000Z</time>
      </trkpt>
      <trkpt lat="43.09907" lon="0.2781">
        <ele>386.16</ele>
        <time>2024-09-17T09:09:14.000Z</time>
      </trkpt>
      <trkpt lat="43.09903" lon="0.27822">
        <ele>386.74</ele>
        <time>2024-09-17T09:09:21.000Z</time>
      </trkpt>
      <trkpt lat="43.09903" lon="0.27835">
        <ele>387.31</ele>
        <time>2024-09-17T09:09:28.000Z</time>
      </trkpt>
      <trkpt lat="43.099" lon="0.27847">
        <ele>387.78</ele>
        <time>2024-09-17T09:09:34.000Z</time>
      </trkpt>
      <trkpt lat="43.099" lon="0.27861">
        <ele>388.33</ele>
        <time>2024-09-17T09:09:41.000Z</time>
      </trkpt>
      <trkpt lat="43.099" lon="0.27873">
        <ele>388.86</ele>
        <time>2024-09-17T09:09:47.999Z</time>
      </trkpt>
      <trkpt lat="43.09902" lon="0.27886">
        <ele>389.38</ele>
        <time>2024-09-17T09:09:54.999Z</time>
      </trkpt>
      <trkpt lat="43.09905" lon="0.27899">
        <ele>389.99</ele>
        <time>2024-09-17T09:10:02.999Z</time>
      </trkpt>
      <trkpt lat="43.09906" lon="0.27911">
        <ele>390.51</ele>
        <time>2024-09-17T09:10:09.999Z</time>
      </trkpt>
      <trkpt lat="43.09911" lon="0.27923">
        <ele>391.03</ele>
        <time>2024-09-17T09:10:16.999Z</time>
      </trkpt>
      <trkpt lat="43.09916" lon="0.27936">
        <ele>391.55</ele>
        <time>2024-09-17T09:10:23.999Z</time>
      </trkpt>
      <trkpt lat="43.0992" lon="0.27947">
        <ele>392.07</ele>
        <time>2024-09-17T09:10:30.999Z</time>
      </trkpt>
      <trkpt lat="43.09924" lon="0.27959">
        <ele>392.69</ele>
        <time>2024-09-17T09:10:38.999Z</time>
      </trkpt>
      <trkpt lat="43.09926" lon="0.27972">
        <ele>393.36</ele>
        <time>2024-09-17T09:10:46.999Z</time>
      </trkpt>
      <trkpt lat="43.09929" lon="0.27986">
        <ele>393.91</ele>
        <time>2024-09-17T09:10:52.999Z</time>
      </trkpt>
      <trkpt lat="43.09931" lon="0.28">
        <ele>394.76</ele>
        <time>2024-09-17T09:11:00.999Z</time>
      </trkpt>
      <trkpt lat="43.09932" lon="0.28012">
        <ele>395.69</ele>
        <time>2024-09-17T09:11:08.999Z</time>
      </trkpt>
      <trkpt lat="43.09933" lon="0.28026">
        <ele>396.68</ele>
        <time>2024-09-17T09:11:16.999Z</time>
      </trkpt>
      <trkpt lat="43.09934" lon="0.28039">
        <ele>397.47</ele>
        <time>2024-09-17T09:11:22.999Z</time>
      </trkpt>
      <trkpt lat="43.09934" lon="0.28052">
        <ele>398.5</ele>
        <time>2024-09-17T09:11:29.999Z</time>
      </trkpt>
      <trkpt lat="43.09933" lon="0.28067">
        <ele>399.43</ele>
        <time>2024-09-17T09:11:35.999Z</time>
      </trkpt>
      <trkpt lat="43.09933" lon="0.2808">
        <ele>400.47</ele>
        <time>2024-09-17T09:11:42.999Z</time>
      </trkpt>
      <trkpt lat="43.09936" lon="0.28092">
        <ele>401.52</ele>
        <time>2024-09-17T09:11:49.999Z</time>
      </trkpt>
      <trkpt lat="43.09936" lon="0.28106">
        <ele>402.55</ele>
        <time>2024-09-17T09:11:56.999Z</time>
      </trkpt>
      <trkpt lat="43.09934" lon="0.28119">
        <ele>403.8</ele>
        <time>2024-09-17T09:12:04.999Z</time>
      </trkpt>
      <trkpt lat="43.0993" lon="0.28131">
        <ele>404.8</ele>
        <time>2024-09-17T09:12:10.999Z</time>
      </trkpt>
      <trkpt lat="43.09928" lon="0.28144">
        <ele>406</ele>
        <time>2024-09-17T09:12:17.999Z</time>
      </trkpt>
      <trkpt lat="43.09925" lon="0.28157">
        <ele>407.33</ele>
        <time>2024-09-17T09:12:25.999Z</time>
      </trkpt>
      <trkpt lat="43.09921" lon="0.28169">
        <ele>408.27</ele>
        <time>2024-09-17T09:12:31.999Z</time>
      </trkpt>
      <trkpt lat="43.09916" lon="0.2818">
        <ele>409.31</ele>
        <time>2024-09-17T09:12:38.999Z</time>
      </trkpt>
      <trkpt lat="43.09912" lon="0.28191">
        <ele>410.16</ele>
        <time>2024-09-17T09:12:44.999Z</time>
      </trkpt>
      <trkpt lat="43.09909" lon="0.28203">
        <ele>411.1</ele>
        <time>2024-09-17T09:12:51.999Z</time>
      </trkpt>
      <trkpt lat="43.09905" lon="0.28217">
        <ele>412.3</ele>
        <time>2024-09-17T09:13:00.999Z</time>
      </trkpt>
      <trkpt lat="43.09901" lon="0.28231">
        <ele>413.37</ele>
        <time>2024-09-17T09:13:07.999Z</time>
      </trkpt>
      <trkpt lat="43.09897" lon="0.28244">
        <ele>414.28</ele>
        <time>2024-09-17T09:13:13.999Z</time>
      </trkpt>
      <trkpt lat="43.09893" lon="0.28257">
        <ele>415.55</ele>
        <time>2024-09-17T09:13:22.999Z</time>
      </trkpt>
      <trkpt lat="43.09892" lon="0.28269">
        <ele>416.57</ele>
        <time>2024-09-17T09:13:30.999Z</time>
      </trkpt>
      <trkpt lat="43.09888" lon="0.28281">
        <ele>417.29</ele>
        <time>2024-09-17T09:13:36.999Z</time>
      </trkpt>
      <trkpt lat="43.09885" lon="0.28294">
        <ele>418.24</ele>
        <time>2024-09-17T09:13:44.999Z</time>
      </trkpt>
      <trkpt lat="43.09883" lon="0.28306">
        <ele>419.11</ele>
        <time>2024-09-17T09:13:51.999Z</time>
      </trkpt>
      <trkpt lat="43.09879" lon="0.28317">
        <ele>420.01</ele>
        <time>2024-09-17T09:13:58.999Z</time>
      </trkpt>
      <trkpt lat="43.09874" lon="0.28329">
        <ele>420.93</ele>
        <time>2024-09-17T09:14:05.999Z</time>
      </trkpt>
      <trkpt lat="43.09868" lon="0.2834">
        <ele>421.87</ele>
        <time>2024-09-17T09:14:12.999Z</time>
      </trkpt>
      <trkpt lat="43.09862" lon="0.28352">
        <ele>422.8</ele>
        <time>2024-09-17T09:14:19.999Z</time>
      </trkpt>
      <trkpt lat="43.09855" lon="0.28363">
        <ele>423.74</ele>
        <time>2024-09-17T09:14:26.999Z</time>
      </trkpt>
      <trkpt lat="43.0985" lon="0.28372">
        <ele>424.52</ele>
        <time>2024-09-17T09:14:32.999Z</time>
      </trkpt>
      <trkpt lat="43.09844" lon="0.28383">
        <ele>425.3</ele>
        <time>2024-09-17T09:14:38.999Z</time>
      </trkpt>
      <trkpt lat="43.09837" lon="0.28394">
        <ele>426.2</ele>
        <time>2024-09-17T09:14:45.999Z</time>
      </trkpt>
      <trkpt lat="43.09831" lon="0.28405">
        <ele>427.07</ele>
        <time>2024-09-17T09:14:52.999Z</time>
      </trkpt>
      <trkpt lat="43.09825" lon="0.28415">
        <ele>427.91</ele>
        <time>2024-09-17T09:14:59.999Z</time>
      </trkpt>
      <trkpt lat="43.09819" lon="0.28425">
        <ele>428.63</ele>
        <time>2024-09-17T09:15:05.999Z</time>
      </trkpt>
      <trkpt lat="43.09813" lon="0.28435">
        <ele>429.6</ele>
        <time>2024-09-17T09:15:13.999Z</time>
      </trkpt>
      <trkpt lat="43.09807" lon="0.28445">
        <ele>430.43</ele>
        <time>2024-09-17T09:15:20.999Z</time>
      </trkpt>
      <trkpt lat="43.098" lon="0.28455">
        <ele>431.21</ele>
        <time>2024-09-17T09:15:27.999Z</time>
      </trkpt>
      <trkpt lat="43.09792" lon="0.28462">
        <ele>431.86</ele>
        <time>2024-09-17T09:15:33.999Z</time>
      </trkpt>
      <trkpt lat="43.09784" lon="0.2847">
        <ele>432.69</ele>
        <time>2024-09-17T09:15:41.999Z</time>
      </trkpt>
      <trkpt lat="43.09777" lon="0.28477">
        <ele>433.4</ele>
        <time>2024-09-17T09:15:48.999Z</time>
      </trkpt>
      <trkpt lat="43.09769" lon="0.28485">
        <ele>434.12</ele>
        <time>2024-09-17T09:15:55.999Z</time>
      </trkpt>
      <trkpt lat="43.09762" lon="0.28494">
        <ele>434.84</ele>
        <time>2024-09-17T09:16:02.999Z</time>
      </trkpt>
      <trkpt lat="43.09755" lon="0.28502">
        <ele>435.45</ele>
        <time>2024-09-17T09:16:08.999Z</time>
      </trkpt>
      <trkpt lat="43.09748" lon="0.28512">
        <ele>436.15</ele>
        <time>2024-09-17T09:16:15.999Z</time>
      </trkpt>
      <trkpt lat="43.09741" lon="0.28519">
        <ele>436.75</ele>
        <time>2024-09-17T09:16:21.999Z</time>
      </trkpt>
      <trkpt lat="43.09733" lon="0.28528">
        <ele>437.45</ele>
        <time>2024-09-17T09:16:28.999Z</time>
      </trkpt>
      <trkpt lat="43.09725" lon="0.28536">
        <ele>438.14</ele>
        <time>2024-09-17T09:16:35.999Z</time>
      </trkpt>
      <trkpt lat="43.09718" lon="0.28544">
        <ele>438.96</ele>
        <time>2024-09-17T09:16:44.999Z</time>
      </trkpt>
      <trkpt lat="43.0971" lon="0.28553">
        <ele>439.64</ele>
        <time>2024-09-17T09:16:52.999Z</time>
      </trkpt>
      <trkpt lat="43.09702" lon="0.28559">
        <ele>440.22</ele>
        <time>2024-09-17T09:16:59.999Z</time>
      </trkpt>
      <trkpt lat="43.09695" lon="0.28567">
        <ele>440.87</ele>
        <time>2024-09-17T09:17:07.999Z</time>
      </trkpt>
      <trkpt lat="43.09687" lon="0.28574">
        <ele>441.43</ele>
        <time>2024-09-17T09:17:14.999Z</time>
      </trkpt>
      <trkpt lat="43.09679" lon="0.28581">
        <ele>442.08</ele>
        <time>2024-09-17T09:17:22.999Z</time>
      </trkpt>
      <trkpt lat="43.09669" lon="0.28588">
        <ele>442.69</ele>
        <time>2024-09-17T09:17:30.999Z</time>
      </trkpt>
      <trkpt lat="43.09664" lon="0.28599">
        <ele>443.15</ele>
        <time>2024-09-17T09:17:36.999Z</time>
      </trkpt>
      <trkpt lat="43.09655" lon="0.28597">
        <ele>458.91</ele>
        <time>2024-09-17T09:27:33.000Z</time>
      </trkpt>
      <trkpt lat="43.09661" lon="0.28606">
        <ele>465.27</ele>
        <time>2024-09-17T09:36:42.999Z</time>
      </trkpt>
      <trkpt lat="43.09666" lon="0.2862">
        <ele>465.39</ele>
        <time>2024-09-17T09:36:48.999Z</time>
      </trkpt>
      <trkpt lat="43.09671" lon="0.28635">
        <ele>465.48</ele>
        <time>2024-09-17T09:36:53.999Z</time>
      </trkpt>
      <trkpt lat="43.09676" lon="0.28645">
        <ele>465.56</ele>
        <time>2024-09-17T09:36:58.999Z</time>
      </trkpt>
      <trkpt lat="43.09681" lon="0.28657">
        <ele>465.65</ele>
        <time>2024-09-17T09:37:04.999Z</time>
      </trkpt>
      <trkpt lat="43.09686" lon="0.28669">
        <ele>465.74</ele>
        <time>2024-09-17T09:37:11.999Z</time>
      </trkpt>
      <trkpt lat="43.09693" lon="0.28678">
        <ele>465.82</ele>
        <time>2024-09-17T09:37:18.999Z</time>
      </trkpt>
      <trkpt lat="43.09699" lon="0.28687">
        <ele>465.88</ele>
        <time>2024-09-17T09:37:24.999Z</time>
      </trkpt>
      <trkpt lat="43.09706" lon="0.28696">
        <ele>465.94</ele>
        <time>2024-09-17T09:37:30.999Z</time>
      </trkpt>
      <trkpt lat="43.09714" lon="0.28705">
        <ele>466</ele>
        <time>2024-09-17T09:37:37.999Z</time>
      </trkpt>
      <trkpt lat="43.09724" lon="0.28712">
        <ele>466.03</ele>
        <time>2024-09-17T09:37:42.999Z</time>
      </trkpt>
      <trkpt lat="43.09733" lon="0.28714">
        <ele>466.07</ele>
        <time>2024-09-17T09:37:47.999Z</time>
      </trkpt>
      <trkpt lat="43.09743" lon="0.28714">
        <ele>466.1</ele>
        <time>2024-09-17T09:37:52.999Z</time>
      </trkpt>
      <trkpt lat="43.09755" lon="0.28712">
        <ele>466.13</ele>
        <time>2024-09-17T09:37:57.999Z</time>
      </trkpt>
      <trkpt lat="43.09766" lon="0.28711">
        <ele>466.16</ele>
        <time>2024-09-17T09:38:02.999Z</time>
      </trkpt>
      <trkpt lat="43.09778" lon="0.28711">
        <ele>466.19</ele>
        <time>2024-09-17T09:38:07.999Z</time>
      </trkpt>
      <trkpt lat="43.09789" lon="0.28712">
        <ele>466.22</ele>
        <time>2024-09-17T09:38:12.999Z</time>
      </trkpt>
      <trkpt lat="43.098" lon="0.28714">
        <ele>466.25</ele>
        <time>2024-09-17T09:38:17.999Z</time>
      </trkpt>
      <trkpt lat="43.0981" lon="0.28717">
        <ele>466.29</ele>
        <time>2024-09-17T09:38:22.999Z</time>
      </trkpt>
      <trkpt lat="43.09819" lon="0.28721">
        <ele>466.34</ele>
        <time>2024-09-17T09:38:27.999Z</time>
      </trkpt>
      <trkpt lat="43.09828" lon="0.28724">
        <ele>466.39</ele>
        <time>2024-09-17T09:38:33.999Z</time>
      </trkpt>
      <trkpt lat="43.09837" lon="0.28727">
        <ele>466.45</ele>
        <time>2024-09-17T09:38:38.999Z</time>
      </trkpt>
      <trkpt lat="43.09847" lon="0.28731">
        <ele>466.51</ele>
        <time>2024-09-17T09:38:44.999Z</time>
      </trkpt>
      <trkpt lat="43.09856" lon="0.28736">
        <ele>466.58</ele>
        <time>2024-09-17T09:38:50.999Z</time>
      </trkpt>
      <trkpt lat="43.09866" lon="0.28739">
        <ele>466.65</ele>
        <time>2024-09-17T09:38:56.999Z</time>
      </trkpt>
      <trkpt lat="43.09873" lon="0.28749">
        <ele>466.74</ele>
        <time>2024-09-17T09:39:03.999Z</time>
      </trkpt>
      <trkpt lat="43.09875" lon="0.28762">
        <ele>466.8</ele>
        <time>2024-09-17T09:39:08.999Z</time>
      </trkpt>
      <trkpt lat="43.09877" lon="0.28774">
        <ele>466.87</ele>
        <time>2024-09-17T09:39:13.999Z</time>
      </trkpt>
      <trkpt lat="43.09881" lon="0.28788">
        <ele>466.93</ele>
        <time>2024-09-17T09:39:18.999Z</time>
      </trkpt>
      <trkpt lat="43.09886" lon="0.28808">
        <ele>466.99</ele>
        <time>2024-09-17T09:39:23.999Z</time>
      </trkpt>
      <trkpt lat="43.09893" lon="0.28835">
        <ele>467.35</ele>
        <time>2024-09-17T09:39:28.999Z</time>
      </trkpt>
      <trkpt lat="43.09895" lon="0.28864">
        <ele>467.61</ele>
        <time>2024-09-17T09:39:33.999Z</time>
      </trkpt>
      <trkpt lat="43.0989" lon="0.28889">
        <ele>467.74</ele>
        <time>2024-09-17T09:39:38.999Z</time>
      </trkpt>
      <trkpt lat="43.09883" lon="0.28911">
        <ele>467.8</ele>
        <time>2024-09-17T09:39:43.999Z</time>
      </trkpt>
      <trkpt lat="43.09879" lon="0.28922">
        <ele>467.92</ele>
        <time>2024-09-17T09:39:48.999Z</time>
      </trkpt>
      <trkpt lat="43.09875" lon="0.28936">
        <ele>468.1</ele>
        <time>2024-09-17T09:39:53.999Z</time>
      </trkpt>
      <trkpt lat="43.09869" lon="0.28952">
        <ele>468.3</ele>
        <time>2024-09-17T09:39:58.999Z</time>
      </trkpt>
      <trkpt lat="43.09862" lon="0.28966">
        <ele>468.52</ele>
        <time>2024-09-17T09:40:03.999Z</time>
      </trkpt>
      <trkpt lat="43.09857" lon="0.2898">
        <ele>468.78</ele>
        <time>2024-09-17T09:40:08.999Z</time>
      </trkpt>
      <trkpt lat="43.09856" lon="0.28996">
        <ele>469.12</ele>
        <time>2024-09-17T09:40:13.999Z</time>
      </trkpt>
      <trkpt lat="43.09856" lon="0.29012">
        <ele>469.53</ele>
        <time>2024-09-17T09:40:18.999Z</time>
      </trkpt>
      <trkpt lat="43.0986" lon="0.29029">
        <ele>469.97</ele>
        <time>2024-09-17T09:40:23.999Z</time>
      </trkpt>
      <trkpt lat="43.09864" lon="0.29044">
        <ele>470.43</ele>
        <time>2024-09-17T09:40:28.999Z</time>
      </trkpt>
      <trkpt lat="43.09868" lon="0.2906">
        <ele>470.92</ele>
        <time>2024-09-17T09:40:33.999Z</time>
      </trkpt>
      <trkpt lat="43.09872" lon="0.29076">
        <ele>471.41</ele>
        <time>2024-09-17T09:40:38.999Z</time>
      </trkpt>
      <trkpt lat="43.09875" lon="0.29092">
        <ele>471.95</ele>
        <time>2024-09-17T09:40:43.999Z</time>
      </trkpt>
      <trkpt lat="43.09874" lon="0.29113">
        <ele>472.52</ele>
        <time>2024-09-17T09:40:48.999Z</time>
      </trkpt>
      <trkpt lat="43.09872" lon="0.29137">
        <ele>473.19</ele>
        <time>2024-09-17T09:40:53.999Z</time>
      </trkpt>
      <trkpt lat="43.09869" lon="0.29153">
        <ele>473.84</ele>
        <time>2024-09-17T09:40:58.999Z</time>
      </trkpt>
      <trkpt lat="43.09862" lon="0.29172">
        <ele>474.54</ele>
        <time>2024-09-17T09:41:03.999Z</time>
      </trkpt>
      <trkpt lat="43.09849" lon="0.29189">
        <ele>475.31</ele>
        <time>2024-09-17T09:41:08.999Z</time>
      </trkpt>
      <trkpt lat="43.09838" lon="0.29201">
        <ele>476.13</ele>
        <time>2024-09-17T09:41:13.999Z</time>
      </trkpt>
      <trkpt lat="43.0983" lon="0.29208">
        <ele>476.99</ele>
        <time>2024-09-17T09:41:18.999Z</time>
      </trkpt>
      <trkpt lat="43.09821" lon="0.29217">
        <ele>477.8</ele>
        <time>2024-09-17T09:41:23.999Z</time>
      </trkpt>
      <trkpt lat="43.09812" lon="0.29226">
        <ele>478.58</ele>
        <time>2024-09-17T09:41:28.999Z</time>
      </trkpt>
      <trkpt lat="43.09804" lon="0.29235">
        <ele>479.38</ele>
        <time>2024-09-17T09:41:33.999Z</time>
      </trkpt>
      <trkpt lat="43.09796" lon="0.29244">
        <ele>480.22</ele>
        <time>2024-09-17T09:41:38.999Z</time>
      </trkpt>
      <trkpt lat="43.09789" lon="0.29253">
        <ele>481.3</ele>
        <time>2024-09-17T09:41:44.999Z</time>
      </trkpt>
      <trkpt lat="43.09782" lon="0.29264">
        <ele>482.24</ele>
        <time>2024-09-17T09:41:49.999Z</time>
      </trkpt>
      <trkpt lat="43.09776" lon="0.29275">
        <ele>483.2</ele>
        <time>2024-09-17T09:41:54.999Z</time>
      </trkpt>
      <trkpt lat="43.0977" lon="0.29285">
        <ele>484.2</ele>
        <time>2024-09-17T09:41:59.999Z</time>
      </trkpt>
      <trkpt lat="43.09764" lon="0.29298">
        <ele>485.43</ele>
        <time>2024-09-17T09:42:05.999Z</time>
      </trkpt>
      <trkpt lat="43.09758" lon="0.29309">
        <ele>486.53</ele>
        <time>2024-09-17T09:42:10.999Z</time>
      </trkpt>
      <trkpt lat="43.09753" lon="0.29319">
        <ele>487.62</ele>
        <time>2024-09-17T09:42:15.999Z</time>
      </trkpt>
      <trkpt lat="43.0975" lon="0.29331">
        <ele>488.68</ele>
        <time>2024-09-17T09:42:20.999Z</time>
      </trkpt>
      <trkpt lat="43.09746" lon="0.29344">
        <ele>489.89</ele>
        <time>2024-09-17T09:42:26.999Z</time>
      </trkpt>
      <trkpt lat="43.09743" lon="0.29358">
        <ele>490.85</ele>
        <time>2024-09-17T09:42:31.999Z</time>
      </trkpt>
      <trkpt lat="43.0974" lon="0.29372">
        <ele>491.76</ele>
        <time>2024-09-17T09:42:36.999Z</time>
      </trkpt>
      <trkpt lat="43.09738" lon="0.29392">
        <ele>492.61</ele>
        <time>2024-09-17T09:42:41.999Z</time>
      </trkpt>
      <trkpt lat="43.09738" lon="0.29411">
        <ele>493.38</ele>
        <time>2024-09-17T09:42:46.999Z</time>
      </trkpt>
      <trkpt lat="43.0974" lon="0.2943">
        <ele>494.06</ele>
        <time>2024-09-17T09:42:51.999Z</time>
      </trkpt>
      <trkpt lat="43.09741" lon="0.2945">
        <ele>494.7</ele>
        <time>2024-09-17T09:42:56.999Z</time>
      </trkpt>
      <trkpt lat="43.0974" lon="0.29469">
        <ele>495.31</ele>
        <time>2024-09-17T09:43:01.999Z</time>
      </trkpt>
      <trkpt lat="43.09737" lon="0.29491">
        <ele>495.88</ele>
        <time>2024-09-17T09:43:06.999Z</time>
      </trkpt>
      <trkpt lat="43.09731" lon="0.29511">
        <ele>496.4</ele>
        <time>2024-09-17T09:43:11.999Z</time>
      </trkpt>
      <trkpt lat="43.09726" lon="0.2953">
        <ele>496.89</ele>
        <time>2024-09-17T09:43:16.999Z</time>
      </trkpt>
      <trkpt lat="43.09719" lon="0.29549">
        <ele>497.34</ele>
        <time>2024-09-17T09:43:21.999Z</time>
      </trkpt>
      <trkpt lat="43.09714" lon="0.29568">
        <ele>497.76</ele>
        <time>2024-09-17T09:43:26.999Z</time>
      </trkpt>
      <trkpt lat="43.09708" lon="0.2959">
        <ele>498.15</ele>
        <time>2024-09-17T09:43:31.999Z</time>
      </trkpt>
      <trkpt lat="43.09705" lon="0.29612">
        <ele>498.51</ele>
        <time>2024-09-17T09:43:36.999Z</time>
      </trkpt>
      <trkpt lat="43.09706" lon="0.29632">
        <ele>498.85</ele>
        <time>2024-09-17T09:43:41.999Z</time>
      </trkpt>
      <trkpt lat="43.09711" lon="0.29651">
        <ele>499.18</ele>
        <time>2024-09-17T09:43:46.999Z</time>
      </trkpt>
      <trkpt lat="43.09722" lon="0.29672">
        <ele>499.49</ele>
        <time>2024-09-17T09:43:51.999Z</time>
      </trkpt>
      <trkpt lat="43.09735" lon="0.29697">
        <ele>500.69</ele>
        <time>2024-09-17T09:43:56.999Z</time>
      </trkpt>
      <trkpt lat="43.09746" lon="0.29721">
        <ele>502.07</ele>
        <time>2024-09-17T09:44:01.999Z</time>
      </trkpt>
      <trkpt lat="43.09757" lon="0.29746">
        <ele>502.61</ele>
        <time>2024-09-17T09:44:06.999Z</time>
      </trkpt>
      <trkpt lat="43.09762" lon="0.29772">
        <ele>502.72</ele>
        <time>2024-09-17T09:44:11.999Z</time>
      </trkpt>
      <trkpt lat="43.09758" lon="0.29797">
        <ele>502.83</ele>
        <time>2024-09-17T09:44:16.999Z</time>
      </trkpt>
      <trkpt lat="43.09752" lon="0.29817">
        <ele>502.86</ele>
        <time>2024-09-17T09:44:21.999Z</time>
      </trkpt>
      <trkpt lat="43.09746" lon="0.29833">
        <ele>502.89</ele>
        <time>2024-09-17T09:44:26.999Z</time>
      </trkpt>
      <trkpt lat="43.09742" lon="0.29845">
        <ele>502.91</ele>
        <time>2024-09-17T09:44:31.999Z</time>
      </trkpt>
      <trkpt lat="43.09739" lon="0.29857">
        <ele>502.94</ele>
        <time>2024-09-17T09:44:37.999Z</time>
      </trkpt>
      <trkpt lat="43.09735" lon="0.2987">
        <ele>502.99</ele>
        <time>2024-09-17T09:44:43.999Z</time>
      </trkpt>
      <trkpt lat="43.09732" lon="0.29882">
        <ele>503.06</ele>
        <time>2024-09-17T09:44:50.999Z</time>
      </trkpt>
      <trkpt lat="43.09729" lon="0.29896">
        <ele>503.15</ele>
        <time>2024-09-17T09:44:57.999Z</time>
      </trkpt>
      <trkpt lat="43.09723" lon="0.29907">
        <ele>503.34</ele>
        <time>2024-09-17T09:45:22.999Z</time>
      </trkpt>
      <trkpt lat="43.09719" lon="0.29919">
        <ele>503.48</ele>
        <time>2024-09-17T09:45:28.999Z</time>
      </trkpt>
      <trkpt lat="43.09715" lon="0.29931">
        <ele>503.6</ele>
        <time>2024-09-17T09:45:33.999Z</time>
      </trkpt>
      <trkpt lat="43.0971" lon="0.29942">
        <ele>503.71</ele>
        <time>2024-09-17T09:45:38.999Z</time>
      </trkpt>
      <trkpt lat="43.09705" lon="0.29957">
        <ele>503.82</ele>
        <time>2024-09-17T09:45:43.999Z</time>
      </trkpt>
      <trkpt lat="43.09701" lon="0.29969">
        <ele>503.94</ele>
        <time>2024-09-17T09:45:48.999Z</time>
      </trkpt>
      <trkpt lat="43.09696" lon="0.29982">
        <ele>504.09</ele>
        <time>2024-09-17T09:45:55.000Z</time>
      </trkpt>
      <trkpt lat="43.09693" lon="0.29996">
        <ele>504.24</ele>
        <time>2024-09-17T09:46:00.000Z</time>
      </trkpt>
      <trkpt lat="43.0969" lon="0.30008">
        <ele>504.43</ele>
        <time>2024-09-17T09:46:05.000Z</time>
      </trkpt>
      <trkpt lat="43.09687" lon="0.30021">
        <ele>504.63</ele>
        <time>2024-09-17T09:46:10.000Z</time>
      </trkpt>
      <trkpt lat="43.09684" lon="0.30035">
        <ele>504.83</ele>
        <time>2024-09-17T09:46:15.000Z</time>
      </trkpt>
      <trkpt lat="43.09683" lon="0.30048">
        <ele>505.02</ele>
        <time>2024-09-17T09:46:20.000Z</time>
      </trkpt>
      <trkpt lat="43.09685" lon="0.30061">
        <ele>505.23</ele>
        <time>2024-09-17T09:46:26.000Z</time>
      </trkpt>
      <trkpt lat="43.09686" lon="0.30075">
        <ele>505.47</ele>
        <time>2024-09-17T09:46:33.000Z</time>
      </trkpt>
      <trkpt lat="43.09687" lon="0.30089">
        <ele>505.74</ele>
        <time>2024-09-17T09:46:40.000Z</time>
      </trkpt>
      <trkpt lat="43.09687" lon="0.30103">
        <ele>506.03</ele>
        <time>2024-09-17T09:46:47.000Z</time>
      </trkpt>
      <trkpt lat="43.09688" lon="0.30115">
        <ele>506.28</ele>
        <time>2024-09-17T09:46:53.000Z</time>
      </trkpt>
      <trkpt lat="43.09688" lon="0.30128">
        <ele>506.55</ele>
        <time>2024-09-17T09:46:59.000Z</time>
      </trkpt>
      <trkpt lat="43.09688" lon="0.30141">
        <ele>506.83</ele>
        <time>2024-09-17T09:47:05.000Z</time>
      </trkpt>
      <trkpt lat="43.09688" lon="0.30154">
        <ele>507.12</ele>
        <time>2024-09-17T09:47:11.000Z</time>
      </trkpt>
      <trkpt lat="43.09688" lon="0.30168">
        <ele>507.46</ele>
        <time>2024-09-17T09:47:18.000Z</time>
      </trkpt>
      <trkpt lat="43.09689" lon="0.30181">
        <ele>507.81</ele>
        <time>2024-09-17T09:47:25.000Z</time>
      </trkpt>
      <trkpt lat="43.09688" lon="0.30194">
        <ele>508.1</ele>
        <time>2024-09-17T09:47:31.000Z</time>
      </trkpt>
      <trkpt lat="43.09688" lon="0.30207">
        <ele>508.41</ele>
        <time>2024-09-17T09:47:37.000Z</time>
      </trkpt>
      <trkpt lat="43.09687" lon="0.3022">
        <ele>508.73</ele>
        <time>2024-09-17T09:47:43.000Z</time>
      </trkpt>
      <trkpt lat="43.09686" lon="0.30234">
        <ele>509.12</ele>
        <time>2024-09-17T09:47:50.000Z</time>
      </trkpt>
      <trkpt lat="43.09686" lon="0.30247">
        <ele>509.46</ele>
        <time>2024-09-17T09:47:56.000Z</time>
      </trkpt>
      <trkpt lat="43.09686" lon="0.30261">
        <ele>509.75</ele>
        <time>2024-09-17T09:48:01.000Z</time>
      </trkpt>
      <trkpt lat="43.09685" lon="0.30274">
        <ele>510.08</ele>
        <time>2024-09-17T09:48:06.000Z</time>
      </trkpt>
      <trkpt lat="43.09685" lon="0.30288">
        <ele>510.53</ele>
        <time>2024-09-17T09:48:12.000Z</time>
      </trkpt>
      <trkpt lat="43.09686" lon="0.30302">
        <ele>511.02</ele>
        <time>2024-09-17T09:48:18.000Z</time>
      </trkpt>
      <trkpt lat="43.09687" lon="0.30318">
        <ele>511.43</ele>
        <time>2024-09-17T09:48:23.000Z</time>
      </trkpt>
      <trkpt lat="43.09688" lon="0.30338">
        <ele>511.84</ele>
        <time>2024-09-17T09:48:28.000Z</time>
      </trkpt>
      <trkpt lat="43.09687" lon="0.30359">
        <ele>512.27</ele>
        <time>2024-09-17T09:48:33.000Z</time>
      </trkpt>
      <trkpt lat="43.09688" lon="0.30373">
        <ele>512.71</ele>
        <time>2024-09-17T09:48:38.000Z</time>
      </trkpt>
      <trkpt lat="43.09689" lon="0.30388">
        <ele>513.4</ele>
        <time>2024-09-17T09:48:44.000Z</time>
      </trkpt>
      <trkpt lat="43.09686" lon="0.30401">
        <ele>514.1</ele>
        <time>2024-09-17T09:48:49.000Z</time>
      </trkpt>
      <trkpt lat="43.09684" lon="0.30416">
        <ele>514.85</ele>
        <time>2024-09-17T09:48:54.000Z</time>
      </trkpt>
      <trkpt lat="43.09679" lon="0.30429">
        <ele>515.65</ele>
        <time>2024-09-17T09:48:59.000Z</time>
      </trkpt>
      <trkpt lat="43.09676" lon="0.30445">
        <ele>516.51</ele>
        <time>2024-09-17T09:49:04.000Z</time>
      </trkpt>
      <trkpt lat="43.09673" lon="0.30457">
        <ele>517.45</ele>
        <time>2024-09-17T09:49:09.000Z</time>
      </trkpt>
      <trkpt lat="43.0967" lon="0.30469">
        <ele>518.41</ele>
        <time>2024-09-17T09:49:14.000Z</time>
      </trkpt>
      <trkpt lat="43.09668" lon="0.3048">
        <ele>519.66</ele>
        <time>2024-09-17T09:49:21.000Z</time>
      </trkpt>
      <trkpt lat="43.09667" lon="0.30494">
        <ele>520.82</ele>
        <time>2024-09-17T09:49:28.000Z</time>
      </trkpt>
      <trkpt lat="43.09666" lon="0.30507">
        <ele>522.9</ele>
        <time>2024-09-17T09:50:08.000Z</time>
      </trkpt>
      <trkpt lat="43.09669" lon="0.30519">
        <ele>524.79</ele>
        <time>2024-09-17T09:50:21.000Z</time>
      </trkpt>
      <trkpt lat="43.0966" lon="0.30525">
        <ele>533.03</ele>
        <time>2024-09-17T09:53:23.000Z</time>
      </trkpt>
      <trkpt lat="43.09653" lon="0.30534">
        <ele>534.33</ele>
        <time>2024-09-17T09:53:31.000Z</time>
      </trkpt>
      <trkpt lat="43.09645" lon="0.30542">
        <ele>535.32</ele>
        <time>2024-09-17T09:53:38.000Z</time>
      </trkpt>
      <trkpt lat="43.09638" lon="0.3055">
        <ele>536.24</ele>
        <time>2024-09-17T09:53:45.000Z</time>
      </trkpt>
      <trkpt lat="43.0963" lon="0.30556">
        <ele>536.99</ele>
        <time>2024-09-17T09:53:51.000Z</time>
      </trkpt>
      <trkpt lat="43.0962" lon="0.3056">
        <ele>537.69</ele>
        <time>2024-09-17T09:53:57.000Z</time>
      </trkpt>
      <trkpt lat="43.09612" lon="0.30566">
        <ele>538.24</ele>
        <time>2024-09-17T09:54:02.000Z</time>
      </trkpt>
      <trkpt lat="43.09603" lon="0.3058">
        <ele>538.76</ele>
        <time>2024-09-17T09:54:07.000Z</time>
      </trkpt>
      <trkpt lat="43.09592" lon="0.30598">
        <ele>539.27</ele>
        <time>2024-09-17T09:54:12.000Z</time>
      </trkpt>
      <trkpt lat="43.09584" lon="0.30611">
        <ele>539.77</ele>
        <time>2024-09-17T09:54:17.000Z</time>
      </trkpt>
      <trkpt lat="43.09574" lon="0.30629">
        <ele>540.25</ele>
        <time>2024-09-17T09:54:22.000Z</time>
      </trkpt>
      <trkpt lat="43.09564" lon="0.30646">
        <ele>540.73</ele>
        <time>2024-09-17T09:54:27.000Z</time>
      </trkpt>
      <trkpt lat="43.09556" lon="0.30662">
        <ele>541.23</ele>
        <time>2024-09-17T09:54:32.000Z</time>
      </trkpt>
      <trkpt lat="43.09545" lon="0.30682">
        <ele>541.77</ele>
        <time>2024-09-17T09:54:37.000Z</time>
      </trkpt>
      <trkpt lat="43.09535" lon="0.307">
        <ele>542.34</ele>
        <time>2024-09-17T09:54:42.000Z</time>
      </trkpt>
      <trkpt lat="43.09526" lon="0.30718">
        <ele>542.96</ele>
        <time>2024-09-17T09:54:47.000Z</time>
      </trkpt>
      <trkpt lat="43.09515" lon="0.30736">
        <ele>543.61</ele>
        <time>2024-09-17T09:54:52.000Z</time>
      </trkpt>
      <trkpt lat="43.095" lon="0.30762">
        <ele>544.25</ele>
        <time>2024-09-17T09:54:57.000Z</time>
      </trkpt>
      <trkpt lat="43.0949" lon="0.30788">
        <ele>544.91</ele>
        <time>2024-09-17T09:55:02.000Z</time>
      </trkpt>
      <trkpt lat="43.09478" lon="0.30809">
        <ele>545.55</ele>
        <time>2024-09-17T09:55:07.000Z</time>
      </trkpt>
      <trkpt lat="43.09468" lon="0.30837">
        <ele>546.2</ele>
        <time>2024-09-17T09:55:12.000Z</time>
      </trkpt>
      <trkpt lat="43.09457" lon="0.30873">
        <ele>548.73</ele>
        <time>2024-09-17T09:55:17.000Z</time>
      </trkpt>
      <trkpt lat="43.09445" lon="0.30907">
        <ele>551.75</ele>
        <time>2024-09-17T09:55:22.000Z</time>
      </trkpt>
      <trkpt lat="43.0943" lon="0.30946">
        <ele>553.67</ele>
        <time>2024-09-17T09:55:27.000Z</time>
      </trkpt>
      <trkpt lat="43.09412" lon="0.30993">
        <ele>555.22</ele>
        <time>2024-09-17T09:55:32.000Z</time>
      </trkpt>
      <trkpt lat="43.09389" lon="0.31038">
        <ele>556.36</ele>
        <time>2024-09-17T09:55:37.000Z</time>
      </trkpt>
      <trkpt lat="43.09371" lon="0.31073">
        <ele>557.65</ele>
        <time>2024-09-17T09:55:42.000Z</time>
      </trkpt>
      <trkpt lat="43.0936" lon="0.311">
        <ele>559.02</ele>
        <time>2024-09-17T09:55:47.000Z</time>
      </trkpt>
      <trkpt lat="43.09354" lon="0.31115">
        <ele>559.28</ele>
        <time>2024-09-17T09:55:52.000Z</time>
      </trkpt>
      <trkpt lat="43.09349" lon="0.31128">
        <ele>559.58</ele>
        <time>2024-09-17T09:55:57.000Z</time>
      </trkpt>
      <trkpt lat="43.09341" lon="0.31142">
        <ele>559.96</ele>
        <time>2024-09-17T09:56:02.000Z</time>
      </trkpt>
      <trkpt lat="43.09331" lon="0.31156">
        <ele>560.4</ele>
        <time>2024-09-17T09:56:07.000Z</time>
      </trkpt>
      <trkpt lat="43.0932" lon="0.31169">
        <ele>560.91</ele>
        <time>2024-09-17T09:56:12.000Z</time>
      </trkpt>
      <trkpt lat="43.09311" lon="0.31181">
        <ele>561.48</ele>
        <time>2024-09-17T09:56:17.000Z</time>
      </trkpt>
      <trkpt lat="43.09301" lon="0.31195">
        <ele>562.03</ele>
        <time>2024-09-17T09:56:22.000Z</time>
      </trkpt>
      <trkpt lat="43.09291" lon="0.31213">
        <ele>562.54</ele>
        <time>2024-09-17T09:56:27.000Z</time>
      </trkpt>
      <trkpt lat="43.09281" lon="0.31234">
        <ele>563.54</ele>
        <time>2024-09-17T09:56:32.000Z</time>
      </trkpt>
      <trkpt lat="43.09269" lon="0.31256">
        <ele>565.49</ele>
        <time>2024-09-17T09:56:37.000Z</time>
      </trkpt>
      <trkpt lat="43.09258" lon="0.31275">
        <ele>565.69</ele>
        <time>2024-09-17T09:56:42.000Z</time>
      </trkpt>
      <trkpt lat="43.09252" lon="0.31287">
        <ele>565.79</ele>
        <time>2024-09-17T09:56:47.000Z</time>
      </trkpt>
      <trkpt lat="43.09246" lon="0.31301">
        <ele>565.88</ele>
        <time>2024-09-17T09:56:52.000Z</time>
      </trkpt>
      <trkpt lat="43.0924" lon="0.31315">
        <ele>565.95</ele>
        <time>2024-09-17T09:56:57.000Z</time>
      </trkpt>
      <trkpt lat="43.09236" lon="0.31328">
        <ele>566</ele>
        <time>2024-09-17T09:57:02.000Z</time>
      </trkpt>
      <trkpt lat="43.0923" lon="0.31344">
        <ele>566.04</ele>
        <time>2024-09-17T09:57:07.000Z</time>
      </trkpt>
      <trkpt lat="43.09225" lon="0.31358">
        <ele>566.1</ele>
        <time>2024-09-17T09:57:12.000Z</time>
      </trkpt>
      <trkpt lat="43.0922" lon="0.31373">
        <ele>566.16</ele>
        <time>2024-09-17T09:57:17.000Z</time>
      </trkpt>
      <trkpt lat="43.09215" lon="0.31391">
        <ele>566.22</ele>
        <time>2024-09-17T09:57:22.000Z</time>
      </trkpt>
      <trkpt lat="43.09211" lon="0.31409">
        <ele>566.28</ele>
        <time>2024-09-17T09:57:27.000Z</time>
      </trkpt>
      <trkpt lat="43.09207" lon="0.31428">
        <ele>566.32</ele>
        <time>2024-09-17T09:57:32.000Z</time>
      </trkpt>
      <trkpt lat="43.09204" lon="0.31447">
        <ele>566.36</ele>
        <time>2024-09-17T09:57:37.000Z</time>
      </trkpt>
      <trkpt lat="43.092" lon="0.31469">
        <ele>566.4</ele>
        <time>2024-09-17T09:57:42.000Z</time>
      </trkpt>
      <trkpt lat="43.09197" lon="0.31494">
        <ele>566.59</ele>
        <time>2024-09-17T09:57:47.000Z</time>
      </trkpt>
      <trkpt lat="43.0919" lon="0.31521">
        <ele>566.56</ele>
        <time>2024-09-17T09:57:52.000Z</time>
      </trkpt>
      <trkpt lat="43.0917" lon="0.31552">
        <ele>566.49</ele>
        <time>2024-09-17T09:57:57.999Z</time>
      </trkpt>
      <trkpt lat="43.09149" lon="0.31574">
        <ele>566.5</ele>
        <time>2024-09-17T09:58:02.999Z</time>
      </trkpt>
      <trkpt lat="43.09133" lon="0.3159">
        <ele>566.4</ele>
        <time>2024-09-17T09:58:07.999Z</time>
      </trkpt>
      <trkpt lat="43.09112" lon="0.31617">
        <ele>566.25</ele>
        <time>2024-09-17T09:58:12.999Z</time>
      </trkpt>
      <trkpt lat="43.09095" lon="0.31647">
        <ele>566.21</ele>
        <time>2024-09-17T09:58:17.999Z</time>
      </trkpt>
      <trkpt lat="43.09077" lon="0.31678">
        <ele>566.49</ele>
        <time>2024-09-17T09:58:22.999Z</time>
      </trkpt>
      <trkpt lat="43.09056" lon="0.31715">
        <ele>566.88</ele>
        <time>2024-09-17T09:58:27.999Z</time>
      </trkpt>
      <trkpt lat="43.09043" lon="0.31762">
        <ele>567.06</ele>
        <time>2024-09-17T09:58:32.999Z</time>
      </trkpt>
      <trkpt lat="43.09021" lon="0.31752">
        <ele>566.9</ele>
        <time>2024-09-17T09:58:37.999Z</time>
      </trkpt>
      <trkpt lat="43.09012" lon="0.31734">
        <ele>566.81</ele>
        <time>2024-09-17T09:58:42.999Z</time>
      </trkpt>
      <trkpt lat="43.09005" lon="0.3172">
        <ele>566.74</ele>
        <time>2024-09-17T09:58:47.999Z</time>
      </trkpt>
      <trkpt lat="43.08997" lon="0.31708">
        <ele>566.63</ele>
        <time>2024-09-17T09:58:52.999Z</time>
      </trkpt>
      <trkpt lat="43.08989" lon="0.31695">
        <ele>566.49</ele>
        <time>2024-09-17T09:58:57.999Z</time>
      </trkpt>
      <trkpt lat="43.08982" lon="0.31679">
        <ele>566.43</ele>
        <time>2024-09-17T09:59:02.999Z</time>
      </trkpt>
      <trkpt lat="43.08977" lon="0.31668">
        <ele>566.49</ele>
        <time>2024-09-17T09:59:07.999Z</time>
      </trkpt>
      <trkpt lat="43.0897" lon="0.31651">
        <ele>566.58</ele>
        <time>2024-09-17T09:59:12.999Z</time>
      </trkpt>
      <trkpt lat="43.08965" lon="0.31641">
        <ele>566.68</ele>
        <time>2024-09-17T09:59:17.999Z</time>
      </trkpt>
      <trkpt lat="43.08958" lon="0.31631">
        <ele>566.84</ele>
        <time>2024-09-17T09:59:23.999Z</time>
      </trkpt>
      <trkpt lat="43.08954" lon="0.3162">
        <ele>567.05</ele>
        <time>2024-09-17T09:59:29.999Z</time>
      </trkpt>
      <trkpt lat="43.08949" lon="0.31608">
        <ele>567.28</ele>
        <time>2024-09-17T09:59:35.999Z</time>
      </trkpt>
      <trkpt lat="43.08945" lon="0.31595">
        <ele>567.51</ele>
        <time>2024-09-17T09:59:41.999Z</time>
      </trkpt>
      <trkpt lat="43.08942" lon="0.31584">
        <ele>567.76</ele>
        <time>2024-09-17T09:59:46.999Z</time>
      </trkpt>
      <trkpt lat="43.0894" lon="0.3157">
        <ele>568.08</ele>
        <time>2024-09-17T09:59:52.999Z</time>
      </trkpt>
      <trkpt lat="43.08937" lon="0.31557">
        <ele>568.39</ele>
        <time>2024-09-17T09:59:58.999Z</time>
      </trkpt>
      <trkpt lat="43.08934" lon="0.31544">
        <ele>568.68</ele>
        <time>2024-09-17T10:00:04.999Z</time>
      </trkpt>
      <trkpt lat="43.08932" lon="0.31531">
        <ele>568.98</ele>
        <time>2024-09-17T10:00:10.999Z</time>
      </trkpt>
      <trkpt lat="43.0893" lon="0.31517">
        <ele>569.25</ele>
        <time>2024-09-17T10:00:16.999Z</time>
      </trkpt>
      <trkpt lat="43.08928" lon="0.31504">
        <ele>569.52</ele>
        <time>2024-09-17T10:00:22.999Z</time>
      </trkpt>
      <trkpt lat="43.08926" lon="0.31491">
        <ele>569.73</ele>
        <time>2024-09-17T10:00:28.999Z</time>
      </trkpt>
      <trkpt lat="43.08924" lon="0.31479">
        <ele>569.9</ele>
        <time>2024-09-17T10:00:33.999Z</time>
      </trkpt>
      <trkpt lat="43.08922" lon="0.31465">
        <ele>570.08</ele>
        <time>2024-09-17T10:00:39.999Z</time>
      </trkpt>
      <trkpt lat="43.08918" lon="0.31452">
        <ele>570.25</ele>
        <time>2024-09-17T10:00:45.999Z</time>
      </trkpt>
      <trkpt lat="43.08915" lon="0.31439">
        <ele>570.42</ele>
        <time>2024-09-17T10:00:51.999Z</time>
      </trkpt>
      <trkpt lat="43.0891" lon="0.31428">
        <ele>570.59</ele>
        <time>2024-09-17T10:00:57.999Z</time>
      </trkpt>
      <trkpt lat="43.08907" lon="0.31415">
        <ele>570.75</ele>
        <time>2024-09-17T10:01:03.999Z</time>
      </trkpt>
      <trkpt lat="43.08903" lon="0.31404">
        <ele>570.92</ele>
        <time>2024-09-17T10:01:09.999Z</time>
      </trkpt>
      <trkpt lat="43.08899" lon="0.31392">
        <ele>571.1</ele>
        <time>2024-09-17T10:01:14.999Z</time>
      </trkpt>
      <trkpt lat="43.08895" lon="0.31376">
        <ele>571.28</ele>
        <time>2024-09-17T10:01:19.999Z</time>
      </trkpt>
      <trkpt lat="43.08891" lon="0.31359">
        <ele>571.45</ele>
        <time>2024-09-17T10:01:24.999Z</time>
      </trkpt>
      <trkpt lat="43.08889" lon="0.31344">
        <ele>571.62</ele>
        <time>2024-09-17T10:01:29.999Z</time>
      </trkpt>
      <trkpt lat="43.08886" lon="0.3133">
        <ele>571.87</ele>
        <time>2024-09-17T10:01:35.999Z</time>
      </trkpt>
      <trkpt lat="43.0888" lon="0.3132">
        <ele>572.39</ele>
        <time>2024-09-17T10:01:44.999Z</time>
      </trkpt>
      <trkpt lat="43.08873" lon="0.31312">
        <ele>572.9</ele>
        <time>2024-09-17T10:01:50.999Z</time>
      </trkpt>
      <trkpt lat="43.08865" lon="0.31303">
        <ele>573.89</ele>
        <time>2024-09-17T10:02:00.999Z</time>
      </trkpt>
      <trkpt lat="43.08858" lon="0.31297">
        <ele>574.37</ele>
        <time>2024-09-17T10:02:05.999Z</time>
      </trkpt>
      <trkpt lat="43.08849" lon="0.31292">
        <ele>574.92</ele>
        <time>2024-09-17T10:02:11.999Z</time>
      </trkpt>
      <trkpt lat="43.08839" lon="0.31292">
        <ele>575.33</ele>
        <time>2024-09-17T10:02:16.999Z</time>
      </trkpt>
      <trkpt lat="43.08831" lon="0.31301">
        <ele>577.99</ele>
        <time>2024-09-17T10:06:12.999Z</time>
      </trkpt>
      <trkpt lat="43.08831" lon="0.31316">
        <ele>578.32</ele>
        <time>2024-09-17T10:06:18.999Z</time>
      </trkpt>
      <trkpt lat="43.08833" lon="0.31338">
        <ele>578.55</ele>
        <time>2024-09-17T10:06:23.999Z</time>
      </trkpt>
      <trkpt lat="43.08836" lon="0.31366">
        <ele>579.54</ele>
        <time>2024-09-17T10:06:28.999Z</time>
      </trkpt>
      <trkpt lat="43.08837" lon="0.31395">
        <ele>580.18</ele>
        <time>2024-09-17T10:06:33.999Z</time>
      </trkpt>
      <trkpt lat="43.08837" lon="0.3142">
        <ele>580.22</ele>
        <time>2024-09-17T10:06:38.999Z</time>
      </trkpt>
      <trkpt lat="43.08836" lon="0.31443">
        <ele>580.24</ele>
        <time>2024-09-17T10:06:43.999Z</time>
      </trkpt>
      <trkpt lat="43.08833" lon="0.31462">
        <ele>580.26</ele>
        <time>2024-09-17T10:06:48.999Z</time>
      </trkpt>
      <trkpt lat="43.08832" lon="0.3148">
        <ele>580.27</ele>
        <time>2024-09-17T10:06:53.999Z</time>
      </trkpt>
      <trkpt lat="43.08831" lon="0.31498">
        <ele>580.29</ele>
        <time>2024-09-17T10:06:58.999Z</time>
      </trkpt>
      <trkpt lat="43.08829" lon="0.31517">
        <ele>580.3</ele>
        <time>2024-09-17T10:07:03.999Z</time>
      </trkpt>
      <trkpt lat="43.08828" lon="0.31534">
        <ele>580.32</ele>
        <time>2024-09-17T10:07:08.999Z</time>
      </trkpt>
      <trkpt lat="43.08827" lon="0.31551">
        <ele>580.34</ele>
        <time>2024-09-17T10:07:13.999Z</time>
      </trkpt>
      <trkpt lat="43.08828" lon="0.31568">
        <ele>580.38</ele>
        <time>2024-09-17T10:07:18.999Z</time>
      </trkpt>
      <trkpt lat="43.08829" lon="0.31584">
        <ele>580.42</ele>
        <time>2024-09-17T10:07:23.999Z</time>
      </trkpt>
      <trkpt lat="43.08831" lon="0.31597">
        <ele>580.46</ele>
        <time>2024-09-17T10:07:28.999Z</time>
      </trkpt>
      <trkpt lat="43.08833" lon="0.31611">
        <ele>580.52</ele>
        <time>2024-09-17T10:07:34.999Z</time>
      </trkpt>
      <trkpt lat="43.08834" lon="0.31626">
        <ele>580.59</ele>
        <time>2024-09-17T10:07:40.999Z</time>
      </trkpt>
      <trkpt lat="43.08837" lon="0.31637">
        <ele>580.66</ele>
        <time>2024-09-17T10:07:45.999Z</time>
      </trkpt>
      <trkpt lat="43.08839" lon="0.3165">
        <ele>580.72</ele>
        <time>2024-09-17T10:07:50.999Z</time>
      </trkpt>
      <trkpt lat="43.08841" lon="0.31664">
        <ele>580.81</ele>
        <time>2024-09-17T10:07:56.999Z</time>
      </trkpt>
      <trkpt lat="43.08843" lon="0.31678">
        <ele>580.87</ele>
        <time>2024-09-17T10:08:01.999Z</time>
      </trkpt>
      <trkpt lat="43.08844" lon="0.31692">
        <ele>580.95</ele>
        <time>2024-09-17T10:08:07.999Z</time>
      </trkpt>
      <trkpt lat="43.08843" lon="0.31705">
        <ele>581.04</ele>
        <time>2024-09-17T10:08:13.999Z</time>
      </trkpt>
      <trkpt lat="43.08841" lon="0.31719">
        <ele>581.17</ele>
        <time>2024-09-17T10:08:20.999Z</time>
      </trkpt>
      <trkpt lat="43.08837" lon="0.31732">
        <ele>581.31</ele>
        <time>2024-09-17T10:08:26.999Z</time>
      </trkpt>
      <trkpt lat="43.08833" lon="0.31745">
        <ele>581.49</ele>
        <time>2024-09-17T10:08:33.999Z</time>
      </trkpt>
      <trkpt lat="43.08828" lon="0.31757">
        <ele>581.64</ele>
        <time>2024-09-17T10:08:39.999Z</time>
      </trkpt>
      <trkpt lat="43.08824" lon="0.31769">
        <ele>581.81</ele>
        <time>2024-09-17T10:08:45.999Z</time>
      </trkpt>
      <trkpt lat="43.08824" lon="0.31784">
        <ele>582.01</ele>
        <time>2024-09-17T10:08:51.999Z</time>
      </trkpt>
      <trkpt lat="43.08823" lon="0.31796">
        <ele>582.25</ele>
        <time>2024-09-17T10:08:57.999Z</time>
      </trkpt>
      <trkpt lat="43.08821" lon="0.3181">
        <ele>582.52</ele>
        <time>2024-09-17T10:09:03.999Z</time>
      </trkpt>
      <trkpt lat="43.08821" lon="0.31823">
        <ele>582.81</ele>
        <time>2024-09-17T10:09:09.999Z</time>
      </trkpt>
      <trkpt lat="43.08821" lon="0.31837">
        <ele>583.13</ele>
        <time>2024-09-17T10:09:15.999Z</time>
      </trkpt>
      <trkpt lat="43.08821" lon="0.31851">
        <ele>583.47</ele>
        <time>2024-09-17T10:09:21.999Z</time>
      </trkpt>
      <trkpt lat="43.08821" lon="0.31864">
        <ele>583.76</ele>
        <time>2024-09-17T10:09:26.999Z</time>
      </trkpt>
      <trkpt lat="43.08822" lon="0.31877">
        <ele>584.13</ele>
        <time>2024-09-17T10:09:32.999Z</time>
      </trkpt>
      <trkpt lat="43.08821" lon="0.3189">
        <ele>584.43</ele>
        <time>2024-09-17T10:09:37.999Z</time>
      </trkpt>
      <trkpt lat="43.08822" lon="0.31903">
        <ele>584.74</ele>
        <time>2024-09-17T10:09:42.999Z</time>
      </trkpt>
      <trkpt lat="43.08822" lon="0.31916">
        <ele>585.06</ele>
        <time>2024-09-17T10:09:47.999Z</time>
      </trkpt>
      <trkpt lat="43.08822" lon="0.31928">
        <ele>585.39</ele>
        <time>2024-09-17T10:09:52.999Z</time>
      </trkpt>
      <trkpt lat="43.08822" lon="0.31942">
        <ele>585.73</ele>
        <time>2024-09-17T10:09:58.000Z</time>
      </trkpt>
      <trkpt lat="43.08823" lon="0.31957">
        <ele>586.07</ele>
        <time>2024-09-17T10:10:03.000Z</time>
      </trkpt>
      <trkpt lat="43.08823" lon="0.31976">
        <ele>586.41</ele>
        <time>2024-09-17T10:10:08.000Z</time>
      </trkpt>
      <trkpt lat="43.08824" lon="0.31996">
        <ele>586.76</ele>
        <time>2024-09-17T10:10:13.000Z</time>
      </trkpt>
      <trkpt lat="43.08824" lon="0.32013">
        <ele>587.11</ele>
        <time>2024-09-17T10:10:18.000Z</time>
      </trkpt>
      <trkpt lat="43.08824" lon="0.32029">
        <ele>587.47</ele>
        <time>2024-09-17T10:10:23.000Z</time>
      </trkpt>
      <trkpt lat="43.08824" lon="0.32046">
        <ele>587.82</ele>
        <time>2024-09-17T10:10:28.000Z</time>
      </trkpt>
      <trkpt lat="43.08825" lon="0.32062">
        <ele>588.17</ele>
        <time>2024-09-17T10:10:33.000Z</time>
      </trkpt>
      <trkpt lat="43.08825" lon="0.32078">
        <ele>588.53</ele>
        <time>2024-09-17T10:10:38.000Z</time>
      </trkpt>
      <trkpt lat="43.08825" lon="0.32095">
        <ele>588.88</ele>
        <time>2024-09-17T10:10:43.000Z</time>
      </trkpt>
      <trkpt lat="43.08824" lon="0.32114">
        <ele>589.23</ele>
        <time>2024-09-17T10:10:48.000Z</time>
      </trkpt>
      <trkpt lat="43.08824" lon="0.32131">
        <ele>589.59</ele>
        <time>2024-09-17T10:10:53.000Z</time>
      </trkpt>
      <trkpt lat="43.08824" lon="0.32146">
        <ele>589.96</ele>
        <time>2024-09-17T10:10:58.000Z</time>
      </trkpt>
      <trkpt lat="43.08826" lon="0.32162">
        <ele>590.32</ele>
        <time>2024-09-17T10:11:03.000Z</time>
      </trkpt>
      <trkpt lat="43.08827" lon="0.32178">
        <ele>590.67</ele>
        <time>2024-09-17T10:11:08.000Z</time>
      </trkpt>
      <trkpt lat="43.08827" lon="0.32195">
        <ele>591.03</ele>
        <time>2024-09-17T10:11:13.000Z</time>
      </trkpt>
      <trkpt lat="43.08827" lon="0.32213">
        <ele>591.38</ele>
        <time>2024-09-17T10:11:18.000Z</time>
      </trkpt>
      <trkpt lat="43.08828" lon="0.32231">
        <ele>591.73</ele>
        <time>2024-09-17T10:11:23.000Z</time>
      </trkpt>
      <trkpt lat="43.08828" lon="0.32248">
        <ele>592.08</ele>
        <time>2024-09-17T10:11:28.000Z</time>
      </trkpt>
      <trkpt lat="43.08829" lon="0.32264">
        <ele>592.42</ele>
        <time>2024-09-17T10:11:33.000Z</time>
      </trkpt>
      <trkpt lat="43.0883" lon="0.32281">
        <ele>592.76</ele>
        <time>2024-09-17T10:11:38.000Z</time>
      </trkpt>
      <trkpt lat="43.08831" lon="0.32298">
        <ele>593.11</ele>
        <time>2024-09-17T10:11:43.000Z</time>
      </trkpt>
      <trkpt lat="43.08832" lon="0.32312">
        <ele>593.45</ele>
        <time>2024-09-17T10:11:48.000Z</time>
      </trkpt>
      <trkpt lat="43.08834" lon="0.32325">
        <ele>593.86</ele>
        <time>2024-09-17T10:11:54.000Z</time>
      </trkpt>
      <trkpt lat="43.08834" lon="0.3234">
        <ele>594.26</ele>
        <time>2024-09-17T10:12:00.000Z</time>
      </trkpt>
      <trkpt lat="43.08834" lon="0.32354">
        <ele>594.68</ele>
        <time>2024-09-17T10:12:06.000Z</time>
      </trkpt>
      <trkpt lat="43.08834" lon="0.32367">
        <ele>595.03</ele>
        <time>2024-09-17T10:12:11.000Z</time>
      </trkpt>
      <trkpt lat="43.08833" lon="0.32379">
        <ele>595.38</ele>
        <time>2024-09-17T10:12:16.000Z</time>
      </trkpt>
      <trkpt lat="43.08832" lon="0.32392">
        <ele>595.73</ele>
        <time>2024-09-17T10:12:21.000Z</time>
      </trkpt>
      <trkpt lat="43.08832" lon="0.32407">
        <ele>596.16</ele>
        <time>2024-09-17T10:12:27.000Z</time>
      </trkpt>
      <trkpt lat="43.08831" lon="0.32421">
        <ele>596.6</ele>
        <time>2024-09-17T10:12:33.000Z</time>
      </trkpt>
      <trkpt lat="43.0883" lon="0.32436">
        <ele>597.04</ele>
        <time>2024-09-17T10:12:39.000Z</time>
      </trkpt>
      <trkpt lat="43.08828" lon="0.32449">
        <ele>597.42</ele>
        <time>2024-09-17T10:12:44.000Z</time>
      </trkpt>
      <trkpt lat="43.08825" lon="0.32462">
        <ele>597.82</ele>
        <time>2024-09-17T10:12:49.000Z</time>
      </trkpt>
      <trkpt lat="43.08823" lon="0.32474">
        <ele>598.27</ele>
        <time>2024-09-17T10:12:54.000Z</time>
      </trkpt>
      <trkpt lat="43.0882" lon="0.32487">
        <ele>598.74</ele>
        <time>2024-09-17T10:12:59.000Z</time>
      </trkpt>
      <trkpt lat="43.08818" lon="0.32499">
        <ele>599.22</ele>
        <time>2024-09-17T10:13:04.000Z</time>
      </trkpt>
      <trkpt lat="43.08814" lon="0.32513">
        <ele>599.73</ele>
        <time>2024-09-17T10:13:09.000Z</time>
      </trkpt>
      <trkpt lat="43.0881" lon="0.32528">
        <ele>600.24</ele>
        <time>2024-09-17T10:13:14.000Z</time>
      </trkpt>
      <trkpt lat="43.08805" lon="0.32547">
        <ele>600.76</ele>
        <time>2024-09-17T10:13:19.000Z</time>
      </trkpt>
      <trkpt lat="43.088" lon="0.32567">
        <ele>601.29</ele>
        <time>2024-09-17T10:13:24.000Z</time>
      </trkpt>
      <trkpt lat="43.08796" lon="0.32587">
        <ele>601.82</ele>
        <time>2024-09-17T10:13:29.000Z</time>
      </trkpt>
      <trkpt lat="43.08792" lon="0.32608">
        <ele>602.35</ele>
        <time>2024-09-17T10:13:34.000Z</time>
      </trkpt>
      <trkpt lat="43.08789" lon="0.3263">
        <ele>602.88</ele>
        <time>2024-09-17T10:13:39.000Z</time>
      </trkpt>
      <trkpt lat="43.08788" lon="0.32651">
        <ele>603.42</ele>
        <time>2024-09-17T10:13:44.000Z</time>
      </trkpt>
      <trkpt lat="43.08787" lon="0.32678">
        <ele>607.02</ele>
        <time>2024-09-17T10:13:49.000Z</time>
      </trkpt>
      <trkpt lat="43.08788" lon="0.32705">
        <ele>608.68</ele>
        <time>2024-09-17T10:13:54.000Z</time>
      </trkpt>
      <trkpt lat="43.0879" lon="0.32732">
        <ele>609.57</ele>
        <time>2024-09-17T10:13:59.000Z</time>
      </trkpt>
      <trkpt lat="43.08792" lon="0.3276">
        <ele>610.2</ele>
        <time>2024-09-17T10:14:04.000Z</time>
      </trkpt>
      <trkpt lat="43.08794" lon="0.32787">
        <ele>610.71</ele>
        <time>2024-09-17T10:14:09.000Z</time>
      </trkpt>
      <trkpt lat="43.08794" lon="0.32817">
        <ele>611.17</ele>
        <time>2024-09-17T10:14:14.000Z</time>
      </trkpt>
      <trkpt lat="43.08793" lon="0.32842">
        <ele>611.5</ele>
        <time>2024-09-17T10:14:19.000Z</time>
      </trkpt>
      <trkpt lat="43.08792" lon="0.32867">
        <ele>611.81</ele>
        <time>2024-09-17T10:14:24.000Z</time>
      </trkpt>
      <trkpt lat="43.0879" lon="0.32893">
        <ele>612.46</ele>
        <time>2024-09-17T10:14:29.000Z</time>
      </trkpt>
      <trkpt lat="43.08787" lon="0.32918">
        <ele>612.75</ele>
        <time>2024-09-17T10:14:34.000Z</time>
      </trkpt>
      <trkpt lat="43.08785" lon="0.32942">
        <ele>612.84</ele>
        <time>2024-09-17T10:14:39.000Z</time>
      </trkpt>
      <trkpt lat="43.08783" lon="0.32967">
        <ele>613.17</ele>
        <time>2024-09-17T10:14:44.000Z</time>
      </trkpt>
      <trkpt lat="43.08782" lon="0.32992">
        <ele>613.52</ele>
        <time>2024-09-17T10:14:49.000Z</time>
      </trkpt>
      <trkpt lat="43.0878" lon="0.33018">
        <ele>614.62</ele>
        <time>2024-09-17T10:14:54.000Z</time>
      </trkpt>
      <trkpt lat="43.08778" lon="0.33044">
        <ele>615.08</ele>
        <time>2024-09-17T10:14:59.000Z</time>
      </trkpt>
      <trkpt lat="43.08776" lon="0.33071">
        <ele>615.81</ele>
        <time>2024-09-17T10:15:04.000Z</time>
      </trkpt>
      <trkpt lat="43.08774" lon="0.33101">
        <ele>616.33</ele>
        <time>2024-09-17T10:15:09.000Z</time>
      </trkpt>
      <trkpt lat="43.08772" lon="0.33131">
        <ele>616.79</ele>
        <time>2024-09-17T10:15:14.000Z</time>
      </trkpt>
      <trkpt lat="43.0877" lon="0.33162">
        <ele>617.21</ele>
        <time>2024-09-17T10:15:19.000Z</time>
      </trkpt>
      <trkpt lat="43.08769" lon="0.33193">
        <ele>617.61</ele>
        <time>2024-09-17T10:15:24.000Z</time>
      </trkpt>
      <trkpt lat="43.08768" lon="0.33223">
        <ele>618.02</ele>
        <time>2024-09-17T10:15:29.000Z</time>
      </trkpt>
      <trkpt lat="43.08767" lon="0.33251">
        <ele>618.42</ele>
        <time>2024-09-17T10:15:34.000Z</time>
      </trkpt>
      <trkpt lat="43.08766" lon="0.33276">
        <ele>618.55</ele>
        <time>2024-09-17T10:15:39.000Z</time>
      </trkpt>
      <trkpt lat="43.08765" lon="0.33296">
        <ele>618.63</ele>
        <time>2024-09-17T10:15:44.000Z</time>
      </trkpt>
      <trkpt lat="43.08765" lon="0.33317">
        <ele>618.73</ele>
        <time>2024-09-17T10:15:49.000Z</time>
      </trkpt>
      <trkpt lat="43.08763" lon="0.33337">
        <ele>618.86</ele>
        <time>2024-09-17T10:15:54.000Z</time>
      </trkpt>
      <trkpt lat="43.08761" lon="0.33356">
        <ele>619.01</ele>
        <time>2024-09-17T10:15:59.000Z</time>
      </trkpt>
      <trkpt lat="43.08762" lon="0.33376">
        <ele>619.18</ele>
        <time>2024-09-17T10:16:04.000Z</time>
      </trkpt>
      <trkpt lat="43.08762" lon="0.33396">
        <ele>619.36</ele>
        <time>2024-09-17T10:16:09.000Z</time>
      </trkpt>
      <trkpt lat="43.0876" lon="0.33417">
        <ele>619.54</ele>
        <time>2024-09-17T10:16:14.000Z</time>
      </trkpt>
      <trkpt lat="43.0876" lon="0.33436">
        <ele>619.73</ele>
        <time>2024-09-17T10:16:19.000Z</time>
      </trkpt>
      <trkpt lat="43.0876" lon="0.33456">
        <ele>619.96</ele>
        <time>2024-09-17T10:16:24.000Z</time>
      </trkpt>
      <trkpt lat="43.08759" lon="0.33476">
        <ele>620.21</ele>
        <time>2024-09-17T10:16:29.000Z</time>
      </trkpt>
      <trkpt lat="43.08759" lon="0.33496">
        <ele>620.46</ele>
        <time>2024-09-17T10:16:34.000Z</time>
      </trkpt>
      <trkpt lat="43.08759" lon="0.33516">
        <ele>620.73</ele>
        <time>2024-09-17T10:16:39.000Z</time>
      </trkpt>
      <trkpt lat="43.08759" lon="0.33536">
        <ele>621.02</ele>
        <time>2024-09-17T10:16:44.000Z</time>
      </trkpt>
      <trkpt lat="43.08759" lon="0.33556">
        <ele>621.33</ele>
        <time>2024-09-17T10:16:49.000Z</time>
      </trkpt>
      <trkpt lat="43.08757" lon="0.33576">
        <ele>621.68</ele>
        <time>2024-09-17T10:16:54.000Z</time>
      </trkpt>
      <trkpt lat="43.08757" lon="0.33597">
        <ele>622.11</ele>
        <time>2024-09-17T10:16:59.000Z</time>
      </trkpt>
      <trkpt lat="43.08757" lon="0.33618">
        <ele>622.57</ele>
        <time>2024-09-17T10:17:04.000Z</time>
      </trkpt>
      <trkpt lat="43.08758" lon="0.33636">
        <ele>623.06</ele>
        <time>2024-09-17T10:17:09.000Z</time>
      </trkpt>
      <trkpt lat="43.0876" lon="0.33651">
        <ele>623.6</ele>
        <time>2024-09-17T10:17:14.000Z</time>
      </trkpt>
      <trkpt lat="43.08761" lon="0.33665">
        <ele>624.15</ele>
        <time>2024-09-17T10:17:19.000Z</time>
      </trkpt>
      <trkpt lat="43.08762" lon="0.3368">
        <ele>624.73</ele>
        <time>2024-09-17T10:17:24.000Z</time>
      </trkpt>
      <trkpt lat="43.08764" lon="0.33693">
        <ele>625.24</ele>
        <time>2024-09-17T10:17:29.000Z</time>
      </trkpt>
      <trkpt lat="43.08766" lon="0.33706">
        <ele>626.33</ele>
        <time>2024-09-17T10:17:45.000Z</time>
      </trkpt>
      <trkpt lat="43.08768" lon="0.33721">
        <ele>627.04</ele>
        <time>2024-09-17T10:17:50.000Z</time>
      </trkpt>
      <trkpt lat="43.08771" lon="0.33739">
        <ele>627.74</ele>
        <time>2024-09-17T10:17:55.000Z</time>
      </trkpt>
      <trkpt lat="43.08773" lon="0.33757">
        <ele>628.43</ele>
        <time>2024-09-17T10:18:00.000Z</time>
      </trkpt>
      <trkpt lat="43.08773" lon="0.33771">
        <ele>629.1</ele>
        <time>2024-09-17T10:18:05.000Z</time>
      </trkpt>
      <trkpt lat="43.08773" lon="0.33785">
        <ele>637.1</ele>
        <time>2024-09-17T10:21:47.000Z</time>
      </trkpt>
      <trkpt lat="43.0877" lon="0.33803">
        <ele>638.31</ele>
        <time>2024-09-17T10:21:52.000Z</time>
      </trkpt>
      <trkpt lat="43.0876" lon="0.3382">
        <ele>639.43</ele>
        <time>2024-09-17T10:21:57.000Z</time>
      </trkpt>
      <trkpt lat="43.08747" lon="0.33845">
        <ele>640.67</ele>
        <time>2024-09-17T10:22:02.999Z</time>
      </trkpt>
      <trkpt lat="43.08734" lon="0.33868">
        <ele>647.09</ele>
        <time>2024-09-17T10:22:07.999Z</time>
      </trkpt>
      <trkpt lat="43.08719" lon="0.33894">
        <ele>649.6</ele>
        <time>2024-09-17T10:22:12.999Z</time>
      </trkpt>
      <trkpt lat="43.08704" lon="0.33922">
        <ele>650.55</ele>
        <time>2024-09-17T10:22:17.999Z</time>
      </trkpt>
      <trkpt lat="43.08691" lon="0.3395">
        <ele>651.02</ele>
        <time>2024-09-17T10:22:22.999Z</time>
      </trkpt>
      <trkpt lat="43.08677" lon="0.33982">
        <ele>651.29</ele>
        <time>2024-09-17T10:22:27.999Z</time>
      </trkpt>
      <trkpt lat="43.08662" lon="0.34015">
        <ele>651.48</ele>
        <time>2024-09-17T10:22:32.999Z</time>
      </trkpt>
      <trkpt lat="43.08647" lon="0.34049">
        <ele>651.64</ele>
        <time>2024-09-17T10:22:37.999Z</time>
      </trkpt>
      <trkpt lat="43.08633" lon="0.34081">
        <ele>651.8</ele>
        <time>2024-09-17T10:22:42.999Z</time>
      </trkpt>
      <trkpt lat="43.0862" lon="0.34109">
        <ele>651.99</ele>
        <time>2024-09-17T10:22:47.999Z</time>
      </trkpt>
      <trkpt lat="43.08607" lon="0.34139">
        <ele>652.18</ele>
        <time>2024-09-17T10:22:52.999Z</time>
      </trkpt>
      <trkpt lat="43.08595" lon="0.34168">
        <ele>652.34</ele>
        <time>2024-09-17T10:22:57.999Z</time>
      </trkpt>
      <trkpt lat="43.08581" lon="0.34199">
        <ele>652.52</ele>
        <time>2024-09-17T10:23:02.999Z</time>
      </trkpt>
      <trkpt lat="43.08567" lon="0.34231">
        <ele>652.69</ele>
        <time>2024-09-17T10:23:07.999Z</time>
      </trkpt>
      <trkpt lat="43.08553" lon="0.3426">
        <ele>652.88</ele>
        <time>2024-09-17T10:23:12.999Z</time>
      </trkpt>
      <trkpt lat="43.0854" lon="0.3429">
        <ele>653.07</ele>
        <time>2024-09-17T10:23:17.999Z</time>
      </trkpt>
      <trkpt lat="43.08527" lon="0.34319">
        <ele>653.25</ele>
        <time>2024-09-17T10:23:22.999Z</time>
      </trkpt>
      <trkpt lat="43.08514" lon="0.3435">
        <ele>653.42</ele>
        <time>2024-09-17T10:23:27.999Z</time>
      </trkpt>
      <trkpt lat="43.085" lon="0.3438">
        <ele>653.59</ele>
        <time>2024-09-17T10:23:32.999Z</time>
      </trkpt>
      <trkpt lat="43.08486" lon="0.34411">
        <ele>653.76</ele>
        <time>2024-09-17T10:23:37.999Z</time>
      </trkpt>
      <trkpt lat="43.08472" lon="0.34441">
        <ele>653.97</ele>
        <time>2024-09-17T10:23:42.999Z</time>
      </trkpt>
      <trkpt lat="43.08459" lon="0.34472">
        <ele>654.16</ele>
        <time>2024-09-17T10:23:47.999Z</time>
      </trkpt>
      <trkpt lat="43.08444" lon="0.34503">
        <ele>654.35</ele>
        <time>2024-09-17T10:23:52.999Z</time>
      </trkpt>
      <trkpt lat="43.0843" lon="0.34534">
        <ele>654.55</ele>
        <time>2024-09-17T10:23:57.999Z</time>
      </trkpt>
      <trkpt lat="43.08415" lon="0.34566">
        <ele>654.74</ele>
        <time>2024-09-17T10:24:02.999Z</time>
      </trkpt>
      <trkpt lat="43.084" lon="0.34598">
        <ele>654.94</ele>
        <time>2024-09-17T10:24:07.999Z</time>
      </trkpt>
      <trkpt lat="43.08386" lon="0.34629">
        <ele>655.17</ele>
        <time>2024-09-17T10:24:12.999Z</time>
      </trkpt>
      <trkpt lat="43.08374" lon="0.34656">
        <ele>655.4</ele>
        <time>2024-09-17T10:24:17.999Z</time>
      </trkpt>
      <trkpt lat="43.08362" lon="0.34682">
        <ele>655.67</ele>
        <time>2024-09-17T10:24:22.999Z</time>
      </trkpt>
      <trkpt lat="43.0835" lon="0.34709">
        <ele>655.95</ele>
        <time>2024-09-17T10:24:27.999Z</time>
      </trkpt>
      <trkpt lat="43.08337" lon="0.34737">
        <ele>656.19</ele>
        <time>2024-09-17T10:24:32.999Z</time>
      </trkpt>
      <trkpt lat="43.08323" lon="0.34768">
        <ele>656.43</ele>
        <time>2024-09-17T10:24:37.999Z</time>
      </trkpt>
      <trkpt lat="43.0831" lon="0.34798">
        <ele>656.67</ele>
        <time>2024-09-17T10:24:42.999Z</time>
      </trkpt>
      <trkpt lat="43.08297" lon="0.34828">
        <ele>656.88</ele>
        <time>2024-09-17T10:24:47.999Z</time>
      </trkpt>
      <trkpt lat="43.08284" lon="0.34858">
        <ele>657.11</ele>
        <time>2024-09-17T10:24:52.999Z</time>
      </trkpt>
      <trkpt lat="43.08269" lon="0.34893">
        <ele>657.33</ele>
        <time>2024-09-17T10:24:57.999Z</time>
      </trkpt>
      <trkpt lat="43.08254" lon="0.34926">
        <ele>657.53</ele>
        <time>2024-09-17T10:25:02.999Z</time>
      </trkpt>
      <trkpt lat="43.08238" lon="0.34957">
        <ele>657.72</ele>
        <time>2024-09-17T10:25:07.999Z</time>
      </trkpt>
      <trkpt lat="43.08225" lon="0.34987">
        <ele>657.93</ele>
        <time>2024-09-17T10:25:12.999Z</time>
      </trkpt>
      <trkpt lat="43.08212" lon="0.35015">
        <ele>658.15</ele>
        <time>2024-09-17T10:25:17.999Z</time>
      </trkpt>
      <trkpt lat="43.08199" lon="0.35045">
        <ele>658.36</ele>
        <time>2024-09-17T10:25:22.999Z</time>
      </trkpt>
      <trkpt lat="43.08187" lon="0.35071">
        <ele>658.59</ele>
        <time>2024-09-17T10:25:27.999Z</time>
      </trkpt>
      <trkpt lat="43.08175" lon="0.35098">
        <ele>658.8</ele>
        <time>2024-09-17T10:25:32.999Z</time>
      </trkpt>
      <trkpt lat="43.08162" lon="0.35125">
        <ele>659.01</ele>
        <time>2024-09-17T10:25:37.999Z</time>
      </trkpt>
      <trkpt lat="43.08149" lon="0.3515">
        <ele>659.17</ele>
        <time>2024-09-17T10:25:42.999Z</time>
      </trkpt>
      <trkpt lat="43.08137" lon="0.35177">
        <ele>659.34</ele>
        <time>2024-09-17T10:25:47.999Z</time>
      </trkpt>
      <trkpt lat="43.08125" lon="0.35203">
        <ele>659.54</ele>
        <time>2024-09-17T10:25:52.999Z</time>
      </trkpt>
      <trkpt lat="43.08113" lon="0.35228">
        <ele>659.74</ele>
        <time>2024-09-17T10:25:57.999Z</time>
      </trkpt>
      <trkpt lat="43.081" lon="0.35255">
        <ele>659.94</ele>
        <time>2024-09-17T10:26:02.999Z</time>
      </trkpt>
      <trkpt lat="43.08088" lon="0.35282">
        <ele>660.12</ele>
        <time>2024-09-17T10:26:07.999Z</time>
      </trkpt>
      <trkpt lat="43.08075" lon="0.35309">
        <ele>660.28</ele>
        <time>2024-09-17T10:26:12.999Z</time>
      </trkpt>
      <trkpt lat="43.08062" lon="0.35337">
        <ele>660.44</ele>
        <time>2024-09-17T10:26:17.999Z</time>
      </trkpt>
      <trkpt lat="43.0805" lon="0.35365">
        <ele>660.63</ele>
        <time>2024-09-17T10:26:22.999Z</time>
      </trkpt>
      <trkpt lat="43.08038" lon="0.35395">
        <ele>660.8</ele>
        <time>2024-09-17T10:26:27.999Z</time>
      </trkpt>
      <trkpt lat="43.08029" lon="0.35429">
        <ele>661.05</ele>
        <time>2024-09-17T10:26:32.999Z</time>
      </trkpt>
      <trkpt lat="43.08025" lon="0.35465">
        <ele>661.42</ele>
        <time>2024-09-17T10:26:37.999Z</time>
      </trkpt>
      <trkpt lat="43.08023" lon="0.35502">
        <ele>661.78</ele>
        <time>2024-09-17T10:26:42.999Z</time>
      </trkpt>
      <trkpt lat="43.08021" lon="0.35543">
        <ele>662.2</ele>
        <time>2024-09-17T10:26:47.999Z</time>
      </trkpt>
      <trkpt lat="43.08022" lon="0.35591">
        <ele>663.04</ele>
        <time>2024-09-17T10:26:52.999Z</time>
      </trkpt>
      <trkpt lat="43.08026" lon="0.3564">
        <ele>663.64</ele>
        <time>2024-09-17T10:26:57.999Z</time>
      </trkpt>
      <trkpt lat="43.08026" lon="0.35688">
        <ele>664.02</ele>
        <time>2024-09-17T10:27:02.999Z</time>
      </trkpt>
      <trkpt lat="43.08023" lon="0.35733">
        <ele>664.33</ele>
        <time>2024-09-17T10:27:07.999Z</time>
      </trkpt>
      <trkpt lat="43.08018" lon="0.35781">
        <ele>664.44</ele>
        <time>2024-09-17T10:27:12.999Z</time>
      </trkpt>
      <trkpt lat="43.08024" lon="0.3583">
        <ele>664.92</ele>
        <time>2024-09-17T10:27:17.999Z</time>
      </trkpt>
      <trkpt lat="43.0804" lon="0.35874">
        <ele>665.48</ele>
        <time>2024-09-17T10:27:22.999Z</time>
      </trkpt>
      <trkpt lat="43.08061" lon="0.35912">
        <ele>665.84</ele>
        <time>2024-09-17T10:27:27.999Z</time>
      </trkpt>
      <trkpt lat="43.0808" lon="0.35955">
        <ele>665.77</ele>
        <time>2024-09-17T10:27:32.999Z</time>
      </trkpt>
      <trkpt lat="43.08084" lon="0.36005">
        <ele>665.82</ele>
        <time>2024-09-17T10:27:37.999Z</time>
      </trkpt>
      <trkpt lat="43.08071" lon="0.36049">
        <ele>666.03</ele>
        <time>2024-09-17T10:27:42.999Z</time>
      </trkpt>
      <trkpt lat="43.08046" lon="0.36084">
        <ele>665.43</ele>
        <time>2024-09-17T10:27:47.999Z</time>
      </trkpt>
      <trkpt lat="43.08023" lon="0.36131">
        <ele>664.55</ele>
        <time>2024-09-17T10:27:52.999Z</time>
      </trkpt>
      <trkpt lat="43.0802" lon="0.36194">
        <ele>664.02</ele>
        <time>2024-09-17T10:27:57.999Z</time>
      </trkpt>
      <trkpt lat="43.08033" lon="0.36257">
        <ele>663.77</ele>
        <time>2024-09-17T10:28:02.999Z</time>
      </trkpt>
      <trkpt lat="43.08037" lon="0.36319">
        <ele>663.9</ele>
        <time>2024-09-17T10:28:07.999Z</time>
      </trkpt>
      <trkpt lat="43.08044" lon="0.36379">
        <ele>663.33</ele>
        <time>2024-09-17T10:28:12.999Z</time>
      </trkpt>
      <trkpt lat="43.0805" lon="0.36446">
        <ele>661.86</ele>
        <time>2024-09-17T10:28:17.999Z</time>
      </trkpt>
      <trkpt lat="43.08075" lon="0.36507">
        <ele>660.72</ele>
        <time>2024-09-17T10:28:22.999Z</time>
      </trkpt>
      <trkpt lat="43.08108" lon="0.36561">
        <ele>659.88</ele>
        <time>2024-09-17T10:28:27.999Z</time>
      </trkpt>
      <trkpt lat="43.0814" lon="0.36614">
        <ele>658.85</ele>
        <time>2024-09-17T10:28:32.999Z</time>
      </trkpt>
      <trkpt lat="43.08168" lon="0.36669">
        <ele>657.48</ele>
        <time>2024-09-17T10:28:37.999Z</time>
      </trkpt>
      <trkpt lat="43.08198" lon="0.36719">
        <ele>656.01</ele>
        <time>2024-09-17T10:28:42.999Z</time>
      </trkpt>
      <trkpt lat="43.08218" lon="0.36774">
        <ele>654.42</ele>
        <time>2024-09-17T10:28:47.999Z</time>
      </trkpt>
      <trkpt lat="43.0823" lon="0.36832">
        <ele>652.24</ele>
        <time>2024-09-17T10:28:52.999Z</time>
      </trkpt>
      <trkpt lat="43.08235" lon="0.36893">
        <ele>650.89</ele>
        <time>2024-09-17T10:28:57.999Z</time>
      </trkpt>
      <trkpt lat="43.08241" lon="0.36955">
        <ele>649.04</ele>
        <time>2024-09-17T10:29:02.999Z</time>
      </trkpt>
      <trkpt lat="43.08251" lon="0.37022">
        <ele>647.19</ele>
        <time>2024-09-17T10:29:07.999Z</time>
      </trkpt>
      <trkpt lat="43.08259" lon="0.37096">
        <ele>644.72</ele>
        <time>2024-09-17T10:29:12.999Z</time>
      </trkpt>
      <trkpt lat="43.08281" lon="0.37167">
        <ele>642.62</ele>
        <time>2024-09-17T10:29:17.999Z</time>
      </trkpt>
      <trkpt lat="43.08286" lon="0.37232">
        <ele>641.26</ele>
        <time>2024-09-17T10:29:22.999Z</time>
      </trkpt>
      <trkpt lat="43.08264" lon="0.37294">
        <ele>639.39</ele>
        <time>2024-09-17T10:29:27.999Z</time>
      </trkpt>
      <trkpt lat="43.08257" lon="0.37359">
        <ele>636.71</ele>
        <time>2024-09-17T10:29:32.999Z</time>
      </trkpt>
      <trkpt lat="43.08251" lon="0.37424">
        <ele>633.2</ele>
        <time>2024-09-17T10:29:37.999Z</time>
      </trkpt>
      <trkpt lat="43.08235" lon="0.37486">
        <ele>629.13</ele>
        <time>2024-09-17T10:29:42.999Z</time>
      </trkpt>
      <trkpt lat="43.08214" lon="0.37552">
        <ele>625.89</ele>
        <time>2024-09-17T10:29:47.999Z</time>
      </trkpt>
      <trkpt lat="43.0818" lon="0.37611">
        <ele>623.96</ele>
        <time>2024-09-17T10:29:52.999Z</time>
      </trkpt>
      <trkpt lat="43.0814" lon="0.37668">
        <ele>621.91</ele>
        <time>2024-09-17T10:29:57.999Z</time>
      </trkpt>
      <trkpt lat="43.08102" lon="0.37727">
        <ele>619.01</ele>
        <time>2024-09-17T10:30:02.999Z</time>
      </trkpt>
      <trkpt lat="43.08066" lon="0.37784">
        <ele>615.95</ele>
        <time>2024-09-17T10:30:07.999Z</time>
      </trkpt>
      <trkpt lat="43.08032" lon="0.37836">
        <ele>614.13</ele>
        <time>2024-09-17T10:30:12.999Z</time>
      </trkpt>
      <trkpt lat="43.08007" lon="0.37881">
        <ele>612.29</ele>
        <time>2024-09-17T10:30:17.999Z</time>
      </trkpt>
      <trkpt lat="43.07985" lon="0.3792">
        <ele>610.47</ele>
        <time>2024-09-17T10:30:22.999Z</time>
      </trkpt>
      <trkpt lat="43.07961" lon="0.37954">
        <ele>608.72</ele>
        <time>2024-09-17T10:30:27.999Z</time>
      </trkpt>
      <trkpt lat="43.07941" lon="0.37991">
        <ele>606.36</ele>
        <time>2024-09-17T10:30:32.999Z</time>
      </trkpt>
      <trkpt lat="43.07926" lon="0.38027">
        <ele>604.15</ele>
        <time>2024-09-17T10:30:37.999Z</time>
      </trkpt>
      <trkpt lat="43.07917" lon="0.38046">
        <ele>603.94</ele>
        <time>2024-09-17T10:30:42.999Z</time>
      </trkpt>
      <trkpt lat="43.07909" lon="0.38054">
        <ele>603.74</ele>
        <time>2024-09-17T10:30:48.999Z</time>
      </trkpt>
      <trkpt lat="43.07915" lon="0.38042">
        <ele>603.03</ele>
        <time>2024-09-17T10:31:28.999Z</time>
      </trkpt>
      <trkpt lat="43.07905" lon="0.38038">
        <ele>602.22</ele>
        <time>2024-09-17T10:31:41.999Z</time>
      </trkpt>
      <trkpt lat="43.07903" lon="0.38051">
        <ele>597.25</ele>
        <time>2024-09-17T10:34:10.000Z</time>
      </trkpt>
      <trkpt lat="43.07894" lon="0.38054">
        <ele>595.88</ele>
        <time>2024-09-17T10:34:41.000Z</time>
      </trkpt>
      <trkpt lat="43.0789" lon="0.3804">
        <ele>593.28</ele>
        <time>2024-09-17T10:37:00.000Z</time>
      </trkpt>
      <trkpt lat="43.07896" lon="0.38055">
        <ele>593.22</ele>
        <time>2024-09-17T10:37:26.000Z</time>
      </trkpt>
      <trkpt lat="43.07885" lon="0.38047">
        <ele>593.22</ele>
        <time>2024-09-17T10:37:53.000Z</time>
      </trkpt>
      <trkpt lat="43.07893" lon="0.3804">
        <ele>593.22</ele>
        <time>2024-09-17T10:38:03.000Z</time>
      </trkpt>
      <trkpt lat="43.07893" lon="0.38052">
        <ele>593.22</ele>
        <time>2024-09-17T10:38:46.000Z</time>
      </trkpt>
      <trkpt lat="43.07898" lon="0.38039">
        <ele>593.18</ele>
        <time>2024-09-17T10:39:48.000Z</time>
      </trkpt>
      <trkpt lat="43.07904" lon="0.38028">
        <ele>593.18</ele>
        <time>2024-09-17T10:39:57.000Z</time>
      </trkpt>
      <trkpt lat="43.07948" lon="0.37998">
        <ele>593.22</ele>
        <time>2024-09-17T10:40:02.000Z</time>
      </trkpt>
      <trkpt lat="43.07903" lon="0.38061">
        <ele>592.88</ele>
        <time>2024-09-17T10:41:55.000Z</time>
      </trkpt>
      <trkpt lat="43.07893" lon="0.38058">
        <ele>592.91</ele>
        <time>2024-09-17T10:42:12.000Z</time>
      </trkpt>
      <trkpt lat="43.07901" lon="0.38053">
        <ele>592.99</ele>
        <time>2024-09-17T10:45:16.000Z</time>
      </trkpt>
      <trkpt lat="43.07912" lon="0.3806">
        <ele>592.99</ele>
        <time>2024-09-17T10:47:48.999Z</time>
      </trkpt>
      <trkpt lat="43.07902" lon="0.38053">
        <ele>593.03</ele>
        <time>2024-09-17T10:47:59.999Z</time>
      </trkpt>
      <trkpt lat="43.07888" lon="0.38053">
        <ele>593.03</ele>
        <time>2024-09-17T10:48:27.999Z</time>
      </trkpt>
      <trkpt lat="43.07877" lon="0.38045">
        <ele>593.17</ele>
        <time>2024-09-17T11:07:56.000Z</time>
      </trkpt>
      <trkpt lat="43.07874" lon="0.38057">
        <ele>593.53</ele>
        <time>2024-09-17T11:08:36.000Z</time>
      </trkpt>
      <trkpt lat="43.07883" lon="0.38052">
        <ele>593</ele>
        <time>2024-09-17T11:08:51.000Z</time>
      </trkpt>
      <trkpt lat="43.07876" lon="0.38042">
        <ele>592.12</ele>
        <time>2024-09-17T11:09:11.000Z</time>
      </trkpt>
      <trkpt lat="43.07874" lon="0.38029">
        <ele>591.58</ele>
        <time>2024-09-17T11:09:39.000Z</time>
      </trkpt>
      <trkpt lat="43.07883" lon="0.38023">
        <ele>590.48</ele>
        <time>2024-09-17T11:09:59.000Z</time>
      </trkpt>
      <trkpt lat="43.07875" lon="0.38029">
        <ele>589.24</ele>
        <time>2024-09-17T11:10:26.999Z</time>
      </trkpt>
      <trkpt lat="43.07866" lon="0.3803">
        <ele>589.02</ele>
        <time>2024-09-17T11:10:36.999Z</time>
      </trkpt>
      <trkpt lat="43.07857" lon="0.3803">
        <ele>588.91</ele>
        <time>2024-09-17T11:10:48.999Z</time>
      </trkpt>
      <trkpt lat="43.07847" lon="0.38029">
        <ele>588.83</ele>
        <time>2024-09-17T11:10:54.999Z</time>
      </trkpt>
      <trkpt lat="43.07854" lon="0.38039">
        <ele>588.48</ele>
        <time>2024-09-17T11:11:13.999Z</time>
      </trkpt>
      <trkpt lat="43.07863" lon="0.38035">
        <ele>587.74</ele>
        <time>2024-09-17T11:11:33.999Z</time>
      </trkpt>
      <trkpt lat="43.07873" lon="0.38029">
        <ele>585.81</ele>
        <time>2024-09-17T11:12:29.999Z</time>
      </trkpt>
      <trkpt lat="43.07861" lon="0.3804">
        <ele>585.61</ele>
        <time>2024-09-17T11:12:51.999Z</time>
      </trkpt>
      <trkpt lat="43.07878" lon="0.3803">
        <ele>585.63</ele>
        <time>2024-09-17T11:13:05.999Z</time>
      </trkpt>
      <trkpt lat="43.07897" lon="0.38022">
        <ele>585.5</ele>
        <time>2024-09-17T11:13:26.999Z</time>
      </trkpt>
      <trkpt lat="43.07855" lon="0.38049">
        <ele>585.4</ele>
        <time>2024-09-17T11:13:52.999Z</time>
      </trkpt>
      <trkpt lat="43.07862" lon="0.38041">
        <ele>585.18</ele>
        <time>2024-09-17T11:14:00.999Z</time>
      </trkpt>
      <trkpt lat="43.0785" lon="0.38061">
        <ele>585.13</ele>
        <time>2024-09-17T11:14:05.999Z</time>
      </trkpt>
      <trkpt lat="43.07859" lon="0.38056">
        <ele>584.9</ele>
        <time>2024-09-17T11:14:14.999Z</time>
      </trkpt>
      <trkpt lat="43.07871" lon="0.38052">
        <ele>584.38</ele>
        <time>2024-09-17T11:14:26.999Z</time>
      </trkpt>
      <trkpt lat="43.079" lon="0.3804">
        <ele>580.45</ele>
        <time>2024-09-17T11:18:24.999Z</time>
      </trkpt>
      <trkpt lat="43.07891" lon="0.3805">
        <ele>579.81</ele>
        <time>2024-09-17T11:18:29.999Z</time>
      </trkpt>
      <trkpt lat="43.07901" lon="0.38049">
        <ele>585.23</ele>
        <time>2024-09-17T11:20:22.999Z</time>
      </trkpt>
      <trkpt lat="43.07907" lon="0.38039">
        <ele>585.6</ele>
        <time>2024-09-17T11:20:30.999Z</time>
      </trkpt>
      <trkpt lat="43.07916" lon="0.38035">
        <ele>590.01</ele>
        <time>2024-09-17T11:24:51.000Z</time>
      </trkpt>
      <trkpt lat="43.07912" lon="0.38048">
        <ele>590.68</ele>
        <time>2024-09-17T11:25:01.000Z</time>
      </trkpt>
      <trkpt lat="43.079" lon="0.38058">
        <ele>590.97</ele>
        <time>2024-09-17T11:25:06.000Z</time>
      </trkpt>
      <trkpt lat="43.07897" lon="0.3808">
        <ele>591.24</ele>
        <time>2024-09-17T11:25:11.000Z</time>
      </trkpt>
      <trkpt lat="43.07893" lon="0.38105">
        <ele>592.25</ele>
        <time>2024-09-17T11:25:16.000Z</time>
      </trkpt>
      <trkpt lat="43.07887" lon="0.38129">
        <ele>592.85</ele>
        <time>2024-09-17T11:25:21.000Z</time>
      </trkpt>
      <trkpt lat="43.07884" lon="0.38154">
        <ele>593.43</ele>
        <time>2024-09-17T11:25:26.000Z</time>
      </trkpt>
      <trkpt lat="43.07882" lon="0.38186">
        <ele>593.7</ele>
        <time>2024-09-17T11:25:31.000Z</time>
      </trkpt>
      <trkpt lat="43.07879" lon="0.38219">
        <ele>593.74</ele>
        <time>2024-09-17T11:25:36.000Z</time>
      </trkpt>
      <trkpt lat="43.07877" lon="0.38251">
        <ele>593.72</ele>
        <time>2024-09-17T11:25:41.000Z</time>
      </trkpt>
      <trkpt lat="43.07876" lon="0.38282">
        <ele>593.69</ele>
        <time>2024-09-17T11:25:46.000Z</time>
      </trkpt>
      <trkpt lat="43.07875" lon="0.38313">
        <ele>593.65</ele>
        <time>2024-09-17T11:25:51.000Z</time>
      </trkpt>
      <trkpt lat="43.07874" lon="0.38344">
        <ele>593.6</ele>
        <time>2024-09-17T11:25:56.000Z</time>
      </trkpt>
      <trkpt lat="43.07872" lon="0.38375">
        <ele>593.56</ele>
        <time>2024-09-17T11:26:01.000Z</time>
      </trkpt>
      <trkpt lat="43.07871" lon="0.38405">
        <ele>593.54</ele>
        <time>2024-09-17T11:26:06.000Z</time>
      </trkpt>
      <trkpt lat="43.0787" lon="0.38433">
        <ele>593.52</ele>
        <time>2024-09-17T11:26:11.000Z</time>
      </trkpt>
      <trkpt lat="43.07868" lon="0.3846">
        <ele>593.5</ele>
        <time>2024-09-17T11:26:16.000Z</time>
      </trkpt>
      <trkpt lat="43.07867" lon="0.38488">
        <ele>593.44</ele>
        <time>2024-09-17T11:26:21.000Z</time>
      </trkpt>
      <trkpt lat="43.07865" lon="0.38512">
        <ele>593.43</ele>
        <time>2024-09-17T11:26:26.000Z</time>
      </trkpt>
      <trkpt lat="43.07875" lon="0.38525">
        <ele>593.41</ele>
        <time>2024-09-17T11:26:31.000Z</time>
      </trkpt>
      <trkpt lat="43.07883" lon="0.38516">
        <ele>593.41</ele>
        <time>2024-09-17T11:26:59.000Z</time>
      </trkpt>
      <trkpt lat="43.07894" lon="0.38502">
        <ele>593.42</ele>
        <time>2024-09-17T11:27:04.000Z</time>
      </trkpt>
      <trkpt lat="43.0791" lon="0.38488">
        <ele>593.57</ele>
        <time>2024-09-17T11:27:09.000Z</time>
      </trkpt>
      <trkpt lat="43.0793" lon="0.38474">
        <ele>593.75</ele>
        <time>2024-09-17T11:27:14.000Z</time>
      </trkpt>
      <trkpt lat="43.07951" lon="0.38461">
        <ele>593.93</ele>
        <time>2024-09-17T11:27:19.000Z</time>
      </trkpt>
      <trkpt lat="43.0797" lon="0.38447">
        <ele>594.11</ele>
        <time>2024-09-17T11:27:24.000Z</time>
      </trkpt>
      <trkpt lat="43.07987" lon="0.38446">
        <ele>594.26</ele>
        <time>2024-09-17T11:27:29.000Z</time>
      </trkpt>
      <trkpt lat="43.07994" lon="0.38473">
        <ele>594.41</ele>
        <time>2024-09-17T11:27:34.000Z</time>
      </trkpt>
      <trkpt lat="43.07998" lon="0.38505">
        <ele>594.53</ele>
        <time>2024-09-17T11:27:39.000Z</time>
      </trkpt>
      <trkpt lat="43.08005" lon="0.38536">
        <ele>594.55</ele>
        <time>2024-09-17T11:27:44.000Z</time>
      </trkpt>
      <trkpt lat="43.08013" lon="0.38567">
        <ele>594.51</ele>
        <time>2024-09-17T11:27:49.000Z</time>
      </trkpt>
      <trkpt lat="43.0802" lon="0.38595">
        <ele>594.44</ele>
        <time>2024-09-17T11:27:54.000Z</time>
      </trkpt>
      <trkpt lat="43.08026" lon="0.3862">
        <ele>594.37</ele>
        <time>2024-09-17T11:27:59.000Z</time>
      </trkpt>
      <trkpt lat="43.08037" lon="0.38636">
        <ele>594.33</ele>
        <time>2024-09-17T11:28:04.000Z</time>
      </trkpt>
      <trkpt lat="43.08058" lon="0.38627">
        <ele>594.23</ele>
        <time>2024-09-17T11:28:09.000Z</time>
      </trkpt>
      <trkpt lat="43.08077" lon="0.38617">
        <ele>594.16</ele>
        <time>2024-09-17T11:28:14.000Z</time>
      </trkpt>
      <trkpt lat="43.08096" lon="0.38607">
        <ele>594.12</ele>
        <time>2024-09-17T11:28:19.000Z</time>
      </trkpt>
      <trkpt lat="43.08113" lon="0.38598">
        <ele>594.1</ele>
        <time>2024-09-17T11:28:24.000Z</time>
      </trkpt>
      <trkpt lat="43.08129" lon="0.3859">
        <ele>594.1</ele>
        <time>2024-09-17T11:28:29.000Z</time>
      </trkpt>
      <trkpt lat="43.08141" lon="0.38588">
        <ele>594.09</ele>
        <time>2024-09-17T11:28:34.000Z</time>
      </trkpt>
      <trkpt lat="43.0815" lon="0.3859">
        <ele>593.8</ele>
        <time>2024-09-17T11:29:29.000Z</time>
      </trkpt>
      <trkpt lat="43.08144" lon="0.38602">
        <ele>593.22</ele>
        <time>2024-09-17T11:33:11.000Z</time>
      </trkpt>
      <trkpt lat="43.08145" lon="0.38627">
        <ele>592.95</ele>
        <time>2024-09-17T11:33:16.000Z</time>
      </trkpt>
      <trkpt lat="43.08148" lon="0.3866">
        <ele>592.58</ele>
        <time>2024-09-17T11:33:21.000Z</time>
      </trkpt>
      <trkpt lat="43.08149" lon="0.38695">
        <ele>592.41</ele>
        <time>2024-09-17T11:33:26.000Z</time>
      </trkpt>
      <trkpt lat="43.08151" lon="0.38729">
        <ele>592.32</ele>
        <time>2024-09-17T11:33:31.000Z</time>
      </trkpt>
      <trkpt lat="43.08152" lon="0.38764">
        <ele>592.27</ele>
        <time>2024-09-17T11:33:36.000Z</time>
      </trkpt>
      <trkpt lat="43.08153" lon="0.38797">
        <ele>592.23</ele>
        <time>2024-09-17T11:33:41.000Z</time>
      </trkpt>
      <trkpt lat="43.08153" lon="0.38829">
        <ele>592.2</ele>
        <time>2024-09-17T11:33:46.000Z</time>
      </trkpt>
      <trkpt lat="43.08154" lon="0.38858">
        <ele>592.17</ele>
        <time>2024-09-17T11:33:51.000Z</time>
      </trkpt>
      <trkpt lat="43.08152" lon="0.38884">
        <ele>592.14</ele>
        <time>2024-09-17T11:33:56.000Z</time>
      </trkpt>
      <trkpt lat="43.08148" lon="0.38912">
        <ele>592.11</ele>
        <time>2024-09-17T11:34:01.000Z</time>
      </trkpt>
      <trkpt lat="43.08141" lon="0.38936">
        <ele>592.08</ele>
        <time>2024-09-17T11:34:06.000Z</time>
      </trkpt>
      <trkpt lat="43.08128" lon="0.38959">
        <ele>592.02</ele>
        <time>2024-09-17T11:34:11.000Z</time>
      </trkpt>
      <trkpt lat="43.08109" lon="0.38982">
        <ele>591.98</ele>
        <time>2024-09-17T11:34:16.000Z</time>
      </trkpt>
      <trkpt lat="43.08088" lon="0.39005">
        <ele>591.98</ele>
        <time>2024-09-17T11:34:21.000Z</time>
      </trkpt>
      <trkpt lat="43.0806" lon="0.39029">
        <ele>592.01</ele>
        <time>2024-09-17T11:34:26.999Z</time>
      </trkpt>
      <trkpt lat="43.08038" lon="0.39049">
        <ele>592.01</ele>
        <time>2024-09-17T11:34:31.999Z</time>
      </trkpt>
      <trkpt lat="43.08013" lon="0.39068">
        <ele>592</ele>
        <time>2024-09-17T11:34:36.999Z</time>
      </trkpt>
      <trkpt lat="43.07988" lon="0.39083">
        <ele>592</ele>
        <time>2024-09-17T11:34:41.999Z</time>
      </trkpt>
      <trkpt lat="43.07963" lon="0.39098">
        <ele>591.99</ele>
        <time>2024-09-17T11:34:46.999Z</time>
      </trkpt>
      <trkpt lat="43.07947" lon="0.39106">
        <ele>591.98</ele>
        <time>2024-09-17T11:34:51.999Z</time>
      </trkpt>
      <trkpt lat="43.07956" lon="0.39104">
        <ele>591.94</ele>
        <time>2024-09-17T11:36:10.999Z</time>
      </trkpt>
      <trkpt lat="43.07966" lon="0.39101">
        <ele>591.94</ele>
        <time>2024-09-17T11:36:15.999Z</time>
      </trkpt>
      <trkpt lat="43.07982" lon="0.39091">
        <ele>591.93</ele>
        <time>2024-09-17T11:36:20.999Z</time>
      </trkpt>
      <trkpt lat="43.07999" lon="0.39081">
        <ele>591.93</ele>
        <time>2024-09-17T11:36:25.999Z</time>
      </trkpt>
      <trkpt lat="43.08014" lon="0.39069">
        <ele>591.93</ele>
        <time>2024-09-17T11:36:30.999Z</time>
      </trkpt>
      <trkpt lat="43.0803" lon="0.39058">
        <ele>591.93</ele>
        <time>2024-09-17T11:36:35.999Z</time>
      </trkpt>
      <trkpt lat="43.08044" lon="0.39044">
        <ele>591.94</ele>
        <time>2024-09-17T11:36:40.999Z</time>
      </trkpt>
      <trkpt lat="43.08059" lon="0.39033">
        <ele>591.95</ele>
        <time>2024-09-17T11:36:45.999Z</time>
      </trkpt>
      <trkpt lat="43.08074" lon="0.3902">
        <ele>591.95</ele>
        <time>2024-09-17T11:36:50.999Z</time>
      </trkpt>
      <trkpt lat="43.08089" lon="0.39006">
        <ele>591.96</ele>
        <time>2024-09-17T11:36:55.999Z</time>
      </trkpt>
      <trkpt lat="43.08102" lon="0.38993">
        <ele>591.98</ele>
        <time>2024-09-17T11:37:00.999Z</time>
      </trkpt>
      <trkpt lat="43.08114" lon="0.38981">
        <ele>592.01</ele>
        <time>2024-09-17T11:37:05.999Z</time>
      </trkpt>
      <trkpt lat="43.08128" lon="0.38974">
        <ele>592.05</ele>
        <time>2024-09-17T11:37:10.999Z</time>
      </trkpt>
      <trkpt lat="43.08138" lon="0.38986">
        <ele>592.1</ele>
        <time>2024-09-17T11:37:15.999Z</time>
      </trkpt>
      <trkpt lat="43.08142" lon="0.39002">
        <ele>592.15</ele>
        <time>2024-09-17T11:37:20.999Z</time>
      </trkpt>
      <trkpt lat="43.08143" lon="0.39024">
        <ele>592.2</ele>
        <time>2024-09-17T11:37:25.999Z</time>
      </trkpt>
      <trkpt lat="43.08143" lon="0.39053">
        <ele>592.53</ele>
        <time>2024-09-17T11:37:30.999Z</time>
      </trkpt>
      <trkpt lat="43.08141" lon="0.39085">
        <ele>592.66</ele>
        <time>2024-09-17T11:37:35.999Z</time>
      </trkpt>
      <trkpt lat="43.08139" lon="0.39117">
        <ele>592.72</ele>
        <time>2024-09-17T11:37:40.999Z</time>
      </trkpt>
      <trkpt lat="43.08142" lon="0.39148">
        <ele>592.79</ele>
        <time>2024-09-17T11:37:45.999Z</time>
      </trkpt>
      <trkpt lat="43.08147" lon="0.39183">
        <ele>592.88</ele>
        <time>2024-09-17T11:37:50.999Z</time>
      </trkpt>
      <trkpt lat="43.08153" lon="0.39221">
        <ele>592.97</ele>
        <time>2024-09-17T11:37:55.999Z</time>
      </trkpt>
      <trkpt lat="43.0816" lon="0.39259">
        <ele>592.99</ele>
        <time>2024-09-17T11:38:00.999Z</time>
      </trkpt>
      <trkpt lat="43.08168" lon="0.39297">
        <ele>592.99</ele>
        <time>2024-09-17T11:38:05.999Z</time>
      </trkpt>
      <trkpt lat="43.08175" lon="0.39332">
        <ele>593</ele>
        <time>2024-09-17T11:38:10.999Z</time>
      </trkpt>
      <trkpt lat="43.08181" lon="0.39365">
        <ele>592.9</ele>
        <time>2024-09-17T11:38:15.999Z</time>
      </trkpt>
      <trkpt lat="43.08184" lon="0.39399">
        <ele>592.84</ele>
        <time>2024-09-17T11:38:20.999Z</time>
      </trkpt>
      <trkpt lat="43.08186" lon="0.39437">
        <ele>592.86</ele>
        <time>2024-09-17T11:38:25.999Z</time>
      </trkpt>
      <trkpt lat="43.08189" lon="0.3948">
        <ele>592.85</ele>
        <time>2024-09-17T11:38:30.999Z</time>
      </trkpt>
      <trkpt lat="43.08192" lon="0.3952">
        <ele>592.7</ele>
        <time>2024-09-17T11:38:35.999Z</time>
      </trkpt>
      <trkpt lat="43.08195" lon="0.3956">
        <ele>592.67</ele>
        <time>2024-09-17T11:38:40.999Z</time>
      </trkpt>
      <trkpt lat="43.08198" lon="0.39601">
        <ele>592.73</ele>
        <time>2024-09-17T11:38:45.999Z</time>
      </trkpt>
      <trkpt lat="43.08201" lon="0.39647">
        <ele>592.87</ele>
        <time>2024-09-17T11:38:50.999Z</time>
      </trkpt>
      <trkpt lat="43.08202" lon="0.39694">
        <ele>592.86</ele>
        <time>2024-09-17T11:38:55.999Z</time>
      </trkpt>
      <trkpt lat="43.082" lon="0.39742">
        <ele>592.85</ele>
        <time>2024-09-17T11:39:00.999Z</time>
      </trkpt>
      <trkpt lat="43.08199" lon="0.39789">
        <ele>592.98</ele>
        <time>2024-09-17T11:39:05.999Z</time>
      </trkpt>
      <trkpt lat="43.08197" lon="0.39834">
        <ele>592.73</ele>
        <time>2024-09-17T11:39:10.999Z</time>
      </trkpt>
      <trkpt lat="43.08194" lon="0.39878">
        <ele>592.09</ele>
        <time>2024-09-17T11:39:15.999Z</time>
      </trkpt>
      <trkpt lat="43.08192" lon="0.39921">
        <ele>591.38</ele>
        <time>2024-09-17T11:39:20.999Z</time>
      </trkpt>
      <trkpt lat="43.08193" lon="0.39962">
        <ele>590.88</ele>
        <time>2024-09-17T11:39:25.999Z</time>
      </trkpt>
      <trkpt lat="43.08196" lon="0.4">
        <ele>590.52</ele>
        <time>2024-09-17T11:39:30.999Z</time>
      </trkpt>
      <trkpt lat="43.08202" lon="0.40041">
        <ele>590.21</ele>
        <time>2024-09-17T11:39:35.999Z</time>
      </trkpt>
      <trkpt lat="43.08208" lon="0.40083">
        <ele>589.55</ele>
        <time>2024-09-17T11:39:40.999Z</time>
      </trkpt>
      <trkpt lat="43.08214" lon="0.40125">
        <ele>589.02</ele>
        <time>2024-09-17T11:39:45.999Z</time>
      </trkpt>
      <trkpt lat="43.08226" lon="0.40167">
        <ele>588.73</ele>
        <time>2024-09-17T11:39:50.999Z</time>
      </trkpt>
      <trkpt lat="43.08238" lon="0.40209">
        <ele>588.16</ele>
        <time>2024-09-17T11:39:55.999Z</time>
      </trkpt>
      <trkpt lat="43.08244" lon="0.40254">
        <ele>587.36</ele>
        <time>2024-09-17T11:40:00.999Z</time>
      </trkpt>
      <trkpt lat="43.08249" lon="0.403">
        <ele>586.96</ele>
        <time>2024-09-17T11:40:05.999Z</time>
      </trkpt>
      <trkpt lat="43.08249" lon="0.40342">
        <ele>586.74</ele>
        <time>2024-09-17T11:40:10.999Z</time>
      </trkpt>
      <trkpt lat="43.08246" lon="0.40363">
        <ele>586.67</ele>
        <time>2024-09-17T11:40:15.999Z</time>
      </trkpt>
      <trkpt lat="43.08242" lon="0.40376">
        <ele>586.63</ele>
        <time>2024-09-17T11:40:21.999Z</time>
      </trkpt>
      <trkpt lat="43.08233" lon="0.40381">
        <ele>586.5</ele>
        <time>2024-09-17T11:40:28.999Z</time>
      </trkpt>
      <trkpt lat="43.08223" lon="0.40383">
        <ele>586.33</ele>
        <time>2024-09-17T11:40:34.999Z</time>
      </trkpt>
      <trkpt lat="43.08214" lon="0.40387">
        <ele>586.17</ele>
        <time>2024-09-17T11:40:40.999Z</time>
      </trkpt>
      <trkpt lat="43.08205" lon="0.40392">
        <ele>585.95</ele>
        <time>2024-09-17T11:41:10.999Z</time>
      </trkpt>
      <trkpt lat="43.08199" lon="0.40404">
        <ele>585.76</ele>
        <time>2024-09-17T11:41:26.999Z</time>
      </trkpt>
      <trkpt lat="43.08203" lon="0.40425">
        <ele>585.45</ele>
        <time>2024-09-17T11:41:31.999Z</time>
      </trkpt>
      <trkpt lat="43.08208" lon="0.40455">
        <ele>584.73</ele>
        <time>2024-09-17T11:41:36.999Z</time>
      </trkpt>
      <trkpt lat="43.08213" lon="0.40489">
        <ele>584.5</ele>
        <time>2024-09-17T11:41:41.999Z</time>
      </trkpt>
      <trkpt lat="43.08219" lon="0.40527">
        <ele>584.38</ele>
        <time>2024-09-17T11:41:46.999Z</time>
      </trkpt>
      <trkpt lat="43.08226" lon="0.40569">
        <ele>584.24</ele>
        <time>2024-09-17T11:41:51.999Z</time>
      </trkpt>
      <trkpt lat="43.0823" lon="0.4061">
        <ele>584.2</ele>
        <time>2024-09-17T11:41:56.999Z</time>
      </trkpt>
      <trkpt lat="43.08234" lon="0.4065">
        <ele>584.59</ele>
        <time>2024-09-17T11:42:01.999Z</time>
      </trkpt>
      <trkpt lat="43.08238" lon="0.4069">
        <ele>585.18</ele>
        <time>2024-09-17T11:42:06.999Z</time>
      </trkpt>
      <trkpt lat="43.0824" lon="0.40733">
        <ele>585.73</ele>
        <time>2024-09-17T11:42:11.999Z</time>
      </trkpt>
      <trkpt lat="43.08243" lon="0.4078">
        <ele>586.3</ele>
        <time>2024-09-17T11:42:16.999Z</time>
      </trkpt>
      <trkpt lat="43.08245" lon="0.40827">
        <ele>586.14</ele>
        <time>2024-09-17T11:42:21.999Z</time>
      </trkpt>
      <trkpt lat="43.08245" lon="0.40874">
        <ele>585.96</ele>
        <time>2024-09-17T11:42:26.999Z</time>
      </trkpt>
      <trkpt lat="43.08242" lon="0.40922">
        <ele>585.95</ele>
        <time>2024-09-17T11:42:31.999Z</time>
      </trkpt>
      <trkpt lat="43.08239" lon="0.40966">
        <ele>585.84</ele>
        <time>2024-09-17T11:42:36.999Z</time>
      </trkpt>
      <trkpt lat="43.08235" lon="0.41014">
        <ele>585.69</ele>
        <time>2024-09-17T11:42:41.999Z</time>
      </trkpt>
      <trkpt lat="43.08236" lon="0.4106">
        <ele>584.21</ele>
        <time>2024-09-17T11:42:46.999Z</time>
      </trkpt>
      <trkpt lat="43.08237" lon="0.41106">
        <ele>582.39</ele>
        <time>2024-09-17T11:42:51.999Z</time>
      </trkpt>
      <trkpt lat="43.08234" lon="0.41153">
        <ele>581</ele>
        <time>2024-09-17T11:42:56.999Z</time>
      </trkpt>
      <trkpt lat="43.08229" lon="0.41202">
        <ele>580.03</ele>
        <time>2024-09-17T11:43:01.999Z</time>
      </trkpt>
      <trkpt lat="43.08223" lon="0.4125">
        <ele>579.28</ele>
        <time>2024-09-17T11:43:06.999Z</time>
      </trkpt>
      <trkpt lat="43.08217" lon="0.41297">
        <ele>578.57</ele>
        <time>2024-09-17T11:43:11.999Z</time>
      </trkpt>
      <trkpt lat="43.08211" lon="0.41344">
        <ele>577.91</ele>
        <time>2024-09-17T11:43:16.999Z</time>
      </trkpt>
      <trkpt lat="43.08204" lon="0.4139">
        <ele>577.55</ele>
        <time>2024-09-17T11:43:21.999Z</time>
      </trkpt>
      <trkpt lat="43.08197" lon="0.41434">
        <ele>577.52</ele>
        <time>2024-09-17T11:43:26.999Z</time>
      </trkpt>
      <trkpt lat="43.0819" lon="0.41477">
        <ele>577.39</ele>
        <time>2024-09-17T11:43:31.999Z</time>
      </trkpt>
      <trkpt lat="43.08184" lon="0.41521">
        <ele>577.49</ele>
        <time>2024-09-17T11:43:36.999Z</time>
      </trkpt>
      <trkpt lat="43.08177" lon="0.41567">
        <ele>577.74</ele>
        <time>2024-09-17T11:43:41.999Z</time>
      </trkpt>
      <trkpt lat="43.08166" lon="0.41614">
        <ele>577.84</ele>
        <time>2024-09-17T11:43:46.999Z</time>
      </trkpt>
      <trkpt lat="43.0816" lon="0.4166">
        <ele>578.01</ele>
        <time>2024-09-17T11:43:51.999Z</time>
      </trkpt>
      <trkpt lat="43.08153" lon="0.41704">
        <ele>578.21</ele>
        <time>2024-09-17T11:43:56.999Z</time>
      </trkpt>
      <trkpt lat="43.08145" lon="0.41745">
        <ele>578.43</ele>
        <time>2024-09-17T11:44:01.999Z</time>
      </trkpt>
      <trkpt lat="43.08139" lon="0.41786">
        <ele>578.49</ele>
        <time>2024-09-17T11:44:06.999Z</time>
      </trkpt>
      <trkpt lat="43.08132" lon="0.41828">
        <ele>578.51</ele>
        <time>2024-09-17T11:44:11.999Z</time>
      </trkpt>
      <trkpt lat="43.08125" lon="0.41871">
        <ele>578.33</ele>
        <time>2024-09-17T11:44:16.999Z</time>
      </trkpt>
      <trkpt lat="43.08118" lon="0.41913">
        <ele>578.06</ele>
        <time>2024-09-17T11:44:21.999Z</time>
      </trkpt>
      <trkpt lat="43.0811" lon="0.41954">
        <ele>577.69</ele>
        <time>2024-09-17T11:44:26.999Z</time>
      </trkpt>
      <trkpt lat="43.08103" lon="0.41995">
        <ele>577.11</ele>
        <time>2024-09-17T11:44:31.999Z</time>
      </trkpt>
      <trkpt lat="43.08096" lon="0.42036">
        <ele>576.96</ele>
        <time>2024-09-17T11:44:36.999Z</time>
      </trkpt>
      <trkpt lat="43.0809" lon="0.42076">
        <ele>577.22</ele>
        <time>2024-09-17T11:44:41.999Z</time>
      </trkpt>
      <trkpt lat="43.08082" lon="0.42117">
        <ele>577.64</ele>
        <time>2024-09-17T11:44:46.999Z</time>
      </trkpt>
      <trkpt lat="43.08075" lon="0.4216">
        <ele>577.75</ele>
        <time>2024-09-17T11:44:51.999Z</time>
      </trkpt>
      <trkpt lat="43.08067" lon="0.42205">
        <ele>577.28</ele>
        <time>2024-09-17T11:44:56.999Z</time>
      </trkpt>
      <trkpt lat="43.0806" lon="0.42249">
        <ele>576.9</ele>
        <time>2024-09-17T11:45:01.999Z</time>
      </trkpt>
      <trkpt lat="43.08054" lon="0.42289">
        <ele>576.78</ele>
        <time>2024-09-17T11:45:06.999Z</time>
      </trkpt>
      <trkpt lat="43.08048" lon="0.42327">
        <ele>576.63</ele>
        <time>2024-09-17T11:45:11.999Z</time>
      </trkpt>
      <trkpt lat="43.08042" lon="0.42365">
        <ele>576.52</ele>
        <time>2024-09-17T11:45:16.999Z</time>
      </trkpt>
      <trkpt lat="43.08035" lon="0.42397">
        <ele>576.42</ele>
        <time>2024-09-17T11:45:21.999Z</time>
      </trkpt>
      <trkpt lat="43.08027" lon="0.42424">
        <ele>576.21</ele>
        <time>2024-09-17T11:45:26.999Z</time>
      </trkpt>
      <trkpt lat="43.08024" lon="0.42446">
        <ele>576.21</ele>
        <time>2024-09-17T11:45:31.999Z</time>
      </trkpt>
      <trkpt lat="43.08019" lon="0.42462">
        <ele>576.2</ele>
        <time>2024-09-17T11:45:36.999Z</time>
      </trkpt>
      <trkpt lat="43.08016" lon="0.42478">
        <ele>576.2</ele>
        <time>2024-09-17T11:45:41.999Z</time>
      </trkpt>
      <trkpt lat="43.08013" lon="0.4249">
        <ele>576.21</ele>
        <time>2024-09-17T11:45:46.999Z</time>
      </trkpt>
      <trkpt lat="43.08008" lon="0.42508">
        <ele>576.21</ele>
        <time>2024-09-17T11:45:51.999Z</time>
      </trkpt>
      <trkpt lat="43.08005" lon="0.42523">
        <ele>576.21</ele>
        <time>2024-09-17T11:45:56.999Z</time>
      </trkpt>
      <trkpt lat="43.08001" lon="0.4254">
        <ele>576.19</ele>
        <time>2024-09-17T11:46:01.999Z</time>
      </trkpt>
      <trkpt lat="43.07997" lon="0.42557">
        <ele>576.18</ele>
        <time>2024-09-17T11:46:06.999Z</time>
      </trkpt>
      <trkpt lat="43.07989" lon="0.42584">
        <ele>576.13</ele>
        <time>2024-09-17T11:46:11.999Z</time>
      </trkpt>
      <trkpt lat="43.07979" lon="0.42623">
        <ele>576</ele>
        <time>2024-09-17T11:46:16.999Z</time>
      </trkpt>
      <trkpt lat="43.07967" lon="0.42665">
        <ele>575.7</ele>
        <time>2024-09-17T11:46:21.999Z</time>
      </trkpt>
      <trkpt lat="43.07955" lon="0.42709">
        <ele>575.27</ele>
        <time>2024-09-17T11:46:26.999Z</time>
      </trkpt>
      <trkpt lat="43.07942" lon="0.42754">
        <ele>574.8</ele>
        <time>2024-09-17T11:46:31.999Z</time>
      </trkpt>
      <trkpt lat="43.0793" lon="0.42799">
        <ele>574.32</ele>
        <time>2024-09-17T11:46:37.000Z</time>
      </trkpt>
      <trkpt lat="43.07918" lon="0.42843">
        <ele>573.7</ele>
        <time>2024-09-17T11:46:42.000Z</time>
      </trkpt>
      <trkpt lat="43.07907" lon="0.42888">
        <ele>573.22</ele>
        <time>2024-09-17T11:46:47.000Z</time>
      </trkpt>
      <trkpt lat="43.07895" lon="0.42932">
        <ele>572.8</ele>
        <time>2024-09-17T11:46:52.000Z</time>
      </trkpt>
      <trkpt lat="43.07884" lon="0.42974">
        <ele>572.12</ele>
        <time>2024-09-17T11:46:57.000Z</time>
      </trkpt>
      <trkpt lat="43.07873" lon="0.43018">
        <ele>571.61</ele>
        <time>2024-09-17T11:47:02.000Z</time>
      </trkpt>
      <trkpt lat="43.07862" lon="0.43061">
        <ele>570.97</ele>
        <time>2024-09-17T11:47:07.000Z</time>
      </trkpt>
      <trkpt lat="43.07851" lon="0.43104">
        <ele>570.46</ele>
        <time>2024-09-17T11:47:12.000Z</time>
      </trkpt>
      <trkpt lat="43.07842" lon="0.43145">
        <ele>570.13</ele>
        <time>2024-09-17T11:47:17.000Z</time>
      </trkpt>
      <trkpt lat="43.07834" lon="0.43185">
        <ele>569.57</ele>
        <time>2024-09-17T11:47:22.000Z</time>
      </trkpt>
      <trkpt lat="43.07827" lon="0.43224">
        <ele>569.11</ele>
        <time>2024-09-17T11:47:27.000Z</time>
      </trkpt>
      <trkpt lat="43.07822" lon="0.43264">
        <ele>568.71</ele>
        <time>2024-09-17T11:47:32.000Z</time>
      </trkpt>
      <trkpt lat="43.07818" lon="0.43308">
        <ele>568.32</ele>
        <time>2024-09-17T11:47:37.000Z</time>
      </trkpt>
      <trkpt lat="43.07813" lon="0.43359">
        <ele>567.65</ele>
        <time>2024-09-17T11:47:42.000Z</time>
      </trkpt>
      <trkpt lat="43.07805" lon="0.43408">
        <ele>566.78</ele>
        <time>2024-09-17T11:47:47.000Z</time>
      </trkpt>
      <trkpt lat="43.07797" lon="0.4346">
        <ele>565.91</ele>
        <time>2024-09-17T11:47:52.000Z</time>
      </trkpt>
      <trkpt lat="43.07791" lon="0.43509">
        <ele>565.21</ele>
        <time>2024-09-17T11:47:57.000Z</time>
      </trkpt>
      <trkpt lat="43.07787" lon="0.43555">
        <ele>564.65</ele>
        <time>2024-09-17T11:48:02.000Z</time>
      </trkpt>
      <trkpt lat="43.07782" lon="0.436">
        <ele>564.18</ele>
        <time>2024-09-17T11:48:07.000Z</time>
      </trkpt>
      <trkpt lat="43.07777" lon="0.43644">
        <ele>563.87</ele>
        <time>2024-09-17T11:48:12.000Z</time>
      </trkpt>
      <trkpt lat="43.07771" lon="0.43686">
        <ele>563.18</ele>
        <time>2024-09-17T11:48:17.000Z</time>
      </trkpt>
      <trkpt lat="43.07769" lon="0.43699">
        <ele>563.06</ele>
        <time>2024-09-17T11:48:22.000Z</time>
      </trkpt>
      <trkpt lat="43.07759" lon="0.43708">
        <ele>561.84</ele>
        <time>2024-09-17T11:48:43.000Z</time>
      </trkpt>
      <trkpt lat="43.07731" lon="0.43732">
        <ele>559.66</ele>
        <time>2024-09-17T11:48:48.000Z</time>
      </trkpt>
      <trkpt lat="43.07715" lon="0.43761">
        <ele>558.56</ele>
        <time>2024-09-17T11:48:53.000Z</time>
      </trkpt>
      <trkpt lat="43.07712" lon="0.43772">
        <ele>558.32</ele>
        <time>2024-09-17T11:49:08.000Z</time>
      </trkpt>
      <trkpt lat="43.07708" lon="0.43798">
        <ele>557.04</ele>
        <time>2024-09-17T11:49:13.000Z</time>
      </trkpt>
      <trkpt lat="43.07702" lon="0.43849">
        <ele>555.02</ele>
        <time>2024-09-17T11:49:18.000Z</time>
      </trkpt>
      <trkpt lat="43.07696" lon="0.43895">
        <ele>553.95</ele>
        <time>2024-09-17T11:49:23.000Z</time>
      </trkpt>
      <trkpt lat="43.07688" lon="0.43946">
        <ele>553.05</ele>
        <time>2024-09-17T11:49:28.000Z</time>
      </trkpt>
      <trkpt lat="43.07683" lon="0.43985">
        <ele>550.7</ele>
        <time>2024-09-17T11:49:33.000Z</time>
      </trkpt>
      <trkpt lat="43.0768" lon="0.44016">
        <ele>548.83</ele>
        <time>2024-09-17T11:49:38.000Z</time>
      </trkpt>
      <trkpt lat="43.07682" lon="0.44059">
        <ele>547.69</ele>
        <time>2024-09-17T11:49:43.000Z</time>
      </trkpt>
      <trkpt lat="43.07686" lon="0.44098">
        <ele>546.44</ele>
        <time>2024-09-17T11:49:48.000Z</time>
      </trkpt>
      <trkpt lat="43.07686" lon="0.4414">
        <ele>544.38</ele>
        <time>2024-09-17T11:49:53.000Z</time>
      </trkpt>
      <trkpt lat="43.07687" lon="0.44185">
        <ele>542.51</ele>
        <time>2024-09-17T11:49:58.000Z</time>
      </trkpt>
      <trkpt lat="43.07684" lon="0.44227">
        <ele>540.72</ele>
        <time>2024-09-17T11:50:03.000Z</time>
      </trkpt>
      <trkpt lat="43.0768" lon="0.44265">
        <ele>539.66</ele>
        <time>2024-09-17T11:50:08.000Z</time>
      </trkpt>
      <trkpt lat="43.07676" lon="0.44294">
        <ele>539.76</ele>
        <time>2024-09-17T11:50:13.000Z</time>
      </trkpt>
      <trkpt lat="43.07665" lon="0.44315">
        <ele>538.2</ele>
        <time>2024-09-17T11:50:18.000Z</time>
      </trkpt>
      <trkpt lat="43.07628" lon="0.44326">
        <ele>534.79</ele>
        <time>2024-09-17T11:50:23.000Z</time>
      </trkpt>
      <trkpt lat="43.07607" lon="0.44352">
        <ele>532.24</ele>
        <time>2024-09-17T11:50:28.000Z</time>
      </trkpt>
      <trkpt lat="43.07599" lon="0.44395">
        <ele>530.71</ele>
        <time>2024-09-17T11:50:33.000Z</time>
      </trkpt>
      <trkpt lat="43.07592" lon="0.44436">
        <ele>529.47</ele>
        <time>2024-09-17T11:50:38.000Z</time>
      </trkpt>
      <trkpt lat="43.07582" lon="0.44476">
        <ele>528.08</ele>
        <time>2024-09-17T11:50:43.000Z</time>
      </trkpt>
      <trkpt lat="43.07569" lon="0.44514">
        <ele>527.25</ele>
        <time>2024-09-17T11:50:48.000Z</time>
      </trkpt>
      <trkpt lat="43.07557" lon="0.44549">
        <ele>526.34</ele>
        <time>2024-09-17T11:50:53.000Z</time>
      </trkpt>
      <trkpt lat="43.07543" lon="0.44583">
        <ele>525.23</ele>
        <time>2024-09-17T11:50:58.000Z</time>
      </trkpt>
      <trkpt lat="43.07523" lon="0.44618">
        <ele>524.68</ele>
        <time>2024-09-17T11:51:03.000Z</time>
      </trkpt>
      <trkpt lat="43.07504" lon="0.4465">
        <ele>524.27</ele>
        <time>2024-09-17T11:51:08.000Z</time>
      </trkpt>
      <trkpt lat="43.07488" lon="0.44682">
        <ele>523.78</ele>
        <time>2024-09-17T11:51:13.000Z</time>
      </trkpt>
      <trkpt lat="43.07481" lon="0.44717">
        <ele>523.19</ele>
        <time>2024-09-17T11:51:18.000Z</time>
      </trkpt>
      <trkpt lat="43.07473" lon="0.44751">
        <ele>522.28</ele>
        <time>2024-09-17T11:51:23.000Z</time>
      </trkpt>
      <trkpt lat="43.07465" lon="0.4479">
        <ele>521.5</ele>
        <time>2024-09-17T11:51:28.000Z</time>
      </trkpt>
      <trkpt lat="43.07453" lon="0.44829">
        <ele>520.47</ele>
        <time>2024-09-17T11:51:33.000Z</time>
      </trkpt>
      <trkpt lat="43.07441" lon="0.4487">
        <ele>519.61</ele>
        <time>2024-09-17T11:51:38.000Z</time>
      </trkpt>
      <trkpt lat="43.07428" lon="0.44911">
        <ele>518.83</ele>
        <time>2024-09-17T11:51:43.000Z</time>
      </trkpt>
      <trkpt lat="43.07415" lon="0.44952">
        <ele>518.17</ele>
        <time>2024-09-17T11:51:48.000Z</time>
      </trkpt>
      <trkpt lat="43.07402" lon="0.44992">
        <ele>517.6</ele>
        <time>2024-09-17T11:51:53.000Z</time>
      </trkpt>
      <trkpt lat="43.07388" lon="0.4503">
        <ele>516.96</ele>
        <time>2024-09-17T11:51:58.000Z</time>
      </trkpt>
      <trkpt lat="43.07374" lon="0.45069">
        <ele>516.5</ele>
        <time>2024-09-17T11:52:03.000Z</time>
      </trkpt>
      <trkpt lat="43.07361" lon="0.45109">
        <ele>516.04</ele>
        <time>2024-09-17T11:52:08.000Z</time>
      </trkpt>
      <trkpt lat="43.07348" lon="0.45148">
        <ele>515.66</ele>
        <time>2024-09-17T11:52:13.000Z</time>
      </trkpt>
      <trkpt lat="43.07335" lon="0.45187">
        <ele>515.34</ele>
        <time>2024-09-17T11:52:18.000Z</time>
      </trkpt>
      <trkpt lat="43.07324" lon="0.45228">
        <ele>515.02</ele>
        <time>2024-09-17T11:52:23.000Z</time>
      </trkpt>
      <trkpt lat="43.07315" lon="0.45269">
        <ele>514.63</ele>
        <time>2024-09-17T11:52:28.000Z</time>
      </trkpt>
      <trkpt lat="43.07305" lon="0.4531">
        <ele>514.06</ele>
        <time>2024-09-17T11:52:33.000Z</time>
      </trkpt>
      <trkpt lat="43.07294" lon="0.45351">
        <ele>513.71</ele>
        <time>2024-09-17T11:52:38.000Z</time>
      </trkpt>
      <trkpt lat="43.07284" lon="0.45386">
        <ele>513.26</ele>
        <time>2024-09-17T11:52:43.000Z</time>
      </trkpt>
      <trkpt lat="43.07273" lon="0.45423">
        <ele>513.32</ele>
        <time>2024-09-17T11:52:48.000Z</time>
      </trkpt>
      <trkpt lat="43.07262" lon="0.4546">
        <ele>513.18</ele>
        <time>2024-09-17T11:52:53.000Z</time>
      </trkpt>
      <trkpt lat="43.07252" lon="0.45496">
        <ele>513</ele>
        <time>2024-09-17T11:52:58.000Z</time>
      </trkpt>
      <trkpt lat="43.07244" lon="0.45532">
        <ele>512.87</ele>
        <time>2024-09-17T11:53:03.000Z</time>
      </trkpt>
      <trkpt lat="43.07236" lon="0.45563">
        <ele>513.02</ele>
        <time>2024-09-17T11:53:08.000Z</time>
      </trkpt>
      <trkpt lat="43.0723" lon="0.45591">
        <ele>513.23</ele>
        <time>2024-09-17T11:53:13.000Z</time>
      </trkpt>
      <trkpt lat="43.07225" lon="0.45619">
        <ele>513.38</ele>
        <time>2024-09-17T11:53:18.000Z</time>
      </trkpt>
      <trkpt lat="43.07222" lon="0.45646">
        <ele>513.48</ele>
        <time>2024-09-17T11:53:23.000Z</time>
      </trkpt>
      <trkpt lat="43.0722" lon="0.45679">
        <ele>513.45</ele>
        <time>2024-09-17T11:53:28.000Z</time>
      </trkpt>
      <trkpt lat="43.07222" lon="0.45715">
        <ele>513.39</ele>
        <time>2024-09-17T11:53:33.000Z</time>
      </trkpt>
      <trkpt lat="43.07228" lon="0.45753">
        <ele>513.27</ele>
        <time>2024-09-17T11:53:38.000Z</time>
      </trkpt>
      <trkpt lat="43.07236" lon="0.45794">
        <ele>513.11</ele>
        <time>2024-09-17T11:53:43.000Z</time>
      </trkpt>
      <trkpt lat="43.07242" lon="0.45833">
        <ele>512.96</ele>
        <time>2024-09-17T11:53:48.000Z</time>
      </trkpt>
      <trkpt lat="43.07246" lon="0.45874">
        <ele>512.84</ele>
        <time>2024-09-17T11:53:53.000Z</time>
      </trkpt>
      <trkpt lat="43.07248" lon="0.45917">
        <ele>512.77</ele>
        <time>2024-09-17T11:53:58.000Z</time>
      </trkpt>
      <trkpt lat="43.0725" lon="0.45958">
        <ele>512.74</ele>
        <time>2024-09-17T11:54:03.000Z</time>
      </trkpt>
      <trkpt lat="43.07255" lon="0.45998">
        <ele>512.75</ele>
        <time>2024-09-17T11:54:08.000Z</time>
      </trkpt>
      <trkpt lat="43.0726" lon="0.46038">
        <ele>512.68</ele>
        <time>2024-09-17T11:54:13.000Z</time>
      </trkpt>
      <trkpt lat="43.07267" lon="0.46079">
        <ele>512.52</ele>
        <time>2024-09-17T11:54:18.000Z</time>
      </trkpt>
      <trkpt lat="43.07275" lon="0.46116">
        <ele>512.14</ele>
        <time>2024-09-17T11:54:23.000Z</time>
      </trkpt>
      <trkpt lat="43.07281" lon="0.4615">
        <ele>511.81</ele>
        <time>2024-09-17T11:54:28.000Z</time>
      </trkpt>
      <trkpt lat="43.07285" lon="0.46184">
        <ele>511.71</ele>
        <time>2024-09-17T11:54:33.000Z</time>
      </trkpt>
      <trkpt lat="43.07283" lon="0.46222">
        <ele>511.94</ele>
        <time>2024-09-17T11:54:38.000Z</time>
      </trkpt>
      <trkpt lat="43.07281" lon="0.46254">
        <ele>512.14</ele>
        <time>2024-09-17T11:54:43.000Z</time>
      </trkpt>
      <trkpt lat="43.0728" lon="0.46286">
        <ele>512.25</ele>
        <time>2024-09-17T11:54:48.000Z</time>
      </trkpt>
      <trkpt lat="43.07277" lon="0.46319">
        <ele>512.32</ele>
        <time>2024-09-17T11:54:53.000Z</time>
      </trkpt>
      <trkpt lat="43.07274" lon="0.46353">
        <ele>512.28</ele>
        <time>2024-09-17T11:54:58.000Z</time>
      </trkpt>
      <trkpt lat="43.07271" lon="0.46388">
        <ele>512.18</ele>
        <time>2024-09-17T11:55:03.000Z</time>
      </trkpt>
      <trkpt lat="43.07267" lon="0.46422">
        <ele>512.13</ele>
        <time>2024-09-17T11:55:08.000Z</time>
      </trkpt>
      <trkpt lat="43.07263" lon="0.46449">
        <ele>512.12</ele>
        <time>2024-09-17T11:55:13.000Z</time>
      </trkpt>
      <trkpt lat="43.07259" lon="0.46472">
        <ele>512.1</ele>
        <time>2024-09-17T11:55:18.000Z</time>
      </trkpt>
      <trkpt lat="43.07258" lon="0.46499">
        <ele>512.1</ele>
        <time>2024-09-17T11:55:23.000Z</time>
      </trkpt>
      <trkpt lat="43.07254" lon="0.46533">
        <ele>512.08</ele>
        <time>2024-09-17T11:55:28.000Z</time>
      </trkpt>
      <trkpt lat="43.07253" lon="0.46567">
        <ele>511.91</ele>
        <time>2024-09-17T11:55:33.000Z</time>
      </trkpt>
      <trkpt lat="43.07252" lon="0.46604">
        <ele>511.66</ele>
        <time>2024-09-17T11:55:38.000Z</time>
      </trkpt>
      <trkpt lat="43.07253" lon="0.46634">
        <ele>511.38</ele>
        <time>2024-09-17T11:55:43.000Z</time>
      </trkpt>
      <trkpt lat="43.07254" lon="0.46669">
        <ele>511.07</ele>
        <time>2024-09-17T11:55:48.000Z</time>
      </trkpt>
      <trkpt lat="43.07253" lon="0.46706">
        <ele>510.8</ele>
        <time>2024-09-17T11:55:53.000Z</time>
      </trkpt>
      <trkpt lat="43.07252" lon="0.46744">
        <ele>510.57</ele>
        <time>2024-09-17T11:55:58.000Z</time>
      </trkpt>
      <trkpt lat="43.07251" lon="0.46781">
        <ele>510.35</ele>
        <time>2024-09-17T11:56:03.000Z</time>
      </trkpt>
      <trkpt lat="43.07249" lon="0.46821">
        <ele>510.15</ele>
        <time>2024-09-17T11:56:08.000Z</time>
      </trkpt>
      <trkpt lat="43.07249" lon="0.46864">
        <ele>509.93</ele>
        <time>2024-09-17T11:56:13.000Z</time>
      </trkpt>
      <trkpt lat="43.07248" lon="0.46906">
        <ele>509.66</ele>
        <time>2024-09-17T11:56:18.000Z</time>
      </trkpt>
      <trkpt lat="43.07246" lon="0.46947">
        <ele>509.29</ele>
        <time>2024-09-17T11:56:23.000Z</time>
      </trkpt>
      <trkpt lat="43.07244" lon="0.46987">
        <ele>508.94</ele>
        <time>2024-09-17T11:56:28.000Z</time>
      </trkpt>
      <trkpt lat="43.07241" lon="0.47029">
        <ele>508.6</ele>
        <time>2024-09-17T11:56:33.000Z</time>
      </trkpt>
      <trkpt lat="43.07237" lon="0.4707">
        <ele>508.32</ele>
        <time>2024-09-17T11:56:38.000Z</time>
      </trkpt>
      <trkpt lat="43.07233" lon="0.47109">
        <ele>508.06</ele>
        <time>2024-09-17T11:56:43.000Z</time>
      </trkpt>
      <trkpt lat="43.07229" lon="0.47149">
        <ele>507.45</ele>
        <time>2024-09-17T11:56:48.000Z</time>
      </trkpt>
      <trkpt lat="43.0723" lon="0.47192">
        <ele>506.49</ele>
        <time>2024-09-17T11:56:53.000Z</time>
      </trkpt>
      <trkpt lat="43.07242" lon="0.47244">
        <ele>505.37</ele>
        <time>2024-09-17T11:56:58.000Z</time>
      </trkpt>
      <trkpt lat="43.07251" lon="0.47302">
        <ele>504.25</ele>
        <time>2024-09-17T11:57:03.000Z</time>
      </trkpt>
      <trkpt lat="43.07265" lon="0.47358">
        <ele>503.2</ele>
        <time>2024-09-17T11:57:08.000Z</time>
      </trkpt>
      <trkpt lat="43.07287" lon="0.47401">
        <ele>502.55</ele>
        <time>2024-09-17T11:57:13.000Z</time>
      </trkpt>
      <trkpt lat="43.07304" lon="0.4744">
        <ele>501.27</ele>
        <time>2024-09-17T11:57:18.000Z</time>
      </trkpt>
      <trkpt lat="43.0732" lon="0.47479">
        <ele>500.07</ele>
        <time>2024-09-17T11:57:23.000Z</time>
      </trkpt>
      <trkpt lat="43.07335" lon="0.47516">
        <ele>498.97</ele>
        <time>2024-09-17T11:57:28.000Z</time>
      </trkpt>
      <trkpt lat="43.07351" lon="0.47554">
        <ele>498.03</ele>
        <time>2024-09-17T11:57:33.000Z</time>
      </trkpt>
      <trkpt lat="43.07367" lon="0.4759">
        <ele>497.3</ele>
        <time>2024-09-17T11:57:38.000Z</time>
      </trkpt>
      <trkpt lat="43.07383" lon="0.47621">
        <ele>496.66</ele>
        <time>2024-09-17T11:57:43.000Z</time>
      </trkpt>
      <trkpt lat="43.074" lon="0.47649">
        <ele>496.1</ele>
        <time>2024-09-17T11:57:48.000Z</time>
      </trkpt>
      <trkpt lat="43.07416" lon="0.47673">
        <ele>495.8</ele>
        <time>2024-09-17T11:57:53.000Z</time>
      </trkpt>
      <trkpt lat="43.07435" lon="0.47696">
        <ele>495.38</ele>
        <time>2024-09-17T11:57:58.000Z</time>
      </trkpt>
      <trkpt lat="43.07455" lon="0.4772">
        <ele>495.03</ele>
        <time>2024-09-17T11:58:03.000Z</time>
      </trkpt>
      <trkpt lat="43.07473" lon="0.47745">
        <ele>494.77</ele>
        <time>2024-09-17T11:58:08.000Z</time>
      </trkpt>
      <trkpt lat="43.0749" lon="0.47771">
        <ele>494.36</ele>
        <time>2024-09-17T11:58:13.000Z</time>
      </trkpt>
      <trkpt lat="43.07502" lon="0.47799">
        <ele>494.04</ele>
        <time>2024-09-17T11:58:18.000Z</time>
      </trkpt>
      <trkpt lat="43.07512" lon="0.47825">
        <ele>493.85</ele>
        <time>2024-09-17T11:58:23.000Z</time>
      </trkpt>
      <trkpt lat="43.0752" lon="0.47849">
        <ele>493.7</ele>
        <time>2024-09-17T11:58:28.000Z</time>
      </trkpt>
      <trkpt lat="43.07528" lon="0.47877">
        <ele>493.59</ele>
        <time>2024-09-17T11:58:33.000Z</time>
      </trkpt>
      <trkpt lat="43.07535" lon="0.47908">
        <ele>493.53</ele>
        <time>2024-09-17T11:58:38.000Z</time>
      </trkpt>
      <trkpt lat="43.07548" lon="0.47942">
        <ele>493.54</ele>
        <time>2024-09-17T11:58:43.999Z</time>
      </trkpt>
      <trkpt lat="43.07564" lon="0.47968">
        <ele>493.5</ele>
        <time>2024-09-17T11:58:48.999Z</time>
      </trkpt>
      <trkpt lat="43.07583" lon="0.47991">
        <ele>493.4</ele>
        <time>2024-09-17T11:58:53.999Z</time>
      </trkpt>
      <trkpt lat="43.07599" lon="0.48012">
        <ele>493.31</ele>
        <time>2024-09-17T11:58:58.999Z</time>
      </trkpt>
      <trkpt lat="43.07617" lon="0.48032">
        <ele>493.3</ele>
        <time>2024-09-17T11:59:03.999Z</time>
      </trkpt>
      <trkpt lat="43.07638" lon="0.48057">
        <ele>493.29</ele>
        <time>2024-09-17T11:59:08.999Z</time>
      </trkpt>
      <trkpt lat="43.07657" lon="0.48081">
        <ele>493.24</ele>
        <time>2024-09-17T11:59:13.999Z</time>
      </trkpt>
      <trkpt lat="43.07671" lon="0.48104">
        <ele>493.15</ele>
        <time>2024-09-17T11:59:18.999Z</time>
      </trkpt>
      <trkpt lat="43.0768" lon="0.4813">
        <ele>493.08</ele>
        <time>2024-09-17T11:59:23.999Z</time>
      </trkpt>
      <trkpt lat="43.07682" lon="0.48159">
        <ele>493.06</ele>
        <time>2024-09-17T11:59:28.999Z</time>
      </trkpt>
      <trkpt lat="43.07694" lon="0.48185">
        <ele>493.04</ele>
        <time>2024-09-17T11:59:33.999Z</time>
      </trkpt>
      <trkpt lat="43.07707" lon="0.48211">
        <ele>493.01</ele>
        <time>2024-09-17T11:59:38.999Z</time>
      </trkpt>
      <trkpt lat="43.07712" lon="0.48245">
        <ele>492.96</ele>
        <time>2024-09-17T11:59:43.999Z</time>
      </trkpt>
      <trkpt lat="43.07717" lon="0.48278">
        <ele>492.87</ele>
        <time>2024-09-17T11:59:48.999Z</time>
      </trkpt>
      <trkpt lat="43.07725" lon="0.48312">
        <ele>492.77</ele>
        <time>2024-09-17T11:59:53.999Z</time>
      </trkpt>
      <trkpt lat="43.07736" lon="0.48345">
        <ele>492.63</ele>
        <time>2024-09-17T11:59:58.999Z</time>
      </trkpt>
      <trkpt lat="43.07749" lon="0.48374">
        <ele>492.46</ele>
        <time>2024-09-17T12:00:03.999Z</time>
      </trkpt>
      <trkpt lat="43.07763" lon="0.48397">
        <ele>492.29</ele>
        <time>2024-09-17T12:00:08.999Z</time>
      </trkpt>
      <trkpt lat="43.07777" lon="0.48422">
        <ele>492.2</ele>
        <time>2024-09-17T12:00:13.999Z</time>
      </trkpt>
      <trkpt lat="43.0779" lon="0.48448">
        <ele>492.1</ele>
        <time>2024-09-17T12:00:18.999Z</time>
      </trkpt>
      <trkpt lat="43.07804" lon="0.48478">
        <ele>491.98</ele>
        <time>2024-09-17T12:00:23.999Z</time>
      </trkpt>
      <trkpt lat="43.07817" lon="0.48506">
        <ele>491.79</ele>
        <time>2024-09-17T12:00:28.999Z</time>
      </trkpt>
      <trkpt lat="43.07828" lon="0.48529">
        <ele>491.63</ele>
        <time>2024-09-17T12:00:33.999Z</time>
      </trkpt>
      <trkpt lat="43.07837" lon="0.48549">
        <ele>491.59</ele>
        <time>2024-09-17T12:00:38.999Z</time>
      </trkpt>
      <trkpt lat="43.07845" lon="0.48568">
        <ele>491.53</ele>
        <time>2024-09-17T12:00:43.999Z</time>
      </trkpt>
      <trkpt lat="43.07853" lon="0.48585">
        <ele>491.47</ele>
        <time>2024-09-17T12:00:48.999Z</time>
      </trkpt>
      <trkpt lat="43.07865" lon="0.48609">
        <ele>491.04</ele>
        <time>2024-09-17T12:00:53.999Z</time>
      </trkpt>
      <trkpt lat="43.07878" lon="0.48636">
        <ele>490.83</ele>
        <time>2024-09-17T12:00:58.999Z</time>
      </trkpt>
      <trkpt lat="43.07886" lon="0.48654">
        <ele>490.78</ele>
        <time>2024-09-17T12:01:03.999Z</time>
      </trkpt>
      <trkpt lat="43.07892" lon="0.48663">
        <ele>490.73</ele>
        <time>2024-09-17T12:01:39.999Z</time>
      </trkpt>
      <trkpt lat="43.07906" lon="0.48683">
        <ele>490.57</ele>
        <time>2024-09-17T12:01:44.999Z</time>
      </trkpt>
      <trkpt lat="43.07925" lon="0.48701">
        <ele>490.27</ele>
        <time>2024-09-17T12:01:49.999Z</time>
      </trkpt>
      <trkpt lat="43.07948" lon="0.48713">
        <ele>490.1</ele>
        <time>2024-09-17T12:01:54.999Z</time>
      </trkpt>
      <trkpt lat="43.07973" lon="0.48727">
        <ele>489.95</ele>
        <time>2024-09-17T12:01:59.999Z</time>
      </trkpt>
      <trkpt lat="43.07997" lon="0.48741">
        <ele>489.8</ele>
        <time>2024-09-17T12:02:04.999Z</time>
      </trkpt>
      <trkpt lat="43.08019" lon="0.48754">
        <ele>489.63</ele>
        <time>2024-09-17T12:02:09.999Z</time>
      </trkpt>
      <trkpt lat="43.08037" lon="0.48765">
        <ele>489.52</ele>
        <time>2024-09-17T12:02:14.999Z</time>
      </trkpt>
      <trkpt lat="43.08053" lon="0.48774">
        <ele>489.5</ele>
        <time>2024-09-17T12:02:19.999Z</time>
      </trkpt>
      <trkpt lat="43.08068" lon="0.48782">
        <ele>489.49</ele>
        <time>2024-09-17T12:02:24.999Z</time>
      </trkpt>
      <trkpt lat="43.08084" lon="0.48791">
        <ele>489.47</ele>
        <time>2024-09-17T12:02:29.999Z</time>
      </trkpt>
      <trkpt lat="43.08099" lon="0.48799">
        <ele>489.46</ele>
        <time>2024-09-17T12:02:34.999Z</time>
      </trkpt>
      <trkpt lat="43.08114" lon="0.48808">
        <ele>489.46</ele>
        <time>2024-09-17T12:02:39.999Z</time>
      </trkpt>
      <trkpt lat="43.08127" lon="0.48815">
        <ele>489.46</ele>
        <time>2024-09-17T12:02:44.999Z</time>
      </trkpt>
      <trkpt lat="43.08141" lon="0.48823">
        <ele>489.48</ele>
        <time>2024-09-17T12:02:49.999Z</time>
      </trkpt>
      <trkpt lat="43.08154" lon="0.4883">
        <ele>489.51</ele>
        <time>2024-09-17T12:02:54.999Z</time>
      </trkpt>
      <trkpt lat="43.08166" lon="0.48837">
        <ele>489.55</ele>
        <time>2024-09-17T12:02:59.999Z</time>
      </trkpt>
      <trkpt lat="43.08178" lon="0.48846">
        <ele>489.57</ele>
        <time>2024-09-17T12:03:04.999Z</time>
      </trkpt>
      <trkpt lat="43.08191" lon="0.48856">
        <ele>489.59</ele>
        <time>2024-09-17T12:03:09.999Z</time>
      </trkpt>
      <trkpt lat="43.08205" lon="0.48865">
        <ele>489.63</ele>
        <time>2024-09-17T12:03:14.999Z</time>
      </trkpt>
      <trkpt lat="43.08218" lon="0.48875">
        <ele>489.66</ele>
        <time>2024-09-17T12:03:19.999Z</time>
      </trkpt>
      <trkpt lat="43.0823" lon="0.48883">
        <ele>489.7</ele>
        <time>2024-09-17T12:03:24.999Z</time>
      </trkpt>
      <trkpt lat="43.08244" lon="0.48893">
        <ele>489.74</ele>
        <time>2024-09-17T12:03:29.999Z</time>
      </trkpt>
      <trkpt lat="43.08257" lon="0.48905">
        <ele>489.82</ele>
        <time>2024-09-17T12:03:34.999Z</time>
      </trkpt>
      <trkpt lat="43.08268" lon="0.48916">
        <ele>489.96</ele>
        <time>2024-09-17T12:03:39.999Z</time>
      </trkpt>
      <trkpt lat="43.08277" lon="0.4893">
        <ele>490.16</ele>
        <time>2024-09-17T12:03:44.999Z</time>
      </trkpt>
      <trkpt lat="43.08281" lon="0.48947">
        <ele>490.4</ele>
        <time>2024-09-17T12:03:49.999Z</time>
      </trkpt>
      <trkpt lat="43.08279" lon="0.48962">
        <ele>490.65</ele>
        <time>2024-09-17T12:03:54.999Z</time>
      </trkpt>
      <trkpt lat="43.08273" lon="0.48975">
        <ele>490.89</ele>
        <time>2024-09-17T12:03:59.999Z</time>
      </trkpt>
      <trkpt lat="43.08268" lon="0.48987">
        <ele>491.18</ele>
        <time>2024-09-17T12:04:05.999Z</time>
      </trkpt>
      <trkpt lat="43.08262" lon="0.49">
        <ele>491.5</ele>
        <time>2024-09-17T12:04:11.999Z</time>
      </trkpt>
      <trkpt lat="43.08257" lon="0.49012">
        <ele>491.86</ele>
        <time>2024-09-17T12:04:17.999Z</time>
      </trkpt>
      <trkpt lat="43.08253" lon="0.49024">
        <ele>492.16</ele>
        <time>2024-09-17T12:04:22.999Z</time>
      </trkpt>
      <trkpt lat="43.08249" lon="0.49036">
        <ele>492.48</ele>
        <time>2024-09-17T12:04:27.999Z</time>
      </trkpt>
      <trkpt lat="43.08244" lon="0.49049">
        <ele>492.81</ele>
        <time>2024-09-17T12:04:32.999Z</time>
      </trkpt>
      <trkpt lat="43.08241" lon="0.49063">
        <ele>493.23</ele>
        <time>2024-09-17T12:04:38.999Z</time>
      </trkpt>
      <trkpt lat="43.08238" lon="0.49075">
        <ele>493.59</ele>
        <time>2024-09-17T12:04:43.999Z</time>
      </trkpt>
      <trkpt lat="43.08234" lon="0.49088">
        <ele>493.92</ele>
        <time>2024-09-17T12:04:48.999Z</time>
      </trkpt>
      <trkpt lat="43.08229" lon="0.49102">
        <ele>494.23</ele>
        <time>2024-09-17T12:04:53.999Z</time>
      </trkpt>
      <trkpt lat="43.08226" lon="0.49116">
        <ele>494.53</ele>
        <time>2024-09-17T12:04:58.999Z</time>
      </trkpt>
      <trkpt lat="43.08223" lon="0.49131">
        <ele>494.85</ele>
        <time>2024-09-17T12:05:03.999Z</time>
      </trkpt>
      <trkpt lat="43.0822" lon="0.49144">
        <ele>495.18</ele>
        <time>2024-09-17T12:05:08.999Z</time>
      </trkpt>
      <trkpt lat="43.08218" lon="0.49157">
        <ele>495.53</ele>
        <time>2024-09-17T12:05:13.999Z</time>
      </trkpt>
      <trkpt lat="43.08214" lon="0.49171">
        <ele>495.88</ele>
        <time>2024-09-17T12:05:18.999Z</time>
      </trkpt>
      <trkpt lat="43.08212" lon="0.49184">
        <ele>496.25</ele>
        <time>2024-09-17T12:05:23.999Z</time>
      </trkpt>
      <trkpt lat="43.0821" lon="0.49197">
        <ele>496.63</ele>
        <time>2024-09-17T12:05:28.999Z</time>
      </trkpt>
      <trkpt lat="43.08209" lon="0.49211">
        <ele>497.03</ele>
        <time>2024-09-17T12:05:33.999Z</time>
      </trkpt>
      <trkpt lat="43.08207" lon="0.49225">
        <ele>497.48</ele>
        <time>2024-09-17T12:05:38.999Z</time>
      </trkpt>
      <trkpt lat="43.08206" lon="0.49238">
        <ele>497.97</ele>
        <time>2024-09-17T12:05:43.999Z</time>
      </trkpt>
      <trkpt lat="43.08204" lon="0.49251">
        <ele>498.5</ele>
        <time>2024-09-17T12:05:48.999Z</time>
      </trkpt>
      <trkpt lat="43.08203" lon="0.49264">
        <ele>499.07</ele>
        <time>2024-09-17T12:05:53.999Z</time>
      </trkpt>
      <trkpt lat="43.08202" lon="0.49278">
        <ele>499.7</ele>
        <time>2024-09-17T12:05:58.999Z</time>
      </trkpt>
      <trkpt lat="43.08201" lon="0.49293">
        <ele>500.36</ele>
        <time>2024-09-17T12:06:03.999Z</time>
      </trkpt>
      <trkpt lat="43.08199" lon="0.49309">
        <ele>501.03</ele>
        <time>2024-09-17T12:06:08.999Z</time>
      </trkpt>
      <trkpt lat="43.08197" lon="0.49323">
        <ele>501.66</ele>
        <time>2024-09-17T12:06:13.999Z</time>
      </trkpt>
      <trkpt lat="43.08195" lon="0.49336">
        <ele>502.25</ele>
        <time>2024-09-17T12:06:18.999Z</time>
      </trkpt>
      <trkpt lat="43.08194" lon="0.49349">
        <ele>502.82</ele>
        <time>2024-09-17T12:06:23.999Z</time>
      </trkpt>
      <trkpt lat="43.08193" lon="0.49362">
        <ele>503.37</ele>
        <time>2024-09-17T12:06:28.999Z</time>
      </trkpt>
      <trkpt lat="43.08193" lon="0.49375">
        <ele>503.92</ele>
        <time>2024-09-17T12:06:33.999Z</time>
      </trkpt>
      <trkpt lat="43.08194" lon="0.49389">
        <ele>504.49</ele>
        <time>2024-09-17T12:06:38.999Z</time>
      </trkpt>
      <trkpt lat="43.08196" lon="0.49402">
        <ele>505.03</ele>
        <time>2024-09-17T12:06:43.999Z</time>
      </trkpt>
      <trkpt lat="43.08201" lon="0.49414">
        <ele>505.53</ele>
        <time>2024-09-17T12:06:48.999Z</time>
      </trkpt>
      <trkpt lat="43.08208" lon="0.49425">
        <ele>506</ele>
        <time>2024-09-17T12:06:53.999Z</time>
      </trkpt>
      <trkpt lat="43.08215" lon="0.49435">
        <ele>506.46</ele>
        <time>2024-09-17T12:06:58.999Z</time>
      </trkpt>
      <trkpt lat="43.08222" lon="0.49445">
        <ele>506.89</ele>
        <time>2024-09-17T12:07:03.999Z</time>
      </trkpt>
      <trkpt lat="43.0823" lon="0.49458">
        <ele>507.33</ele>
        <time>2024-09-17T12:07:08.999Z</time>
      </trkpt>
      <trkpt lat="43.08239" lon="0.49473">
        <ele>507.79</ele>
        <time>2024-09-17T12:07:13.999Z</time>
      </trkpt>
      <trkpt lat="43.08248" lon="0.49487">
        <ele>508.25</ele>
        <time>2024-09-17T12:07:18.999Z</time>
      </trkpt>
      <trkpt lat="43.08255" lon="0.49499">
        <ele>508.72</ele>
        <time>2024-09-17T12:07:23.999Z</time>
      </trkpt>
      <trkpt lat="43.08263" lon="0.4951">
        <ele>509.18</ele>
        <time>2024-09-17T12:07:28.999Z</time>
      </trkpt>
      <trkpt lat="43.08269" lon="0.49521">
        <ele>510.47</ele>
        <time>2024-09-17T12:08:00.999Z</time>
      </trkpt>
      <trkpt lat="43.08278" lon="0.49536">
        <ele>511.1</ele>
        <time>2024-09-17T12:08:05.999Z</time>
      </trkpt>
      <trkpt lat="43.08289" lon="0.49553">
        <ele>511.71</ele>
        <time>2024-09-17T12:08:10.999Z</time>
      </trkpt>
      <trkpt lat="43.083" lon="0.49571">
        <ele>512.29</ele>
        <time>2024-09-17T12:08:15.999Z</time>
      </trkpt>
      <trkpt lat="43.0831" lon="0.49589">
        <ele>512.84</ele>
        <time>2024-09-17T12:08:20.999Z</time>
      </trkpt>
      <trkpt lat="43.0832" lon="0.49607">
        <ele>513.36</ele>
        <time>2024-09-17T12:08:25.999Z</time>
      </trkpt>
      <trkpt lat="43.08329" lon="0.49627">
        <ele>513.85</ele>
        <time>2024-09-17T12:08:30.999Z</time>
      </trkpt>
      <trkpt lat="43.08337" lon="0.49645">
        <ele>514.32</ele>
        <time>2024-09-17T12:08:35.999Z</time>
      </trkpt>
      <trkpt lat="43.08345" lon="0.49663">
        <ele>514.77</ele>
        <time>2024-09-17T12:08:40.999Z</time>
      </trkpt>
      <trkpt lat="43.08356" lon="0.49688">
        <ele>517.72</ele>
        <time>2024-09-17T12:08:45.999Z</time>
      </trkpt>
      <trkpt lat="43.08366" lon="0.49724">
        <ele>518.91</ele>
        <time>2024-09-17T12:08:50.999Z</time>
      </trkpt>
      <trkpt lat="43.08371" lon="0.49768">
        <ele>519.39</ele>
        <time>2024-09-17T12:08:55.999Z</time>
      </trkpt>
      <trkpt lat="43.0837" lon="0.49815">
        <ele>519.48</ele>
        <time>2024-09-17T12:09:00.999Z</time>
      </trkpt>
      <trkpt lat="43.08365" lon="0.49864">
        <ele>519.27</ele>
        <time>2024-09-17T12:09:05.999Z</time>
      </trkpt>
      <trkpt lat="43.08357" lon="0.49913">
        <ele>519.17</ele>
        <time>2024-09-17T12:09:10.999Z</time>
      </trkpt>
      <trkpt lat="43.0835" lon="0.49964">
        <ele>519.04</ele>
        <time>2024-09-17T12:09:15.999Z</time>
      </trkpt>
      <trkpt lat="43.08353" lon="0.50015">
        <ele>518.78</ele>
        <time>2024-09-17T12:09:20.999Z</time>
      </trkpt>
      <trkpt lat="43.08362" lon="0.50058">
        <ele>518.83</ele>
        <time>2024-09-17T12:09:25.999Z</time>
      </trkpt>
      <trkpt lat="43.08371" lon="0.50093">
        <ele>518.89</ele>
        <time>2024-09-17T12:09:30.999Z</time>
      </trkpt>
      <trkpt lat="43.08379" lon="0.50121">
        <ele>518.85</ele>
        <time>2024-09-17T12:09:35.999Z</time>
      </trkpt>
      <trkpt lat="43.08384" lon="0.50146">
        <ele>518.85</ele>
        <time>2024-09-17T12:09:40.999Z</time>
      </trkpt>
      <trkpt lat="43.08385" lon="0.5017">
        <ele>518.94</ele>
        <time>2024-09-17T12:09:45.999Z</time>
      </trkpt>
      <trkpt lat="43.08381" lon="0.50194">
        <ele>519.69</ele>
        <time>2024-09-17T12:09:50.999Z</time>
      </trkpt>
      <trkpt lat="43.08378" lon="0.50217">
        <ele>519.87</ele>
        <time>2024-09-17T12:09:55.999Z</time>
      </trkpt>
      <trkpt lat="43.08378" lon="0.5024">
        <ele>520.08</ele>
        <time>2024-09-17T12:10:00.999Z</time>
      </trkpt>
      <trkpt lat="43.08377" lon="0.50267">
        <ele>520.36</ele>
        <time>2024-09-17T12:10:05.999Z</time>
      </trkpt>
      <trkpt lat="43.08376" lon="0.50294">
        <ele>519.98</ele>
        <time>2024-09-17T12:10:10.999Z</time>
      </trkpt>
      <trkpt lat="43.08376" lon="0.50324">
        <ele>519.6</ele>
        <time>2024-09-17T12:10:15.999Z</time>
      </trkpt>
      <trkpt lat="43.08373" lon="0.50355">
        <ele>519.27</ele>
        <time>2024-09-17T12:10:20.999Z</time>
      </trkpt>
      <trkpt lat="43.08365" lon="0.50386">
        <ele>519</ele>
        <time>2024-09-17T12:10:25.999Z</time>
      </trkpt>
      <trkpt lat="43.08355" lon="0.50415">
        <ele>518.92</ele>
        <time>2024-09-17T12:10:30.999Z</time>
      </trkpt>
      <trkpt lat="43.08345" lon="0.50445">
        <ele>518.94</ele>
        <time>2024-09-17T12:10:35.999Z</time>
      </trkpt>
      <trkpt lat="43.08337" lon="0.50477">
        <ele>518.93</ele>
        <time>2024-09-17T12:10:40.999Z</time>
      </trkpt>
      <trkpt lat="43.08332" lon="0.5051">
        <ele>518.97</ele>
        <time>2024-09-17T12:10:45.999Z</time>
      </trkpt>
      <trkpt lat="43.08327" lon="0.5055">
        <ele>519.1</ele>
        <time>2024-09-17T12:10:51.000Z</time>
      </trkpt>
      <trkpt lat="43.08326" lon="0.50595">
        <ele>518.98</ele>
        <time>2024-09-17T12:10:56.000Z</time>
      </trkpt>
      <trkpt lat="43.08333" lon="0.50637">
        <ele>518.56</ele>
        <time>2024-09-17T12:11:01.000Z</time>
      </trkpt>
      <trkpt lat="43.08336" lon="0.50677">
        <ele>518.2</ele>
        <time>2024-09-17T12:11:06.000Z</time>
      </trkpt>
      <trkpt lat="43.08331" lon="0.50713">
        <ele>517.82</ele>
        <time>2024-09-17T12:11:11.000Z</time>
      </trkpt>
      <trkpt lat="43.08325" lon="0.50749">
        <ele>517.4</ele>
        <time>2024-09-17T12:11:16.000Z</time>
      </trkpt>
      <trkpt lat="43.08318" lon="0.50787">
        <ele>517.04</ele>
        <time>2024-09-17T12:11:21.000Z</time>
      </trkpt>
      <trkpt lat="43.08312" lon="0.50826">
        <ele>516.77</ele>
        <time>2024-09-17T12:11:26.000Z</time>
      </trkpt>
      <trkpt lat="43.08305" lon="0.50862">
        <ele>516.61</ele>
        <time>2024-09-17T12:11:31.000Z</time>
      </trkpt>
      <trkpt lat="43.083" lon="0.50896">
        <ele>516.55</ele>
        <time>2024-09-17T12:11:36.000Z</time>
      </trkpt>
      <trkpt lat="43.08295" lon="0.50925">
        <ele>516.59</ele>
        <time>2024-09-17T12:11:41.000Z</time>
      </trkpt>
      <trkpt lat="43.08291" lon="0.50954">
        <ele>516.62</ele>
        <time>2024-09-17T12:11:46.000Z</time>
      </trkpt>
      <trkpt lat="43.08287" lon="0.50978">
        <ele>516.68</ele>
        <time>2024-09-17T12:11:51.000Z</time>
      </trkpt>
      <trkpt lat="43.08283" lon="0.51011">
        <ele>516.85</ele>
        <time>2024-09-17T12:11:56.000Z</time>
      </trkpt>
      <trkpt lat="43.0828" lon="0.51046">
        <ele>516.98</ele>
        <time>2024-09-17T12:12:01.000Z</time>
      </trkpt>
      <trkpt lat="43.08278" lon="0.51081">
        <ele>517.05</ele>
        <time>2024-09-17T12:12:06.000Z</time>
      </trkpt>
      <trkpt lat="43.08279" lon="0.51113">
        <ele>516.98</ele>
        <time>2024-09-17T12:12:11.000Z</time>
      </trkpt>
      <trkpt lat="43.0828" lon="0.51145">
        <ele>516.87</ele>
        <time>2024-09-17T12:12:16.000Z</time>
      </trkpt>
      <trkpt lat="43.08282" lon="0.51177">
        <ele>516.77</ele>
        <time>2024-09-17T12:12:21.000Z</time>
      </trkpt>
      <trkpt lat="43.08284" lon="0.5121">
        <ele>516.68</ele>
        <time>2024-09-17T12:12:26.000Z</time>
      </trkpt>
      <trkpt lat="43.08285" lon="0.51243">
        <ele>516.6</ele>
        <time>2024-09-17T12:12:31.000Z</time>
      </trkpt>
      <trkpt lat="43.08286" lon="0.51276">
        <ele>516.51</ele>
        <time>2024-09-17T12:12:36.000Z</time>
      </trkpt>
      <trkpt lat="43.08285" lon="0.5131">
        <ele>516.46</ele>
        <time>2024-09-17T12:12:41.000Z</time>
      </trkpt>
      <trkpt lat="43.08284" lon="0.51342">
        <ele>516.48</ele>
        <time>2024-09-17T12:12:46.000Z</time>
      </trkpt>
      <trkpt lat="43.08281" lon="0.51379">
        <ele>516.52</ele>
        <time>2024-09-17T12:12:51.000Z</time>
      </trkpt>
      <trkpt lat="43.0828" lon="0.51417">
        <ele>516.54</ele>
        <time>2024-09-17T12:12:56.000Z</time>
      </trkpt>
      <trkpt lat="43.08279" lon="0.51456">
        <ele>516.54</ele>
        <time>2024-09-17T12:13:01.000Z</time>
      </trkpt>
      <trkpt lat="43.08277" lon="0.51497">
        <ele>516.51</ele>
        <time>2024-09-17T12:13:06.000Z</time>
      </trkpt>
      <trkpt lat="43.08276" lon="0.51538">
        <ele>516.49</ele>
        <time>2024-09-17T12:13:11.000Z</time>
      </trkpt>
      <trkpt lat="43.08274" lon="0.5158">
        <ele>516.42</ele>
        <time>2024-09-17T12:13:16.000Z</time>
      </trkpt>
      <trkpt lat="43.08273" lon="0.51621">
        <ele>516.2</ele>
        <time>2024-09-17T12:13:21.000Z</time>
      </trkpt>
      <trkpt lat="43.08271" lon="0.5166">
        <ele>516.07</ele>
        <time>2024-09-17T12:13:26.000Z</time>
      </trkpt>
      <trkpt lat="43.08268" lon="0.51698">
        <ele>516.02</ele>
        <time>2024-09-17T12:13:31.000Z</time>
      </trkpt>
      <trkpt lat="43.08265" lon="0.51734">
        <ele>515.89</ele>
        <time>2024-09-17T12:13:36.000Z</time>
      </trkpt>
      <trkpt lat="43.08263" lon="0.51768">
        <ele>515.79</ele>
        <time>2024-09-17T12:13:41.000Z</time>
      </trkpt>
      <trkpt lat="43.08261" lon="0.51804">
        <ele>515.74</ele>
        <time>2024-09-17T12:13:46.000Z</time>
      </trkpt>
      <trkpt lat="43.08258" lon="0.51843">
        <ele>515.11</ele>
        <time>2024-09-17T12:13:51.000Z</time>
      </trkpt>
      <trkpt lat="43.08255" lon="0.51885">
        <ele>514.75</ele>
        <time>2024-09-17T12:13:56.000Z</time>
      </trkpt>
      <trkpt lat="43.08252" lon="0.5193">
        <ele>514.31</ele>
        <time>2024-09-17T12:14:01.000Z</time>
      </trkpt>
      <trkpt lat="43.08249" lon="0.51974">
        <ele>514.1</ele>
        <time>2024-09-17T12:14:06.000Z</time>
      </trkpt>
      <trkpt lat="43.08248" lon="0.52017">
        <ele>513.87</ele>
        <time>2024-09-17T12:14:11.000Z</time>
      </trkpt>
      <trkpt lat="43.08247" lon="0.52056">
        <ele>513.87</ele>
        <time>2024-09-17T12:14:16.000Z</time>
      </trkpt>
      <trkpt lat="43.08247" lon="0.52098">
        <ele>514.39</ele>
        <time>2024-09-17T12:14:21.000Z</time>
      </trkpt>
      <trkpt lat="43.08247" lon="0.5214">
        <ele>515.17</ele>
        <time>2024-09-17T12:14:26.000Z</time>
      </trkpt>
      <trkpt lat="43.08248" lon="0.5218">
        <ele>515.17</ele>
        <time>2024-09-17T12:14:31.000Z</time>
      </trkpt>
      <trkpt lat="43.08247" lon="0.52219">
        <ele>514.56</ele>
        <time>2024-09-17T12:14:36.000Z</time>
      </trkpt>
      <trkpt lat="43.08247" lon="0.52255">
        <ele>513.99</ele>
        <time>2024-09-17T12:14:41.000Z</time>
      </trkpt>
      <trkpt lat="43.08247" lon="0.52292">
        <ele>513.76</ele>
        <time>2024-09-17T12:14:46.000Z</time>
      </trkpt>
      <trkpt lat="43.08248" lon="0.52328">
        <ele>513.22</ele>
        <time>2024-09-17T12:14:51.000Z</time>
      </trkpt>
      <trkpt lat="43.08249" lon="0.52366">
        <ele>512.67</ele>
        <time>2024-09-17T12:14:56.000Z</time>
      </trkpt>
      <trkpt lat="43.0825" lon="0.52404">
        <ele>512.39</ele>
        <time>2024-09-17T12:15:01.000Z</time>
      </trkpt>
      <trkpt lat="43.08251" lon="0.52442">
        <ele>512.23</ele>
        <time>2024-09-17T12:15:06.000Z</time>
      </trkpt>
      <trkpt lat="43.08252" lon="0.52479">
        <ele>512.16</ele>
        <time>2024-09-17T12:15:11.000Z</time>
      </trkpt>
      <trkpt lat="43.08253" lon="0.52516">
        <ele>512.1</ele>
        <time>2024-09-17T12:15:16.000Z</time>
      </trkpt>
      <trkpt lat="43.08255" lon="0.52557">
        <ele>511.96</ele>
        <time>2024-09-17T12:15:21.000Z</time>
      </trkpt>
      <trkpt lat="43.08256" lon="0.52597">
        <ele>511.97</ele>
        <time>2024-09-17T12:15:26.000Z</time>
      </trkpt>
      <trkpt lat="43.0826" lon="0.52638">
        <ele>512.06</ele>
        <time>2024-09-17T12:15:31.000Z</time>
      </trkpt>
      <trkpt lat="43.08263" lon="0.52681">
        <ele>512.09</ele>
        <time>2024-09-17T12:15:36.000Z</time>
      </trkpt>
      <trkpt lat="43.08268" lon="0.52723">
        <ele>512.07</ele>
        <time>2024-09-17T12:15:41.000Z</time>
      </trkpt>
      <trkpt lat="43.08278" lon="0.52763">
        <ele>511.81</ele>
        <time>2024-09-17T12:15:46.000Z</time>
      </trkpt>
      <trkpt lat="43.08292" lon="0.52805">
        <ele>511.2</ele>
        <time>2024-09-17T12:15:51.000Z</time>
      </trkpt>
      <trkpt lat="43.08303" lon="0.52847">
        <ele>510.69</ele>
        <time>2024-09-17T12:15:56.000Z</time>
      </trkpt>
      <trkpt lat="43.08307" lon="0.52888">
        <ele>510.44</ele>
        <time>2024-09-17T12:16:01.000Z</time>
      </trkpt>
      <trkpt lat="43.0831" lon="0.52926">
        <ele>510.3</ele>
        <time>2024-09-17T12:16:06.000Z</time>
      </trkpt>
      <trkpt lat="43.08311" lon="0.52964">
        <ele>510.25</ele>
        <time>2024-09-17T12:16:11.000Z</time>
      </trkpt>
      <trkpt lat="43.08309" lon="0.53001">
        <ele>509.56</ele>
        <time>2024-09-17T12:16:16.000Z</time>
      </trkpt>
      <trkpt lat="43.08307" lon="0.53037">
        <ele>509.13</ele>
        <time>2024-09-17T12:16:21.000Z</time>
      </trkpt>
      <trkpt lat="43.08304" lon="0.53071">
        <ele>508.65</ele>
        <time>2024-09-17T12:16:26.000Z</time>
      </trkpt>
      <trkpt lat="43.083" lon="0.53101">
        <ele>508.27</ele>
        <time>2024-09-17T12:16:31.000Z</time>
      </trkpt>
      <trkpt lat="43.08299" lon="0.53127">
        <ele>508.25</ele>
        <time>2024-09-17T12:16:36.000Z</time>
      </trkpt>
      <trkpt lat="43.08296" lon="0.53164">
        <ele>508.46</ele>
        <time>2024-09-17T12:16:41.000Z</time>
      </trkpt>
      <trkpt lat="43.08292" lon="0.53202">
        <ele>508.52</ele>
        <time>2024-09-17T12:16:46.000Z</time>
      </trkpt>
      <trkpt lat="43.08287" lon="0.5324">
        <ele>508.44</ele>
        <time>2024-09-17T12:16:51.000Z</time>
      </trkpt>
      <trkpt lat="43.08281" lon="0.53281">
        <ele>508.41</ele>
        <time>2024-09-17T12:16:56.000Z</time>
      </trkpt>
      <trkpt lat="43.08277" lon="0.53324">
        <ele>508.11</ele>
        <time>2024-09-17T12:17:01.000Z</time>
      </trkpt>
      <trkpt lat="43.08273" lon="0.53367">
        <ele>507.68</ele>
        <time>2024-09-17T12:17:06.000Z</time>
      </trkpt>
      <trkpt lat="43.08268" lon="0.5341">
        <ele>507.24</ele>
        <time>2024-09-17T12:17:11.000Z</time>
      </trkpt>
      <trkpt lat="43.08263" lon="0.53453">
        <ele>506.9</ele>
        <time>2024-09-17T12:17:16.000Z</time>
      </trkpt>
      <trkpt lat="43.08258" lon="0.53498">
        <ele>506.52</ele>
        <time>2024-09-17T12:17:21.000Z</time>
      </trkpt>
      <trkpt lat="43.08253" lon="0.53542">
        <ele>506.12</ele>
        <time>2024-09-17T12:17:26.000Z</time>
      </trkpt>
      <trkpt lat="43.08248" lon="0.53585">
        <ele>505.87</ele>
        <time>2024-09-17T12:17:31.000Z</time>
      </trkpt>
      <trkpt lat="43.08244" lon="0.53627">
        <ele>505.76</ele>
        <time>2024-09-17T12:17:36.000Z</time>
      </trkpt>
      <trkpt lat="43.0824" lon="0.53667">
        <ele>505.6</ele>
        <time>2024-09-17T12:17:41.000Z</time>
      </trkpt>
      <trkpt lat="43.08235" lon="0.53708">
        <ele>505.46</ele>
        <time>2024-09-17T12:17:46.000Z</time>
      </trkpt>
      <trkpt lat="43.0823" lon="0.53746">
        <ele>505.43</ele>
        <time>2024-09-17T12:17:51.000Z</time>
      </trkpt>
      <trkpt lat="43.08226" lon="0.53785">
        <ele>505.41</ele>
        <time>2024-09-17T12:17:56.000Z</time>
      </trkpt>
      <trkpt lat="43.08243" lon="0.53814">
        <ele>505.28</ele>
        <time>2024-09-17T12:18:01.000Z</time>
      </trkpt>
      <trkpt lat="43.08257" lon="0.53839">
        <ele>505.15</ele>
        <time>2024-09-17T12:18:06.000Z</time>
      </trkpt>
      <trkpt lat="43.08264" lon="0.53863">
        <ele>505.13</ele>
        <time>2024-09-17T12:18:11.000Z</time>
      </trkpt>
      <trkpt lat="43.08265" lon="0.53883">
        <ele>505.13</ele>
        <time>2024-09-17T12:18:16.000Z</time>
      </trkpt>
      <trkpt lat="43.0826" lon="0.53894">
        <ele>509.58</ele>
        <time>2024-09-17T12:48:45.999Z</time>
      </trkpt>
      <trkpt lat="43.08264" lon="0.53907">
        <ele>509.53</ele>
        <time>2024-09-17T12:48:50.999Z</time>
      </trkpt>
      <trkpt lat="43.08266" lon="0.53926">
        <ele>509.48</ele>
        <time>2024-09-17T12:48:55.999Z</time>
      </trkpt>
      <trkpt lat="43.08262" lon="0.53943">
        <ele>509.43</ele>
        <time>2024-09-17T12:49:00.999Z</time>
      </trkpt>
      <trkpt lat="43.08252" lon="0.53954">
        <ele>509.39</ele>
        <time>2024-09-17T12:49:05.999Z</time>
      </trkpt>
      <trkpt lat="43.08255" lon="0.53974">
        <ele>509.35</ele>
        <time>2024-09-17T12:49:10.999Z</time>
      </trkpt>
      <trkpt lat="43.08261" lon="0.53998">
        <ele>509.18</ele>
        <time>2024-09-17T12:49:15.999Z</time>
      </trkpt>
      <trkpt lat="43.08267" lon="0.54023">
        <ele>508.9</ele>
        <time>2024-09-17T12:49:20.999Z</time>
      </trkpt>
      <trkpt lat="43.08273" lon="0.54051">
        <ele>508.72</ele>
        <time>2024-09-17T12:49:25.999Z</time>
      </trkpt>
      <trkpt lat="43.08279" lon="0.5408">
        <ele>508.58</ele>
        <time>2024-09-17T12:49:30.999Z</time>
      </trkpt>
      <trkpt lat="43.08286" lon="0.54108">
        <ele>508.45</ele>
        <time>2024-09-17T12:49:35.999Z</time>
      </trkpt>
      <trkpt lat="43.08292" lon="0.5414">
        <ele>508.31</ele>
        <time>2024-09-17T12:49:40.999Z</time>
      </trkpt>
      <trkpt lat="43.08299" lon="0.54174">
        <ele>508.19</ele>
        <time>2024-09-17T12:49:45.999Z</time>
      </trkpt>
      <trkpt lat="43.08304" lon="0.54209">
        <ele>508.06</ele>
        <time>2024-09-17T12:49:50.999Z</time>
      </trkpt>
      <trkpt lat="43.08305" lon="0.54245">
        <ele>507.93</ele>
        <time>2024-09-17T12:49:55.999Z</time>
      </trkpt>
      <trkpt lat="43.08305" lon="0.54279">
        <ele>507.81</ele>
        <time>2024-09-17T12:50:00.999Z</time>
      </trkpt>
      <trkpt lat="43.08304" lon="0.54312">
        <ele>507.72</ele>
        <time>2024-09-17T12:50:05.999Z</time>
      </trkpt>
      <trkpt lat="43.08303" lon="0.54345">
        <ele>507.68</ele>
        <time>2024-09-17T12:50:10.999Z</time>
      </trkpt>
      <trkpt lat="43.08303" lon="0.54388">
        <ele>507.63</ele>
        <time>2024-09-17T12:50:15.999Z</time>
      </trkpt>
      <trkpt lat="43.08297" lon="0.54426">
        <ele>507.57</ele>
        <time>2024-09-17T12:50:20.999Z</time>
      </trkpt>
      <trkpt lat="43.08297" lon="0.54461">
        <ele>507.52</ele>
        <time>2024-09-17T12:50:25.999Z</time>
      </trkpt>
      <trkpt lat="43.08297" lon="0.54506">
        <ele>507.45</ele>
        <time>2024-09-17T12:50:30.999Z</time>
      </trkpt>
      <trkpt lat="43.08294" lon="0.5455">
        <ele>507.35</ele>
        <time>2024-09-17T12:50:35.999Z</time>
      </trkpt>
      <trkpt lat="43.08294" lon="0.54593">
        <ele>507.24</ele>
        <time>2024-09-17T12:50:40.999Z</time>
      </trkpt>
      <trkpt lat="43.08292" lon="0.54629">
        <ele>507.14</ele>
        <time>2024-09-17T12:50:45.999Z</time>
      </trkpt>
      <trkpt lat="43.08293" lon="0.54664">
        <ele>507.01</ele>
        <time>2024-09-17T12:50:50.999Z</time>
      </trkpt>
      <trkpt lat="43.08295" lon="0.54705">
        <ele>506.89</ele>
        <time>2024-09-17T12:50:55.999Z</time>
      </trkpt>
      <trkpt lat="43.083" lon="0.54748">
        <ele>506.82</ele>
        <time>2024-09-17T12:51:00.999Z</time>
      </trkpt>
      <trkpt lat="43.08301" lon="0.54793">
        <ele>506.73</ele>
        <time>2024-09-17T12:51:05.999Z</time>
      </trkpt>
      <trkpt lat="43.08305" lon="0.54837">
        <ele>506.56</ele>
        <time>2024-09-17T12:51:10.999Z</time>
      </trkpt>
      <trkpt lat="43.08306" lon="0.54881">
        <ele>506.38</ele>
        <time>2024-09-17T12:51:15.999Z</time>
      </trkpt>
      <trkpt lat="43.08308" lon="0.54922">
        <ele>506.2</ele>
        <time>2024-09-17T12:51:20.999Z</time>
      </trkpt>
      <trkpt lat="43.0831" lon="0.54965">
        <ele>505.97</ele>
        <time>2024-09-17T12:51:25.999Z</time>
      </trkpt>
      <trkpt lat="43.08312" lon="0.55007">
        <ele>505.81</ele>
        <time>2024-09-17T12:51:30.999Z</time>
      </trkpt>
      <trkpt lat="43.08316" lon="0.55049">
        <ele>505.75</ele>
        <time>2024-09-17T12:51:35.999Z</time>
      </trkpt>
      <trkpt lat="43.08319" lon="0.55091">
        <ele>505.58</ele>
        <time>2024-09-17T12:51:40.999Z</time>
      </trkpt>
      <trkpt lat="43.08321" lon="0.55134">
        <ele>505.15</ele>
        <time>2024-09-17T12:51:45.999Z</time>
      </trkpt>
      <trkpt lat="43.08323" lon="0.55178">
        <ele>504.78</ele>
        <time>2024-09-17T12:51:50.999Z</time>
      </trkpt>
      <trkpt lat="43.08327" lon="0.55223">
        <ele>504.44</ele>
        <time>2024-09-17T12:51:55.999Z</time>
      </trkpt>
      <trkpt lat="43.0833" lon="0.55266">
        <ele>504.11</ele>
        <time>2024-09-17T12:52:00.999Z</time>
      </trkpt>
      <trkpt lat="43.08338" lon="0.55308">
        <ele>503.96</ele>
        <time>2024-09-17T12:52:05.999Z</time>
      </trkpt>
      <trkpt lat="43.08346" lon="0.55349">
        <ele>503.69</ele>
        <time>2024-09-17T12:52:10.999Z</time>
      </trkpt>
      <trkpt lat="43.08352" lon="0.55389">
        <ele>503.32</ele>
        <time>2024-09-17T12:52:15.999Z</time>
      </trkpt>
      <trkpt lat="43.08355" lon="0.55428">
        <ele>503.2</ele>
        <time>2024-09-17T12:52:20.999Z</time>
      </trkpt>
      <trkpt lat="43.08356" lon="0.55467">
        <ele>502.92</ele>
        <time>2024-09-17T12:52:25.999Z</time>
      </trkpt>
      <trkpt lat="43.08357" lon="0.55505">
        <ele>502.53</ele>
        <time>2024-09-17T12:52:30.999Z</time>
      </trkpt>
      <trkpt lat="43.0836" lon="0.55545">
        <ele>502</ele>
        <time>2024-09-17T12:52:35.999Z</time>
      </trkpt>
      <trkpt lat="43.08364" lon="0.55587">
        <ele>501.65</ele>
        <time>2024-09-17T12:52:40.999Z</time>
      </trkpt>
      <trkpt lat="43.08369" lon="0.5563">
        <ele>501.17</ele>
        <time>2024-09-17T12:52:45.999Z</time>
      </trkpt>
      <trkpt lat="43.08372" lon="0.55674">
        <ele>500.81</ele>
        <time>2024-09-17T12:52:50.999Z</time>
      </trkpt>
      <trkpt lat="43.08378" lon="0.55719">
        <ele>500.55</ele>
        <time>2024-09-17T12:52:55.999Z</time>
      </trkpt>
      <trkpt lat="43.08387" lon="0.55761">
        <ele>500.2</ele>
        <time>2024-09-17T12:53:00.999Z</time>
      </trkpt>
      <trkpt lat="43.08399" lon="0.55799">
        <ele>499.99</ele>
        <time>2024-09-17T12:53:05.999Z</time>
      </trkpt>
      <trkpt lat="43.08414" lon="0.55836">
        <ele>499.42</ele>
        <time>2024-09-17T12:53:10.999Z</time>
      </trkpt>
      <trkpt lat="43.08427" lon="0.55875">
        <ele>498.87</ele>
        <time>2024-09-17T12:53:15.999Z</time>
      </trkpt>
      <trkpt lat="43.08439" lon="0.55915">
        <ele>498.4</ele>
        <time>2024-09-17T12:53:20.999Z</time>
      </trkpt>
      <trkpt lat="43.0845" lon="0.55954">
        <ele>497.89</ele>
        <time>2024-09-17T12:53:25.999Z</time>
      </trkpt>
      <trkpt lat="43.08462" lon="0.55993">
        <ele>497.58</ele>
        <time>2024-09-17T12:53:30.999Z</time>
      </trkpt>
      <trkpt lat="43.08473" lon="0.56028">
        <ele>497.17</ele>
        <time>2024-09-17T12:53:35.999Z</time>
      </trkpt>
      <trkpt lat="43.08484" lon="0.56062">
        <ele>496.23</ele>
        <time>2024-09-17T12:53:40.999Z</time>
      </trkpt>
      <trkpt lat="43.08494" lon="0.56092">
        <ele>495.43</ele>
        <time>2024-09-17T12:53:45.999Z</time>
      </trkpt>
      <trkpt lat="43.08505" lon="0.56119">
        <ele>495.03</ele>
        <time>2024-09-17T12:53:50.999Z</time>
      </trkpt>
      <trkpt lat="43.08508" lon="0.56151">
        <ele>494.8</ele>
        <time>2024-09-17T12:53:55.999Z</time>
      </trkpt>
      <trkpt lat="43.08515" lon="0.56185">
        <ele>494.56</ele>
        <time>2024-09-17T12:54:00.999Z</time>
      </trkpt>
      <trkpt lat="43.08522" lon="0.56219">
        <ele>493.8</ele>
        <time>2024-09-17T12:54:05.999Z</time>
      </trkpt>
      <trkpt lat="43.08531" lon="0.56251">
        <ele>493.1</ele>
        <time>2024-09-17T12:54:10.999Z</time>
      </trkpt>
      <trkpt lat="43.08539" lon="0.56281">
        <ele>492.52</ele>
        <time>2024-09-17T12:54:15.999Z</time>
      </trkpt>
      <trkpt lat="43.08546" lon="0.56311">
        <ele>491.96</ele>
        <time>2024-09-17T12:54:20.999Z</time>
      </trkpt>
      <trkpt lat="43.0854" lon="0.5633">
        <ele>491.57</ele>
        <time>2024-09-17T12:54:25.999Z</time>
      </trkpt>
      <trkpt lat="43.08517" lon="0.56343">
        <ele>491.25</ele>
        <time>2024-09-17T12:54:30.999Z</time>
      </trkpt>
      <trkpt lat="43.08486" lon="0.56365">
        <ele>491</ele>
        <time>2024-09-17T12:54:35.999Z</time>
      </trkpt>
      <trkpt lat="43.08477" lon="0.56414">
        <ele>490.66</ele>
        <time>2024-09-17T12:54:40.999Z</time>
      </trkpt>
      <trkpt lat="43.08494" lon="0.56455">
        <ele>490.12</ele>
        <time>2024-09-17T12:54:45.999Z</time>
      </trkpt>
      <trkpt lat="43.08507" lon="0.56495">
        <ele>489.88</ele>
        <time>2024-09-17T12:54:50.999Z</time>
      </trkpt>
      <trkpt lat="43.08521" lon="0.56533">
        <ele>489.59</ele>
        <time>2024-09-17T12:54:55.999Z</time>
      </trkpt>
      <trkpt lat="43.08531" lon="0.56574">
        <ele>489.01</ele>
        <time>2024-09-17T12:55:00.999Z</time>
      </trkpt>
      <trkpt lat="43.08536" lon="0.56612">
        <ele>488.32</ele>
        <time>2024-09-17T12:55:05.999Z</time>
      </trkpt>
      <trkpt lat="43.08539" lon="0.56646">
        <ele>487.55</ele>
        <time>2024-09-17T12:55:10.999Z</time>
      </trkpt>
      <trkpt lat="43.08538" lon="0.56678">
        <ele>487.27</ele>
        <time>2024-09-17T12:55:15.999Z</time>
      </trkpt>
      <trkpt lat="43.08533" lon="0.56704">
        <ele>487.13</ele>
        <time>2024-09-17T12:55:20.999Z</time>
      </trkpt>
      <trkpt lat="43.08521" lon="0.56734">
        <ele>487.55</ele>
        <time>2024-09-17T12:55:25.999Z</time>
      </trkpt>
      <trkpt lat="43.08509" lon="0.56763">
        <ele>487.81</ele>
        <time>2024-09-17T12:55:30.999Z</time>
      </trkpt>
      <trkpt lat="43.08495" lon="0.56793">
        <ele>487.85</ele>
        <time>2024-09-17T12:55:35.999Z</time>
      </trkpt>
      <trkpt lat="43.08481" lon="0.56824">
        <ele>487.94</ele>
        <time>2024-09-17T12:55:40.999Z</time>
      </trkpt>
      <trkpt lat="43.08469" lon="0.56856">
        <ele>487.02</ele>
        <time>2024-09-17T12:55:45.999Z</time>
      </trkpt>
      <trkpt lat="43.08459" lon="0.56888">
        <ele>485.78</ele>
        <time>2024-09-17T12:55:50.999Z</time>
      </trkpt>
      <trkpt lat="43.08444" lon="0.56922">
        <ele>485.06</ele>
        <time>2024-09-17T12:55:55.999Z</time>
      </trkpt>
      <trkpt lat="43.0843" lon="0.56956">
        <ele>484.39</ele>
        <time>2024-09-17T12:56:00.999Z</time>
      </trkpt>
      <trkpt lat="43.0842" lon="0.56995">
        <ele>484.06</ele>
        <time>2024-09-17T12:56:05.999Z</time>
      </trkpt>
      <trkpt lat="43.08413" lon="0.57032">
        <ele>483.93</ele>
        <time>2024-09-17T12:56:10.999Z</time>
      </trkpt>
      <trkpt lat="43.08417" lon="0.57072">
        <ele>483.91</ele>
        <time>2024-09-17T12:56:15.999Z</time>
      </trkpt>
      <trkpt lat="43.08426" lon="0.571">
        <ele>483.74</ele>
        <time>2024-09-17T12:56:20.999Z</time>
      </trkpt>
      <trkpt lat="43.08424" lon="0.57116">
        <ele>483.65</ele>
        <time>2024-09-17T12:56:25.999Z</time>
      </trkpt>
      <trkpt lat="43.08417" lon="0.5714">
        <ele>483.14</ele>
        <time>2024-09-17T12:56:30.999Z</time>
      </trkpt>
      <trkpt lat="43.08408" lon="0.57163">
        <ele>483.01</ele>
        <time>2024-09-17T12:56:35.999Z</time>
      </trkpt>
      <trkpt lat="43.08403" lon="0.57185">
        <ele>482.63</ele>
        <time>2024-09-17T12:56:40.999Z</time>
      </trkpt>
      <trkpt lat="43.08402" lon="0.572">
        <ele>482.44</ele>
        <time>2024-09-17T12:56:45.999Z</time>
      </trkpt>
      <trkpt lat="43.08409" lon="0.57213">
        <ele>481.84</ele>
        <time>2024-09-17T12:57:04.999Z</time>
      </trkpt>
      <trkpt lat="43.08434" lon="0.57221">
        <ele>479.12</ele>
        <time>2024-09-17T12:57:09.999Z</time>
      </trkpt>
      <trkpt lat="43.08476" lon="0.57227">
        <ele>477.9</ele>
        <time>2024-09-17T12:57:14.999Z</time>
      </trkpt>
      <trkpt lat="43.08519" lon="0.57239">
        <ele>476.75</ele>
        <time>2024-09-17T12:57:19.999Z</time>
      </trkpt>
      <trkpt lat="43.08526" lon="0.57273">
        <ele>474.75</ele>
        <time>2024-09-17T12:57:24.999Z</time>
      </trkpt>
      <trkpt lat="43.08497" lon="0.57317">
        <ele>473.07</ele>
        <time>2024-09-17T12:57:29.999Z</time>
      </trkpt>
      <trkpt lat="43.08466" lon="0.57374">
        <ele>470.03</ele>
        <time>2024-09-17T12:57:34.999Z</time>
      </trkpt>
      <trkpt lat="43.08437" lon="0.57427">
        <ele>466.62</ele>
        <time>2024-09-17T12:57:39.999Z</time>
      </trkpt>
      <trkpt lat="43.08395" lon="0.57468">
        <ele>463.22</ele>
        <time>2024-09-17T12:57:44.999Z</time>
      </trkpt>
      <trkpt lat="43.0836" lon="0.57501">
        <ele>460.23</ele>
        <time>2024-09-17T12:57:49.999Z</time>
      </trkpt>
      <trkpt lat="43.08327" lon="0.57511">
        <ele>457.03</ele>
        <time>2024-09-17T12:57:54.999Z</time>
      </trkpt>
      <trkpt lat="43.08305" lon="0.57514">
        <ele>456.81</ele>
        <time>2024-09-17T12:57:59.999Z</time>
      </trkpt>
      <trkpt lat="43.08296" lon="0.57514">
        <ele>455.35</ele>
        <time>2024-09-17T12:58:59.000Z</time>
      </trkpt>
      <trkpt lat="43.08285" lon="0.57516">
        <ele>453.42</ele>
        <time>2024-09-17T12:59:39.000Z</time>
      </trkpt>
      <trkpt lat="43.08267" lon="0.57517">
        <ele>452.73</ele>
        <time>2024-09-17T12:59:44.000Z</time>
      </trkpt>
      <trkpt lat="43.08254" lon="0.57518">
        <ele>452.06</ele>
        <time>2024-09-17T12:59:49.000Z</time>
      </trkpt>
      <trkpt lat="43.08243" lon="0.57519">
        <ele>449.57</ele>
        <time>2024-09-17T13:00:41.000Z</time>
      </trkpt>
      <trkpt lat="43.08227" lon="0.57523">
        <ele>448.05</ele>
        <time>2024-09-17T13:00:46.000Z</time>
      </trkpt>
      <trkpt lat="43.08207" lon="0.57541">
        <ele>444.23</ele>
        <time>2024-09-17T13:00:51.000Z</time>
      </trkpt>
      <trkpt lat="43.08187" lon="0.57572">
        <ele>442.67</ele>
        <time>2024-09-17T13:00:56.000Z</time>
      </trkpt>
      <trkpt lat="43.08167" lon="0.57605">
        <ele>442.04</ele>
        <time>2024-09-17T13:01:01.000Z</time>
      </trkpt>
      <trkpt lat="43.08147" lon="0.57634">
        <ele>441.75</ele>
        <time>2024-09-17T13:01:06.000Z</time>
      </trkpt>
      <trkpt lat="43.08127" lon="0.57668">
        <ele>441.54</ele>
        <time>2024-09-17T13:01:11.000Z</time>
      </trkpt>
      <trkpt lat="43.08106" lon="0.57707">
        <ele>441.36</ele>
        <time>2024-09-17T13:01:16.000Z</time>
      </trkpt>
      <trkpt lat="43.08087" lon="0.57743">
        <ele>441.1</ele>
        <time>2024-09-17T13:01:21.000Z</time>
      </trkpt>
      <trkpt lat="43.08066" lon="0.57778">
        <ele>440.84</ele>
        <time>2024-09-17T13:01:26.000Z</time>
      </trkpt>
      <trkpt lat="43.08045" lon="0.57814">
        <ele>441.14</ele>
        <time>2024-09-17T13:01:31.000Z</time>
      </trkpt>
      <trkpt lat="43.08024" lon="0.57848">
        <ele>441.27</ele>
        <time>2024-09-17T13:01:36.000Z</time>
      </trkpt>
      <trkpt lat="43.08003" lon="0.57878">
        <ele>441.93</ele>
        <time>2024-09-17T13:01:41.000Z</time>
      </trkpt>
      <trkpt lat="43.07984" lon="0.57913">
        <ele>442.41</ele>
        <time>2024-09-17T13:01:46.000Z</time>
      </trkpt>
      <trkpt lat="43.07962" lon="0.57947">
        <ele>442.47</ele>
        <time>2024-09-17T13:01:51.000Z</time>
      </trkpt>
      <trkpt lat="43.07944" lon="0.57976">
        <ele>441.24</ele>
        <time>2024-09-17T13:01:56.000Z</time>
      </trkpt>
      <trkpt lat="43.07928" lon="0.58005">
        <ele>440.57</ele>
        <time>2024-09-17T13:02:01.000Z</time>
      </trkpt>
      <trkpt lat="43.07914" lon="0.58028">
        <ele>440.32</ele>
        <time>2024-09-17T13:02:06.000Z</time>
      </trkpt>
      <trkpt lat="43.07897" lon="0.58056">
        <ele>440.81</ele>
        <time>2024-09-17T13:02:11.000Z</time>
      </trkpt>
      <trkpt lat="43.07879" lon="0.58085">
        <ele>436.89</ele>
        <time>2024-09-17T13:02:16.000Z</time>
      </trkpt>
      <trkpt lat="43.07865" lon="0.58113">
        <ele>435.6</ele>
        <time>2024-09-17T13:02:21.000Z</time>
      </trkpt>
      <trkpt lat="43.07848" lon="0.58141">
        <ele>435.85</ele>
        <time>2024-09-17T13:02:26.000Z</time>
      </trkpt>
      <trkpt lat="43.0783" lon="0.58169">
        <ele>436.73</ele>
        <time>2024-09-17T13:02:31.000Z</time>
      </trkpt>
      <trkpt lat="43.07814" lon="0.58194">
        <ele>436.91</ele>
        <time>2024-09-17T13:02:36.000Z</time>
      </trkpt>
      <trkpt lat="43.07801" lon="0.58218">
        <ele>436.81</ele>
        <time>2024-09-17T13:02:41.000Z</time>
      </trkpt>
      <trkpt lat="43.07788" lon="0.58238">
        <ele>436.71</ele>
        <time>2024-09-17T13:02:46.000Z</time>
      </trkpt>
      <trkpt lat="43.07777" lon="0.58252">
        <ele>436.68</ele>
        <time>2024-09-17T13:02:51.000Z</time>
      </trkpt>
      <trkpt lat="43.07766" lon="0.58265">
        <ele>436.64</ele>
        <time>2024-09-17T13:02:56.000Z</time>
      </trkpt>
      <trkpt lat="43.07757" lon="0.58278">
        <ele>436.62</ele>
        <time>2024-09-17T13:03:01.000Z</time>
      </trkpt>
      <trkpt lat="43.0775" lon="0.58291">
        <ele>436.62</ele>
        <time>2024-09-17T13:03:06.000Z</time>
      </trkpt>
      <trkpt lat="43.07743" lon="0.58307">
        <ele>436.63</ele>
        <time>2024-09-17T13:03:11.000Z</time>
      </trkpt>
      <trkpt lat="43.0774" lon="0.58325">
        <ele>436.61</ele>
        <time>2024-09-17T13:03:16.000Z</time>
      </trkpt>
      <trkpt lat="43.07737" lon="0.58342">
        <ele>436.57</ele>
        <time>2024-09-17T13:03:21.000Z</time>
      </trkpt>
      <trkpt lat="43.07737" lon="0.58357">
        <ele>436.56</ele>
        <time>2024-09-17T13:03:26.000Z</time>
      </trkpt>
      <trkpt lat="43.07739" lon="0.58372">
        <ele>436.58</ele>
        <time>2024-09-17T13:03:31.000Z</time>
      </trkpt>
      <trkpt lat="43.07745" lon="0.58382">
        <ele>436.68</ele>
        <time>2024-09-17T13:03:37.000Z</time>
      </trkpt>
      <trkpt lat="43.07754" lon="0.58391">
        <ele>436.89</ele>
        <time>2024-09-17T13:04:24.000Z</time>
      </trkpt>
      <trkpt lat="43.07759" lon="0.58408">
        <ele>436.96</ele>
        <time>2024-09-17T13:04:29.000Z</time>
      </trkpt>
      <trkpt lat="43.07765" lon="0.58427">
        <ele>437.06</ele>
        <time>2024-09-17T13:04:34.000Z</time>
      </trkpt>
      <trkpt lat="43.07776" lon="0.58447">
        <ele>437.33</ele>
        <time>2024-09-17T13:04:39.000Z</time>
      </trkpt>
      <trkpt lat="43.0779" lon="0.58468">
        <ele>438.06</ele>
        <time>2024-09-17T13:04:44.000Z</time>
      </trkpt>
      <trkpt lat="43.07792" lon="0.58498">
        <ele>438.42</ele>
        <time>2024-09-17T13:04:49.000Z</time>
      </trkpt>
      <trkpt lat="43.07779" lon="0.58531">
        <ele>438.58</ele>
        <time>2024-09-17T13:04:54.000Z</time>
      </trkpt>
      <trkpt lat="43.07766" lon="0.58561">
        <ele>438.63</ele>
        <time>2024-09-17T13:04:59.000Z</time>
      </trkpt>
      <trkpt lat="43.07754" lon="0.58593">
        <ele>438.67</ele>
        <time>2024-09-17T13:05:04.000Z</time>
      </trkpt>
      <trkpt lat="43.07742" lon="0.58627">
        <ele>438.77</ele>
        <time>2024-09-17T13:05:09.000Z</time>
      </trkpt>
      <trkpt lat="43.07733" lon="0.58662">
        <ele>438.85</ele>
        <time>2024-09-17T13:05:14.000Z</time>
      </trkpt>
      <trkpt lat="43.07728" lon="0.58696">
        <ele>438.89</ele>
        <time>2024-09-17T13:05:19.000Z</time>
      </trkpt>
      <trkpt lat="43.07726" lon="0.58732">
        <ele>438.89</ele>
        <time>2024-09-17T13:05:24.000Z</time>
      </trkpt>
      <trkpt lat="43.07724" lon="0.58768">
        <ele>438.9</ele>
        <time>2024-09-17T13:05:29.000Z</time>
      </trkpt>
      <trkpt lat="43.07723" lon="0.58803">
        <ele>438.94</ele>
        <time>2024-09-17T13:05:34.000Z</time>
      </trkpt>
      <trkpt lat="43.07722" lon="0.58839">
        <ele>439</ele>
        <time>2024-09-17T13:05:39.000Z</time>
      </trkpt>
      <trkpt lat="43.07723" lon="0.58875">
        <ele>439.08</ele>
        <time>2024-09-17T13:05:44.000Z</time>
      </trkpt>
      <trkpt lat="43.07729" lon="0.58909">
        <ele>439.18</ele>
        <time>2024-09-17T13:05:49.000Z</time>
      </trkpt>
      <trkpt lat="43.07735" lon="0.58939">
        <ele>439.27</ele>
        <time>2024-09-17T13:05:54.000Z</time>
      </trkpt>
      <trkpt lat="43.07742" lon="0.5897">
        <ele>439.36</ele>
        <time>2024-09-17T13:05:59.000Z</time>
      </trkpt>
      <trkpt lat="43.07749" lon="0.59002">
        <ele>439.47</ele>
        <time>2024-09-17T13:06:04.000Z</time>
      </trkpt>
      <trkpt lat="43.07755" lon="0.59036">
        <ele>439.55</ele>
        <time>2024-09-17T13:06:09.000Z</time>
      </trkpt>
      <trkpt lat="43.07762" lon="0.59068">
        <ele>439.59</ele>
        <time>2024-09-17T13:06:14.000Z</time>
      </trkpt>
      <trkpt lat="43.07772" lon="0.59105">
        <ele>439.65</ele>
        <time>2024-09-17T13:06:19.000Z</time>
      </trkpt>
      <trkpt lat="43.07791" lon="0.59135">
        <ele>439.71</ele>
        <time>2024-09-17T13:06:24.000Z</time>
      </trkpt>
      <trkpt lat="43.07804" lon="0.59163">
        <ele>439.82</ele>
        <time>2024-09-17T13:06:29.000Z</time>
      </trkpt>
      <trkpt lat="43.07815" lon="0.59187">
        <ele>439.95</ele>
        <time>2024-09-17T13:06:34.000Z</time>
      </trkpt>
      <trkpt lat="43.07825" lon="0.59212">
        <ele>440.05</ele>
        <time>2024-09-17T13:06:39.000Z</time>
      </trkpt>
      <trkpt lat="43.07838" lon="0.59242">
        <ele>440.13</ele>
        <time>2024-09-17T13:06:44.000Z</time>
      </trkpt>
      <trkpt lat="43.07851" lon="0.59273">
        <ele>440.2</ele>
        <time>2024-09-17T13:06:49.000Z</time>
      </trkpt>
      <trkpt lat="43.07859" lon="0.59305">
        <ele>440.29</ele>
        <time>2024-09-17T13:06:54.000Z</time>
      </trkpt>
      <trkpt lat="43.07863" lon="0.59339">
        <ele>440.37</ele>
        <time>2024-09-17T13:06:59.000Z</time>
      </trkpt>
      <trkpt lat="43.07865" lon="0.59375">
        <ele>440.45</ele>
        <time>2024-09-17T13:07:04.000Z</time>
      </trkpt>
      <trkpt lat="43.0788" lon="0.59402">
        <ele>440.52</ele>
        <time>2024-09-17T13:07:09.000Z</time>
      </trkpt>
      <trkpt lat="43.07893" lon="0.59432">
        <ele>440.59</ele>
        <time>2024-09-17T13:07:14.000Z</time>
      </trkpt>
      <trkpt lat="43.07894" lon="0.59467">
        <ele>440.66</ele>
        <time>2024-09-17T13:07:19.000Z</time>
      </trkpt>
      <trkpt lat="43.07873" lon="0.59492">
        <ele>440.73</ele>
        <time>2024-09-17T13:07:24.000Z</time>
      </trkpt>
      <trkpt lat="43.07862" lon="0.59524">
        <ele>440.74</ele>
        <time>2024-09-17T13:07:29.000Z</time>
      </trkpt>
      <trkpt lat="43.07878" lon="0.59547">
        <ele>440.73</ele>
        <time>2024-09-17T13:07:34.000Z</time>
      </trkpt>
      <trkpt lat="43.07898" lon="0.5956">
        <ele>440.75</ele>
        <time>2024-09-17T13:07:39.000Z</time>
      </trkpt>
      <trkpt lat="43.07908" lon="0.59592">
        <ele>440.79</ele>
        <time>2024-09-17T13:07:44.000Z</time>
      </trkpt>
      <trkpt lat="43.07912" lon="0.59629">
        <ele>440.86</ele>
        <time>2024-09-17T13:07:49.000Z</time>
      </trkpt>
      <trkpt lat="43.07915" lon="0.59666">
        <ele>440.92</ele>
        <time>2024-09-17T13:07:54.000Z</time>
      </trkpt>
      <trkpt lat="43.07917" lon="0.597">
        <ele>441</ele>
        <time>2024-09-17T13:07:59.000Z</time>
      </trkpt>
      <trkpt lat="43.07914" lon="0.59735">
        <ele>441.06</ele>
        <time>2024-09-17T13:08:04.000Z</time>
      </trkpt>
      <trkpt lat="43.0792" lon="0.59769">
        <ele>441.09</ele>
        <time>2024-09-17T13:08:09.000Z</time>
      </trkpt>
      <trkpt lat="43.07928" lon="0.59801">
        <ele>441.07</ele>
        <time>2024-09-17T13:08:14.000Z</time>
      </trkpt>
      <trkpt lat="43.07932" lon="0.59831">
        <ele>441.05</ele>
        <time>2024-09-17T13:08:19.000Z</time>
      </trkpt>
      <trkpt lat="43.07937" lon="0.59861">
        <ele>440.98</ele>
        <time>2024-09-17T13:08:24.000Z</time>
      </trkpt>
      <trkpt lat="43.07942" lon="0.59888">
        <ele>440.92</ele>
        <time>2024-09-17T13:08:29.000Z</time>
      </trkpt>
      <trkpt lat="43.07951" lon="0.59918">
        <ele>440.84</ele>
        <time>2024-09-17T13:08:34.000Z</time>
      </trkpt>
      <trkpt lat="43.07959" lon="0.59947">
        <ele>440.78</ele>
        <time>2024-09-17T13:08:39.000Z</time>
      </trkpt>
      <trkpt lat="43.07966" lon="0.59977">
        <ele>440.78</ele>
        <time>2024-09-17T13:08:44.000Z</time>
      </trkpt>
      <trkpt lat="43.07974" lon="0.60009">
        <ele>440.81</ele>
        <time>2024-09-17T13:08:49.000Z</time>
      </trkpt>
      <trkpt lat="43.07979" lon="0.60042">
        <ele>440.86</ele>
        <time>2024-09-17T13:08:54.000Z</time>
      </trkpt>
      <trkpt lat="43.07986" lon="0.60077">
        <ele>440.91</ele>
        <time>2024-09-17T13:08:59.000Z</time>
      </trkpt>
      <trkpt lat="43.08001" lon="0.60115">
        <ele>440.94</ele>
        <time>2024-09-17T13:09:04.000Z</time>
      </trkpt>
      <trkpt lat="43.08026" lon="0.60148">
        <ele>440.9</ele>
        <time>2024-09-17T13:09:09.000Z</time>
      </trkpt>
      <trkpt lat="43.08045" lon="0.60181">
        <ele>440.73</ele>
        <time>2024-09-17T13:09:14.000Z</time>
      </trkpt>
      <trkpt lat="43.08066" lon="0.60211">
        <ele>440.8</ele>
        <time>2024-09-17T13:09:19.000Z</time>
      </trkpt>
      <trkpt lat="43.08085" lon="0.60241">
        <ele>440.72</ele>
        <time>2024-09-17T13:09:24.000Z</time>
      </trkpt>
      <trkpt lat="43.08104" lon="0.60268">
        <ele>440.49</ele>
        <time>2024-09-17T13:09:29.000Z</time>
      </trkpt>
      <trkpt lat="43.08121" lon="0.60295">
        <ele>440.27</ele>
        <time>2024-09-17T13:09:34.000Z</time>
      </trkpt>
      <trkpt lat="43.08136" lon="0.6032">
        <ele>439.97</ele>
        <time>2024-09-17T13:09:39.000Z</time>
      </trkpt>
      <trkpt lat="43.0815" lon="0.60343">
        <ele>439.76</ele>
        <time>2024-09-17T13:09:44.000Z</time>
      </trkpt>
      <trkpt lat="43.08165" lon="0.60366">
        <ele>439.74</ele>
        <time>2024-09-17T13:09:49.000Z</time>
      </trkpt>
      <trkpt lat="43.08178" lon="0.60385">
        <ele>439.75</ele>
        <time>2024-09-17T13:09:54.000Z</time>
      </trkpt>
      <trkpt lat="43.08186" lon="0.60401">
        <ele>439.76</ele>
        <time>2024-09-17T13:09:59.000Z</time>
      </trkpt>
      <trkpt lat="43.08196" lon="0.6042">
        <ele>439.76</ele>
        <time>2024-09-17T13:10:04.000Z</time>
      </trkpt>
      <trkpt lat="43.08205" lon="0.60438">
        <ele>439.77</ele>
        <time>2024-09-17T13:10:09.000Z</time>
      </trkpt>
      <trkpt lat="43.08211" lon="0.60454">
        <ele>439.79</ele>
        <time>2024-09-17T13:10:14.000Z</time>
      </trkpt>
      <trkpt lat="43.0822" lon="0.60469">
        <ele>439.81</ele>
        <time>2024-09-17T13:10:19.000Z</time>
      </trkpt>
      <trkpt lat="43.08227" lon="0.60488">
        <ele>439.82</ele>
        <time>2024-09-17T13:10:24.000Z</time>
      </trkpt>
      <trkpt lat="43.08233" lon="0.60507">
        <ele>439.83</ele>
        <time>2024-09-17T13:10:29.000Z</time>
      </trkpt>
      <trkpt lat="43.08241" lon="0.60526">
        <ele>439.82</ele>
        <time>2024-09-17T13:10:34.000Z</time>
      </trkpt>
      <trkpt lat="43.08246" lon="0.60544">
        <ele>439.81</ele>
        <time>2024-09-17T13:10:39.000Z</time>
      </trkpt>
      <trkpt lat="43.08253" lon="0.60563">
        <ele>439.78</ele>
        <time>2024-09-17T13:10:44.000Z</time>
      </trkpt>
      <trkpt lat="43.08261" lon="0.60586">
        <ele>439.61</ele>
        <time>2024-09-17T13:10:49.000Z</time>
      </trkpt>
      <trkpt lat="43.08271" lon="0.60615">
        <ele>439.47</ele>
        <time>2024-09-17T13:10:54.000Z</time>
      </trkpt>
      <trkpt lat="43.08284" lon="0.60652">
        <ele>439.38</ele>
        <time>2024-09-17T13:10:59.999Z</time>
      </trkpt>
      <trkpt lat="43.08296" lon="0.60684">
        <ele>439.32</ele>
        <time>2024-09-17T13:11:04.999Z</time>
      </trkpt>
      <trkpt lat="43.08308" lon="0.60716">
        <ele>439.23</ele>
        <time>2024-09-17T13:11:09.999Z</time>
      </trkpt>
      <trkpt lat="43.08321" lon="0.60749">
        <ele>439.12</ele>
        <time>2024-09-17T13:11:14.999Z</time>
      </trkpt>
      <trkpt lat="43.08333" lon="0.60779">
        <ele>438.98</ele>
        <time>2024-09-17T13:11:19.999Z</time>
      </trkpt>
      <trkpt lat="43.08345" lon="0.60809">
        <ele>438.87</ele>
        <time>2024-09-17T13:11:24.999Z</time>
      </trkpt>
      <trkpt lat="43.08358" lon="0.60841">
        <ele>438.75</ele>
        <time>2024-09-17T13:11:29.999Z</time>
      </trkpt>
      <trkpt lat="43.08371" lon="0.60874">
        <ele>438.67</ele>
        <time>2024-09-17T13:11:34.999Z</time>
      </trkpt>
      <trkpt lat="43.08384" lon="0.60905">
        <ele>438.59</ele>
        <time>2024-09-17T13:11:39.999Z</time>
      </trkpt>
      <trkpt lat="43.08398" lon="0.60936">
        <ele>438.48</ele>
        <time>2024-09-17T13:11:44.999Z</time>
      </trkpt>
      <trkpt lat="43.08413" lon="0.6097">
        <ele>438.35</ele>
        <time>2024-09-17T13:11:49.999Z</time>
      </trkpt>
      <trkpt lat="43.08433" lon="0.61001">
        <ele>438.25</ele>
        <time>2024-09-17T13:11:54.999Z</time>
      </trkpt>
      <trkpt lat="43.08454" lon="0.6103">
        <ele>438.15</ele>
        <time>2024-09-17T13:11:59.999Z</time>
      </trkpt>
      <trkpt lat="43.08475" lon="0.6106">
        <ele>438.02</ele>
        <time>2024-09-17T13:12:04.999Z</time>
      </trkpt>
      <trkpt lat="43.08494" lon="0.61086">
        <ele>437.92</ele>
        <time>2024-09-17T13:12:09.999Z</time>
      </trkpt>
      <trkpt lat="43.08512" lon="0.61117">
        <ele>437.85</ele>
        <time>2024-09-17T13:12:14.999Z</time>
      </trkpt>
      <trkpt lat="43.08529" lon="0.6115">
        <ele>437.73</ele>
        <time>2024-09-17T13:12:19.999Z</time>
      </trkpt>
      <trkpt lat="43.08541" lon="0.61186">
        <ele>437.64</ele>
        <time>2024-09-17T13:12:24.999Z</time>
      </trkpt>
      <trkpt lat="43.08555" lon="0.61221">
        <ele>437.58</ele>
        <time>2024-09-17T13:12:29.999Z</time>
      </trkpt>
      <trkpt lat="43.08568" lon="0.61258">
        <ele>437.5</ele>
        <time>2024-09-17T13:12:34.999Z</time>
      </trkpt>
      <trkpt lat="43.08582" lon="0.61291">
        <ele>437.42</ele>
        <time>2024-09-17T13:12:39.999Z</time>
      </trkpt>
      <trkpt lat="43.08595" lon="0.61324">
        <ele>437.38</ele>
        <time>2024-09-17T13:12:44.999Z</time>
      </trkpt>
      <trkpt lat="43.08606" lon="0.61358">
        <ele>437.35</ele>
        <time>2024-09-17T13:12:49.999Z</time>
      </trkpt>
      <trkpt lat="43.08618" lon="0.61395">
        <ele>437.29</ele>
        <time>2024-09-17T13:12:54.999Z</time>
      </trkpt>
      <trkpt lat="43.08631" lon="0.6143">
        <ele>437.19</ele>
        <time>2024-09-17T13:12:59.999Z</time>
      </trkpt>
      <trkpt lat="43.08641" lon="0.61464">
        <ele>437.08</ele>
        <time>2024-09-17T13:13:04.999Z</time>
      </trkpt>
      <trkpt lat="43.0865" lon="0.61497">
        <ele>436.97</ele>
        <time>2024-09-17T13:13:09.999Z</time>
      </trkpt>
      <trkpt lat="43.08657" lon="0.61526">
        <ele>436.87</ele>
        <time>2024-09-17T13:13:14.999Z</time>
      </trkpt>
      <trkpt lat="43.08666" lon="0.61552">
        <ele>436.79</ele>
        <time>2024-09-17T13:13:19.999Z</time>
      </trkpt>
      <trkpt lat="43.08677" lon="0.61579">
        <ele>436.72</ele>
        <time>2024-09-17T13:13:24.999Z</time>
      </trkpt>
      <trkpt lat="43.08687" lon="0.61608">
        <ele>436.63</ele>
        <time>2024-09-17T13:13:29.999Z</time>
      </trkpt>
      <trkpt lat="43.08697" lon="0.61637">
        <ele>436.57</ele>
        <time>2024-09-17T13:13:34.999Z</time>
      </trkpt>
      <trkpt lat="43.08708" lon="0.61668">
        <ele>436.49</ele>
        <time>2024-09-17T13:13:39.999Z</time>
      </trkpt>
      <trkpt lat="43.08719" lon="0.61697">
        <ele>436.39</ele>
        <time>2024-09-17T13:13:44.999Z</time>
      </trkpt>
      <trkpt lat="43.08731" lon="0.61728">
        <ele>436.31</ele>
        <time>2024-09-17T13:13:49.999Z</time>
      </trkpt>
      <trkpt lat="43.08741" lon="0.61759">
        <ele>436.21</ele>
        <time>2024-09-17T13:13:54.999Z</time>
      </trkpt>
      <trkpt lat="43.08747" lon="0.61792">
        <ele>436.09</ele>
        <time>2024-09-17T13:13:59.999Z</time>
      </trkpt>
      <trkpt lat="43.08753" lon="0.61827">
        <ele>435.96</ele>
        <time>2024-09-17T13:14:04.999Z</time>
      </trkpt>
      <trkpt lat="43.08761" lon="0.61863">
        <ele>435.79</ele>
        <time>2024-09-17T13:14:09.999Z</time>
      </trkpt>
      <trkpt lat="43.08765" lon="0.61898">
        <ele>435.61</ele>
        <time>2024-09-17T13:14:14.999Z</time>
      </trkpt>
      <trkpt lat="43.08771" lon="0.61928">
        <ele>435.43</ele>
        <time>2024-09-17T13:14:19.999Z</time>
      </trkpt>
      <trkpt lat="43.08779" lon="0.61948">
        <ele>435.33</ele>
        <time>2024-09-17T13:14:24.999Z</time>
      </trkpt>
      <trkpt lat="43.08777" lon="0.61933">
        <ele>435.3</ele>
        <time>2024-09-17T13:14:30.999Z</time>
      </trkpt>
      <trkpt lat="43.08772" lon="0.6192">
        <ele>435.26</ele>
        <time>2024-09-17T13:14:35.999Z</time>
      </trkpt>
      <trkpt lat="43.08769" lon="0.61906">
        <ele>435.22</ele>
        <time>2024-09-17T13:14:40.999Z</time>
      </trkpt>
      <trkpt lat="43.08772" lon="0.61922">
        <ele>434.96</ele>
        <time>2024-09-17T13:15:11.999Z</time>
      </trkpt>
      <trkpt lat="43.08779" lon="0.6195">
        <ele>434.65</ele>
        <time>2024-09-17T13:15:16.999Z</time>
      </trkpt>
      <trkpt lat="43.08785" lon="0.61977">
        <ele>434.46</ele>
        <time>2024-09-17T13:15:21.999Z</time>
      </trkpt>
      <trkpt lat="43.08792" lon="0.62008">
        <ele>434.28</ele>
        <time>2024-09-17T13:15:26.999Z</time>
      </trkpt>
      <trkpt lat="43.088" lon="0.62042">
        <ele>434.11</ele>
        <time>2024-09-17T13:15:31.999Z</time>
      </trkpt>
      <trkpt lat="43.08811" lon="0.62077">
        <ele>433.95</ele>
        <time>2024-09-17T13:15:36.999Z</time>
      </trkpt>
      <trkpt lat="43.08823" lon="0.62113">
        <ele>433.78</ele>
        <time>2024-09-17T13:15:41.999Z</time>
      </trkpt>
      <trkpt lat="43.08835" lon="0.62151">
        <ele>433.63</ele>
        <time>2024-09-17T13:15:46.999Z</time>
      </trkpt>
      <trkpt lat="43.08847" lon="0.62188">
        <ele>433.47</ele>
        <time>2024-09-17T13:15:51.999Z</time>
      </trkpt>
      <trkpt lat="43.08859" lon="0.62225">
        <ele>433.34</ele>
        <time>2024-09-17T13:15:56.999Z</time>
      </trkpt>
      <trkpt lat="43.08872" lon="0.62262">
        <ele>433.18</ele>
        <time>2024-09-17T13:16:01.999Z</time>
      </trkpt>
      <trkpt lat="43.08883" lon="0.62298">
        <ele>433.02</ele>
        <time>2024-09-17T13:16:06.999Z</time>
      </trkpt>
      <trkpt lat="43.08893" lon="0.62338">
        <ele>432.85</ele>
        <time>2024-09-17T13:16:11.999Z</time>
      </trkpt>
      <trkpt lat="43.08907" lon="0.62377">
        <ele>432.68</ele>
        <time>2024-09-17T13:16:16.999Z</time>
      </trkpt>
      <trkpt lat="43.0892" lon="0.62415">
        <ele>432.49</ele>
        <time>2024-09-17T13:16:21.999Z</time>
      </trkpt>
      <trkpt lat="43.08929" lon="0.62453">
        <ele>432.18</ele>
        <time>2024-09-17T13:16:26.999Z</time>
      </trkpt>
      <trkpt lat="43.08933" lon="0.62492">
        <ele>432.02</ele>
        <time>2024-09-17T13:16:31.999Z</time>
      </trkpt>
      <trkpt lat="43.08936" lon="0.62531">
        <ele>431.67</ele>
        <time>2024-09-17T13:16:36.999Z</time>
      </trkpt>
      <trkpt lat="43.08938" lon="0.6257">
        <ele>430.78</ele>
        <time>2024-09-17T13:16:41.999Z</time>
      </trkpt>
      <trkpt lat="43.08941" lon="0.62611">
        <ele>430.26</ele>
        <time>2024-09-17T13:16:46.999Z</time>
      </trkpt>
      <trkpt lat="43.08948" lon="0.62652">
        <ele>430.68</ele>
        <time>2024-09-17T13:16:51.999Z</time>
      </trkpt>
      <trkpt lat="43.08958" lon="0.62692">
        <ele>431.3</ele>
        <time>2024-09-17T13:16:56.999Z</time>
      </trkpt>
      <trkpt lat="43.08972" lon="0.62728">
        <ele>431.52</ele>
        <time>2024-09-17T13:17:01.999Z</time>
      </trkpt>
      <trkpt lat="43.08988" lon="0.62762">
        <ele>431.1</ele>
        <time>2024-09-17T13:17:06.999Z</time>
      </trkpt>
      <trkpt lat="43.08999" lon="0.62794">
        <ele>430.78</ele>
        <time>2024-09-17T13:17:11.999Z</time>
      </trkpt>
      <trkpt lat="43.09011" lon="0.62823">
        <ele>430.03</ele>
        <time>2024-09-17T13:17:16.999Z</time>
      </trkpt>
      <trkpt lat="43.09022" lon="0.62855">
        <ele>429.05</ele>
        <time>2024-09-17T13:17:21.999Z</time>
      </trkpt>
      <trkpt lat="43.09033" lon="0.62893">
        <ele>428.19</ele>
        <time>2024-09-17T13:17:26.999Z</time>
      </trkpt>
      <trkpt lat="43.09041" lon="0.62931">
        <ele>427.61</ele>
        <time>2024-09-17T13:17:31.999Z</time>
      </trkpt>
      <trkpt lat="43.09049" lon="0.6297">
        <ele>427.27</ele>
        <time>2024-09-17T13:17:36.999Z</time>
      </trkpt>
      <trkpt lat="43.09057" lon="0.63008">
        <ele>427.1</ele>
        <time>2024-09-17T13:17:41.999Z</time>
      </trkpt>
      <trkpt lat="43.09069" lon="0.63046">
        <ele>426.71</ele>
        <time>2024-09-17T13:17:46.999Z</time>
      </trkpt>
      <trkpt lat="43.09083" lon="0.63077">
        <ele>426.11</ele>
        <time>2024-09-17T13:17:51.999Z</time>
      </trkpt>
      <trkpt lat="43.09096" lon="0.63103">
        <ele>425.54</ele>
        <time>2024-09-17T13:17:56.999Z</time>
      </trkpt>
      <trkpt lat="43.09108" lon="0.63126">
        <ele>425.1</ele>
        <time>2024-09-17T13:18:01.999Z</time>
      </trkpt>
      <trkpt lat="43.09123" lon="0.63146">
        <ele>424.71</ele>
        <time>2024-09-17T13:18:06.999Z</time>
      </trkpt>
      <trkpt lat="43.09138" lon="0.63162">
        <ele>424.42</ele>
        <time>2024-09-17T13:18:11.999Z</time>
      </trkpt>
      <trkpt lat="43.09155" lon="0.63178">
        <ele>424.19</ele>
        <time>2024-09-17T13:18:16.999Z</time>
      </trkpt>
      <trkpt lat="43.09174" lon="0.63195">
        <ele>423.95</ele>
        <time>2024-09-17T13:18:21.999Z</time>
      </trkpt>
      <trkpt lat="43.09194" lon="0.63208">
        <ele>423.74</ele>
        <time>2024-09-17T13:18:26.999Z</time>
      </trkpt>
      <trkpt lat="43.09221" lon="0.63221">
        <ele>423.54</ele>
        <time>2024-09-17T13:18:31.999Z</time>
      </trkpt>
      <trkpt lat="43.09249" lon="0.63236">
        <ele>423.53</ele>
        <time>2024-09-17T13:18:36.999Z</time>
      </trkpt>
      <trkpt lat="43.09272" lon="0.63263">
        <ele>423.49</ele>
        <time>2024-09-17T13:18:41.999Z</time>
      </trkpt>
      <trkpt lat="43.0929" lon="0.63296">
        <ele>423.36</ele>
        <time>2024-09-17T13:18:46.999Z</time>
      </trkpt>
      <trkpt lat="43.09305" lon="0.63329">
        <ele>423.12</ele>
        <time>2024-09-17T13:18:51.999Z</time>
      </trkpt>
      <trkpt lat="43.0932" lon="0.63358">
        <ele>422.88</ele>
        <time>2024-09-17T13:18:56.999Z</time>
      </trkpt>
      <trkpt lat="43.09339" lon="0.63374">
        <ele>422.73</ele>
        <time>2024-09-17T13:19:01.999Z</time>
      </trkpt>
      <trkpt lat="43.09354" lon="0.63385">
        <ele>422.66</ele>
        <time>2024-09-17T13:19:06.999Z</time>
      </trkpt>
      <trkpt lat="43.09367" lon="0.63393">
        <ele>422.64</ele>
        <time>2024-09-17T13:19:11.999Z</time>
      </trkpt>
      <trkpt lat="43.09379" lon="0.63402">
        <ele>422.61</ele>
        <time>2024-09-17T13:19:16.999Z</time>
      </trkpt>
      <trkpt lat="43.09398" lon="0.63417">
        <ele>422.26</ele>
        <time>2024-09-17T13:19:21.999Z</time>
      </trkpt>
      <trkpt lat="43.09422" lon="0.63431">
        <ele>422.08</ele>
        <time>2024-09-17T13:19:26.999Z</time>
      </trkpt>
      <trkpt lat="43.09447" lon="0.63442">
        <ele>421.99</ele>
        <time>2024-09-17T13:19:31.999Z</time>
      </trkpt>
      <trkpt lat="43.09475" lon="0.63453">
        <ele>421.83</ele>
        <time>2024-09-17T13:19:36.999Z</time>
      </trkpt>
      <trkpt lat="43.09505" lon="0.63467">
        <ele>421.6</ele>
        <time>2024-09-17T13:19:41.999Z</time>
      </trkpt>
      <trkpt lat="43.09537" lon="0.63481">
        <ele>421.36</ele>
        <time>2024-09-17T13:19:46.999Z</time>
      </trkpt>
      <trkpt lat="43.09566" lon="0.63508">
        <ele>421</ele>
        <time>2024-09-17T13:19:51.999Z</time>
      </trkpt>
      <trkpt lat="43.09589" lon="0.63543">
        <ele>420.63</ele>
        <time>2024-09-17T13:19:56.999Z</time>
      </trkpt>
      <trkpt lat="43.09609" lon="0.63579">
        <ele>420.41</ele>
        <time>2024-09-17T13:20:01.999Z</time>
      </trkpt>
      <trkpt lat="43.09626" lon="0.63615">
        <ele>419.18</ele>
        <time>2024-09-17T13:20:06.999Z</time>
      </trkpt>
      <trkpt lat="43.09645" lon="0.63647">
        <ele>418.34</ele>
        <time>2024-09-17T13:20:11.999Z</time>
      </trkpt>
      <trkpt lat="43.09666" lon="0.63676">
        <ele>417.98</ele>
        <time>2024-09-17T13:20:16.999Z</time>
      </trkpt>
      <trkpt lat="43.09687" lon="0.63702">
        <ele>417.48</ele>
        <time>2024-09-17T13:20:21.999Z</time>
      </trkpt>
      <trkpt lat="43.09711" lon="0.63728">
        <ele>416.92</ele>
        <time>2024-09-17T13:20:26.999Z</time>
      </trkpt>
      <trkpt lat="43.09734" lon="0.63755">
        <ele>416.16</ele>
        <time>2024-09-17T13:20:31.999Z</time>
      </trkpt>
      <trkpt lat="43.09757" lon="0.63781">
        <ele>415.79</ele>
        <time>2024-09-17T13:20:36.999Z</time>
      </trkpt>
      <trkpt lat="43.09781" lon="0.63809">
        <ele>415.49</ele>
        <time>2024-09-17T13:20:41.999Z</time>
      </trkpt>
      <trkpt lat="43.09805" lon="0.63839">
        <ele>414.97</ele>
        <time>2024-09-17T13:20:46.999Z</time>
      </trkpt>
      <trkpt lat="43.0983" lon="0.63866">
        <ele>414.54</ele>
        <time>2024-09-17T13:20:51.999Z</time>
      </trkpt>
      <trkpt lat="43.09848" lon="0.63897">
        <ele>414.32</ele>
        <time>2024-09-17T13:20:56.999Z</time>
      </trkpt>
      <trkpt lat="43.09866" lon="0.63929">
        <ele>414.51</ele>
        <time>2024-09-17T13:21:01.999Z</time>
      </trkpt>
      <trkpt lat="43.09884" lon="0.63962">
        <ele>414.67</ele>
        <time>2024-09-17T13:21:06.999Z</time>
      </trkpt>
      <trkpt lat="43.09903" lon="0.63996">
        <ele>414.54</ele>
        <time>2024-09-17T13:21:11.999Z</time>
      </trkpt>
      <trkpt lat="43.09922" lon="0.6403">
        <ele>413.85</ele>
        <time>2024-09-17T13:21:16.999Z</time>
      </trkpt>
      <trkpt lat="43.0994" lon="0.64064">
        <ele>413.01</ele>
        <time>2024-09-17T13:21:21.999Z</time>
      </trkpt>
      <trkpt lat="43.09958" lon="0.64098">
        <ele>412.4</ele>
        <time>2024-09-17T13:21:26.999Z</time>
      </trkpt>
      <trkpt lat="43.09976" lon="0.64133">
        <ele>411.28</ele>
        <time>2024-09-17T13:21:31.999Z</time>
      </trkpt>
      <trkpt lat="43.09992" lon="0.64169">
        <ele>410.94</ele>
        <time>2024-09-17T13:21:36.999Z</time>
      </trkpt>
      <trkpt lat="43.10006" lon="0.64204">
        <ele>410.81</ele>
        <time>2024-09-17T13:21:41.999Z</time>
      </trkpt>
      <trkpt lat="43.10023" lon="0.64237">
        <ele>410.86</ele>
        <time>2024-09-17T13:21:46.999Z</time>
      </trkpt>
      <trkpt lat="43.1004" lon="0.64271">
        <ele>411.04</ele>
        <time>2024-09-17T13:21:51.999Z</time>
      </trkpt>
      <trkpt lat="43.10055" lon="0.64306">
        <ele>410.63</ele>
        <time>2024-09-17T13:21:56.999Z</time>
      </trkpt>
      <trkpt lat="43.10069" lon="0.64337">
        <ele>410.22</ele>
        <time>2024-09-17T13:22:01.999Z</time>
      </trkpt>
      <trkpt lat="43.10082" lon="0.64368">
        <ele>409.76</ele>
        <time>2024-09-17T13:22:06.999Z</time>
      </trkpt>
      <trkpt lat="43.10095" lon="0.64398">
        <ele>409.33</ele>
        <time>2024-09-17T13:22:11.999Z</time>
      </trkpt>
      <trkpt lat="43.10109" lon="0.64429">
        <ele>409.12</ele>
        <time>2024-09-17T13:22:16.999Z</time>
      </trkpt>
      <trkpt lat="43.10123" lon="0.64458">
        <ele>408.94</ele>
        <time>2024-09-17T13:22:21.999Z</time>
      </trkpt>
      <trkpt lat="43.10136" lon="0.64486">
        <ele>408.8</ele>
        <time>2024-09-17T13:22:26.999Z</time>
      </trkpt>
      <trkpt lat="43.1015" lon="0.64516">
        <ele>408.61</ele>
        <time>2024-09-17T13:22:31.999Z</time>
      </trkpt>
      <trkpt lat="43.10164" lon="0.64548">
        <ele>408.44</ele>
        <time>2024-09-17T13:22:36.999Z</time>
      </trkpt>
      <trkpt lat="43.1018" lon="0.64581">
        <ele>408.34</ele>
        <time>2024-09-17T13:22:41.999Z</time>
      </trkpt>
      <trkpt lat="43.10195" lon="0.64614">
        <ele>408.25</ele>
        <time>2024-09-17T13:22:46.999Z</time>
      </trkpt>
      <trkpt lat="43.10211" lon="0.64648">
        <ele>408.13</ele>
        <time>2024-09-17T13:22:51.999Z</time>
      </trkpt>
      <trkpt lat="43.10226" lon="0.6468">
        <ele>408.01</ele>
        <time>2024-09-17T13:22:56.999Z</time>
      </trkpt>
      <trkpt lat="43.10239" lon="0.64718">
        <ele>407.82</ele>
        <time>2024-09-17T13:23:01.999Z</time>
      </trkpt>
      <trkpt lat="43.1025" lon="0.64759">
        <ele>407.59</ele>
        <time>2024-09-17T13:23:07.000Z</time>
      </trkpt>
      <trkpt lat="43.10259" lon="0.64798">
        <ele>407.52</ele>
        <time>2024-09-17T13:23:12.000Z</time>
      </trkpt>
      <trkpt lat="43.10269" lon="0.64837">
        <ele>407.52</ele>
        <time>2024-09-17T13:23:17.000Z</time>
      </trkpt>
      <trkpt lat="43.10278" lon="0.64876">
        <ele>407.34</ele>
        <time>2024-09-17T13:23:22.000Z</time>
      </trkpt>
      <trkpt lat="43.10288" lon="0.64914">
        <ele>407.04</ele>
        <time>2024-09-17T13:23:27.000Z</time>
      </trkpt>
      <trkpt lat="43.10298" lon="0.64955">
        <ele>406.69</ele>
        <time>2024-09-17T13:23:32.000Z</time>
      </trkpt>
      <trkpt lat="43.10308" lon="0.64995">
        <ele>406.38</ele>
        <time>2024-09-17T13:23:37.000Z</time>
      </trkpt>
      <trkpt lat="43.10319" lon="0.65036">
        <ele>405.93</ele>
        <time>2024-09-17T13:23:42.000Z</time>
      </trkpt>
      <trkpt lat="43.10329" lon="0.65077">
        <ele>405.76</ele>
        <time>2024-09-17T13:23:47.000Z</time>
      </trkpt>
      <trkpt lat="43.1034" lon="0.65118">
        <ele>405.53</ele>
        <time>2024-09-17T13:23:52.000Z</time>
      </trkpt>
      <trkpt lat="43.1035" lon="0.65158">
        <ele>405.39</ele>
        <time>2024-09-17T13:23:57.000Z</time>
      </trkpt>
      <trkpt lat="43.10359" lon="0.65195">
        <ele>405.38</ele>
        <time>2024-09-17T13:24:02.000Z</time>
      </trkpt>
      <trkpt lat="43.10369" lon="0.65233">
        <ele>405.16</ele>
        <time>2024-09-17T13:24:07.000Z</time>
      </trkpt>
      <trkpt lat="43.10379" lon="0.65272">
        <ele>404.85</ele>
        <time>2024-09-17T13:24:12.000Z</time>
      </trkpt>
      <trkpt lat="43.10388" lon="0.65314">
        <ele>404.3</ele>
        <time>2024-09-17T13:24:17.000Z</time>
      </trkpt>
      <trkpt lat="43.10398" lon="0.65354">
        <ele>403.66</ele>
        <time>2024-09-17T13:24:22.000Z</time>
      </trkpt>
      <trkpt lat="43.10404" lon="0.65396">
        <ele>403.43</ele>
        <time>2024-09-17T13:24:27.000Z</time>
      </trkpt>
      <trkpt lat="43.10414" lon="0.65435">
        <ele>403.4</ele>
        <time>2024-09-17T13:24:32.000Z</time>
      </trkpt>
      <trkpt lat="43.10423" lon="0.65471">
        <ele>403.97</ele>
        <time>2024-09-17T13:24:37.000Z</time>
      </trkpt>
      <trkpt lat="43.10431" lon="0.65506">
        <ele>405.16</ele>
        <time>2024-09-17T13:24:42.000Z</time>
      </trkpt>
      <trkpt lat="43.10439" lon="0.65539">
        <ele>405.61</ele>
        <time>2024-09-17T13:24:47.000Z</time>
      </trkpt>
      <trkpt lat="43.10446" lon="0.65571">
        <ele>406.07</ele>
        <time>2024-09-17T13:24:52.000Z</time>
      </trkpt>
      <trkpt lat="43.10454" lon="0.65607">
        <ele>405.79</ele>
        <time>2024-09-17T13:24:57.000Z</time>
      </trkpt>
      <trkpt lat="43.10464" lon="0.65647">
        <ele>404.63</ele>
        <time>2024-09-17T13:25:02.000Z</time>
      </trkpt>
      <trkpt lat="43.10473" lon="0.65688">
        <ele>402.87</ele>
        <time>2024-09-17T13:25:07.000Z</time>
      </trkpt>
      <trkpt lat="43.10483" lon="0.65728">
        <ele>401.72</ele>
        <time>2024-09-17T13:25:12.000Z</time>
      </trkpt>
      <trkpt lat="43.1049" lon="0.65765">
        <ele>401.52</ele>
        <time>2024-09-17T13:25:17.000Z</time>
      </trkpt>
      <trkpt lat="43.10496" lon="0.65796">
        <ele>401.39</ele>
        <time>2024-09-17T13:25:22.000Z</time>
      </trkpt>
      <trkpt lat="43.10503" lon="0.65828">
        <ele>401.56</ele>
        <time>2024-09-17T13:25:27.000Z</time>
      </trkpt>
      <trkpt lat="43.1051" lon="0.65861">
        <ele>401.63</ele>
        <time>2024-09-17T13:25:32.000Z</time>
      </trkpt>
      <trkpt lat="43.10517" lon="0.65893">
        <ele>401.82</ele>
        <time>2024-09-17T13:25:37.000Z</time>
      </trkpt>
      <trkpt lat="43.10524" lon="0.65928">
        <ele>401.94</ele>
        <time>2024-09-17T13:25:42.000Z</time>
      </trkpt>
      <trkpt lat="43.10524" lon="0.65961">
        <ele>402.12</ele>
        <time>2024-09-17T13:25:47.000Z</time>
      </trkpt>
      <trkpt lat="43.10514" lon="0.6599">
        <ele>402.16</ele>
        <time>2024-09-17T13:25:52.000Z</time>
      </trkpt>
      <trkpt lat="43.10498" lon="0.66023">
        <ele>402.16</ele>
        <time>2024-09-17T13:25:57.000Z</time>
      </trkpt>
      <trkpt lat="43.10477" lon="0.66054">
        <ele>402.12</ele>
        <time>2024-09-17T13:26:02.000Z</time>
      </trkpt>
      <trkpt lat="43.10454" lon="0.66076">
        <ele>402.12</ele>
        <time>2024-09-17T13:26:07.000Z</time>
      </trkpt>
      <trkpt lat="43.10428" lon="0.66097">
        <ele>402.04</ele>
        <time>2024-09-17T13:26:12.000Z</time>
      </trkpt>
      <trkpt lat="43.10404" lon="0.66119">
        <ele>401.9</ele>
        <time>2024-09-17T13:26:17.000Z</time>
      </trkpt>
      <trkpt lat="43.10383" lon="0.6614">
        <ele>401.77</ele>
        <time>2024-09-17T13:26:22.000Z</time>
      </trkpt>
      <trkpt lat="43.10368" lon="0.66155">
        <ele>401.75</ele>
        <time>2024-09-17T13:26:27.000Z</time>
      </trkpt>
      <trkpt lat="43.10355" lon="0.6617">
        <ele>401.74</ele>
        <time>2024-09-17T13:26:32.000Z</time>
      </trkpt>
      <trkpt lat="43.10341" lon="0.66185">
        <ele>401.72</ele>
        <time>2024-09-17T13:26:37.000Z</time>
      </trkpt>
      <trkpt lat="43.10328" lon="0.66199">
        <ele>401.7</ele>
        <time>2024-09-17T13:26:42.000Z</time>
      </trkpt>
      <trkpt lat="43.10315" lon="0.66214">
        <ele>401.67</ele>
        <time>2024-09-17T13:26:47.000Z</time>
      </trkpt>
      <trkpt lat="43.10299" lon="0.66231">
        <ele>401.64</ele>
        <time>2024-09-17T13:26:52.000Z</time>
      </trkpt>
      <trkpt lat="43.10286" lon="0.66246">
        <ele>401.62</ele>
        <time>2024-09-17T13:26:57.000Z</time>
      </trkpt>
      <trkpt lat="43.10277" lon="0.66258">
        <ele>401.6</ele>
        <time>2024-09-17T13:27:02.000Z</time>
      </trkpt>
      <trkpt lat="43.1027" lon="0.66276">
        <ele>401.59</ele>
        <time>2024-09-17T13:27:07.000Z</time>
      </trkpt>
      <trkpt lat="43.10261" lon="0.66296">
        <ele>401.58</ele>
        <time>2024-09-17T13:27:12.000Z</time>
      </trkpt>
      <trkpt lat="43.10256" lon="0.66311">
        <ele>401.58</ele>
        <time>2024-09-17T13:27:17.000Z</time>
      </trkpt>
      <trkpt lat="43.10249" lon="0.66333">
        <ele>401.58</ele>
        <time>2024-09-17T13:27:22.000Z</time>
      </trkpt>
      <trkpt lat="43.10241" lon="0.66358">
        <ele>401.61</ele>
        <time>2024-09-17T13:27:27.000Z</time>
      </trkpt>
      <trkpt lat="43.10234" lon="0.66384">
        <ele>401.63</ele>
        <time>2024-09-17T13:27:32.000Z</time>
      </trkpt>
      <trkpt lat="43.1023" lon="0.6641">
        <ele>401.66</ele>
        <time>2024-09-17T13:27:37.000Z</time>
      </trkpt>
      <trkpt lat="43.10228" lon="0.66441">
        <ele>401.89</ele>
        <time>2024-09-17T13:27:42.000Z</time>
      </trkpt>
      <trkpt lat="43.10228" lon="0.66474">
        <ele>401.99</ele>
        <time>2024-09-17T13:27:47.000Z</time>
      </trkpt>
      <trkpt lat="43.1023" lon="0.66509">
        <ele>401.97</ele>
        <time>2024-09-17T13:27:52.000Z</time>
      </trkpt>
      <trkpt lat="43.10236" lon="0.66545">
        <ele>401.91</ele>
        <time>2024-09-17T13:27:57.000Z</time>
      </trkpt>
      <trkpt lat="43.10247" lon="0.6658">
        <ele>401.77</ele>
        <time>2024-09-17T13:28:02.000Z</time>
      </trkpt>
      <trkpt lat="43.10257" lon="0.66615">
        <ele>401.57</ele>
        <time>2024-09-17T13:28:07.000Z</time>
      </trkpt>
      <trkpt lat="43.10272" lon="0.66646">
        <ele>401.32</ele>
        <time>2024-09-17T13:28:12.000Z</time>
      </trkpt>
      <trkpt lat="43.10295" lon="0.66678">
        <ele>400.96</ele>
        <time>2024-09-17T13:28:17.000Z</time>
      </trkpt>
      <trkpt lat="43.10301" lon="0.66713">
        <ele>400.46</ele>
        <time>2024-09-17T13:28:22.000Z</time>
      </trkpt>
      <trkpt lat="43.10284" lon="0.66727">
        <ele>400.32</ele>
        <time>2024-09-17T13:28:27.000Z</time>
      </trkpt>
      <trkpt lat="43.10266" lon="0.66738">
        <ele>400.23</ele>
        <time>2024-09-17T13:28:32.000Z</time>
      </trkpt>
      <trkpt lat="43.10248" lon="0.66749">
        <ele>400.19</ele>
        <time>2024-09-17T13:28:37.000Z</time>
      </trkpt>
      <trkpt lat="43.10231" lon="0.6676">
        <ele>400.02</ele>
        <time>2024-09-17T13:28:42.000Z</time>
      </trkpt>
      <trkpt lat="43.10211" lon="0.66775">
        <ele>399.7</ele>
        <time>2024-09-17T13:28:47.000Z</time>
      </trkpt>
      <trkpt lat="43.10193" lon="0.66791">
        <ele>399.58</ele>
        <time>2024-09-17T13:28:52.000Z</time>
      </trkpt>
      <trkpt lat="43.10177" lon="0.66805">
        <ele>399.54</ele>
        <time>2024-09-17T13:28:57.000Z</time>
      </trkpt>
      <trkpt lat="43.10157" lon="0.6682">
        <ele>399.54</ele>
        <time>2024-09-17T13:29:02.000Z</time>
      </trkpt>
      <trkpt lat="43.10139" lon="0.66831">
        <ele>399.5</ele>
        <time>2024-09-17T13:29:07.000Z</time>
      </trkpt>
      <trkpt lat="43.10127" lon="0.66837">
        <ele>399.5</ele>
        <time>2024-09-17T13:29:12.000Z</time>
      </trkpt>
      <trkpt lat="43.10113" lon="0.66842">
        <ele>399.49</ele>
        <time>2024-09-17T13:29:17.000Z</time>
      </trkpt>
      <trkpt lat="43.10095" lon="0.66847">
        <ele>399.48</ele>
        <time>2024-09-17T13:29:22.000Z</time>
      </trkpt>
      <trkpt lat="43.10074" lon="0.66854">
        <ele>399.42</ele>
        <time>2024-09-17T13:29:27.000Z</time>
      </trkpt>
      <trkpt lat="43.1005" lon="0.66859">
        <ele>399.38</ele>
        <time>2024-09-17T13:29:32.000Z</time>
      </trkpt>
      <trkpt lat="43.10034" lon="0.66863">
        <ele>399.37</ele>
        <time>2024-09-17T13:29:37.000Z</time>
      </trkpt>
      <trkpt lat="43.10036" lon="0.66879">
        <ele>399.37</ele>
        <time>2024-09-17T13:29:42.000Z</time>
      </trkpt>
      <trkpt lat="43.1004" lon="0.66902">
        <ele>399.37</ele>
        <time>2024-09-17T13:29:47.000Z</time>
      </trkpt>
      <trkpt lat="43.10046" lon="0.66926">
        <ele>399.32</ele>
        <time>2024-09-17T13:29:52.000Z</time>
      </trkpt>
      <trkpt lat="43.10053" lon="0.66952">
        <ele>399.28</ele>
        <time>2024-09-17T13:29:57.000Z</time>
      </trkpt>
      <trkpt lat="43.10059" lon="0.66976">
        <ele>399.25</ele>
        <time>2024-09-17T13:30:02.000Z</time>
      </trkpt>
      <trkpt lat="43.10066" lon="0.67001">
        <ele>399.24</ele>
        <time>2024-09-17T13:30:07.000Z</time>
      </trkpt>
      <trkpt lat="43.10076" lon="0.67027">
        <ele>399.21</ele>
        <time>2024-09-17T13:30:12.000Z</time>
      </trkpt>
      <trkpt lat="43.10091" lon="0.67056">
        <ele>399.19</ele>
        <time>2024-09-17T13:30:17.000Z</time>
      </trkpt>
      <trkpt lat="43.10105" lon="0.67085">
        <ele>399.16</ele>
        <time>2024-09-17T13:30:22.000Z</time>
      </trkpt>
      <trkpt lat="43.10115" lon="0.6712">
        <ele>399.13</ele>
        <time>2024-09-17T13:30:27.000Z</time>
      </trkpt>
      <trkpt lat="43.10111" lon="0.67153">
        <ele>399.09</ele>
        <time>2024-09-17T13:30:32.000Z</time>
      </trkpt>
      <trkpt lat="43.10098" lon="0.67182">
        <ele>399.04</ele>
        <time>2024-09-17T13:30:37.000Z</time>
      </trkpt>
      <trkpt lat="43.10087" lon="0.67216">
        <ele>399.02</ele>
        <time>2024-09-17T13:30:42.000Z</time>
      </trkpt>
      <trkpt lat="43.10081" lon="0.67255">
        <ele>399</ele>
        <time>2024-09-17T13:30:47.000Z</time>
      </trkpt>
      <trkpt lat="43.1008" lon="0.67292">
        <ele>398.95</ele>
        <time>2024-09-17T13:30:52.000Z</time>
      </trkpt>
      <trkpt lat="43.10082" lon="0.67332">
        <ele>398.91</ele>
        <time>2024-09-17T13:30:57.000Z</time>
      </trkpt>
      <trkpt lat="43.10088" lon="0.67368">
        <ele>398.85</ele>
        <time>2024-09-17T13:31:02.000Z</time>
      </trkpt>
      <trkpt lat="43.10098" lon="0.67403">
        <ele>398.76</ele>
        <time>2024-09-17T13:31:07.000Z</time>
      </trkpt>
      <trkpt lat="43.10113" lon="0.67437">
        <ele>398.68</ele>
        <time>2024-09-17T13:31:12.000Z</time>
      </trkpt>
      <trkpt lat="43.10129" lon="0.67467">
        <ele>398.57</ele>
        <time>2024-09-17T13:31:17.000Z</time>
      </trkpt>
      <trkpt lat="43.10144" lon="0.67496">
        <ele>398.47</ele>
        <time>2024-09-17T13:31:22.000Z</time>
      </trkpt>
      <trkpt lat="43.10142" lon="0.67525">
        <ele>398.4</ele>
        <time>2024-09-17T13:31:27.000Z</time>
      </trkpt>
      <trkpt lat="43.10138" lon="0.67557">
        <ele>398.4</ele>
        <time>2024-09-17T13:31:32.000Z</time>
      </trkpt>
      <trkpt lat="43.10133" lon="0.6759">
        <ele>398.39</ele>
        <time>2024-09-17T13:31:37.000Z</time>
      </trkpt>
      <trkpt lat="43.10126" lon="0.67622">
        <ele>398.37</ele>
        <time>2024-09-17T13:31:42.000Z</time>
      </trkpt>
      <trkpt lat="43.10117" lon="0.67655">
        <ele>398.37</ele>
        <time>2024-09-17T13:31:47.000Z</time>
      </trkpt>
      <trkpt lat="43.1011" lon="0.67684">
        <ele>398.35</ele>
        <time>2024-09-17T13:31:52.000Z</time>
      </trkpt>
      <trkpt lat="43.10106" lon="0.67712">
        <ele>398.3</ele>
        <time>2024-09-17T13:31:57.000Z</time>
      </trkpt>
      <trkpt lat="43.10105" lon="0.6774">
        <ele>398.25</ele>
        <time>2024-09-17T13:32:02.000Z</time>
      </trkpt>
      <trkpt lat="43.10103" lon="0.67769">
        <ele>398.2</ele>
        <time>2024-09-17T13:32:07.000Z</time>
      </trkpt>
      <trkpt lat="43.10087" lon="0.67793">
        <ele>398.11</ele>
        <time>2024-09-17T13:32:12.000Z</time>
      </trkpt>
      <trkpt lat="43.10071" lon="0.67835">
        <ele>397.88</ele>
        <time>2024-09-17T13:32:17.000Z</time>
      </trkpt>
      <trkpt lat="43.10059" lon="0.67878">
        <ele>397.59</ele>
        <time>2024-09-17T13:32:22.000Z</time>
      </trkpt>
      <trkpt lat="43.10049" lon="0.67909">
        <ele>397.47</ele>
        <time>2024-09-17T13:32:27.000Z</time>
      </trkpt>
      <trkpt lat="43.1004" lon="0.67929">
        <ele>397.46</ele>
        <time>2024-09-17T13:32:32.000Z</time>
      </trkpt>
      <trkpt lat="43.10032" lon="0.67945">
        <ele>397.45</ele>
        <time>2024-09-17T13:32:37.000Z</time>
      </trkpt>
      <trkpt lat="43.10021" lon="0.67966">
        <ele>397.46</ele>
        <time>2024-09-17T13:32:42.000Z</time>
      </trkpt>
      <trkpt lat="43.10012" lon="0.67985">
        <ele>397.47</ele>
        <time>2024-09-17T13:32:47.000Z</time>
      </trkpt>
      <trkpt lat="43.10002" lon="0.68003">
        <ele>397.48</ele>
        <time>2024-09-17T13:32:52.000Z</time>
      </trkpt>
      <trkpt lat="43.09989" lon="0.6802">
        <ele>397.47</ele>
        <time>2024-09-17T13:32:57.000Z</time>
      </trkpt>
      <trkpt lat="43.09979" lon="0.68035">
        <ele>397.45</ele>
        <time>2024-09-17T13:33:02.000Z</time>
      </trkpt>
      <trkpt lat="43.09966" lon="0.68053">
        <ele>397.42</ele>
        <time>2024-09-17T13:33:07.000Z</time>
      </trkpt>
      <trkpt lat="43.0995" lon="0.68072">
        <ele>397.37</ele>
        <time>2024-09-17T13:33:12.000Z</time>
      </trkpt>
      <trkpt lat="43.09933" lon="0.68093">
        <ele>397.21</ele>
        <time>2024-09-17T13:33:17.000Z</time>
      </trkpt>
      <trkpt lat="43.09917" lon="0.68111">
        <ele>397.06</ele>
        <time>2024-09-17T13:33:22.000Z</time>
      </trkpt>
      <trkpt lat="43.09906" lon="0.68126">
        <ele>397.01</ele>
        <time>2024-09-17T13:33:27.000Z</time>
      </trkpt>
      <trkpt lat="43.09899" lon="0.68146">
        <ele>396.89</ele>
        <time>2024-09-17T13:33:32.000Z</time>
      </trkpt>
      <trkpt lat="43.09892" lon="0.6818">
        <ele>396.48</ele>
        <time>2024-09-17T13:33:37.000Z</time>
      </trkpt>
      <trkpt lat="43.09884" lon="0.68228">
        <ele>396.09</ele>
        <time>2024-09-17T13:33:42.000Z</time>
      </trkpt>
      <trkpt lat="43.09879" lon="0.68284">
        <ele>395.81</ele>
        <time>2024-09-17T13:33:47.000Z</time>
      </trkpt>
      <trkpt lat="43.09869" lon="0.68335">
        <ele>395.52</ele>
        <time>2024-09-17T13:33:52.000Z</time>
      </trkpt>
      <trkpt lat="43.0986" lon="0.68384">
        <ele>395.3</ele>
        <time>2024-09-17T13:33:57.000Z</time>
      </trkpt>
      <trkpt lat="43.0985" lon="0.68434">
        <ele>394.88</ele>
        <time>2024-09-17T13:34:02.000Z</time>
      </trkpt>
      <trkpt lat="43.0984" lon="0.68485">
        <ele>394.48</ele>
        <time>2024-09-17T13:34:07.000Z</time>
      </trkpt>
      <trkpt lat="43.09831" lon="0.68534">
        <ele>394.13</ele>
        <time>2024-09-17T13:34:12.000Z</time>
      </trkpt>
      <trkpt lat="43.09822" lon="0.68581">
        <ele>393.8</ele>
        <time>2024-09-17T13:34:17.000Z</time>
      </trkpt>
      <trkpt lat="43.09813" lon="0.68627">
        <ele>393.21</ele>
        <time>2024-09-17T13:34:22.000Z</time>
      </trkpt>
      <trkpt lat="43.09804" lon="0.68671">
        <ele>392.93</ele>
        <time>2024-09-17T13:34:27.000Z</time>
      </trkpt>
      <trkpt lat="43.09795" lon="0.68714">
        <ele>392.56</ele>
        <time>2024-09-17T13:34:32.000Z</time>
      </trkpt>
      <trkpt lat="43.09787" lon="0.68754">
        <ele>391.98</ele>
        <time>2024-09-17T13:34:37.000Z</time>
      </trkpt>
      <trkpt lat="43.09779" lon="0.68796">
        <ele>391.55</ele>
        <time>2024-09-17T13:34:42.000Z</time>
      </trkpt>
      <trkpt lat="43.0977" lon="0.6884">
        <ele>391.24</ele>
        <time>2024-09-17T13:34:47.000Z</time>
      </trkpt>
      <trkpt lat="43.09763" lon="0.68881">
        <ele>390.89</ele>
        <time>2024-09-17T13:34:52.000Z</time>
      </trkpt>
      <trkpt lat="43.09756" lon="0.68918">
        <ele>390.01</ele>
        <time>2024-09-17T13:34:57.000Z</time>
      </trkpt>
      <trkpt lat="43.09748" lon="0.68953">
        <ele>388.65</ele>
        <time>2024-09-17T13:35:02.000Z</time>
      </trkpt>
      <trkpt lat="43.0974" lon="0.68996">
        <ele>388.35</ele>
        <time>2024-09-17T13:35:07.000Z</time>
      </trkpt>
      <trkpt lat="43.09729" lon="0.69042">
        <ele>388.5</ele>
        <time>2024-09-17T13:35:12.999Z</time>
      </trkpt>
      <trkpt lat="43.09723" lon="0.69082">
        <ele>388.72</ele>
        <time>2024-09-17T13:35:17.999Z</time>
      </trkpt>
      <trkpt lat="43.09716" lon="0.69117">
        <ele>389.03</ele>
        <time>2024-09-17T13:35:22.999Z</time>
      </trkpt>
      <trkpt lat="43.09708" lon="0.69148">
        <ele>389.25</ele>
        <time>2024-09-17T13:35:27.999Z</time>
      </trkpt>
      <trkpt lat="43.097" lon="0.69177">
        <ele>389.44</ele>
        <time>2024-09-17T13:35:32.999Z</time>
      </trkpt>
      <trkpt lat="43.09693" lon="0.69203">
        <ele>389.7</ele>
        <time>2024-09-17T13:35:37.999Z</time>
      </trkpt>
      <trkpt lat="43.09686" lon="0.69233">
        <ele>389.73</ele>
        <time>2024-09-17T13:35:42.999Z</time>
      </trkpt>
      <trkpt lat="43.0968" lon="0.69264">
        <ele>389.59</ele>
        <time>2024-09-17T13:35:47.999Z</time>
      </trkpt>
      <trkpt lat="43.09673" lon="0.69295">
        <ele>389.5</ele>
        <time>2024-09-17T13:35:52.999Z</time>
      </trkpt>
      <trkpt lat="43.09667" lon="0.69325">
        <ele>389.43</ele>
        <time>2024-09-17T13:35:57.999Z</time>
      </trkpt>
      <trkpt lat="43.09663" lon="0.6936">
        <ele>389.33</ele>
        <time>2024-09-17T13:36:02.999Z</time>
      </trkpt>
      <trkpt lat="43.09662" lon="0.69397">
        <ele>389.2</ele>
        <time>2024-09-17T13:36:07.999Z</time>
      </trkpt>
      <trkpt lat="43.09661" lon="0.69441">
        <ele>389.03</ele>
        <time>2024-09-17T13:36:12.999Z</time>
      </trkpt>
      <trkpt lat="43.09662" lon="0.69487">
        <ele>388.66</ele>
        <time>2024-09-17T13:36:17.999Z</time>
      </trkpt>
      <trkpt lat="43.09667" lon="0.6953">
        <ele>388.32</ele>
        <time>2024-09-17T13:36:22.999Z</time>
      </trkpt>
      <trkpt lat="43.09675" lon="0.69567">
        <ele>387.92</ele>
        <time>2024-09-17T13:36:27.999Z</time>
      </trkpt>
      <trkpt lat="43.09684" lon="0.69602">
        <ele>387.43</ele>
        <time>2024-09-17T13:36:32.999Z</time>
      </trkpt>
      <trkpt lat="43.09692" lon="0.69639">
        <ele>387.12</ele>
        <time>2024-09-17T13:36:37.999Z</time>
      </trkpt>
      <trkpt lat="43.097" lon="0.69676">
        <ele>386.88</ele>
        <time>2024-09-17T13:36:42.999Z</time>
      </trkpt>
      <trkpt lat="43.09709" lon="0.69713">
        <ele>386.38</ele>
        <time>2024-09-17T13:36:47.999Z</time>
      </trkpt>
      <trkpt lat="43.0972" lon="0.69751">
        <ele>385.68</ele>
        <time>2024-09-17T13:36:52.999Z</time>
      </trkpt>
      <trkpt lat="43.09727" lon="0.69789">
        <ele>385.43</ele>
        <time>2024-09-17T13:36:57.999Z</time>
      </trkpt>
      <trkpt lat="43.09731" lon="0.69825">
        <ele>385.47</ele>
        <time>2024-09-17T13:37:02.999Z</time>
      </trkpt>
      <trkpt lat="43.09733" lon="0.69857">
        <ele>385.49</ele>
        <time>2024-09-17T13:37:07.999Z</time>
      </trkpt>
      <trkpt lat="43.09732" lon="0.69886">
        <ele>385.72</ele>
        <time>2024-09-17T13:37:12.999Z</time>
      </trkpt>
      <trkpt lat="43.0973" lon="0.69918">
        <ele>385.66</ele>
        <time>2024-09-17T13:37:17.999Z</time>
      </trkpt>
      <trkpt lat="43.09728" lon="0.69949">
        <ele>385.51</ele>
        <time>2024-09-17T13:37:22.999Z</time>
      </trkpt>
      <trkpt lat="43.09723" lon="0.69983">
        <ele>385.35</ele>
        <time>2024-09-17T13:37:27.999Z</time>
      </trkpt>
      <trkpt lat="43.09719" lon="0.70017">
        <ele>385.24</ele>
        <time>2024-09-17T13:37:32.999Z</time>
      </trkpt>
      <trkpt lat="43.09713" lon="0.70049">
        <ele>385.18</ele>
        <time>2024-09-17T13:37:37.999Z</time>
      </trkpt>
      <trkpt lat="43.0971" lon="0.70078">
        <ele>385.11</ele>
        <time>2024-09-17T13:37:42.999Z</time>
      </trkpt>
      <trkpt lat="43.09701" lon="0.70098">
        <ele>385.06</ele>
        <time>2024-09-17T13:37:47.999Z</time>
      </trkpt>
      <trkpt lat="43.09682" lon="0.70107">
        <ele>384.92</ele>
        <time>2024-09-17T13:37:52.999Z</time>
      </trkpt>
      <trkpt lat="43.09665" lon="0.70121">
        <ele>384.86</ele>
        <time>2024-09-17T13:37:57.999Z</time>
      </trkpt>
      <trkpt lat="43.09665" lon="0.7015">
        <ele>384.71</ele>
        <time>2024-09-17T13:38:02.999Z</time>
      </trkpt>
      <trkpt lat="43.09672" lon="0.70177">
        <ele>384.59</ele>
        <time>2024-09-17T13:38:07.999Z</time>
      </trkpt>
      <trkpt lat="43.09681" lon="0.7021">
        <ele>384.51</ele>
        <time>2024-09-17T13:38:12.999Z</time>
      </trkpt>
      <trkpt lat="43.09691" lon="0.70242">
        <ele>384.47</ele>
        <time>2024-09-17T13:38:17.999Z</time>
      </trkpt>
      <trkpt lat="43.09699" lon="0.7027">
        <ele>384.43</ele>
        <time>2024-09-17T13:38:22.999Z</time>
      </trkpt>
      <trkpt lat="43.09706" lon="0.70296">
        <ele>384.39</ele>
        <time>2024-09-17T13:38:27.999Z</time>
      </trkpt>
      <trkpt lat="43.09714" lon="0.7032">
        <ele>384.39</ele>
        <time>2024-09-17T13:38:32.999Z</time>
      </trkpt>
      <trkpt lat="43.09718" lon="0.70341">
        <ele>384.38</ele>
        <time>2024-09-17T13:38:37.999Z</time>
      </trkpt>
      <trkpt lat="43.09716" lon="0.70362">
        <ele>384.37</ele>
        <time>2024-09-17T13:38:42.999Z</time>
      </trkpt>
      <trkpt lat="43.09711" lon="0.70385">
        <ele>384.34</ele>
        <time>2024-09-17T13:38:47.999Z</time>
      </trkpt>
      <trkpt lat="43.09709" lon="0.70407">
        <ele>384.3</ele>
        <time>2024-09-17T13:38:52.999Z</time>
      </trkpt>
      <trkpt lat="43.09715" lon="0.7043">
        <ele>384.25</ele>
        <time>2024-09-17T13:38:57.999Z</time>
      </trkpt>
      <trkpt lat="43.09723" lon="0.70455">
        <ele>384.02</ele>
        <time>2024-09-17T13:39:02.999Z</time>
      </trkpt>
      <trkpt lat="43.09731" lon="0.70479">
        <ele>383.88</ele>
        <time>2024-09-17T13:39:07.999Z</time>
      </trkpt>
      <trkpt lat="43.09737" lon="0.705">
        <ele>383.77</ele>
        <time>2024-09-17T13:39:12.999Z</time>
      </trkpt>
      <trkpt lat="43.09744" lon="0.70522">
        <ele>383.72</ele>
        <time>2024-09-17T13:39:17.999Z</time>
      </trkpt>
      <trkpt lat="43.09741" lon="0.70545">
        <ele>383.67</ele>
        <time>2024-09-17T13:39:22.999Z</time>
      </trkpt>
      <trkpt lat="43.09733" lon="0.70566">
        <ele>383.63</ele>
        <time>2024-09-17T13:39:27.999Z</time>
      </trkpt>
      <trkpt lat="43.09726" lon="0.70579">
        <ele>383.57</ele>
        <time>2024-09-17T13:39:32.999Z</time>
      </trkpt>
      <trkpt lat="43.09714" lon="0.70592">
        <ele>383.52</ele>
        <time>2024-09-17T13:39:37.999Z</time>
      </trkpt>
      <trkpt lat="43.09704" lon="0.7061">
        <ele>383.38</ele>
        <time>2024-09-17T13:39:42.999Z</time>
      </trkpt>
      <trkpt lat="43.09691" lon="0.70622">
        <ele>383.33</ele>
        <time>2024-09-17T13:39:47.999Z</time>
      </trkpt>
      <trkpt lat="43.09673" lon="0.70626">
        <ele>383.28</ele>
        <time>2024-09-17T13:39:52.999Z</time>
      </trkpt>
      <trkpt lat="43.09654" lon="0.70627">
        <ele>383.23</ele>
        <time>2024-09-17T13:39:57.999Z</time>
      </trkpt>
      <trkpt lat="43.09637" lon="0.70625">
        <ele>383.17</ele>
        <time>2024-09-17T13:40:02.999Z</time>
      </trkpt>
      <trkpt lat="43.09626" lon="0.70622">
        <ele>383.1</ele>
        <time>2024-09-17T13:40:07.999Z</time>
      </trkpt>
      <trkpt lat="43.09617" lon="0.70616">
        <ele>382.93</ele>
        <time>2024-09-17T13:40:21.999Z</time>
      </trkpt>
      <trkpt lat="43.096" lon="0.70617">
        <ele>382.81</ele>
        <time>2024-09-17T13:40:26.999Z</time>
      </trkpt>
      <trkpt lat="43.09585" lon="0.70615">
        <ele>382.7</ele>
        <time>2024-09-17T13:40:31.999Z</time>
      </trkpt>
      <trkpt lat="43.09569" lon="0.70609">
        <ele>382.6</ele>
        <time>2024-09-17T13:40:36.999Z</time>
      </trkpt>
      <trkpt lat="43.09566" lon="0.7059">
        <ele>382.5</ele>
        <time>2024-09-17T13:40:41.999Z</time>
      </trkpt>
      <trkpt lat="43.09565" lon="0.70569">
        <ele>382.4</ele>
        <time>2024-09-17T13:40:46.999Z</time>
      </trkpt>
      <trkpt lat="43.09564" lon="0.70551">
        <ele>382.3</ele>
        <time>2024-09-17T13:40:51.999Z</time>
      </trkpt>
      <trkpt lat="43.09562" lon="0.70531">
        <ele>382.22</ele>
        <time>2024-09-17T13:40:56.999Z</time>
      </trkpt>
      <trkpt lat="43.09557" lon="0.70507">
        <ele>382.15</ele>
        <time>2024-09-17T13:41:01.999Z</time>
      </trkpt>
      <trkpt lat="43.09542" lon="0.70488">
        <ele>381.99</ele>
        <time>2024-09-17T13:41:06.999Z</time>
      </trkpt>
      <trkpt lat="43.09527" lon="0.70473">
        <ele>381.91</ele>
        <time>2024-09-17T13:41:11.999Z</time>
      </trkpt>
      <trkpt lat="43.0951" lon="0.7046">
        <ele>381.87</ele>
        <time>2024-09-17T13:41:16.999Z</time>
      </trkpt>
      <trkpt lat="43.09494" lon="0.7045">
        <ele>381.84</ele>
        <time>2024-09-17T13:41:21.999Z</time>
      </trkpt>
      <trkpt lat="43.09477" lon="0.70439">
        <ele>381.81</ele>
        <time>2024-09-17T13:41:26.999Z</time>
      </trkpt>
      <trkpt lat="43.09462" lon="0.70428">
        <ele>381.8</ele>
        <time>2024-09-17T13:41:31.999Z</time>
      </trkpt>
      <trkpt lat="43.09457" lon="0.70409">
        <ele>381.78</ele>
        <time>2024-09-17T13:41:36.999Z</time>
      </trkpt>
      <trkpt lat="43.09455" lon="0.70383">
        <ele>381.76</ele>
        <time>2024-09-17T13:41:41.999Z</time>
      </trkpt>
      <trkpt lat="43.09456" lon="0.70358">
        <ele>381.75</ele>
        <time>2024-09-17T13:41:46.999Z</time>
      </trkpt>
      <trkpt lat="43.09456" lon="0.70333">
        <ele>381.72</ele>
        <time>2024-09-17T13:41:51.999Z</time>
      </trkpt>
      <trkpt lat="43.09452" lon="0.7031">
        <ele>381.71</ele>
        <time>2024-09-17T13:41:56.999Z</time>
      </trkpt>
      <trkpt lat="43.09449" lon="0.7029">
        <ele>381.71</ele>
        <time>2024-09-17T13:42:01.999Z</time>
      </trkpt>
      <trkpt lat="43.09447" lon="0.70277">
        <ele>381.7</ele>
        <time>2024-09-17T13:42:23.999Z</time>
      </trkpt>
    </trkseg>
  </trk>
</gpx>